<?xml version="1.0" encoding="UTF-8" standalone="no" ?>
<gpx xmlns="http://www.topografix.com/GPX/1/1" xmlns:xsi="http://www.w3.org/2001/XMLSchema-instance" xsi:schemaLocation="http://www.topografix.com/GPX/1/1 http://www.topografix.com/GPX/1/1/gpx.xsd" version="1.1" creator="VisuGPX - https://www.visugpx.com">
  <metadata>
    <name>2018-03-31 Bike ride-Ambérieux-Rancé O 36km</name>
    <desc><![CDATA[2018-03-31 Bike ride-Ambérieux-Rancé O 36km]]></desc>
  </metadata>
  <wpt lat="45.92454" lon="4.73735">
    <ele>174</ele>
    <name><![CDATA[2018-03-31 10:40 (Start)]]></name>
  </wpt>
  <wpt lat="45.92461" lon="4.73716">
    <ele>174</ele>
    <name><![CDATA[2018-03-31 10:40 (End)]]></name>
  </wpt>
  <trk>
    <name><![CDATA[2018-03-31 10:40]]></name>
    <trkseg>
      <trkpt lat="45.92454" lon="4.73735">
        <ele>174</ele>
        <time>2018-03-31T08:40:55.082Z</time>
      </trkpt>
      <trkpt lat="45.92452" lon="4.7373">
        <ele>174</ele>
        <time>2018-03-31T08:40:59.172Z</time>
      </trkpt>
      <trkpt lat="45.92451" lon="4.73727">
        <ele>174</ele>
        <time>2018-03-31T08:41:00.172Z</time>
      </trkpt>
      <trkpt lat="45.9245" lon="4.73716">
        <ele>174</ele>
        <time>2018-03-31T08:41:04Z</time>
      </trkpt>
      <trkpt lat="45.92451" lon="4.73712">
        <ele>174</ele>
        <time>2018-03-31T08:41:05Z</time>
      </trkpt>
      <trkpt lat="45.92458" lon="4.73705">
        <ele>174</ele>
        <time>2018-03-31T08:41:33Z</time>
      </trkpt>
      <trkpt lat="45.92459" lon="4.73704">
        <ele>174</ele>
        <time>2018-03-31T08:41:34Z</time>
      </trkpt>
      <trkpt lat="45.92462" lon="4.73693">
        <ele>174</ele>
        <time>2018-03-31T08:41:39Z</time>
      </trkpt>
      <trkpt lat="45.92463" lon="4.73691">
        <ele>174</ele>
        <time>2018-03-31T08:41:40Z</time>
      </trkpt>
      <trkpt lat="45.92466" lon="4.73679">
        <ele>174</ele>
        <time>2018-03-31T08:41:44Z</time>
      </trkpt>
      <trkpt lat="45.92467" lon="4.73676">
        <ele>174</ele>
        <time>2018-03-31T08:41:45Z</time>
      </trkpt>
      <trkpt lat="45.9247" lon="4.73665">
        <ele>174</ele>
        <time>2018-03-31T08:41:48Z</time>
      </trkpt>
      <trkpt lat="45.92471" lon="4.73662">
        <ele>174</ele>
        <time>2018-03-31T08:41:49Z</time>
      </trkpt>
      <trkpt lat="45.92475" lon="4.73651">
        <ele>174</ele>
        <time>2018-03-31T08:41:52Z</time>
      </trkpt>
      <trkpt lat="45.92478" lon="4.73648">
        <ele>174</ele>
        <time>2018-03-31T08:41:53Z</time>
      </trkpt>
      <trkpt lat="45.92483" lon="4.73643">
        <ele>174</ele>
        <time>2018-03-31T08:41:55Z</time>
      </trkpt>
      <trkpt lat="45.92486" lon="4.73641">
        <ele>174</ele>
        <time>2018-03-31T08:41:56Z</time>
      </trkpt>
      <trkpt lat="45.92489" lon="4.73641">
        <ele>174</ele>
        <time>2018-03-31T08:41:57Z</time>
      </trkpt>
      <trkpt lat="45.92498" lon="4.7364">
        <ele>174</ele>
        <time>2018-03-31T08:41:58Z</time>
      </trkpt>
      <trkpt lat="45.92506" lon="4.7364">
        <ele>174</ele>
        <time>2018-03-31T08:42:00Z</time>
      </trkpt>
      <trkpt lat="45.9251" lon="4.73639">
        <ele>174</ele>
        <time>2018-03-31T08:42:01Z</time>
      </trkpt>
      <trkpt lat="45.92518" lon="4.73639">
        <ele>173</ele>
        <time>2018-03-31T08:42:03Z</time>
      </trkpt>
      <trkpt lat="45.92523" lon="4.7364">
        <ele>173</ele>
        <time>2018-03-31T08:42:04Z</time>
      </trkpt>
      <trkpt lat="45.92529" lon="4.73639">
        <ele>173</ele>
        <time>2018-03-31T08:42:05Z</time>
      </trkpt>
      <trkpt lat="45.92534" lon="4.73639">
        <ele>173</ele>
        <time>2018-03-31T08:42:06Z</time>
      </trkpt>
      <trkpt lat="45.9254" lon="4.73639">
        <ele>173</ele>
        <time>2018-03-31T08:42:07Z</time>
      </trkpt>
      <trkpt lat="45.92545" lon="4.73637">
        <ele>173</ele>
        <time>2018-03-31T08:42:08Z</time>
      </trkpt>
      <trkpt lat="45.9255" lon="4.73636">
        <ele>173</ele>
        <time>2018-03-31T08:42:09Z</time>
      </trkpt>
      <trkpt lat="45.92556" lon="4.73635">
        <ele>173</ele>
        <time>2018-03-31T08:42:10Z</time>
      </trkpt>
      <trkpt lat="45.92561" lon="4.73633">
        <ele>173</ele>
        <time>2018-03-31T08:42:11Z</time>
      </trkpt>
      <trkpt lat="45.92566" lon="4.73632">
        <ele>173</ele>
        <time>2018-03-31T08:42:12Z</time>
      </trkpt>
      <trkpt lat="45.92571" lon="4.7363">
        <ele>173</ele>
        <time>2018-03-31T08:42:13Z</time>
      </trkpt>
      <trkpt lat="45.92578" lon="4.73628">
        <ele>173</ele>
        <time>2018-03-31T08:42:14Z</time>
      </trkpt>
      <trkpt lat="45.92583" lon="4.73627">
        <ele>173</ele>
        <time>2018-03-31T08:42:15Z</time>
      </trkpt>
      <trkpt lat="45.9259" lon="4.73625">
        <ele>172</ele>
        <time>2018-03-31T08:42:16Z</time>
      </trkpt>
      <trkpt lat="45.92595" lon="4.73626">
        <ele>173</ele>
        <time>2018-03-31T08:42:17Z</time>
      </trkpt>
      <trkpt lat="45.926" lon="4.73625">
        <ele>173</ele>
        <time>2018-03-31T08:42:18Z</time>
      </trkpt>
      <trkpt lat="45.92605" lon="4.73625">
        <ele>173</ele>
        <time>2018-03-31T08:42:19Z</time>
      </trkpt>
      <trkpt lat="45.92612" lon="4.73624">
        <ele>173</ele>
        <time>2018-03-31T08:42:20Z</time>
      </trkpt>
      <trkpt lat="45.92617" lon="4.73625">
        <ele>173</ele>
        <time>2018-03-31T08:42:21Z</time>
      </trkpt>
      <trkpt lat="45.92622" lon="4.73628">
        <ele>173</ele>
        <time>2018-03-31T08:42:22Z</time>
      </trkpt>
      <trkpt lat="45.92625" lon="4.73638">
        <ele>173</ele>
        <time>2018-03-31T08:42:23Z</time>
      </trkpt>
      <trkpt lat="45.92629" lon="4.73644">
        <ele>173</ele>
        <time>2018-03-31T08:42:24Z</time>
      </trkpt>
      <trkpt lat="45.92632" lon="4.73651">
        <ele>173</ele>
        <time>2018-03-31T08:42:25Z</time>
      </trkpt>
      <trkpt lat="45.92635" lon="4.73659">
        <ele>173</ele>
        <time>2018-03-31T08:42:26Z</time>
      </trkpt>
      <trkpt lat="45.92638" lon="4.73666">
        <ele>173</ele>
        <time>2018-03-31T08:42:27Z</time>
      </trkpt>
      <trkpt lat="45.92641" lon="4.73673">
        <ele>173</ele>
        <time>2018-03-31T08:42:28Z</time>
      </trkpt>
      <trkpt lat="45.92645" lon="4.73679">
        <ele>173</ele>
        <time>2018-03-31T08:42:29Z</time>
      </trkpt>
      <trkpt lat="45.92649" lon="4.73686">
        <ele>173</ele>
        <time>2018-03-31T08:42:30Z</time>
      </trkpt>
      <trkpt lat="45.92653" lon="4.73691">
        <ele>173</ele>
        <time>2018-03-31T08:42:31Z</time>
      </trkpt>
      <trkpt lat="45.92657" lon="4.73695">
        <ele>173</ele>
        <time>2018-03-31T08:42:32Z</time>
      </trkpt>
      <trkpt lat="45.92663" lon="4.73702">
        <ele>173</ele>
        <time>2018-03-31T08:42:34Z</time>
      </trkpt>
      <trkpt lat="45.92668" lon="4.73704">
        <ele>174</ele>
        <time>2018-03-31T08:42:35Z</time>
      </trkpt>
      <trkpt lat="45.92673" lon="4.73706">
        <ele>174</ele>
        <time>2018-03-31T08:42:36Z</time>
      </trkpt>
      <trkpt lat="45.92679" lon="4.73709">
        <ele>173</ele>
        <time>2018-03-31T08:42:37Z</time>
      </trkpt>
      <trkpt lat="45.92685" lon="4.7371">
        <ele>173</ele>
        <time>2018-03-31T08:42:38Z</time>
      </trkpt>
      <trkpt lat="45.92691" lon="4.73711">
        <ele>173</ele>
        <time>2018-03-31T08:42:39Z</time>
      </trkpt>
      <trkpt lat="45.92696" lon="4.73712">
        <ele>173</ele>
        <time>2018-03-31T08:42:40Z</time>
      </trkpt>
      <trkpt lat="45.92702" lon="4.73713">
        <ele>173</ele>
        <time>2018-03-31T08:42:41Z</time>
      </trkpt>
      <trkpt lat="45.92708" lon="4.73715">
        <ele>173</ele>
        <time>2018-03-31T08:42:42Z</time>
      </trkpt>
      <trkpt lat="45.92713" lon="4.73716">
        <ele>173</ele>
        <time>2018-03-31T08:42:43Z</time>
      </trkpt>
      <trkpt lat="45.92719" lon="4.73718">
        <ele>173</ele>
        <time>2018-03-31T08:42:44Z</time>
      </trkpt>
      <trkpt lat="45.92725" lon="4.73721">
        <ele>173</ele>
        <time>2018-03-31T08:42:45Z</time>
      </trkpt>
      <trkpt lat="45.9273" lon="4.73722">
        <ele>173</ele>
        <time>2018-03-31T08:42:46Z</time>
      </trkpt>
      <trkpt lat="45.92736" lon="4.73724">
        <ele>173</ele>
        <time>2018-03-31T08:42:47Z</time>
      </trkpt>
      <trkpt lat="45.92742" lon="4.73726">
        <ele>173</ele>
        <time>2018-03-31T08:42:48Z</time>
      </trkpt>
      <trkpt lat="45.92748" lon="4.73727">
        <ele>173</ele>
        <time>2018-03-31T08:42:49Z</time>
      </trkpt>
      <trkpt lat="45.92755" lon="4.7373">
        <ele>172</ele>
        <time>2018-03-31T08:42:50Z</time>
      </trkpt>
      <trkpt lat="45.9276" lon="4.7373">
        <ele>172</ele>
        <time>2018-03-31T08:42:51Z</time>
      </trkpt>
      <trkpt lat="45.92766" lon="4.73732">
        <ele>172</ele>
        <time>2018-03-31T08:42:52Z</time>
      </trkpt>
      <trkpt lat="45.9277" lon="4.73735">
        <ele>172</ele>
        <time>2018-03-31T08:42:53Z</time>
      </trkpt>
      <trkpt lat="45.92775" lon="4.73737">
        <ele>172</ele>
        <time>2018-03-31T08:42:55Z</time>
      </trkpt>
      <trkpt lat="45.92779" lon="4.73745">
        <ele>172</ele>
        <time>2018-03-31T08:42:56Z</time>
      </trkpt>
      <trkpt lat="45.92784" lon="4.7375">
        <ele>172</ele>
        <time>2018-03-31T08:42:58Z</time>
      </trkpt>
      <trkpt lat="45.92787" lon="4.73754">
        <ele>173</ele>
        <time>2018-03-31T08:42:59Z</time>
      </trkpt>
      <trkpt lat="45.92791" lon="4.73757">
        <ele>173</ele>
        <time>2018-03-31T08:43:00Z</time>
      </trkpt>
      <trkpt lat="45.92796" lon="4.73758">
        <ele>173</ele>
        <time>2018-03-31T08:43:01Z</time>
      </trkpt>
      <trkpt lat="45.928" lon="4.73761">
        <ele>173</ele>
        <time>2018-03-31T08:43:02Z</time>
      </trkpt>
      <trkpt lat="45.92805" lon="4.73765">
        <ele>173</ele>
        <time>2018-03-31T08:43:03Z</time>
      </trkpt>
      <trkpt lat="45.9281" lon="4.73768">
        <ele>173</ele>
        <time>2018-03-31T08:43:04Z</time>
      </trkpt>
      <trkpt lat="45.92815" lon="4.7377">
        <ele>173</ele>
        <time>2018-03-31T08:43:05Z</time>
      </trkpt>
      <trkpt lat="45.9282" lon="4.73775">
        <ele>173</ele>
        <time>2018-03-31T08:43:06Z</time>
      </trkpt>
      <trkpt lat="45.92826" lon="4.73778">
        <ele>173</ele>
        <time>2018-03-31T08:43:07Z</time>
      </trkpt>
      <trkpt lat="45.9283" lon="4.73783">
        <ele>173</ele>
        <time>2018-03-31T08:43:08Z</time>
      </trkpt>
      <trkpt lat="45.92836" lon="4.73788">
        <ele>173</ele>
        <time>2018-03-31T08:43:09Z</time>
      </trkpt>
      <trkpt lat="45.92841" lon="4.73792">
        <ele>173</ele>
        <time>2018-03-31T08:43:10Z</time>
      </trkpt>
      <trkpt lat="45.92848" lon="4.73797">
        <ele>173</ele>
        <time>2018-03-31T08:43:11Z</time>
      </trkpt>
      <trkpt lat="45.92853" lon="4.73804">
        <ele>173</ele>
        <time>2018-03-31T08:43:12Z</time>
      </trkpt>
      <trkpt lat="45.92856" lon="4.73811">
        <ele>173</ele>
        <time>2018-03-31T08:43:13Z</time>
      </trkpt>
      <trkpt lat="45.92859" lon="4.7382">
        <ele>173</ele>
        <time>2018-03-31T08:43:14Z</time>
      </trkpt>
      <trkpt lat="45.92861" lon="4.73829">
        <ele>173</ele>
        <time>2018-03-31T08:43:15Z</time>
      </trkpt>
      <trkpt lat="45.92864" lon="4.73837">
        <ele>173</ele>
        <time>2018-03-31T08:43:16Z</time>
      </trkpt>
      <trkpt lat="45.92867" lon="4.73845">
        <ele>173</ele>
        <time>2018-03-31T08:43:17Z</time>
      </trkpt>
      <trkpt lat="45.92868" lon="4.73854">
        <ele>173</ele>
        <time>2018-03-31T08:43:18Z</time>
      </trkpt>
      <trkpt lat="45.92877" lon="4.73897">
        <ele>173</ele>
        <time>2018-03-31T08:43:23Z</time>
      </trkpt>
      <trkpt lat="45.9288" lon="4.73906">
        <ele>173</ele>
        <time>2018-03-31T08:43:24Z</time>
      </trkpt>
      <trkpt lat="45.9288" lon="4.73915">
        <ele>173</ele>
        <time>2018-03-31T08:43:25Z</time>
      </trkpt>
      <trkpt lat="45.92881" lon="4.73923">
        <ele>172</ele>
        <time>2018-03-31T08:43:26Z</time>
      </trkpt>
      <trkpt lat="45.92882" lon="4.73932">
        <ele>172</ele>
        <time>2018-03-31T08:43:27Z</time>
      </trkpt>
      <trkpt lat="45.92883" lon="4.7394">
        <ele>172</ele>
        <time>2018-03-31T08:43:28Z</time>
      </trkpt>
      <trkpt lat="45.92884" lon="4.7395">
        <ele>172</ele>
        <time>2018-03-31T08:43:29Z</time>
      </trkpt>
      <trkpt lat="45.92885" lon="4.73959">
        <ele>172</ele>
        <time>2018-03-31T08:43:30Z</time>
      </trkpt>
      <trkpt lat="45.92885" lon="4.73967">
        <ele>172</ele>
        <time>2018-03-31T08:43:31Z</time>
      </trkpt>
      <trkpt lat="45.92885" lon="4.73974">
        <ele>172</ele>
        <time>2018-03-31T08:43:32Z</time>
      </trkpt>
      <trkpt lat="45.92885" lon="4.73981">
        <ele>172</ele>
        <time>2018-03-31T08:43:33Z</time>
      </trkpt>
      <trkpt lat="45.92884" lon="4.73989">
        <ele>172</ele>
        <time>2018-03-31T08:43:34Z</time>
      </trkpt>
      <trkpt lat="45.92884" lon="4.73995">
        <ele>172</ele>
        <time>2018-03-31T08:43:35Z</time>
      </trkpt>
      <trkpt lat="45.92882" lon="4.74002">
        <ele>172</ele>
        <time>2018-03-31T08:43:36Z</time>
      </trkpt>
      <trkpt lat="45.9288" lon="4.74009">
        <ele>172</ele>
        <time>2018-03-31T08:43:37Z</time>
      </trkpt>
      <trkpt lat="45.92878" lon="4.74015">
        <ele>172</ele>
        <time>2018-03-31T08:43:38Z</time>
      </trkpt>
      <trkpt lat="45.92877" lon="4.74022">
        <ele>172</ele>
        <time>2018-03-31T08:43:39Z</time>
      </trkpt>
      <trkpt lat="45.92876" lon="4.74029">
        <ele>172</ele>
        <time>2018-03-31T08:43:40Z</time>
      </trkpt>
      <trkpt lat="45.92874" lon="4.74035">
        <ele>172</ele>
        <time>2018-03-31T08:43:41Z</time>
      </trkpt>
      <trkpt lat="45.92872" lon="4.74041">
        <ele>172</ele>
        <time>2018-03-31T08:43:42Z</time>
      </trkpt>
      <trkpt lat="45.92869" lon="4.74047">
        <ele>172</ele>
        <time>2018-03-31T08:43:43Z</time>
      </trkpt>
      <trkpt lat="45.92864" lon="4.74049">
        <ele>172</ele>
        <time>2018-03-31T08:43:44Z</time>
      </trkpt>
      <trkpt lat="45.9286" lon="4.74053">
        <ele>172</ele>
        <time>2018-03-31T08:43:45Z</time>
      </trkpt>
      <trkpt lat="45.92855" lon="4.74058">
        <ele>172</ele>
        <time>2018-03-31T08:43:46Z</time>
      </trkpt>
      <trkpt lat="45.92852" lon="4.74064">
        <ele>172</ele>
        <time>2018-03-31T08:43:47Z</time>
      </trkpt>
      <trkpt lat="45.92847" lon="4.74068">
        <ele>172</ele>
        <time>2018-03-31T08:43:48Z</time>
      </trkpt>
      <trkpt lat="45.92843" lon="4.74073">
        <ele>172</ele>
        <time>2018-03-31T08:43:49Z</time>
      </trkpt>
      <trkpt lat="45.92839" lon="4.74078">
        <ele>171</ele>
        <time>2018-03-31T08:43:50Z</time>
      </trkpt>
      <trkpt lat="45.92835" lon="4.74082">
        <ele>171</ele>
        <time>2018-03-31T08:43:51Z</time>
      </trkpt>
      <trkpt lat="45.92831" lon="4.74085">
        <ele>171</ele>
        <time>2018-03-31T08:43:52Z</time>
      </trkpt>
      <trkpt lat="45.92826" lon="4.7409">
        <ele>171</ele>
        <time>2018-03-31T08:43:53Z</time>
      </trkpt>
      <trkpt lat="45.92822" lon="4.74095">
        <ele>171</ele>
        <time>2018-03-31T08:43:54Z</time>
      </trkpt>
      <trkpt lat="45.92818" lon="4.741">
        <ele>171</ele>
        <time>2018-03-31T08:43:55Z</time>
      </trkpt>
      <trkpt lat="45.92813" lon="4.74104">
        <ele>172</ele>
        <time>2018-03-31T08:43:56Z</time>
      </trkpt>
      <trkpt lat="45.92809" lon="4.74108">
        <ele>172</ele>
        <time>2018-03-31T08:43:57Z</time>
      </trkpt>
      <trkpt lat="45.92804" lon="4.74112">
        <ele>172</ele>
        <time>2018-03-31T08:43:58Z</time>
      </trkpt>
      <trkpt lat="45.928" lon="4.74116">
        <ele>172</ele>
        <time>2018-03-31T08:43:59Z</time>
      </trkpt>
      <trkpt lat="45.92796" lon="4.74122">
        <ele>172</ele>
        <time>2018-03-31T08:44:00Z</time>
      </trkpt>
      <trkpt lat="45.92791" lon="4.74127">
        <ele>172</ele>
        <time>2018-03-31T08:44:01Z</time>
      </trkpt>
      <trkpt lat="45.92787" lon="4.74131">
        <ele>172</ele>
        <time>2018-03-31T08:44:02Z</time>
      </trkpt>
      <trkpt lat="45.92783" lon="4.74135">
        <ele>172</ele>
        <time>2018-03-31T08:44:03Z</time>
      </trkpt>
      <trkpt lat="45.92778" lon="4.74139">
        <ele>172</ele>
        <time>2018-03-31T08:44:04Z</time>
      </trkpt>
      <trkpt lat="45.92774" lon="4.74143">
        <ele>172</ele>
        <time>2018-03-31T08:44:05Z</time>
      </trkpt>
      <trkpt lat="45.9277" lon="4.74148">
        <ele>172</ele>
        <time>2018-03-31T08:44:06Z</time>
      </trkpt>
      <trkpt lat="45.92765" lon="4.74153">
        <ele>172</ele>
        <time>2018-03-31T08:44:07Z</time>
      </trkpt>
      <trkpt lat="45.92761" lon="4.74158">
        <ele>172</ele>
        <time>2018-03-31T08:44:08Z</time>
      </trkpt>
      <trkpt lat="45.92757" lon="4.74163">
        <ele>172</ele>
        <time>2018-03-31T08:44:09Z</time>
      </trkpt>
      <trkpt lat="45.92753" lon="4.74168">
        <ele>172</ele>
        <time>2018-03-31T08:44:10Z</time>
      </trkpt>
      <trkpt lat="45.92748" lon="4.74172">
        <ele>172</ele>
        <time>2018-03-31T08:44:11Z</time>
      </trkpt>
      <trkpt lat="45.92743" lon="4.74178">
        <ele>172</ele>
        <time>2018-03-31T08:44:12Z</time>
      </trkpt>
      <trkpt lat="45.9274" lon="4.74183">
        <ele>172</ele>
        <time>2018-03-31T08:44:13Z</time>
      </trkpt>
      <trkpt lat="45.92736" lon="4.74189">
        <ele>171</ele>
        <time>2018-03-31T08:44:14Z</time>
      </trkpt>
      <trkpt lat="45.92732" lon="4.74195">
        <ele>171</ele>
        <time>2018-03-31T08:44:15Z</time>
      </trkpt>
      <trkpt lat="45.92728" lon="4.742">
        <ele>171</ele>
        <time>2018-03-31T08:44:16Z</time>
      </trkpt>
      <trkpt lat="45.92724" lon="4.74206">
        <ele>171</ele>
        <time>2018-03-31T08:44:17Z</time>
      </trkpt>
      <trkpt lat="45.9272" lon="4.74211">
        <ele>171</ele>
        <time>2018-03-31T08:44:18Z</time>
      </trkpt>
      <trkpt lat="45.92717" lon="4.74216">
        <ele>171</ele>
        <time>2018-03-31T08:44:19Z</time>
      </trkpt>
      <trkpt lat="45.92714" lon="4.74223">
        <ele>171</ele>
        <time>2018-03-31T08:44:20Z</time>
      </trkpt>
      <trkpt lat="45.92709" lon="4.74229">
        <ele>171</ele>
        <time>2018-03-31T08:44:21Z</time>
      </trkpt>
      <trkpt lat="45.92705" lon="4.74234">
        <ele>171</ele>
        <time>2018-03-31T08:44:22Z</time>
      </trkpt>
      <trkpt lat="45.92702" lon="4.74242">
        <ele>171</ele>
        <time>2018-03-31T08:44:23Z</time>
      </trkpt>
      <trkpt lat="45.92699" lon="4.74247">
        <ele>171</ele>
        <time>2018-03-31T08:44:24Z</time>
      </trkpt>
      <trkpt lat="45.92695" lon="4.74253">
        <ele>171</ele>
        <time>2018-03-31T08:44:25Z</time>
      </trkpt>
      <trkpt lat="45.92691" lon="4.74259">
        <ele>171</ele>
        <time>2018-03-31T08:44:26Z</time>
      </trkpt>
      <trkpt lat="45.92688" lon="4.74265">
        <ele>171</ele>
        <time>2018-03-31T08:44:27Z</time>
      </trkpt>
      <trkpt lat="45.92684" lon="4.74271">
        <ele>171</ele>
        <time>2018-03-31T08:44:28Z</time>
      </trkpt>
      <trkpt lat="45.92681" lon="4.74278">
        <ele>171</ele>
        <time>2018-03-31T08:44:29Z</time>
      </trkpt>
      <trkpt lat="45.92677" lon="4.74284">
        <ele>171</ele>
        <time>2018-03-31T08:44:30Z</time>
      </trkpt>
      <trkpt lat="45.92674" lon="4.7429">
        <ele>171</ele>
        <time>2018-03-31T08:44:31Z</time>
      </trkpt>
      <trkpt lat="45.9267" lon="4.74296">
        <ele>171</ele>
        <time>2018-03-31T08:44:32Z</time>
      </trkpt>
      <trkpt lat="45.92666" lon="4.74303">
        <ele>171</ele>
        <time>2018-03-31T08:44:33Z</time>
      </trkpt>
      <trkpt lat="45.92663" lon="4.74309">
        <ele>171</ele>
        <time>2018-03-31T08:44:34Z</time>
      </trkpt>
      <trkpt lat="45.9266" lon="4.74315">
        <ele>171</ele>
        <time>2018-03-31T08:44:35Z</time>
      </trkpt>
      <trkpt lat="45.92657" lon="4.7432">
        <ele>171</ele>
        <time>2018-03-31T08:44:36Z</time>
      </trkpt>
      <trkpt lat="45.92654" lon="4.74326">
        <ele>171</ele>
        <time>2018-03-31T08:44:37Z</time>
      </trkpt>
      <trkpt lat="45.9265" lon="4.74332">
        <ele>171</ele>
        <time>2018-03-31T08:44:38Z</time>
      </trkpt>
      <trkpt lat="45.92647" lon="4.74339">
        <ele>171</ele>
        <time>2018-03-31T08:44:39Z</time>
      </trkpt>
      <trkpt lat="45.92643" lon="4.74345">
        <ele>171</ele>
        <time>2018-03-31T08:44:40Z</time>
      </trkpt>
      <trkpt lat="45.9264" lon="4.74351">
        <ele>171</ele>
        <time>2018-03-31T08:44:41Z</time>
      </trkpt>
      <trkpt lat="45.92635" lon="4.74357">
        <ele>171</ele>
        <time>2018-03-31T08:44:42Z</time>
      </trkpt>
      <trkpt lat="45.92632" lon="4.74363">
        <ele>171</ele>
        <time>2018-03-31T08:44:43Z</time>
      </trkpt>
      <trkpt lat="45.92628" lon="4.74371">
        <ele>171</ele>
        <time>2018-03-31T08:44:44Z</time>
      </trkpt>
      <trkpt lat="45.92625" lon="4.74378">
        <ele>170</ele>
        <time>2018-03-31T08:44:45Z</time>
      </trkpt>
      <trkpt lat="45.92622" lon="4.74385">
        <ele>170</ele>
        <time>2018-03-31T08:44:46Z</time>
      </trkpt>
      <trkpt lat="45.92618" lon="4.74392">
        <ele>170</ele>
        <time>2018-03-31T08:44:47Z</time>
      </trkpt>
      <trkpt lat="45.92614" lon="4.744">
        <ele>170</ele>
        <time>2018-03-31T08:44:48Z</time>
      </trkpt>
      <trkpt lat="45.9261" lon="4.74407">
        <ele>170</ele>
        <time>2018-03-31T08:44:49Z</time>
      </trkpt>
      <trkpt lat="45.92607" lon="4.74415">
        <ele>170</ele>
        <time>2018-03-31T08:44:50Z</time>
      </trkpt>
      <trkpt lat="45.92602" lon="4.74422">
        <ele>170</ele>
        <time>2018-03-31T08:44:51Z</time>
      </trkpt>
      <trkpt lat="45.92598" lon="4.74428">
        <ele>170</ele>
        <time>2018-03-31T08:44:52Z</time>
      </trkpt>
      <trkpt lat="45.92594" lon="4.74436">
        <ele>170</ele>
        <time>2018-03-31T08:44:53Z</time>
      </trkpt>
      <trkpt lat="45.92591" lon="4.74442">
        <ele>170</ele>
        <time>2018-03-31T08:44:54Z</time>
      </trkpt>
      <trkpt lat="45.92587" lon="4.74449">
        <ele>170</ele>
        <time>2018-03-31T08:44:55Z</time>
      </trkpt>
      <trkpt lat="45.92583" lon="4.74456">
        <ele>170</ele>
        <time>2018-03-31T08:44:56Z</time>
      </trkpt>
      <trkpt lat="45.9258" lon="4.74462">
        <ele>170</ele>
        <time>2018-03-31T08:44:57Z</time>
      </trkpt>
      <trkpt lat="45.92575" lon="4.7447">
        <ele>170</ele>
        <time>2018-03-31T08:44:58Z</time>
      </trkpt>
      <trkpt lat="45.92571" lon="4.74477">
        <ele>170</ele>
        <time>2018-03-31T08:44:59Z</time>
      </trkpt>
      <trkpt lat="45.92568" lon="4.74485">
        <ele>170</ele>
        <time>2018-03-31T08:45:00Z</time>
      </trkpt>
      <trkpt lat="45.92564" lon="4.74492">
        <ele>170</ele>
        <time>2018-03-31T08:45:01Z</time>
      </trkpt>
      <trkpt lat="45.92561" lon="4.74499">
        <ele>170</ele>
        <time>2018-03-31T08:45:02Z</time>
      </trkpt>
      <trkpt lat="45.92557" lon="4.74507">
        <ele>170</ele>
        <time>2018-03-31T08:45:03Z</time>
      </trkpt>
      <trkpt lat="45.92553" lon="4.74514">
        <ele>170</ele>
        <time>2018-03-31T08:45:04Z</time>
      </trkpt>
      <trkpt lat="45.92549" lon="4.74522">
        <ele>170</ele>
        <time>2018-03-31T08:45:05Z</time>
      </trkpt>
      <trkpt lat="45.92545" lon="4.74529">
        <ele>170</ele>
        <time>2018-03-31T08:45:06Z</time>
      </trkpt>
      <trkpt lat="45.92542" lon="4.74535">
        <ele>170</ele>
        <time>2018-03-31T08:45:07Z</time>
      </trkpt>
      <trkpt lat="45.92537" lon="4.74542">
        <ele>171</ele>
        <time>2018-03-31T08:45:08Z</time>
      </trkpt>
      <trkpt lat="45.92533" lon="4.74548">
        <ele>171</ele>
        <time>2018-03-31T08:45:09Z</time>
      </trkpt>
      <trkpt lat="45.92528" lon="4.74554">
        <ele>171</ele>
        <time>2018-03-31T08:45:10Z</time>
      </trkpt>
      <trkpt lat="45.92523" lon="4.74561">
        <ele>171</ele>
        <time>2018-03-31T08:45:11Z</time>
      </trkpt>
      <trkpt lat="45.92518" lon="4.74568">
        <ele>171</ele>
        <time>2018-03-31T08:45:12Z</time>
      </trkpt>
      <trkpt lat="45.92513" lon="4.74573">
        <ele>171</ele>
        <time>2018-03-31T08:45:13Z</time>
      </trkpt>
      <trkpt lat="45.92509" lon="4.74579">
        <ele>171</ele>
        <time>2018-03-31T08:45:14Z</time>
      </trkpt>
      <trkpt lat="45.92504" lon="4.74584">
        <ele>171</ele>
        <time>2018-03-31T08:45:15Z</time>
      </trkpt>
      <trkpt lat="45.925" lon="4.74589">
        <ele>171</ele>
        <time>2018-03-31T08:45:16Z</time>
      </trkpt>
      <trkpt lat="45.92495" lon="4.74595">
        <ele>171</ele>
        <time>2018-03-31T08:45:17Z</time>
      </trkpt>
      <trkpt lat="45.92491" lon="4.74601">
        <ele>171</ele>
        <time>2018-03-31T08:45:18Z</time>
      </trkpt>
      <trkpt lat="45.92487" lon="4.74606">
        <ele>171</ele>
        <time>2018-03-31T08:45:19Z</time>
      </trkpt>
      <trkpt lat="45.92483" lon="4.74612">
        <ele>171</ele>
        <time>2018-03-31T08:45:20Z</time>
      </trkpt>
      <trkpt lat="45.92479" lon="4.74617">
        <ele>171</ele>
        <time>2018-03-31T08:45:21Z</time>
      </trkpt>
      <trkpt lat="45.92475" lon="4.74623">
        <ele>171</ele>
        <time>2018-03-31T08:45:22Z</time>
      </trkpt>
      <trkpt lat="45.92471" lon="4.74629">
        <ele>171</ele>
        <time>2018-03-31T08:45:23Z</time>
      </trkpt>
      <trkpt lat="45.92468" lon="4.74636">
        <ele>171</ele>
        <time>2018-03-31T08:45:24Z</time>
      </trkpt>
      <trkpt lat="45.92464" lon="4.74642">
        <ele>171</ele>
        <time>2018-03-31T08:45:25Z</time>
      </trkpt>
      <trkpt lat="45.9246" lon="4.74648">
        <ele>171</ele>
        <time>2018-03-31T08:45:26Z</time>
      </trkpt>
      <trkpt lat="45.92456" lon="4.74655">
        <ele>171</ele>
        <time>2018-03-31T08:45:27Z</time>
      </trkpt>
      <trkpt lat="45.92453" lon="4.74661">
        <ele>171</ele>
        <time>2018-03-31T08:45:28Z</time>
      </trkpt>
      <trkpt lat="45.92448" lon="4.74668">
        <ele>171</ele>
        <time>2018-03-31T08:45:29Z</time>
      </trkpt>
      <trkpt lat="45.92444" lon="4.74677">
        <ele>171</ele>
        <time>2018-03-31T08:45:30Z</time>
      </trkpt>
      <trkpt lat="45.92441" lon="4.74684">
        <ele>171</ele>
        <time>2018-03-31T08:45:31Z</time>
      </trkpt>
      <trkpt lat="45.92438" lon="4.7469">
        <ele>171</ele>
        <time>2018-03-31T08:45:32Z</time>
      </trkpt>
      <trkpt lat="45.92436" lon="4.74697">
        <ele>171</ele>
        <time>2018-03-31T08:45:33Z</time>
      </trkpt>
      <trkpt lat="45.92433" lon="4.74705">
        <ele>171</ele>
        <time>2018-03-31T08:45:34Z</time>
      </trkpt>
      <trkpt lat="45.9243" lon="4.74713">
        <ele>171</ele>
        <time>2018-03-31T08:45:35Z</time>
      </trkpt>
      <trkpt lat="45.92428" lon="4.74721">
        <ele>171</ele>
        <time>2018-03-31T08:45:36Z</time>
      </trkpt>
      <trkpt lat="45.92425" lon="4.74728">
        <ele>171</ele>
        <time>2018-03-31T08:45:37Z</time>
      </trkpt>
      <trkpt lat="45.92421" lon="4.74736">
        <ele>171</ele>
        <time>2018-03-31T08:45:38Z</time>
      </trkpt>
      <trkpt lat="45.92418" lon="4.74745">
        <ele>172</ele>
        <time>2018-03-31T08:45:39Z</time>
      </trkpt>
      <trkpt lat="45.92416" lon="4.74754">
        <ele>172</ele>
        <time>2018-03-31T08:45:40Z</time>
      </trkpt>
      <trkpt lat="45.92415" lon="4.74762">
        <ele>172</ele>
        <time>2018-03-31T08:45:41Z</time>
      </trkpt>
      <trkpt lat="45.92413" lon="4.7477">
        <ele>172</ele>
        <time>2018-03-31T08:45:42Z</time>
      </trkpt>
      <trkpt lat="45.92412" lon="4.74779">
        <ele>171</ele>
        <time>2018-03-31T08:45:43Z</time>
      </trkpt>
      <trkpt lat="45.92409" lon="4.74785">
        <ele>171</ele>
        <time>2018-03-31T08:45:44Z</time>
      </trkpt>
      <trkpt lat="45.92407" lon="4.74795">
        <ele>171</ele>
        <time>2018-03-31T08:45:45Z</time>
      </trkpt>
      <trkpt lat="45.92406" lon="4.74802">
        <ele>171</ele>
        <time>2018-03-31T08:45:46Z</time>
      </trkpt>
      <trkpt lat="45.92404" lon="4.74811">
        <ele>171</ele>
        <time>2018-03-31T08:45:47Z</time>
      </trkpt>
      <trkpt lat="45.92402" lon="4.74821">
        <ele>171</ele>
        <time>2018-03-31T08:45:48Z</time>
      </trkpt>
      <trkpt lat="45.924" lon="4.7483">
        <ele>171</ele>
        <time>2018-03-31T08:45:49Z</time>
      </trkpt>
      <trkpt lat="45.92398" lon="4.74841">
        <ele>171</ele>
        <time>2018-03-31T08:45:50Z</time>
      </trkpt>
      <trkpt lat="45.92395" lon="4.7485">
        <ele>171</ele>
        <time>2018-03-31T08:45:51Z</time>
      </trkpt>
      <trkpt lat="45.92392" lon="4.74858">
        <ele>171</ele>
        <time>2018-03-31T08:45:52Z</time>
      </trkpt>
      <trkpt lat="45.92389" lon="4.74867">
        <ele>171</ele>
        <time>2018-03-31T08:45:53Z</time>
      </trkpt>
      <trkpt lat="45.92386" lon="4.74874">
        <ele>171</ele>
        <time>2018-03-31T08:45:54Z</time>
      </trkpt>
      <trkpt lat="45.92383" lon="4.74882">
        <ele>171</ele>
        <time>2018-03-31T08:45:55Z</time>
      </trkpt>
      <trkpt lat="45.9238" lon="4.7489">
        <ele>171</ele>
        <time>2018-03-31T08:45:56Z</time>
      </trkpt>
      <trkpt lat="45.92376" lon="4.749">
        <ele>171</ele>
        <time>2018-03-31T08:45:57Z</time>
      </trkpt>
      <trkpt lat="45.92373" lon="4.74908">
        <ele>171</ele>
        <time>2018-03-31T08:45:58Z</time>
      </trkpt>
      <trkpt lat="45.9237" lon="4.74916">
        <ele>171</ele>
        <time>2018-03-31T08:45:59Z</time>
      </trkpt>
      <trkpt lat="45.92367" lon="4.74924">
        <ele>170</ele>
        <time>2018-03-31T08:46:00Z</time>
      </trkpt>
      <trkpt lat="45.92364" lon="4.74933">
        <ele>170</ele>
        <time>2018-03-31T08:46:01Z</time>
      </trkpt>
      <trkpt lat="45.92361" lon="4.74941">
        <ele>170</ele>
        <time>2018-03-31T08:46:02Z</time>
      </trkpt>
      <trkpt lat="45.92358" lon="4.74949">
        <ele>170</ele>
        <time>2018-03-31T08:46:03Z</time>
      </trkpt>
      <trkpt lat="45.92355" lon="4.74957">
        <ele>170</ele>
        <time>2018-03-31T08:46:04Z</time>
      </trkpt>
      <trkpt lat="45.92353" lon="4.74965">
        <ele>170</ele>
        <time>2018-03-31T08:46:05Z</time>
      </trkpt>
      <trkpt lat="45.9235" lon="4.74972">
        <ele>170</ele>
        <time>2018-03-31T08:46:06Z</time>
      </trkpt>
      <trkpt lat="45.92347" lon="4.7498">
        <ele>170</ele>
        <time>2018-03-31T08:46:07Z</time>
      </trkpt>
      <trkpt lat="45.92343" lon="4.74987">
        <ele>170</ele>
        <time>2018-03-31T08:46:08Z</time>
      </trkpt>
      <trkpt lat="45.9234" lon="4.74994">
        <ele>170</ele>
        <time>2018-03-31T08:46:09Z</time>
      </trkpt>
      <trkpt lat="45.92336" lon="4.75001">
        <ele>170</ele>
        <time>2018-03-31T08:46:10Z</time>
      </trkpt>
      <trkpt lat="45.92333" lon="4.75008">
        <ele>171</ele>
        <time>2018-03-31T08:46:11Z</time>
      </trkpt>
      <trkpt lat="45.92329" lon="4.75015">
        <ele>171</ele>
        <time>2018-03-31T08:46:12Z</time>
      </trkpt>
      <trkpt lat="45.92326" lon="4.75023">
        <ele>171</ele>
        <time>2018-03-31T08:46:13Z</time>
      </trkpt>
      <trkpt lat="45.92322" lon="4.7503">
        <ele>171</ele>
        <time>2018-03-31T08:46:14Z</time>
      </trkpt>
      <trkpt lat="45.92319" lon="4.75036">
        <ele>171</ele>
        <time>2018-03-31T08:46:15Z</time>
      </trkpt>
      <trkpt lat="45.92315" lon="4.75041">
        <ele>172</ele>
        <time>2018-03-31T08:46:16Z</time>
      </trkpt>
      <trkpt lat="45.92311" lon="4.75048">
        <ele>172</ele>
        <time>2018-03-31T08:46:17Z</time>
      </trkpt>
      <trkpt lat="45.92307" lon="4.75054">
        <ele>172</ele>
        <time>2018-03-31T08:46:18Z</time>
      </trkpt>
      <trkpt lat="45.92303" lon="4.75059">
        <ele>172</ele>
        <time>2018-03-31T08:46:19Z</time>
      </trkpt>
      <trkpt lat="45.92299" lon="4.75063">
        <ele>172</ele>
        <time>2018-03-31T08:46:20Z</time>
      </trkpt>
      <trkpt lat="45.92295" lon="4.75071">
        <ele>172</ele>
        <time>2018-03-31T08:46:21Z</time>
      </trkpt>
      <trkpt lat="45.9229" lon="4.75076">
        <ele>172</ele>
        <time>2018-03-31T08:46:22Z</time>
      </trkpt>
      <trkpt lat="45.92285" lon="4.75081">
        <ele>172</ele>
        <time>2018-03-31T08:46:23Z</time>
      </trkpt>
      <trkpt lat="45.92281" lon="4.75085">
        <ele>173</ele>
        <time>2018-03-31T08:46:24Z</time>
      </trkpt>
      <trkpt lat="45.92277" lon="4.7509">
        <ele>173</ele>
        <time>2018-03-31T08:46:25Z</time>
      </trkpt>
      <trkpt lat="45.92272" lon="4.75094">
        <ele>173</ele>
        <time>2018-03-31T08:46:26Z</time>
      </trkpt>
      <trkpt lat="45.92268" lon="4.75102">
        <ele>173</ele>
        <time>2018-03-31T08:46:27Z</time>
      </trkpt>
      <trkpt lat="45.92263" lon="4.75107">
        <ele>174</ele>
        <time>2018-03-31T08:46:28Z</time>
      </trkpt>
      <trkpt lat="45.92259" lon="4.75111">
        <ele>174</ele>
        <time>2018-03-31T08:46:29Z</time>
      </trkpt>
      <trkpt lat="45.92254" lon="4.75117">
        <ele>174</ele>
        <time>2018-03-31T08:46:30Z</time>
      </trkpt>
      <trkpt lat="45.92249" lon="4.75121">
        <ele>174</ele>
        <time>2018-03-31T08:46:31Z</time>
      </trkpt>
      <trkpt lat="45.92246" lon="4.75126">
        <ele>174</ele>
        <time>2018-03-31T08:46:32Z</time>
      </trkpt>
      <trkpt lat="45.92242" lon="4.75131">
        <ele>174</ele>
        <time>2018-03-31T08:46:33Z</time>
      </trkpt>
      <trkpt lat="45.92238" lon="4.75136">
        <ele>174</ele>
        <time>2018-03-31T08:46:34Z</time>
      </trkpt>
      <trkpt lat="45.92234" lon="4.75141">
        <ele>174</ele>
        <time>2018-03-31T08:46:35Z</time>
      </trkpt>
      <trkpt lat="45.92231" lon="4.75147">
        <ele>174</ele>
        <time>2018-03-31T08:46:36Z</time>
      </trkpt>
      <trkpt lat="45.92228" lon="4.75153">
        <ele>174</ele>
        <time>2018-03-31T08:46:37Z</time>
      </trkpt>
      <trkpt lat="45.92225" lon="4.75159">
        <ele>174</ele>
        <time>2018-03-31T08:46:38Z</time>
      </trkpt>
      <trkpt lat="45.92222" lon="4.75166">
        <ele>174</ele>
        <time>2018-03-31T08:46:39Z</time>
      </trkpt>
      <trkpt lat="45.9222" lon="4.75173">
        <ele>175</ele>
        <time>2018-03-31T08:46:40Z</time>
      </trkpt>
      <trkpt lat="45.92218" lon="4.7518">
        <ele>175</ele>
        <time>2018-03-31T08:46:41Z</time>
      </trkpt>
      <trkpt lat="45.92216" lon="4.75187">
        <ele>175</ele>
        <time>2018-03-31T08:46:42Z</time>
      </trkpt>
      <trkpt lat="45.92215" lon="4.75193">
        <ele>175</ele>
        <time>2018-03-31T08:46:43Z</time>
      </trkpt>
      <trkpt lat="45.92213" lon="4.752">
        <ele>175</ele>
        <time>2018-03-31T08:46:44Z</time>
      </trkpt>
      <trkpt lat="45.92213" lon="4.75207">
        <ele>175</ele>
        <time>2018-03-31T08:46:45Z</time>
      </trkpt>
      <trkpt lat="45.92212" lon="4.75214">
        <ele>175</ele>
        <time>2018-03-31T08:46:46Z</time>
      </trkpt>
      <trkpt lat="45.92211" lon="4.75221">
        <ele>175</ele>
        <time>2018-03-31T08:46:47Z</time>
      </trkpt>
      <trkpt lat="45.92211" lon="4.75229">
        <ele>175</ele>
        <time>2018-03-31T08:46:48Z</time>
      </trkpt>
      <trkpt lat="45.92211" lon="4.75236">
        <ele>175</ele>
        <time>2018-03-31T08:46:49Z</time>
      </trkpt>
      <trkpt lat="45.92211" lon="4.75243">
        <ele>175</ele>
        <time>2018-03-31T08:46:50Z</time>
      </trkpt>
      <trkpt lat="45.9221" lon="4.75251">
        <ele>175</ele>
        <time>2018-03-31T08:46:51Z</time>
      </trkpt>
      <trkpt lat="45.9221" lon="4.75258">
        <ele>175</ele>
        <time>2018-03-31T08:46:52Z</time>
      </trkpt>
      <trkpt lat="45.9221" lon="4.75265">
        <ele>176</ele>
        <time>2018-03-31T08:46:53Z</time>
      </trkpt>
      <trkpt lat="45.9221" lon="4.75272">
        <ele>176</ele>
        <time>2018-03-31T08:46:54Z</time>
      </trkpt>
      <trkpt lat="45.9221" lon="4.7528">
        <ele>176</ele>
        <time>2018-03-31T08:46:55Z</time>
      </trkpt>
      <trkpt lat="45.9221" lon="4.75287">
        <ele>176</ele>
        <time>2018-03-31T08:46:56Z</time>
      </trkpt>
      <trkpt lat="45.92211" lon="4.75297">
        <ele>176</ele>
        <time>2018-03-31T08:46:57Z</time>
      </trkpt>
      <trkpt lat="45.92211" lon="4.75306">
        <ele>176</ele>
        <time>2018-03-31T08:46:58Z</time>
      </trkpt>
      <trkpt lat="45.92211" lon="4.75313">
        <ele>176</ele>
        <time>2018-03-31T08:46:59Z</time>
      </trkpt>
      <trkpt lat="45.9221" lon="4.75325">
        <ele>176</ele>
        <time>2018-03-31T08:47:01Z</time>
      </trkpt>
      <trkpt lat="45.92209" lon="4.75331">
        <ele>176</ele>
        <time>2018-03-31T08:47:02Z</time>
      </trkpt>
      <trkpt lat="45.92207" lon="4.75338">
        <ele>177</ele>
        <time>2018-03-31T08:47:03Z</time>
      </trkpt>
      <trkpt lat="45.92205" lon="4.75345">
        <ele>177</ele>
        <time>2018-03-31T08:47:04Z</time>
      </trkpt>
      <trkpt lat="45.92204" lon="4.75352">
        <ele>177</ele>
        <time>2018-03-31T08:47:05Z</time>
      </trkpt>
      <trkpt lat="45.92201" lon="4.75358">
        <ele>177</ele>
        <time>2018-03-31T08:47:06Z</time>
      </trkpt>
      <trkpt lat="45.92199" lon="4.75365">
        <ele>177</ele>
        <time>2018-03-31T08:47:07Z</time>
      </trkpt>
      <trkpt lat="45.92197" lon="4.75371">
        <ele>177</ele>
        <time>2018-03-31T08:47:08Z</time>
      </trkpt>
      <trkpt lat="45.92195" lon="4.75378">
        <ele>177</ele>
        <time>2018-03-31T08:47:09Z</time>
      </trkpt>
      <trkpt lat="45.92193" lon="4.75385">
        <ele>177</ele>
        <time>2018-03-31T08:47:10Z</time>
      </trkpt>
      <trkpt lat="45.9219" lon="4.7539">
        <ele>177</ele>
        <time>2018-03-31T08:47:11Z</time>
      </trkpt>
      <trkpt lat="45.92188" lon="4.75399">
        <ele>177</ele>
        <time>2018-03-31T08:47:12Z</time>
      </trkpt>
      <trkpt lat="45.92185" lon="4.75405">
        <ele>177</ele>
        <time>2018-03-31T08:47:13Z</time>
      </trkpt>
      <trkpt lat="45.92182" lon="4.75411">
        <ele>177</ele>
        <time>2018-03-31T08:47:14Z</time>
      </trkpt>
      <trkpt lat="45.92179" lon="4.75418">
        <ele>177</ele>
        <time>2018-03-31T08:47:15Z</time>
      </trkpt>
      <trkpt lat="45.92176" lon="4.75425">
        <ele>177</ele>
        <time>2018-03-31T08:47:16Z</time>
      </trkpt>
      <trkpt lat="45.92173" lon="4.75432">
        <ele>177</ele>
        <time>2018-03-31T08:47:17Z</time>
      </trkpt>
      <trkpt lat="45.9217" lon="4.7544">
        <ele>177</ele>
        <time>2018-03-31T08:47:18Z</time>
      </trkpt>
      <trkpt lat="45.92168" lon="4.75448">
        <ele>176</ele>
        <time>2018-03-31T08:47:19Z</time>
      </trkpt>
      <trkpt lat="45.92165" lon="4.75455">
        <ele>176</ele>
        <time>2018-03-31T08:47:20Z</time>
      </trkpt>
      <trkpt lat="45.92161" lon="4.75462">
        <ele>176</ele>
        <time>2018-03-31T08:47:21Z</time>
      </trkpt>
      <trkpt lat="45.92159" lon="4.75469">
        <ele>176</ele>
        <time>2018-03-31T08:47:22Z</time>
      </trkpt>
      <trkpt lat="45.92157" lon="4.75475">
        <ele>176</ele>
        <time>2018-03-31T08:47:23Z</time>
      </trkpt>
      <trkpt lat="45.92153" lon="4.75484">
        <ele>176</ele>
        <time>2018-03-31T08:47:24Z</time>
      </trkpt>
      <trkpt lat="45.9215" lon="4.7549">
        <ele>175</ele>
        <time>2018-03-31T08:47:25Z</time>
      </trkpt>
      <trkpt lat="45.92147" lon="4.75497">
        <ele>175</ele>
        <time>2018-03-31T08:47:26Z</time>
      </trkpt>
      <trkpt lat="45.92144" lon="4.75504">
        <ele>175</ele>
        <time>2018-03-31T08:47:27Z</time>
      </trkpt>
      <trkpt lat="45.92139" lon="4.75509">
        <ele>174</ele>
        <time>2018-03-31T08:47:28Z</time>
      </trkpt>
      <trkpt lat="45.92136" lon="4.75515">
        <ele>174</ele>
        <time>2018-03-31T08:47:29Z</time>
      </trkpt>
      <trkpt lat="45.92132" lon="4.7552">
        <ele>174</ele>
        <time>2018-03-31T08:47:30Z</time>
      </trkpt>
      <trkpt lat="45.92128" lon="4.75526">
        <ele>174</ele>
        <time>2018-03-31T08:47:31Z</time>
      </trkpt>
      <trkpt lat="45.92125" lon="4.75532">
        <ele>174</ele>
        <time>2018-03-31T08:47:32Z</time>
      </trkpt>
      <trkpt lat="45.92123" lon="4.75539">
        <ele>174</ele>
        <time>2018-03-31T08:47:33Z</time>
      </trkpt>
      <trkpt lat="45.92121" lon="4.75545">
        <ele>174</ele>
        <time>2018-03-31T08:47:34Z</time>
      </trkpt>
      <trkpt lat="45.92118" lon="4.7555">
        <ele>174</ele>
        <time>2018-03-31T08:47:35Z</time>
      </trkpt>
      <trkpt lat="45.92114" lon="4.75556">
        <ele>174</ele>
        <time>2018-03-31T08:47:36Z</time>
      </trkpt>
      <trkpt lat="45.92113" lon="4.75565">
        <ele>174</ele>
        <time>2018-03-31T08:47:37Z</time>
      </trkpt>
      <trkpt lat="45.92114" lon="4.75575">
        <ele>174</ele>
        <time>2018-03-31T08:47:38Z</time>
      </trkpt>
      <trkpt lat="45.92117" lon="4.75583">
        <ele>174</ele>
        <time>2018-03-31T08:47:39Z</time>
      </trkpt>
      <trkpt lat="45.9212" lon="4.7559">
        <ele>174</ele>
        <time>2018-03-31T08:47:40Z</time>
      </trkpt>
      <trkpt lat="45.92126" lon="4.75594">
        <ele>174</ele>
        <time>2018-03-31T08:47:41Z</time>
      </trkpt>
      <trkpt lat="45.92131" lon="4.756">
        <ele>174</ele>
        <time>2018-03-31T08:47:42Z</time>
      </trkpt>
      <trkpt lat="45.92136" lon="4.75605">
        <ele>174</ele>
        <time>2018-03-31T08:47:43Z</time>
      </trkpt>
      <trkpt lat="45.92141" lon="4.75611">
        <ele>174</ele>
        <time>2018-03-31T08:47:44Z</time>
      </trkpt>
      <trkpt lat="45.92144" lon="4.75615">
        <ele>174</ele>
        <time>2018-03-31T08:47:45Z</time>
      </trkpt>
      <trkpt lat="45.92149" lon="4.75619">
        <ele>174</ele>
        <time>2018-03-31T08:47:46Z</time>
      </trkpt>
      <trkpt lat="45.92153" lon="4.75624">
        <ele>174</ele>
        <time>2018-03-31T08:47:47Z</time>
      </trkpt>
      <trkpt lat="45.92158" lon="4.75629">
        <ele>174</ele>
        <time>2018-03-31T08:47:48Z</time>
      </trkpt>
      <trkpt lat="45.92162" lon="4.75634">
        <ele>174</ele>
        <time>2018-03-31T08:47:49Z</time>
      </trkpt>
      <trkpt lat="45.92166" lon="4.75639">
        <ele>174</ele>
        <time>2018-03-31T08:47:50Z</time>
      </trkpt>
      <trkpt lat="45.92171" lon="4.75643">
        <ele>174</ele>
        <time>2018-03-31T08:47:51Z</time>
      </trkpt>
      <trkpt lat="45.92176" lon="4.75647">
        <ele>174</ele>
        <time>2018-03-31T08:47:52Z</time>
      </trkpt>
      <trkpt lat="45.92181" lon="4.75652">
        <ele>174</ele>
        <time>2018-03-31T08:47:53Z</time>
      </trkpt>
      <trkpt lat="45.92186" lon="4.75657">
        <ele>174</ele>
        <time>2018-03-31T08:47:54Z</time>
      </trkpt>
      <trkpt lat="45.92191" lon="4.75662">
        <ele>174</ele>
        <time>2018-03-31T08:47:55Z</time>
      </trkpt>
      <trkpt lat="45.92197" lon="4.75668">
        <ele>174</ele>
        <time>2018-03-31T08:47:56Z</time>
      </trkpt>
      <trkpt lat="45.92202" lon="4.75673">
        <ele>174</ele>
        <time>2018-03-31T08:47:57Z</time>
      </trkpt>
      <trkpt lat="45.92207" lon="4.7568">
        <ele>174</ele>
        <time>2018-03-31T08:47:58Z</time>
      </trkpt>
      <trkpt lat="45.92212" lon="4.75684">
        <ele>174</ele>
        <time>2018-03-31T08:47:59Z</time>
      </trkpt>
      <trkpt lat="45.92217" lon="4.75687">
        <ele>174</ele>
        <time>2018-03-31T08:48:00Z</time>
      </trkpt>
      <trkpt lat="45.92221" lon="4.75693">
        <ele>174</ele>
        <time>2018-03-31T08:48:01Z</time>
      </trkpt>
      <trkpt lat="45.92226" lon="4.75698">
        <ele>174</ele>
        <time>2018-03-31T08:48:02Z</time>
      </trkpt>
      <trkpt lat="45.9223" lon="4.75702">
        <ele>174</ele>
        <time>2018-03-31T08:48:03Z</time>
      </trkpt>
      <trkpt lat="45.92234" lon="4.75707">
        <ele>174</ele>
        <time>2018-03-31T08:48:04Z</time>
      </trkpt>
      <trkpt lat="45.92237" lon="4.75714">
        <ele>174</ele>
        <time>2018-03-31T08:48:05Z</time>
      </trkpt>
      <trkpt lat="45.92241" lon="4.75719">
        <ele>174</ele>
        <time>2018-03-31T08:48:06Z</time>
      </trkpt>
      <trkpt lat="45.92244" lon="4.75727">
        <ele>174</ele>
        <time>2018-03-31T08:48:07Z</time>
      </trkpt>
      <trkpt lat="45.92247" lon="4.75734">
        <ele>174</ele>
        <time>2018-03-31T08:48:08Z</time>
      </trkpt>
      <trkpt lat="45.92249" lon="4.75741">
        <ele>174</ele>
        <time>2018-03-31T08:48:09Z</time>
      </trkpt>
      <trkpt lat="45.9225" lon="4.75749">
        <ele>174</ele>
        <time>2018-03-31T08:48:10Z</time>
      </trkpt>
      <trkpt lat="45.92252" lon="4.75756">
        <ele>174</ele>
        <time>2018-03-31T08:48:11Z</time>
      </trkpt>
      <trkpt lat="45.92253" lon="4.75764">
        <ele>174</ele>
        <time>2018-03-31T08:48:12Z</time>
      </trkpt>
      <trkpt lat="45.92253" lon="4.75772">
        <ele>174</ele>
        <time>2018-03-31T08:48:13Z</time>
      </trkpt>
      <trkpt lat="45.92255" lon="4.75779">
        <ele>174</ele>
        <time>2018-03-31T08:48:14Z</time>
      </trkpt>
      <trkpt lat="45.92256" lon="4.75786">
        <ele>174</ele>
        <time>2018-03-31T08:48:15Z</time>
      </trkpt>
      <trkpt lat="45.92258" lon="4.75792">
        <ele>174</ele>
        <time>2018-03-31T08:48:16Z</time>
      </trkpt>
      <trkpt lat="45.92259" lon="4.75799">
        <ele>174</ele>
        <time>2018-03-31T08:48:17Z</time>
      </trkpt>
      <trkpt lat="45.92261" lon="4.75806">
        <ele>174</ele>
        <time>2018-03-31T08:48:18Z</time>
      </trkpt>
      <trkpt lat="45.92263" lon="4.75812">
        <ele>174</ele>
        <time>2018-03-31T08:48:19Z</time>
      </trkpt>
      <trkpt lat="45.92266" lon="4.75818">
        <ele>174</ele>
        <time>2018-03-31T08:48:20Z</time>
      </trkpt>
      <trkpt lat="45.9227" lon="4.75825">
        <ele>174</ele>
        <time>2018-03-31T08:48:21Z</time>
      </trkpt>
      <trkpt lat="45.92274" lon="4.7583">
        <ele>174</ele>
        <time>2018-03-31T08:48:22Z</time>
      </trkpt>
      <trkpt lat="45.9228" lon="4.75835">
        <ele>173</ele>
        <time>2018-03-31T08:48:23Z</time>
      </trkpt>
      <trkpt lat="45.92286" lon="4.75838">
        <ele>173</ele>
        <time>2018-03-31T08:48:24Z</time>
      </trkpt>
      <trkpt lat="45.92291" lon="4.75842">
        <ele>173</ele>
        <time>2018-03-31T08:48:25Z</time>
      </trkpt>
      <trkpt lat="45.92296" lon="4.75846">
        <ele>173</ele>
        <time>2018-03-31T08:48:26Z</time>
      </trkpt>
      <trkpt lat="45.92302" lon="4.7585">
        <ele>173</ele>
        <time>2018-03-31T08:48:27Z</time>
      </trkpt>
      <trkpt lat="45.92308" lon="4.75853">
        <ele>173</ele>
        <time>2018-03-31T08:48:28Z</time>
      </trkpt>
      <trkpt lat="45.92314" lon="4.75857">
        <ele>173</ele>
        <time>2018-03-31T08:48:29Z</time>
      </trkpt>
      <trkpt lat="45.9232" lon="4.75861">
        <ele>173</ele>
        <time>2018-03-31T08:48:30Z</time>
      </trkpt>
      <trkpt lat="45.92326" lon="4.75865">
        <ele>173</ele>
        <time>2018-03-31T08:48:31Z</time>
      </trkpt>
      <trkpt lat="45.92332" lon="4.75869">
        <ele>173</ele>
        <time>2018-03-31T08:48:32Z</time>
      </trkpt>
      <trkpt lat="45.92338" lon="4.75873">
        <ele>173</ele>
        <time>2018-03-31T08:48:33Z</time>
      </trkpt>
      <trkpt lat="45.92344" lon="4.75876">
        <ele>173</ele>
        <time>2018-03-31T08:48:34Z</time>
      </trkpt>
      <trkpt lat="45.9235" lon="4.75879">
        <ele>173</ele>
        <time>2018-03-31T08:48:35Z</time>
      </trkpt>
      <trkpt lat="45.92356" lon="4.75882">
        <ele>173</ele>
        <time>2018-03-31T08:48:36Z</time>
      </trkpt>
      <trkpt lat="45.92361" lon="4.75885">
        <ele>173</ele>
        <time>2018-03-31T08:48:37Z</time>
      </trkpt>
      <trkpt lat="45.92367" lon="4.75889">
        <ele>173</ele>
        <time>2018-03-31T08:48:38Z</time>
      </trkpt>
      <trkpt lat="45.92372" lon="4.75892">
        <ele>173</ele>
        <time>2018-03-31T08:48:39Z</time>
      </trkpt>
      <trkpt lat="45.92378" lon="4.75896">
        <ele>173</ele>
        <time>2018-03-31T08:48:40Z</time>
      </trkpt>
      <trkpt lat="45.92383" lon="4.759">
        <ele>173</ele>
        <time>2018-03-31T08:48:41Z</time>
      </trkpt>
      <trkpt lat="45.92389" lon="4.75904">
        <ele>173</ele>
        <time>2018-03-31T08:48:42Z</time>
      </trkpt>
      <trkpt lat="45.92394" lon="4.75908">
        <ele>173</ele>
        <time>2018-03-31T08:48:43Z</time>
      </trkpt>
      <trkpt lat="45.92399" lon="4.75911">
        <ele>173</ele>
        <time>2018-03-31T08:48:44Z</time>
      </trkpt>
      <trkpt lat="45.92404" lon="4.75915">
        <ele>172</ele>
        <time>2018-03-31T08:48:45Z</time>
      </trkpt>
      <trkpt lat="45.92409" lon="4.75918">
        <ele>172</ele>
        <time>2018-03-31T08:48:46Z</time>
      </trkpt>
      <trkpt lat="45.92414" lon="4.75922">
        <ele>172</ele>
        <time>2018-03-31T08:48:47Z</time>
      </trkpt>
      <trkpt lat="45.92419" lon="4.75925">
        <ele>172</ele>
        <time>2018-03-31T08:48:48Z</time>
      </trkpt>
      <trkpt lat="45.92423" lon="4.75928">
        <ele>172</ele>
        <time>2018-03-31T08:48:49Z</time>
      </trkpt>
      <trkpt lat="45.92427" lon="4.75931">
        <ele>172</ele>
        <time>2018-03-31T08:48:50Z</time>
      </trkpt>
      <trkpt lat="45.92432" lon="4.75935">
        <ele>172</ele>
        <time>2018-03-31T08:48:51Z</time>
      </trkpt>
      <trkpt lat="45.92436" lon="4.75939">
        <ele>172</ele>
        <time>2018-03-31T08:48:52Z</time>
      </trkpt>
      <trkpt lat="45.9244" lon="4.75942">
        <ele>172</ele>
        <time>2018-03-31T08:48:53Z</time>
      </trkpt>
      <trkpt lat="45.92444" lon="4.75946">
        <ele>172</ele>
        <time>2018-03-31T08:48:54Z</time>
      </trkpt>
      <trkpt lat="45.92449" lon="4.7595">
        <ele>172</ele>
        <time>2018-03-31T08:48:55Z</time>
      </trkpt>
      <trkpt lat="45.92452" lon="4.75953">
        <ele>172</ele>
        <time>2018-03-31T08:48:56Z</time>
      </trkpt>
      <trkpt lat="45.92456" lon="4.75957">
        <ele>172</ele>
        <time>2018-03-31T08:48:57Z</time>
      </trkpt>
      <trkpt lat="45.9246" lon="4.7596">
        <ele>172</ele>
        <time>2018-03-31T08:48:58Z</time>
      </trkpt>
      <trkpt lat="45.92465" lon="4.75964">
        <ele>172</ele>
        <time>2018-03-31T08:48:59Z</time>
      </trkpt>
      <trkpt lat="45.92469" lon="4.75967">
        <ele>172</ele>
        <time>2018-03-31T08:49:00Z</time>
      </trkpt>
      <trkpt lat="45.92473" lon="4.7597">
        <ele>172</ele>
        <time>2018-03-31T08:49:01Z</time>
      </trkpt>
      <trkpt lat="45.92477" lon="4.75974">
        <ele>172</ele>
        <time>2018-03-31T08:49:02Z</time>
      </trkpt>
      <trkpt lat="45.92481" lon="4.75977">
        <ele>172</ele>
        <time>2018-03-31T08:49:03Z</time>
      </trkpt>
      <trkpt lat="45.92486" lon="4.7598">
        <ele>172</ele>
        <time>2018-03-31T08:49:04Z</time>
      </trkpt>
      <trkpt lat="45.92491" lon="4.75984">
        <ele>172</ele>
        <time>2018-03-31T08:49:05Z</time>
      </trkpt>
      <trkpt lat="45.92495" lon="4.75988">
        <ele>172</ele>
        <time>2018-03-31T08:49:06Z</time>
      </trkpt>
      <trkpt lat="45.925" lon="4.75991">
        <ele>172</ele>
        <time>2018-03-31T08:49:07Z</time>
      </trkpt>
      <trkpt lat="45.92504" lon="4.75995">
        <ele>172</ele>
        <time>2018-03-31T08:49:08Z</time>
      </trkpt>
      <trkpt lat="45.92509" lon="4.75998">
        <ele>172</ele>
        <time>2018-03-31T08:49:09Z</time>
      </trkpt>
      <trkpt lat="45.92514" lon="4.76002">
        <ele>172</ele>
        <time>2018-03-31T08:49:10Z</time>
      </trkpt>
      <trkpt lat="45.92519" lon="4.76005">
        <ele>172</ele>
        <time>2018-03-31T08:49:11Z</time>
      </trkpt>
      <trkpt lat="45.92525" lon="4.76009">
        <ele>172</ele>
        <time>2018-03-31T08:49:12Z</time>
      </trkpt>
      <trkpt lat="45.9253" lon="4.76012">
        <ele>172</ele>
        <time>2018-03-31T08:49:13Z</time>
      </trkpt>
      <trkpt lat="45.92535" lon="4.76016">
        <ele>172</ele>
        <time>2018-03-31T08:49:14Z</time>
      </trkpt>
      <trkpt lat="45.9254" lon="4.7602">
        <ele>172</ele>
        <time>2018-03-31T08:49:15Z</time>
      </trkpt>
      <trkpt lat="45.92546" lon="4.76025">
        <ele>172</ele>
        <time>2018-03-31T08:49:16Z</time>
      </trkpt>
      <trkpt lat="45.92552" lon="4.76029">
        <ele>172</ele>
        <time>2018-03-31T08:49:17Z</time>
      </trkpt>
      <trkpt lat="45.92558" lon="4.76034">
        <ele>172</ele>
        <time>2018-03-31T08:49:18Z</time>
      </trkpt>
      <trkpt lat="45.92564" lon="4.76037">
        <ele>172</ele>
        <time>2018-03-31T08:49:19Z</time>
      </trkpt>
      <trkpt lat="45.92569" lon="4.76041">
        <ele>172</ele>
        <time>2018-03-31T08:49:20Z</time>
      </trkpt>
      <trkpt lat="45.92574" lon="4.76045">
        <ele>171</ele>
        <time>2018-03-31T08:49:21Z</time>
      </trkpt>
      <trkpt lat="45.9258" lon="4.76049">
        <ele>171</ele>
        <time>2018-03-31T08:49:22Z</time>
      </trkpt>
      <trkpt lat="45.92585" lon="4.76053">
        <ele>171</ele>
        <time>2018-03-31T08:49:23Z</time>
      </trkpt>
      <trkpt lat="45.92591" lon="4.76057">
        <ele>171</ele>
        <time>2018-03-31T08:49:24Z</time>
      </trkpt>
      <trkpt lat="45.92596" lon="4.76062">
        <ele>171</ele>
        <time>2018-03-31T08:49:25Z</time>
      </trkpt>
      <trkpt lat="45.92602" lon="4.76066">
        <ele>171</ele>
        <time>2018-03-31T08:49:26Z</time>
      </trkpt>
      <trkpt lat="45.92608" lon="4.76071">
        <ele>171</ele>
        <time>2018-03-31T08:49:27Z</time>
      </trkpt>
      <trkpt lat="45.92615" lon="4.76075">
        <ele>171</ele>
        <time>2018-03-31T08:49:28Z</time>
      </trkpt>
      <trkpt lat="45.92621" lon="4.76079">
        <ele>171</ele>
        <time>2018-03-31T08:49:29Z</time>
      </trkpt>
      <trkpt lat="45.92627" lon="4.76084">
        <ele>170</ele>
        <time>2018-03-31T08:49:30Z</time>
      </trkpt>
      <trkpt lat="45.92634" lon="4.76087">
        <ele>170</ele>
        <time>2018-03-31T08:49:31Z</time>
      </trkpt>
      <trkpt lat="45.92639" lon="4.76091">
        <ele>170</ele>
        <time>2018-03-31T08:49:32Z</time>
      </trkpt>
      <trkpt lat="45.92647" lon="4.76096">
        <ele>170</ele>
        <time>2018-03-31T08:49:33Z</time>
      </trkpt>
      <trkpt lat="45.92654" lon="4.76101">
        <ele>170</ele>
        <time>2018-03-31T08:49:34Z</time>
      </trkpt>
      <trkpt lat="45.92662" lon="4.76106">
        <ele>170</ele>
        <time>2018-03-31T08:49:35Z</time>
      </trkpt>
      <trkpt lat="45.92669" lon="4.76111">
        <ele>169</ele>
        <time>2018-03-31T08:49:36Z</time>
      </trkpt>
      <trkpt lat="45.92677" lon="4.76116">
        <ele>169</ele>
        <time>2018-03-31T08:49:37Z</time>
      </trkpt>
      <trkpt lat="45.92685" lon="4.7612">
        <ele>169</ele>
        <time>2018-03-31T08:49:38Z</time>
      </trkpt>
      <trkpt lat="45.92693" lon="4.76125">
        <ele>169</ele>
        <time>2018-03-31T08:49:39Z</time>
      </trkpt>
      <trkpt lat="45.92701" lon="4.76131">
        <ele>169</ele>
        <time>2018-03-31T08:49:40Z</time>
      </trkpt>
      <trkpt lat="45.9271" lon="4.76136">
        <ele>168</ele>
        <time>2018-03-31T08:49:41Z</time>
      </trkpt>
      <trkpt lat="45.92718" lon="4.76142">
        <ele>168</ele>
        <time>2018-03-31T08:49:42Z</time>
      </trkpt>
      <trkpt lat="45.92726" lon="4.76147">
        <ele>168</ele>
        <time>2018-03-31T08:49:43Z</time>
      </trkpt>
      <trkpt lat="45.92734" lon="4.76154">
        <ele>168</ele>
        <time>2018-03-31T08:49:44Z</time>
      </trkpt>
      <trkpt lat="45.92742" lon="4.76161">
        <ele>168</ele>
        <time>2018-03-31T08:49:45Z</time>
      </trkpt>
      <trkpt lat="45.9275" lon="4.76167">
        <ele>167</ele>
        <time>2018-03-31T08:49:46Z</time>
      </trkpt>
      <trkpt lat="45.92757" lon="4.76173">
        <ele>167</ele>
        <time>2018-03-31T08:49:47Z</time>
      </trkpt>
      <trkpt lat="45.92765" lon="4.76179">
        <ele>167</ele>
        <time>2018-03-31T08:49:48Z</time>
      </trkpt>
      <trkpt lat="45.92772" lon="4.76185">
        <ele>167</ele>
        <time>2018-03-31T08:49:49Z</time>
      </trkpt>
      <trkpt lat="45.92779" lon="4.76192">
        <ele>168</ele>
        <time>2018-03-31T08:49:50Z</time>
      </trkpt>
      <trkpt lat="45.92785" lon="4.76198">
        <ele>168</ele>
        <time>2018-03-31T08:49:51Z</time>
      </trkpt>
      <trkpt lat="45.92792" lon="4.76204">
        <ele>168</ele>
        <time>2018-03-31T08:49:52Z</time>
      </trkpt>
      <trkpt lat="45.92798" lon="4.7621">
        <ele>168</ele>
        <time>2018-03-31T08:49:53Z</time>
      </trkpt>
      <trkpt lat="45.92803" lon="4.76216">
        <ele>168</ele>
        <time>2018-03-31T08:49:54Z</time>
      </trkpt>
      <trkpt lat="45.92809" lon="4.76222">
        <ele>168</ele>
        <time>2018-03-31T08:49:55Z</time>
      </trkpt>
      <trkpt lat="45.92816" lon="4.76228">
        <ele>168</ele>
        <time>2018-03-31T08:49:56Z</time>
      </trkpt>
      <trkpt lat="45.92822" lon="4.76234">
        <ele>168</ele>
        <time>2018-03-31T08:49:57Z</time>
      </trkpt>
      <trkpt lat="45.92828" lon="4.76239">
        <ele>169</ele>
        <time>2018-03-31T08:49:58Z</time>
      </trkpt>
      <trkpt lat="45.92834" lon="4.76245">
        <ele>169</ele>
        <time>2018-03-31T08:49:59Z</time>
      </trkpt>
      <trkpt lat="45.9284" lon="4.76251">
        <ele>169</ele>
        <time>2018-03-31T08:50:00Z</time>
      </trkpt>
      <trkpt lat="45.92846" lon="4.76258">
        <ele>169</ele>
        <time>2018-03-31T08:50:01Z</time>
      </trkpt>
      <trkpt lat="45.92852" lon="4.76264">
        <ele>169</ele>
        <time>2018-03-31T08:50:02Z</time>
      </trkpt>
      <trkpt lat="45.92858" lon="4.76269">
        <ele>169</ele>
        <time>2018-03-31T08:50:03Z</time>
      </trkpt>
      <trkpt lat="45.92863" lon="4.76274">
        <ele>169</ele>
        <time>2018-03-31T08:50:04Z</time>
      </trkpt>
      <trkpt lat="45.92868" lon="4.7628">
        <ele>169</ele>
        <time>2018-03-31T08:50:05Z</time>
      </trkpt>
      <trkpt lat="45.92874" lon="4.76286">
        <ele>169</ele>
        <time>2018-03-31T08:50:06Z</time>
      </trkpt>
      <trkpt lat="45.92879" lon="4.76292">
        <ele>169</ele>
        <time>2018-03-31T08:50:07Z</time>
      </trkpt>
      <trkpt lat="45.92885" lon="4.76298">
        <ele>169</ele>
        <time>2018-03-31T08:50:08Z</time>
      </trkpt>
      <trkpt lat="45.9289" lon="4.76303">
        <ele>169</ele>
        <time>2018-03-31T08:50:09Z</time>
      </trkpt>
      <trkpt lat="45.92895" lon="4.76309">
        <ele>169</ele>
        <time>2018-03-31T08:50:10Z</time>
      </trkpt>
      <trkpt lat="45.929" lon="4.76315">
        <ele>169</ele>
        <time>2018-03-31T08:50:11Z</time>
      </trkpt>
      <trkpt lat="45.92905" lon="4.7632">
        <ele>169</ele>
        <time>2018-03-31T08:50:12Z</time>
      </trkpt>
      <trkpt lat="45.92911" lon="4.76324">
        <ele>169</ele>
        <time>2018-03-31T08:50:13Z</time>
      </trkpt>
      <trkpt lat="45.92917" lon="4.7633">
        <ele>169</ele>
        <time>2018-03-31T08:50:14Z</time>
      </trkpt>
      <trkpt lat="45.92923" lon="4.76334">
        <ele>169</ele>
        <time>2018-03-31T08:50:15Z</time>
      </trkpt>
      <trkpt lat="45.92929" lon="4.7634">
        <ele>169</ele>
        <time>2018-03-31T08:50:16Z</time>
      </trkpt>
      <trkpt lat="45.92935" lon="4.76345">
        <ele>169</ele>
        <time>2018-03-31T08:50:17Z</time>
      </trkpt>
      <trkpt lat="45.92941" lon="4.76351">
        <ele>169</ele>
        <time>2018-03-31T08:50:18Z</time>
      </trkpt>
      <trkpt lat="45.92947" lon="4.76357">
        <ele>169</ele>
        <time>2018-03-31T08:50:19Z</time>
      </trkpt>
      <trkpt lat="45.92953" lon="4.76363">
        <ele>169</ele>
        <time>2018-03-31T08:50:20Z</time>
      </trkpt>
      <trkpt lat="45.92959" lon="4.76367">
        <ele>169</ele>
        <time>2018-03-31T08:50:21Z</time>
      </trkpt>
      <trkpt lat="45.92965" lon="4.76373">
        <ele>169</ele>
        <time>2018-03-31T08:50:22Z</time>
      </trkpt>
      <trkpt lat="45.9297" lon="4.76379">
        <ele>169</ele>
        <time>2018-03-31T08:50:23Z</time>
      </trkpt>
      <trkpt lat="45.92976" lon="4.76384">
        <ele>169</ele>
        <time>2018-03-31T08:50:24Z</time>
      </trkpt>
      <trkpt lat="45.92982" lon="4.7639">
        <ele>169</ele>
        <time>2018-03-31T08:50:25Z</time>
      </trkpt>
      <trkpt lat="45.92988" lon="4.76394">
        <ele>169</ele>
        <time>2018-03-31T08:50:26Z</time>
      </trkpt>
      <trkpt lat="45.92993" lon="4.764">
        <ele>169</ele>
        <time>2018-03-31T08:50:27Z</time>
      </trkpt>
      <trkpt lat="45.92999" lon="4.76406">
        <ele>169</ele>
        <time>2018-03-31T08:50:28Z</time>
      </trkpt>
      <trkpt lat="45.93005" lon="4.76412">
        <ele>169</ele>
        <time>2018-03-31T08:50:29Z</time>
      </trkpt>
      <trkpt lat="45.9301" lon="4.76419">
        <ele>169</ele>
        <time>2018-03-31T08:50:30Z</time>
      </trkpt>
      <trkpt lat="45.93016" lon="4.76425">
        <ele>169</ele>
        <time>2018-03-31T08:50:31Z</time>
      </trkpt>
      <trkpt lat="45.93022" lon="4.76431">
        <ele>169</ele>
        <time>2018-03-31T08:50:32Z</time>
      </trkpt>
      <trkpt lat="45.93027" lon="4.76437">
        <ele>169</ele>
        <time>2018-03-31T08:50:33Z</time>
      </trkpt>
      <trkpt lat="45.93032" lon="4.76442">
        <ele>169</ele>
        <time>2018-03-31T08:50:34Z</time>
      </trkpt>
      <trkpt lat="45.93038" lon="4.76448">
        <ele>169</ele>
        <time>2018-03-31T08:50:35Z</time>
      </trkpt>
      <trkpt lat="45.93044" lon="4.76454">
        <ele>169</ele>
        <time>2018-03-31T08:50:36Z</time>
      </trkpt>
      <trkpt lat="45.9305" lon="4.76459">
        <ele>169</ele>
        <time>2018-03-31T08:50:37Z</time>
      </trkpt>
      <trkpt lat="45.93056" lon="4.76464">
        <ele>169</ele>
        <time>2018-03-31T08:50:38Z</time>
      </trkpt>
      <trkpt lat="45.93061" lon="4.7647">
        <ele>169</ele>
        <time>2018-03-31T08:50:39Z</time>
      </trkpt>
      <trkpt lat="45.93067" lon="4.76476">
        <ele>169</ele>
        <time>2018-03-31T08:50:40Z</time>
      </trkpt>
      <trkpt lat="45.93073" lon="4.7648">
        <ele>169</ele>
        <time>2018-03-31T08:50:41Z</time>
      </trkpt>
      <trkpt lat="45.93078" lon="4.76486">
        <ele>170</ele>
        <time>2018-03-31T08:50:42Z</time>
      </trkpt>
      <trkpt lat="45.93084" lon="4.7649">
        <ele>170</ele>
        <time>2018-03-31T08:50:43Z</time>
      </trkpt>
      <trkpt lat="45.93089" lon="4.76496">
        <ele>170</ele>
        <time>2018-03-31T08:50:44Z</time>
      </trkpt>
      <trkpt lat="45.93094" lon="4.76501">
        <ele>170</ele>
        <time>2018-03-31T08:50:45Z</time>
      </trkpt>
      <trkpt lat="45.93099" lon="4.76506">
        <ele>170</ele>
        <time>2018-03-31T08:50:46Z</time>
      </trkpt>
      <trkpt lat="45.93104" lon="4.76512">
        <ele>170</ele>
        <time>2018-03-31T08:50:47Z</time>
      </trkpt>
      <trkpt lat="45.9311" lon="4.76517">
        <ele>170</ele>
        <time>2018-03-31T08:50:48Z</time>
      </trkpt>
      <trkpt lat="45.93115" lon="4.76523">
        <ele>170</ele>
        <time>2018-03-31T08:50:49Z</time>
      </trkpt>
      <trkpt lat="45.93121" lon="4.76527">
        <ele>170</ele>
        <time>2018-03-31T08:50:50Z</time>
      </trkpt>
      <trkpt lat="45.93127" lon="4.76532">
        <ele>170</ele>
        <time>2018-03-31T08:50:51Z</time>
      </trkpt>
      <trkpt lat="45.93131" lon="4.76537">
        <ele>170</ele>
        <time>2018-03-31T08:50:52Z</time>
      </trkpt>
      <trkpt lat="45.93137" lon="4.76544">
        <ele>170</ele>
        <time>2018-03-31T08:50:53Z</time>
      </trkpt>
      <trkpt lat="45.93143" lon="4.76548">
        <ele>170</ele>
        <time>2018-03-31T08:50:54Z</time>
      </trkpt>
      <trkpt lat="45.93148" lon="4.76554">
        <ele>170</ele>
        <time>2018-03-31T08:50:55Z</time>
      </trkpt>
      <trkpt lat="45.93152" lon="4.76559">
        <ele>170</ele>
        <time>2018-03-31T08:50:56Z</time>
      </trkpt>
      <trkpt lat="45.93157" lon="4.76565">
        <ele>170</ele>
        <time>2018-03-31T08:50:57Z</time>
      </trkpt>
      <trkpt lat="45.93162" lon="4.7657">
        <ele>170</ele>
        <time>2018-03-31T08:50:58Z</time>
      </trkpt>
      <trkpt lat="45.93167" lon="4.76575">
        <ele>170</ele>
        <time>2018-03-31T08:50:59Z</time>
      </trkpt>
      <trkpt lat="45.93172" lon="4.7658">
        <ele>170</ele>
        <time>2018-03-31T08:51:00Z</time>
      </trkpt>
      <trkpt lat="45.93177" lon="4.76584">
        <ele>171</ele>
        <time>2018-03-31T08:51:01Z</time>
      </trkpt>
      <trkpt lat="45.93181" lon="4.7659">
        <ele>171</ele>
        <time>2018-03-31T08:51:02Z</time>
      </trkpt>
      <trkpt lat="45.93187" lon="4.76596">
        <ele>171</ele>
        <time>2018-03-31T08:51:03Z</time>
      </trkpt>
      <trkpt lat="45.93192" lon="4.766">
        <ele>170</ele>
        <time>2018-03-31T08:51:04Z</time>
      </trkpt>
      <trkpt lat="45.93197" lon="4.76605">
        <ele>170</ele>
        <time>2018-03-31T08:51:05Z</time>
      </trkpt>
      <trkpt lat="45.93203" lon="4.76611">
        <ele>170</ele>
        <time>2018-03-31T08:51:06Z</time>
      </trkpt>
      <trkpt lat="45.93209" lon="4.76617">
        <ele>170</ele>
        <time>2018-03-31T08:51:07Z</time>
      </trkpt>
      <trkpt lat="45.93214" lon="4.76622">
        <ele>170</ele>
        <time>2018-03-31T08:51:08Z</time>
      </trkpt>
      <trkpt lat="45.9322" lon="4.76628">
        <ele>170</ele>
        <time>2018-03-31T08:51:09Z</time>
      </trkpt>
      <trkpt lat="45.93225" lon="4.76633">
        <ele>171</ele>
        <time>2018-03-31T08:51:10Z</time>
      </trkpt>
      <trkpt lat="45.93231" lon="4.76638">
        <ele>171</ele>
        <time>2018-03-31T08:51:11Z</time>
      </trkpt>
      <trkpt lat="45.93236" lon="4.76644">
        <ele>171</ele>
        <time>2018-03-31T08:51:12Z</time>
      </trkpt>
      <trkpt lat="45.93241" lon="4.76649">
        <ele>171</ele>
        <time>2018-03-31T08:51:13Z</time>
      </trkpt>
      <trkpt lat="45.93246" lon="4.76654">
        <ele>171</ele>
        <time>2018-03-31T08:51:14Z</time>
      </trkpt>
      <trkpt lat="45.93252" lon="4.76659">
        <ele>171</ele>
        <time>2018-03-31T08:51:15Z</time>
      </trkpt>
      <trkpt lat="45.93258" lon="4.76666">
        <ele>171</ele>
        <time>2018-03-31T08:51:16Z</time>
      </trkpt>
      <trkpt lat="45.93263" lon="4.76672">
        <ele>172</ele>
        <time>2018-03-31T08:51:17Z</time>
      </trkpt>
      <trkpt lat="45.93268" lon="4.76678">
        <ele>172</ele>
        <time>2018-03-31T08:51:18Z</time>
      </trkpt>
      <trkpt lat="45.93274" lon="4.76683">
        <ele>172</ele>
        <time>2018-03-31T08:51:19Z</time>
      </trkpt>
      <trkpt lat="45.93279" lon="4.76687">
        <ele>172</ele>
        <time>2018-03-31T08:51:20Z</time>
      </trkpt>
      <trkpt lat="45.93284" lon="4.76693">
        <ele>172</ele>
        <time>2018-03-31T08:51:21Z</time>
      </trkpt>
      <trkpt lat="45.93289" lon="4.76699">
        <ele>172</ele>
        <time>2018-03-31T08:51:22Z</time>
      </trkpt>
      <trkpt lat="45.93294" lon="4.76703">
        <ele>172</ele>
        <time>2018-03-31T08:51:23Z</time>
      </trkpt>
      <trkpt lat="45.933" lon="4.76708">
        <ele>172</ele>
        <time>2018-03-31T08:51:24Z</time>
      </trkpt>
      <trkpt lat="45.93304" lon="4.76713">
        <ele>172</ele>
        <time>2018-03-31T08:51:25Z</time>
      </trkpt>
      <trkpt lat="45.93309" lon="4.76719">
        <ele>172</ele>
        <time>2018-03-31T08:51:26Z</time>
      </trkpt>
      <trkpt lat="45.93314" lon="4.76724">
        <ele>172</ele>
        <time>2018-03-31T08:51:27Z</time>
      </trkpt>
      <trkpt lat="45.93319" lon="4.76729">
        <ele>172</ele>
        <time>2018-03-31T08:51:28Z</time>
      </trkpt>
      <trkpt lat="45.93325" lon="4.76734">
        <ele>172</ele>
        <time>2018-03-31T08:51:29Z</time>
      </trkpt>
      <trkpt lat="45.93329" lon="4.76739">
        <ele>172</ele>
        <time>2018-03-31T08:51:30Z</time>
      </trkpt>
      <trkpt lat="45.93334" lon="4.76744">
        <ele>173</ele>
        <time>2018-03-31T08:51:31Z</time>
      </trkpt>
      <trkpt lat="45.93338" lon="4.76749">
        <ele>173</ele>
        <time>2018-03-31T08:51:32Z</time>
      </trkpt>
      <trkpt lat="45.93343" lon="4.76752">
        <ele>173</ele>
        <time>2018-03-31T08:51:33Z</time>
      </trkpt>
      <trkpt lat="45.93348" lon="4.76757">
        <ele>172</ele>
        <time>2018-03-31T08:51:34Z</time>
      </trkpt>
      <trkpt lat="45.93353" lon="4.76762">
        <ele>172</ele>
        <time>2018-03-31T08:51:35Z</time>
      </trkpt>
      <trkpt lat="45.93358" lon="4.76767">
        <ele>172</ele>
        <time>2018-03-31T08:51:36Z</time>
      </trkpt>
      <trkpt lat="45.93362" lon="4.76772">
        <ele>172</ele>
        <time>2018-03-31T08:51:37Z</time>
      </trkpt>
      <trkpt lat="45.93367" lon="4.76777">
        <ele>172</ele>
        <time>2018-03-31T08:51:38Z</time>
      </trkpt>
      <trkpt lat="45.93372" lon="4.76782">
        <ele>172</ele>
        <time>2018-03-31T08:51:39Z</time>
      </trkpt>
      <trkpt lat="45.93377" lon="4.76787">
        <ele>172</ele>
        <time>2018-03-31T08:51:40Z</time>
      </trkpt>
      <trkpt lat="45.93382" lon="4.76792">
        <ele>172</ele>
        <time>2018-03-31T08:51:41Z</time>
      </trkpt>
      <trkpt lat="45.93387" lon="4.76797">
        <ele>172</ele>
        <time>2018-03-31T08:51:42Z</time>
      </trkpt>
      <trkpt lat="45.93392" lon="4.76802">
        <ele>172</ele>
        <time>2018-03-31T08:51:43Z</time>
      </trkpt>
      <trkpt lat="45.93396" lon="4.76807">
        <ele>172</ele>
        <time>2018-03-31T08:51:44Z</time>
      </trkpt>
      <trkpt lat="45.93401" lon="4.76813">
        <ele>172</ele>
        <time>2018-03-31T08:51:45Z</time>
      </trkpt>
      <trkpt lat="45.93405" lon="4.76819">
        <ele>172</ele>
        <time>2018-03-31T08:51:46Z</time>
      </trkpt>
      <trkpt lat="45.93408" lon="4.76825">
        <ele>172</ele>
        <time>2018-03-31T08:51:47Z</time>
      </trkpt>
      <trkpt lat="45.93412" lon="4.76833">
        <ele>172</ele>
        <time>2018-03-31T08:51:48Z</time>
      </trkpt>
      <trkpt lat="45.93416" lon="4.7684">
        <ele>172</ele>
        <time>2018-03-31T08:51:49Z</time>
      </trkpt>
      <trkpt lat="45.9342" lon="4.76848">
        <ele>171</ele>
        <time>2018-03-31T08:51:50Z</time>
      </trkpt>
      <trkpt lat="45.93423" lon="4.76855">
        <ele>171</ele>
        <time>2018-03-31T08:51:51Z</time>
      </trkpt>
      <trkpt lat="45.93427" lon="4.76863">
        <ele>171</ele>
        <time>2018-03-31T08:51:52Z</time>
      </trkpt>
      <trkpt lat="45.93431" lon="4.76871">
        <ele>171</ele>
        <time>2018-03-31T08:51:53Z</time>
      </trkpt>
      <trkpt lat="45.93434" lon="4.76878">
        <ele>171</ele>
        <time>2018-03-31T08:51:54Z</time>
      </trkpt>
      <trkpt lat="45.93436" lon="4.76887">
        <ele>171</ele>
        <time>2018-03-31T08:51:55Z</time>
      </trkpt>
      <trkpt lat="45.93439" lon="4.76896">
        <ele>170</ele>
        <time>2018-03-31T08:51:56Z</time>
      </trkpt>
      <trkpt lat="45.93441" lon="4.76904">
        <ele>170</ele>
        <time>2018-03-31T08:51:57Z</time>
      </trkpt>
      <trkpt lat="45.93443" lon="4.76913">
        <ele>170</ele>
        <time>2018-03-31T08:51:58Z</time>
      </trkpt>
      <trkpt lat="45.93445" lon="4.76922">
        <ele>170</ele>
        <time>2018-03-31T08:51:59Z</time>
      </trkpt>
      <trkpt lat="45.93447" lon="4.76931">
        <ele>170</ele>
        <time>2018-03-31T08:52:00Z</time>
      </trkpt>
      <trkpt lat="45.93448" lon="4.76939">
        <ele>170</ele>
        <time>2018-03-31T08:52:01Z</time>
      </trkpt>
      <trkpt lat="45.9345" lon="4.76949">
        <ele>170</ele>
        <time>2018-03-31T08:52:02Z</time>
      </trkpt>
      <trkpt lat="45.93451" lon="4.76958">
        <ele>170</ele>
        <time>2018-03-31T08:52:03Z</time>
      </trkpt>
      <trkpt lat="45.93453" lon="4.76966">
        <ele>170</ele>
        <time>2018-03-31T08:52:04Z</time>
      </trkpt>
      <trkpt lat="45.93454" lon="4.76975">
        <ele>170</ele>
        <time>2018-03-31T08:52:05Z</time>
      </trkpt>
      <trkpt lat="45.93455" lon="4.76984">
        <ele>170</ele>
        <time>2018-03-31T08:52:06Z</time>
      </trkpt>
      <trkpt lat="45.93457" lon="4.76993">
        <ele>170</ele>
        <time>2018-03-31T08:52:07Z</time>
      </trkpt>
      <trkpt lat="45.93458" lon="4.77003">
        <ele>170</ele>
        <time>2018-03-31T08:52:08Z</time>
      </trkpt>
      <trkpt lat="45.93459" lon="4.77011">
        <ele>170</ele>
        <time>2018-03-31T08:52:09Z</time>
      </trkpt>
      <trkpt lat="45.93461" lon="4.77021">
        <ele>170</ele>
        <time>2018-03-31T08:52:10Z</time>
      </trkpt>
      <trkpt lat="45.93463" lon="4.7703">
        <ele>170</ele>
        <time>2018-03-31T08:52:11Z</time>
      </trkpt>
      <trkpt lat="45.93465" lon="4.7704">
        <ele>170</ele>
        <time>2018-03-31T08:52:12Z</time>
      </trkpt>
      <trkpt lat="45.93465" lon="4.77048">
        <ele>170</ele>
        <time>2018-03-31T08:52:13Z</time>
      </trkpt>
      <trkpt lat="45.93466" lon="4.77057">
        <ele>170</ele>
        <time>2018-03-31T08:52:14Z</time>
      </trkpt>
      <trkpt lat="45.93468" lon="4.77067">
        <ele>170</ele>
        <time>2018-03-31T08:52:15Z</time>
      </trkpt>
      <trkpt lat="45.9347" lon="4.77076">
        <ele>170</ele>
        <time>2018-03-31T08:52:16Z</time>
      </trkpt>
      <trkpt lat="45.93472" lon="4.77085">
        <ele>169</ele>
        <time>2018-03-31T08:52:17Z</time>
      </trkpt>
      <trkpt lat="45.93474" lon="4.77094">
        <ele>169</ele>
        <time>2018-03-31T08:52:18Z</time>
      </trkpt>
      <trkpt lat="45.93476" lon="4.77103">
        <ele>169</ele>
        <time>2018-03-31T08:52:19Z</time>
      </trkpt>
      <trkpt lat="45.93477" lon="4.77112">
        <ele>169</ele>
        <time>2018-03-31T08:52:20Z</time>
      </trkpt>
      <trkpt lat="45.93479" lon="4.77121">
        <ele>169</ele>
        <time>2018-03-31T08:52:21Z</time>
      </trkpt>
      <trkpt lat="45.93481" lon="4.77131">
        <ele>169</ele>
        <time>2018-03-31T08:52:22Z</time>
      </trkpt>
      <trkpt lat="45.93483" lon="4.77139">
        <ele>169</ele>
        <time>2018-03-31T08:52:23Z</time>
      </trkpt>
      <trkpt lat="45.93485" lon="4.7715">
        <ele>169</ele>
        <time>2018-03-31T08:52:24Z</time>
      </trkpt>
      <trkpt lat="45.93487" lon="4.77159">
        <ele>169</ele>
        <time>2018-03-31T08:52:25Z</time>
      </trkpt>
      <trkpt lat="45.93489" lon="4.77167">
        <ele>169</ele>
        <time>2018-03-31T08:52:26Z</time>
      </trkpt>
      <trkpt lat="45.93491" lon="4.77176">
        <ele>169</ele>
        <time>2018-03-31T08:52:27Z</time>
      </trkpt>
      <trkpt lat="45.93494" lon="4.77184">
        <ele>169</ele>
        <time>2018-03-31T08:52:28Z</time>
      </trkpt>
      <trkpt lat="45.93496" lon="4.77193">
        <ele>169</ele>
        <time>2018-03-31T08:52:29Z</time>
      </trkpt>
      <trkpt lat="45.93497" lon="4.77202">
        <ele>169</ele>
        <time>2018-03-31T08:52:30Z</time>
      </trkpt>
      <trkpt lat="45.93499" lon="4.77212">
        <ele>169</ele>
        <time>2018-03-31T08:52:31Z</time>
      </trkpt>
      <trkpt lat="45.93501" lon="4.77221">
        <ele>169</ele>
        <time>2018-03-31T08:52:32Z</time>
      </trkpt>
      <trkpt lat="45.93503" lon="4.7723">
        <ele>169</ele>
        <time>2018-03-31T08:52:33Z</time>
      </trkpt>
      <trkpt lat="45.93504" lon="4.77238">
        <ele>169</ele>
        <time>2018-03-31T08:52:34Z</time>
      </trkpt>
      <trkpt lat="45.93506" lon="4.77247">
        <ele>170</ele>
        <time>2018-03-31T08:52:35Z</time>
      </trkpt>
      <trkpt lat="45.93509" lon="4.77256">
        <ele>170</ele>
        <time>2018-03-31T08:52:36Z</time>
      </trkpt>
      <trkpt lat="45.93511" lon="4.77265">
        <ele>170</ele>
        <time>2018-03-31T08:52:37Z</time>
      </trkpt>
      <trkpt lat="45.93512" lon="4.77274">
        <ele>170</ele>
        <time>2018-03-31T08:52:38Z</time>
      </trkpt>
      <trkpt lat="45.93514" lon="4.77284">
        <ele>170</ele>
        <time>2018-03-31T08:52:39Z</time>
      </trkpt>
      <trkpt lat="45.93516" lon="4.77293">
        <ele>170</ele>
        <time>2018-03-31T08:52:40Z</time>
      </trkpt>
      <trkpt lat="45.93518" lon="4.77303">
        <ele>170</ele>
        <time>2018-03-31T08:52:41Z</time>
      </trkpt>
      <trkpt lat="45.93521" lon="4.77312">
        <ele>170</ele>
        <time>2018-03-31T08:52:42Z</time>
      </trkpt>
      <trkpt lat="45.93523" lon="4.77321">
        <ele>170</ele>
        <time>2018-03-31T08:52:43Z</time>
      </trkpt>
      <trkpt lat="45.93525" lon="4.7733">
        <ele>170</ele>
        <time>2018-03-31T08:52:44Z</time>
      </trkpt>
      <trkpt lat="45.93527" lon="4.7734">
        <ele>170</ele>
        <time>2018-03-31T08:52:45Z</time>
      </trkpt>
      <trkpt lat="45.93529" lon="4.77349">
        <ele>170</ele>
        <time>2018-03-31T08:52:46Z</time>
      </trkpt>
      <trkpt lat="45.93531" lon="4.77358">
        <ele>170</ele>
        <time>2018-03-31T08:52:47Z</time>
      </trkpt>
      <trkpt lat="45.93533" lon="4.77366">
        <ele>170</ele>
        <time>2018-03-31T08:52:48Z</time>
      </trkpt>
      <trkpt lat="45.93535" lon="4.77375">
        <ele>170</ele>
        <time>2018-03-31T08:52:49Z</time>
      </trkpt>
      <trkpt lat="45.93537" lon="4.77384">
        <ele>170</ele>
        <time>2018-03-31T08:52:50Z</time>
      </trkpt>
      <trkpt lat="45.93538" lon="4.77393">
        <ele>170</ele>
        <time>2018-03-31T08:52:51Z</time>
      </trkpt>
      <trkpt lat="45.9354" lon="4.77402">
        <ele>170</ele>
        <time>2018-03-31T08:52:52Z</time>
      </trkpt>
      <trkpt lat="45.93542" lon="4.77411">
        <ele>170</ele>
        <time>2018-03-31T08:52:53Z</time>
      </trkpt>
      <trkpt lat="45.93544" lon="4.7742">
        <ele>170</ele>
        <time>2018-03-31T08:52:54Z</time>
      </trkpt>
      <trkpt lat="45.93546" lon="4.77428">
        <ele>169</ele>
        <time>2018-03-31T08:52:55Z</time>
      </trkpt>
      <trkpt lat="45.93548" lon="4.77437">
        <ele>169</ele>
        <time>2018-03-31T08:52:56Z</time>
      </trkpt>
      <trkpt lat="45.9355" lon="4.77446">
        <ele>169</ele>
        <time>2018-03-31T08:52:57Z</time>
      </trkpt>
      <trkpt lat="45.9355" lon="4.77452">
        <ele>169</ele>
        <time>2018-03-31T08:52:58Z</time>
      </trkpt>
      <trkpt lat="45.93553" lon="4.77461">
        <ele>169</ele>
        <time>2018-03-31T08:52:59Z</time>
      </trkpt>
      <trkpt lat="45.93555" lon="4.77469">
        <ele>169</ele>
        <time>2018-03-31T08:53:00Z</time>
      </trkpt>
      <trkpt lat="45.93557" lon="4.77478">
        <ele>169</ele>
        <time>2018-03-31T08:53:01Z</time>
      </trkpt>
      <trkpt lat="45.9356" lon="4.77488">
        <ele>169</ele>
        <time>2018-03-31T08:53:02Z</time>
      </trkpt>
      <trkpt lat="45.93562" lon="4.77495">
        <ele>169</ele>
        <time>2018-03-31T08:53:03Z</time>
      </trkpt>
      <trkpt lat="45.93564" lon="4.77503">
        <ele>169</ele>
        <time>2018-03-31T08:53:04Z</time>
      </trkpt>
      <trkpt lat="45.93566" lon="4.77511">
        <ele>169</ele>
        <time>2018-03-31T08:53:05Z</time>
      </trkpt>
      <trkpt lat="45.93567" lon="4.7752">
        <ele>169</ele>
        <time>2018-03-31T08:53:06Z</time>
      </trkpt>
      <trkpt lat="45.93569" lon="4.77528">
        <ele>169</ele>
        <time>2018-03-31T08:53:07Z</time>
      </trkpt>
      <trkpt lat="45.93571" lon="4.77537">
        <ele>169</ele>
        <time>2018-03-31T08:53:08Z</time>
      </trkpt>
      <trkpt lat="45.93572" lon="4.77545">
        <ele>169</ele>
        <time>2018-03-31T08:53:09Z</time>
      </trkpt>
      <trkpt lat="45.93575" lon="4.77553">
        <ele>169</ele>
        <time>2018-03-31T08:53:10Z</time>
      </trkpt>
      <trkpt lat="45.93577" lon="4.77561">
        <ele>169</ele>
        <time>2018-03-31T08:53:11Z</time>
      </trkpt>
      <trkpt lat="45.93579" lon="4.77569">
        <ele>170</ele>
        <time>2018-03-31T08:53:12Z</time>
      </trkpt>
      <trkpt lat="45.93581" lon="4.77578">
        <ele>170</ele>
        <time>2018-03-31T08:53:13Z</time>
      </trkpt>
      <trkpt lat="45.93583" lon="4.77586">
        <ele>170</ele>
        <time>2018-03-31T08:53:14Z</time>
      </trkpt>
      <trkpt lat="45.93585" lon="4.77594">
        <ele>170</ele>
        <time>2018-03-31T08:53:15Z</time>
      </trkpt>
      <trkpt lat="45.93588" lon="4.77602">
        <ele>170</ele>
        <time>2018-03-31T08:53:16Z</time>
      </trkpt>
      <trkpt lat="45.9359" lon="4.77609">
        <ele>170</ele>
        <time>2018-03-31T08:53:17Z</time>
      </trkpt>
      <trkpt lat="45.93593" lon="4.77617">
        <ele>170</ele>
        <time>2018-03-31T08:53:18Z</time>
      </trkpt>
      <trkpt lat="45.93595" lon="4.77624">
        <ele>170</ele>
        <time>2018-03-31T08:53:19Z</time>
      </trkpt>
      <trkpt lat="45.93599" lon="4.77634">
        <ele>169</ele>
        <time>2018-03-31T08:53:20Z</time>
      </trkpt>
      <trkpt lat="45.93602" lon="4.77642">
        <ele>169</ele>
        <time>2018-03-31T08:53:21Z</time>
      </trkpt>
      <trkpt lat="45.93605" lon="4.7765">
        <ele>169</ele>
        <time>2018-03-31T08:53:22Z</time>
      </trkpt>
      <trkpt lat="45.93609" lon="4.77657">
        <ele>169</ele>
        <time>2018-03-31T08:53:23Z</time>
      </trkpt>
      <trkpt lat="45.93613" lon="4.77664">
        <ele>169</ele>
        <time>2018-03-31T08:53:24Z</time>
      </trkpt>
      <trkpt lat="45.93616" lon="4.77672">
        <ele>169</ele>
        <time>2018-03-31T08:53:25Z</time>
      </trkpt>
      <trkpt lat="45.93619" lon="4.77679">
        <ele>169</ele>
        <time>2018-03-31T08:53:26Z</time>
      </trkpt>
      <trkpt lat="45.93622" lon="4.77686">
        <ele>169</ele>
        <time>2018-03-31T08:53:27Z</time>
      </trkpt>
      <trkpt lat="45.93625" lon="4.77693">
        <ele>169</ele>
        <time>2018-03-31T08:53:28Z</time>
      </trkpt>
      <trkpt lat="45.93629" lon="4.777">
        <ele>169</ele>
        <time>2018-03-31T08:53:29Z</time>
      </trkpt>
      <trkpt lat="45.93632" lon="4.77707">
        <ele>170</ele>
        <time>2018-03-31T08:53:30Z</time>
      </trkpt>
      <trkpt lat="45.93635" lon="4.77713">
        <ele>170</ele>
        <time>2018-03-31T08:53:31Z</time>
      </trkpt>
      <trkpt lat="45.93638" lon="4.77718">
        <ele>170</ele>
        <time>2018-03-31T08:53:32Z</time>
      </trkpt>
      <trkpt lat="45.93642" lon="4.77723">
        <ele>170</ele>
        <time>2018-03-31T08:53:33Z</time>
      </trkpt>
      <trkpt lat="45.93645" lon="4.77729">
        <ele>170</ele>
        <time>2018-03-31T08:53:34Z</time>
      </trkpt>
      <trkpt lat="45.93648" lon="4.77734">
        <ele>170</ele>
        <time>2018-03-31T08:53:35Z</time>
      </trkpt>
      <trkpt lat="45.93651" lon="4.77738">
        <ele>170</ele>
        <time>2018-03-31T08:53:36Z</time>
      </trkpt>
      <trkpt lat="45.93656" lon="4.77747">
        <ele>170</ele>
        <time>2018-03-31T08:53:38Z</time>
      </trkpt>
      <trkpt lat="45.93659" lon="4.77751">
        <ele>171</ele>
        <time>2018-03-31T08:53:39Z</time>
      </trkpt>
      <trkpt lat="45.93665" lon="4.77759">
        <ele>171</ele>
        <time>2018-03-31T08:53:41Z</time>
      </trkpt>
      <trkpt lat="45.93668" lon="4.77763">
        <ele>170</ele>
        <time>2018-03-31T08:53:42Z</time>
      </trkpt>
      <trkpt lat="45.93673" lon="4.77771">
        <ele>170</ele>
        <time>2018-03-31T08:53:44Z</time>
      </trkpt>
      <trkpt lat="45.93676" lon="4.77775">
        <ele>170</ele>
        <time>2018-03-31T08:53:45Z</time>
      </trkpt>
      <trkpt lat="45.93681" lon="4.77782">
        <ele>170</ele>
        <time>2018-03-31T08:53:47Z</time>
      </trkpt>
      <trkpt lat="45.93684" lon="4.77786">
        <ele>170</ele>
        <time>2018-03-31T08:53:48Z</time>
      </trkpt>
      <trkpt lat="45.9369" lon="4.77794">
        <ele>169</ele>
        <time>2018-03-31T08:53:50Z</time>
      </trkpt>
      <trkpt lat="45.93693" lon="4.77798">
        <ele>169</ele>
        <time>2018-03-31T08:53:51Z</time>
      </trkpt>
      <trkpt lat="45.93698" lon="4.77805">
        <ele>169</ele>
        <time>2018-03-31T08:53:53Z</time>
      </trkpt>
      <trkpt lat="45.93701" lon="4.77809">
        <ele>169</ele>
        <time>2018-03-31T08:53:54Z</time>
      </trkpt>
      <trkpt lat="45.93707" lon="4.77816">
        <ele>169</ele>
        <time>2018-03-31T08:53:56Z</time>
      </trkpt>
      <trkpt lat="45.9371" lon="4.7782">
        <ele>169</ele>
        <time>2018-03-31T08:53:57Z</time>
      </trkpt>
      <trkpt lat="45.93716" lon="4.77828">
        <ele>169</ele>
        <time>2018-03-31T08:53:59Z</time>
      </trkpt>
      <trkpt lat="45.93719" lon="4.77832">
        <ele>168</ele>
        <time>2018-03-31T08:54:00Z</time>
      </trkpt>
      <trkpt lat="45.93725" lon="4.77839">
        <ele>167</ele>
        <time>2018-03-31T08:54:02Z</time>
      </trkpt>
      <trkpt lat="45.93728" lon="4.77843">
        <ele>167</ele>
        <time>2018-03-31T08:54:03Z</time>
      </trkpt>
      <trkpt lat="45.93734" lon="4.77852">
        <ele>167</ele>
        <time>2018-03-31T08:54:05Z</time>
      </trkpt>
      <trkpt lat="45.93737" lon="4.77856">
        <ele>167</ele>
        <time>2018-03-31T08:54:06Z</time>
      </trkpt>
      <trkpt lat="45.93743" lon="4.77864">
        <ele>167</ele>
        <time>2018-03-31T08:54:08Z</time>
      </trkpt>
      <trkpt lat="45.93746" lon="4.77869">
        <ele>167</ele>
        <time>2018-03-31T08:54:09Z</time>
      </trkpt>
      <trkpt lat="45.9375" lon="4.77874">
        <ele>166</ele>
        <time>2018-03-31T08:54:10Z</time>
      </trkpt>
      <trkpt lat="45.93754" lon="4.77878">
        <ele>166</ele>
        <time>2018-03-31T08:54:11Z</time>
      </trkpt>
      <trkpt lat="45.93758" lon="4.77884">
        <ele>166</ele>
        <time>2018-03-31T08:54:12Z</time>
      </trkpt>
      <trkpt lat="45.93762" lon="4.77889">
        <ele>166</ele>
        <time>2018-03-31T08:54:13Z</time>
      </trkpt>
      <trkpt lat="45.93765" lon="4.77893">
        <ele>166</ele>
        <time>2018-03-31T08:54:14Z</time>
      </trkpt>
      <trkpt lat="45.93769" lon="4.77898">
        <ele>166</ele>
        <time>2018-03-31T08:54:15Z</time>
      </trkpt>
      <trkpt lat="45.93772" lon="4.77903">
        <ele>166</ele>
        <time>2018-03-31T08:54:16Z</time>
      </trkpt>
      <trkpt lat="45.93776" lon="4.77908">
        <ele>166</ele>
        <time>2018-03-31T08:54:17Z</time>
      </trkpt>
      <trkpt lat="45.93779" lon="4.77912">
        <ele>166</ele>
        <time>2018-03-31T08:54:18Z</time>
      </trkpt>
      <trkpt lat="45.93782" lon="4.77917">
        <ele>168</ele>
        <time>2018-03-31T08:54:19Z</time>
      </trkpt>
      <trkpt lat="45.93786" lon="4.77921">
        <ele>168</ele>
        <time>2018-03-31T08:54:20Z</time>
      </trkpt>
      <trkpt lat="45.9379" lon="4.77926">
        <ele>168</ele>
        <time>2018-03-31T08:54:21Z</time>
      </trkpt>
      <trkpt lat="45.93794" lon="4.77931">
        <ele>168</ele>
        <time>2018-03-31T08:54:22Z</time>
      </trkpt>
      <trkpt lat="45.93798" lon="4.77937">
        <ele>169</ele>
        <time>2018-03-31T08:54:23Z</time>
      </trkpt>
      <trkpt lat="45.93803" lon="4.77942">
        <ele>169</ele>
        <time>2018-03-31T08:54:24Z</time>
      </trkpt>
      <trkpt lat="45.93807" lon="4.77948">
        <ele>169</ele>
        <time>2018-03-31T08:54:25Z</time>
      </trkpt>
      <trkpt lat="45.93811" lon="4.77954">
        <ele>170</ele>
        <time>2018-03-31T08:54:26Z</time>
      </trkpt>
      <trkpt lat="45.93816" lon="4.7796">
        <ele>170</ele>
        <time>2018-03-31T08:54:27Z</time>
      </trkpt>
      <trkpt lat="45.93821" lon="4.77965">
        <ele>171</ele>
        <time>2018-03-31T08:54:28Z</time>
      </trkpt>
      <trkpt lat="45.93826" lon="4.77971">
        <ele>172</ele>
        <time>2018-03-31T08:54:29Z</time>
      </trkpt>
      <trkpt lat="45.9383" lon="4.77977">
        <ele>173</ele>
        <time>2018-03-31T08:54:30Z</time>
      </trkpt>
      <trkpt lat="45.93834" lon="4.77983">
        <ele>178</ele>
        <time>2018-03-31T08:54:31Z</time>
      </trkpt>
      <trkpt lat="45.93838" lon="4.77991">
        <ele>179</ele>
        <time>2018-03-31T08:54:32Z</time>
      </trkpt>
      <trkpt lat="45.93841" lon="4.78">
        <ele>179</ele>
        <time>2018-03-31T08:54:33Z</time>
      </trkpt>
      <trkpt lat="45.93841" lon="4.78007">
        <ele>181</ele>
        <time>2018-03-31T08:54:34Z</time>
      </trkpt>
      <trkpt lat="45.93841" lon="4.78018">
        <ele>181</ele>
        <time>2018-03-31T08:54:35Z</time>
      </trkpt>
      <trkpt lat="45.93842" lon="4.78027">
        <ele>182</ele>
        <time>2018-03-31T08:54:36Z</time>
      </trkpt>
      <trkpt lat="45.93844" lon="4.78035">
        <ele>182</ele>
        <time>2018-03-31T08:54:37Z</time>
      </trkpt>
      <trkpt lat="45.93846" lon="4.78043">
        <ele>182</ele>
        <time>2018-03-31T08:54:38Z</time>
      </trkpt>
      <trkpt lat="45.93847" lon="4.78051">
        <ele>183</ele>
        <time>2018-03-31T08:54:39Z</time>
      </trkpt>
      <trkpt lat="45.93847" lon="4.78059">
        <ele>182</ele>
        <time>2018-03-31T08:54:40Z</time>
      </trkpt>
      <trkpt lat="45.93845" lon="4.78068">
        <ele>182</ele>
        <time>2018-03-31T08:54:41Z</time>
      </trkpt>
      <trkpt lat="45.93844" lon="4.78075">
        <ele>182</ele>
        <time>2018-03-31T08:54:42Z</time>
      </trkpt>
      <trkpt lat="45.93843" lon="4.78083">
        <ele>181</ele>
        <time>2018-03-31T08:54:43Z</time>
      </trkpt>
      <trkpt lat="45.93842" lon="4.78091">
        <ele>182</ele>
        <time>2018-03-31T08:54:44Z</time>
      </trkpt>
      <trkpt lat="45.9384" lon="4.78099">
        <ele>183</ele>
        <time>2018-03-31T08:54:45Z</time>
      </trkpt>
      <trkpt lat="45.93839" lon="4.78106">
        <ele>184</ele>
        <time>2018-03-31T08:54:46Z</time>
      </trkpt>
      <trkpt lat="45.93837" lon="4.78114">
        <ele>184</ele>
        <time>2018-03-31T08:54:47Z</time>
      </trkpt>
      <trkpt lat="45.93835" lon="4.78121">
        <ele>184</ele>
        <time>2018-03-31T08:54:48Z</time>
      </trkpt>
      <trkpt lat="45.93833" lon="4.78127">
        <ele>180</ele>
        <time>2018-03-31T08:54:49Z</time>
      </trkpt>
      <trkpt lat="45.93831" lon="4.78133">
        <ele>180</ele>
        <time>2018-03-31T08:54:50Z</time>
      </trkpt>
      <trkpt lat="45.93829" lon="4.78141">
        <ele>180</ele>
        <time>2018-03-31T08:54:51Z</time>
      </trkpt>
      <trkpt lat="45.93827" lon="4.78149">
        <ele>180</ele>
        <time>2018-03-31T08:54:52Z</time>
      </trkpt>
      <trkpt lat="45.93825" lon="4.78156">
        <ele>181</ele>
        <time>2018-03-31T08:54:53Z</time>
      </trkpt>
      <trkpt lat="45.93822" lon="4.78163">
        <ele>181</ele>
        <time>2018-03-31T08:54:54Z</time>
      </trkpt>
      <trkpt lat="45.9382" lon="4.7817">
        <ele>182</ele>
        <time>2018-03-31T08:54:55Z</time>
      </trkpt>
      <trkpt lat="45.93818" lon="4.78178">
        <ele>182</ele>
        <time>2018-03-31T08:54:56Z</time>
      </trkpt>
      <trkpt lat="45.93816" lon="4.78184">
        <ele>182</ele>
        <time>2018-03-31T08:54:57Z</time>
      </trkpt>
      <trkpt lat="45.93814" lon="4.78192">
        <ele>182</ele>
        <time>2018-03-31T08:54:58Z</time>
      </trkpt>
      <trkpt lat="45.93812" lon="4.78199">
        <ele>182</ele>
        <time>2018-03-31T08:54:59Z</time>
      </trkpt>
      <trkpt lat="45.93811" lon="4.78206">
        <ele>182</ele>
        <time>2018-03-31T08:55:00Z</time>
      </trkpt>
      <trkpt lat="45.93809" lon="4.78213">
        <ele>182</ele>
        <time>2018-03-31T08:55:01Z</time>
      </trkpt>
      <trkpt lat="45.93808" lon="4.78218">
        <ele>182</ele>
        <time>2018-03-31T08:55:02Z</time>
      </trkpt>
      <trkpt lat="45.93805" lon="4.78225">
        <ele>182</ele>
        <time>2018-03-31T08:55:03Z</time>
      </trkpt>
      <trkpt lat="45.93799" lon="4.78234">
        <ele>182</ele>
        <time>2018-03-31T08:55:05Z</time>
      </trkpt>
      <trkpt lat="45.93796" lon="4.7824">
        <ele>182</ele>
        <time>2018-03-31T08:55:06Z</time>
      </trkpt>
      <trkpt lat="45.93794" lon="4.78247">
        <ele>182</ele>
        <time>2018-03-31T08:55:07Z</time>
      </trkpt>
      <trkpt lat="45.93792" lon="4.78255">
        <ele>183</ele>
        <time>2018-03-31T08:55:08Z</time>
      </trkpt>
      <trkpt lat="45.93791" lon="4.78263">
        <ele>183</ele>
        <time>2018-03-31T08:55:09Z</time>
      </trkpt>
      <trkpt lat="45.9379" lon="4.78271">
        <ele>183</ele>
        <time>2018-03-31T08:55:10Z</time>
      </trkpt>
      <trkpt lat="45.93788" lon="4.78279">
        <ele>183</ele>
        <time>2018-03-31T08:55:11Z</time>
      </trkpt>
      <trkpt lat="45.93786" lon="4.78286">
        <ele>183</ele>
        <time>2018-03-31T08:55:12Z</time>
      </trkpt>
      <trkpt lat="45.93784" lon="4.78293">
        <ele>183</ele>
        <time>2018-03-31T08:55:13Z</time>
      </trkpt>
      <trkpt lat="45.93782" lon="4.78301">
        <ele>183</ele>
        <time>2018-03-31T08:55:14Z</time>
      </trkpt>
      <trkpt lat="45.9378" lon="4.78309">
        <ele>183</ele>
        <time>2018-03-31T08:55:15Z</time>
      </trkpt>
      <trkpt lat="45.93777" lon="4.78317">
        <ele>183</ele>
        <time>2018-03-31T08:55:16Z</time>
      </trkpt>
      <trkpt lat="45.93775" lon="4.78323">
        <ele>183</ele>
        <time>2018-03-31T08:55:17Z</time>
      </trkpt>
      <trkpt lat="45.93773" lon="4.78331">
        <ele>183</ele>
        <time>2018-03-31T08:55:18Z</time>
      </trkpt>
      <trkpt lat="45.93771" lon="4.78338">
        <ele>183</ele>
        <time>2018-03-31T08:55:19Z</time>
      </trkpt>
      <trkpt lat="45.93769" lon="4.78346">
        <ele>183</ele>
        <time>2018-03-31T08:55:20Z</time>
      </trkpt>
      <trkpt lat="45.93767" lon="4.78354">
        <ele>183</ele>
        <time>2018-03-31T08:55:21Z</time>
      </trkpt>
      <trkpt lat="45.93765" lon="4.78362">
        <ele>183</ele>
        <time>2018-03-31T08:55:22Z</time>
      </trkpt>
      <trkpt lat="45.93763" lon="4.7837">
        <ele>183</ele>
        <time>2018-03-31T08:55:23Z</time>
      </trkpt>
      <trkpt lat="45.9376" lon="4.78377">
        <ele>183</ele>
        <time>2018-03-31T08:55:24Z</time>
      </trkpt>
      <trkpt lat="45.93758" lon="4.78385">
        <ele>183</ele>
        <time>2018-03-31T08:55:25Z</time>
      </trkpt>
      <trkpt lat="45.93756" lon="4.78394">
        <ele>183</ele>
        <time>2018-03-31T08:55:26Z</time>
      </trkpt>
      <trkpt lat="45.93754" lon="4.78402">
        <ele>182</ele>
        <time>2018-03-31T08:55:27Z</time>
      </trkpt>
      <trkpt lat="45.93752" lon="4.7841">
        <ele>182</ele>
        <time>2018-03-31T08:55:28Z</time>
      </trkpt>
      <trkpt lat="45.9375" lon="4.7842">
        <ele>181</ele>
        <time>2018-03-31T08:55:29Z</time>
      </trkpt>
      <trkpt lat="45.93748" lon="4.78429">
        <ele>180</ele>
        <time>2018-03-31T08:55:30Z</time>
      </trkpt>
      <trkpt lat="45.93745" lon="4.78437">
        <ele>180</ele>
        <time>2018-03-31T08:55:31Z</time>
      </trkpt>
      <trkpt lat="45.93742" lon="4.78446">
        <ele>180</ele>
        <time>2018-03-31T08:55:32Z</time>
      </trkpt>
      <trkpt lat="45.9374" lon="4.78455">
        <ele>180</ele>
        <time>2018-03-31T08:55:33Z</time>
      </trkpt>
      <trkpt lat="45.93738" lon="4.78464">
        <ele>180</ele>
        <time>2018-03-31T08:55:34Z</time>
      </trkpt>
      <trkpt lat="45.93735" lon="4.78473">
        <ele>180</ele>
        <time>2018-03-31T08:55:35Z</time>
      </trkpt>
      <trkpt lat="45.93733" lon="4.78481">
        <ele>180</ele>
        <time>2018-03-31T08:55:36Z</time>
      </trkpt>
      <trkpt lat="45.93731" lon="4.78491">
        <ele>180</ele>
        <time>2018-03-31T08:55:37Z</time>
      </trkpt>
      <trkpt lat="45.93728" lon="4.785">
        <ele>180</ele>
        <time>2018-03-31T08:55:38Z</time>
      </trkpt>
      <trkpt lat="45.93725" lon="4.78509">
        <ele>179</ele>
        <time>2018-03-31T08:55:39Z</time>
      </trkpt>
      <trkpt lat="45.93723" lon="4.78518">
        <ele>179</ele>
        <time>2018-03-31T08:55:40Z</time>
      </trkpt>
      <trkpt lat="45.93721" lon="4.78526">
        <ele>178</ele>
        <time>2018-03-31T08:55:41Z</time>
      </trkpt>
      <trkpt lat="45.9372" lon="4.78536">
        <ele>178</ele>
        <time>2018-03-31T08:55:42Z</time>
      </trkpt>
      <trkpt lat="45.93718" lon="4.78546">
        <ele>178</ele>
        <time>2018-03-31T08:55:43Z</time>
      </trkpt>
      <trkpt lat="45.93715" lon="4.78554">
        <ele>178</ele>
        <time>2018-03-31T08:55:44Z</time>
      </trkpt>
      <trkpt lat="45.93714" lon="4.78564">
        <ele>178</ele>
        <time>2018-03-31T08:55:45Z</time>
      </trkpt>
      <trkpt lat="45.93711" lon="4.78572">
        <ele>177</ele>
        <time>2018-03-31T08:55:46Z</time>
      </trkpt>
      <trkpt lat="45.93709" lon="4.7858">
        <ele>177</ele>
        <time>2018-03-31T08:55:47Z</time>
      </trkpt>
      <trkpt lat="45.93707" lon="4.78589">
        <ele>176</ele>
        <time>2018-03-31T08:55:48Z</time>
      </trkpt>
      <trkpt lat="45.93706" lon="4.78597">
        <ele>176</ele>
        <time>2018-03-31T08:55:49Z</time>
      </trkpt>
      <trkpt lat="45.93704" lon="4.78605">
        <ele>176</ele>
        <time>2018-03-31T08:55:50Z</time>
      </trkpt>
      <trkpt lat="45.93702" lon="4.78612">
        <ele>176</ele>
        <time>2018-03-31T08:55:51Z</time>
      </trkpt>
      <trkpt lat="45.93701" lon="4.7862">
        <ele>176</ele>
        <time>2018-03-31T08:55:52Z</time>
      </trkpt>
      <trkpt lat="45.93702" lon="4.78627">
        <ele>176</ele>
        <time>2018-03-31T08:55:53Z</time>
      </trkpt>
      <trkpt lat="45.93705" lon="4.78634">
        <ele>176</ele>
        <time>2018-03-31T08:55:54Z</time>
      </trkpt>
      <trkpt lat="45.93713" lon="4.78635">
        <ele>176</ele>
        <time>2018-03-31T08:55:58Z</time>
      </trkpt>
      <trkpt lat="45.93715" lon="4.78634">
        <ele>176</ele>
        <time>2018-03-31T08:55:59Z</time>
      </trkpt>
      <trkpt lat="45.93718" lon="4.78633">
        <ele>176</ele>
        <time>2018-03-31T08:56:00Z</time>
      </trkpt>
      <trkpt lat="45.93724" lon="4.78631">
        <ele>177</ele>
        <time>2018-03-31T08:56:01Z</time>
      </trkpt>
      <trkpt lat="45.93731" lon="4.7863">
        <ele>177</ele>
        <time>2018-03-31T08:56:03Z</time>
      </trkpt>
      <trkpt lat="45.93735" lon="4.78629">
        <ele>177</ele>
        <time>2018-03-31T08:56:04Z</time>
      </trkpt>
      <trkpt lat="45.93741" lon="4.78627">
        <ele>177</ele>
        <time>2018-03-31T08:56:07Z</time>
      </trkpt>
      <trkpt lat="45.93744" lon="4.78626">
        <ele>177</ele>
        <time>2018-03-31T08:56:08Z</time>
      </trkpt>
      <trkpt lat="45.93752" lon="4.78624">
        <ele>181</ele>
        <time>2018-03-31T08:56:11Z</time>
      </trkpt>
      <trkpt lat="45.93755" lon="4.78623">
        <ele>181</ele>
        <time>2018-03-31T08:56:12Z</time>
      </trkpt>
      <trkpt lat="45.93765" lon="4.7862">
        <ele>181</ele>
        <time>2018-03-31T08:56:13Z</time>
      </trkpt>
      <trkpt lat="45.93773" lon="4.78618">
        <ele>181</ele>
        <time>2018-03-31T08:56:17Z</time>
      </trkpt>
      <trkpt lat="45.93776" lon="4.78617">
        <ele>181</ele>
        <time>2018-03-31T08:56:18Z</time>
      </trkpt>
      <trkpt lat="45.93784" lon="4.78616">
        <ele>182</ele>
        <time>2018-03-31T08:56:19Z</time>
      </trkpt>
      <trkpt lat="45.93786" lon="4.78615">
        <ele>182</ele>
        <time>2018-03-31T08:56:20Z</time>
      </trkpt>
      <trkpt lat="45.93789" lon="4.78615">
        <ele>182</ele>
        <time>2018-03-31T08:56:21Z</time>
      </trkpt>
      <trkpt lat="45.93796" lon="4.78614">
        <ele>182</ele>
        <time>2018-03-31T08:56:22Z</time>
      </trkpt>
      <trkpt lat="45.93804" lon="4.78612">
        <ele>183</ele>
        <time>2018-03-31T08:56:24Z</time>
      </trkpt>
      <trkpt lat="45.93807" lon="4.78611">
        <ele>183</ele>
        <time>2018-03-31T08:56:25Z</time>
      </trkpt>
      <trkpt lat="45.93815" lon="4.78608">
        <ele>183</ele>
        <time>2018-03-31T08:56:28Z</time>
      </trkpt>
      <trkpt lat="45.93818" lon="4.78607">
        <ele>183</ele>
        <time>2018-03-31T08:56:29Z</time>
      </trkpt>
      <trkpt lat="45.93826" lon="4.78605">
        <ele>184</ele>
        <time>2018-03-31T08:56:32Z</time>
      </trkpt>
      <trkpt lat="45.93828" lon="4.78604">
        <ele>184</ele>
        <time>2018-03-31T08:56:33Z</time>
      </trkpt>
      <trkpt lat="45.93836" lon="4.78602">
        <ele>187</ele>
        <time>2018-03-31T08:56:36Z</time>
      </trkpt>
      <trkpt lat="45.93839" lon="4.78602">
        <ele>187</ele>
        <time>2018-03-31T08:56:37Z</time>
      </trkpt>
      <trkpt lat="45.93846" lon="4.78599">
        <ele>188</ele>
        <time>2018-03-31T08:56:40Z</time>
      </trkpt>
      <trkpt lat="45.93849" lon="4.78599">
        <ele>188</ele>
        <time>2018-03-31T08:56:41Z</time>
      </trkpt>
      <trkpt lat="45.93857" lon="4.78598">
        <ele>188</ele>
        <time>2018-03-31T08:56:44Z</time>
      </trkpt>
      <trkpt lat="45.93859" lon="4.78597">
        <ele>188</ele>
        <time>2018-03-31T08:56:45Z</time>
      </trkpt>
      <trkpt lat="45.93867" lon="4.78595">
        <ele>188</ele>
        <time>2018-03-31T08:56:48Z</time>
      </trkpt>
      <trkpt lat="45.93869" lon="4.78594">
        <ele>189</ele>
        <time>2018-03-31T08:56:49Z</time>
      </trkpt>
      <trkpt lat="45.93878" lon="4.78591">
        <ele>189</ele>
        <time>2018-03-31T08:56:52Z</time>
      </trkpt>
      <trkpt lat="45.9388" lon="4.78591">
        <ele>189</ele>
        <time>2018-03-31T08:56:53Z</time>
      </trkpt>
      <trkpt lat="45.93888" lon="4.78588">
        <ele>190</ele>
        <time>2018-03-31T08:56:56Z</time>
      </trkpt>
      <trkpt lat="45.9389" lon="4.78587">
        <ele>190</ele>
        <time>2018-03-31T08:56:57Z</time>
      </trkpt>
      <trkpt lat="45.93898" lon="4.78586">
        <ele>190</ele>
        <time>2018-03-31T08:57:00Z</time>
      </trkpt>
      <trkpt lat="45.939" lon="4.78585">
        <ele>191</ele>
        <time>2018-03-31T08:57:01Z</time>
      </trkpt>
      <trkpt lat="45.93908" lon="4.78583">
        <ele>192</ele>
        <time>2018-03-31T08:57:04Z</time>
      </trkpt>
      <trkpt lat="45.9391" lon="4.78582">
        <ele>193</ele>
        <time>2018-03-31T08:57:05Z</time>
      </trkpt>
      <trkpt lat="45.93916" lon="4.78578">
        <ele>193</ele>
        <time>2018-03-31T08:57:08Z</time>
      </trkpt>
      <trkpt lat="45.93918" lon="4.78576">
        <ele>194</ele>
        <time>2018-03-31T08:57:09Z</time>
      </trkpt>
      <trkpt lat="45.93926" lon="4.78571">
        <ele>195</ele>
        <time>2018-03-31T08:57:13Z</time>
      </trkpt>
      <trkpt lat="45.93928" lon="4.78571">
        <ele>196</ele>
        <time>2018-03-31T08:57:14Z</time>
      </trkpt>
      <trkpt lat="45.93933" lon="4.78578">
        <ele>196</ele>
        <time>2018-03-31T08:57:17Z</time>
      </trkpt>
      <trkpt lat="45.93934" lon="4.78582">
        <ele>196</ele>
        <time>2018-03-31T08:57:18Z</time>
      </trkpt>
      <trkpt lat="45.93935" lon="4.78594">
        <ele>195</ele>
        <time>2018-03-31T08:57:19Z</time>
      </trkpt>
      <trkpt lat="45.93935" lon="4.78599">
        <ele>195</ele>
        <time>2018-03-31T08:57:20Z</time>
      </trkpt>
      <trkpt lat="45.93934" lon="4.78609">
        <ele>195</ele>
        <time>2018-03-31T08:57:22Z</time>
      </trkpt>
      <trkpt lat="45.93934" lon="4.78615">
        <ele>195</ele>
        <time>2018-03-31T08:57:23Z</time>
      </trkpt>
      <trkpt lat="45.93934" lon="4.78621">
        <ele>195</ele>
        <time>2018-03-31T08:57:24Z</time>
      </trkpt>
      <trkpt lat="45.93935" lon="4.78628">
        <ele>195</ele>
        <time>2018-03-31T08:57:25Z</time>
      </trkpt>
      <trkpt lat="45.93936" lon="4.78635">
        <ele>195</ele>
        <time>2018-03-31T08:57:26Z</time>
      </trkpt>
      <trkpt lat="45.93936" lon="4.78642">
        <ele>195</ele>
        <time>2018-03-31T08:57:27Z</time>
      </trkpt>
      <trkpt lat="45.93935" lon="4.78655">
        <ele>194</ele>
        <time>2018-03-31T08:57:29Z</time>
      </trkpt>
      <trkpt lat="45.93935" lon="4.78661">
        <ele>194</ele>
        <time>2018-03-31T08:57:30Z</time>
      </trkpt>
      <trkpt lat="45.93935" lon="4.78671">
        <ele>193</ele>
        <time>2018-03-31T08:57:32Z</time>
      </trkpt>
      <trkpt lat="45.93936" lon="4.78676">
        <ele>193</ele>
        <time>2018-03-31T08:57:33Z</time>
      </trkpt>
      <trkpt lat="45.93935" lon="4.78687">
        <ele>194</ele>
        <time>2018-03-31T08:57:35Z</time>
      </trkpt>
      <trkpt lat="45.93935" lon="4.78693">
        <ele>194</ele>
        <time>2018-03-31T08:57:36Z</time>
      </trkpt>
      <trkpt lat="45.93936" lon="4.78705">
        <ele>194</ele>
        <time>2018-03-31T08:57:38Z</time>
      </trkpt>
      <trkpt lat="45.93936" lon="4.78711">
        <ele>194</ele>
        <time>2018-03-31T08:57:39Z</time>
      </trkpt>
      <trkpt lat="45.93935" lon="4.78724">
        <ele>194</ele>
        <time>2018-03-31T08:57:41Z</time>
      </trkpt>
      <trkpt lat="45.93935" lon="4.78731">
        <ele>193</ele>
        <time>2018-03-31T08:57:42Z</time>
      </trkpt>
      <trkpt lat="45.93935" lon="4.78738">
        <ele>193</ele>
        <time>2018-03-31T08:57:43Z</time>
      </trkpt>
      <trkpt lat="45.93935" lon="4.78744">
        <ele>193</ele>
        <time>2018-03-31T08:57:44Z</time>
      </trkpt>
      <trkpt lat="45.93935" lon="4.78751">
        <ele>193</ele>
        <time>2018-03-31T08:57:45Z</time>
      </trkpt>
      <trkpt lat="45.93934" lon="4.78757">
        <ele>193</ele>
        <time>2018-03-31T08:57:46Z</time>
      </trkpt>
      <trkpt lat="45.93934" lon="4.78764">
        <ele>193</ele>
        <time>2018-03-31T08:57:47Z</time>
      </trkpt>
      <trkpt lat="45.93935" lon="4.78771">
        <ele>193</ele>
        <time>2018-03-31T08:57:48Z</time>
      </trkpt>
      <trkpt lat="45.93935" lon="4.78778">
        <ele>194</ele>
        <time>2018-03-31T08:57:49Z</time>
      </trkpt>
      <trkpt lat="45.93935" lon="4.78785">
        <ele>194</ele>
        <time>2018-03-31T08:57:50Z</time>
      </trkpt>
      <trkpt lat="45.93935" lon="4.78793">
        <ele>194</ele>
        <time>2018-03-31T08:57:51Z</time>
      </trkpt>
      <trkpt lat="45.93935" lon="4.788">
        <ele>194</ele>
        <time>2018-03-31T08:57:52Z</time>
      </trkpt>
      <trkpt lat="45.93936" lon="4.78808">
        <ele>194</ele>
        <time>2018-03-31T08:57:53Z</time>
      </trkpt>
      <trkpt lat="45.93936" lon="4.78815">
        <ele>194</ele>
        <time>2018-03-31T08:57:54Z</time>
      </trkpt>
      <trkpt lat="45.93936" lon="4.78822">
        <ele>193</ele>
        <time>2018-03-31T08:57:55Z</time>
      </trkpt>
      <trkpt lat="45.93937" lon="4.78829">
        <ele>193</ele>
        <time>2018-03-31T08:57:56Z</time>
      </trkpt>
      <trkpt lat="45.93938" lon="4.78836">
        <ele>193</ele>
        <time>2018-03-31T08:57:57Z</time>
      </trkpt>
      <trkpt lat="45.93938" lon="4.78843">
        <ele>193</ele>
        <time>2018-03-31T08:57:58Z</time>
      </trkpt>
      <trkpt lat="45.93938" lon="4.7885">
        <ele>193</ele>
        <time>2018-03-31T08:57:59Z</time>
      </trkpt>
      <trkpt lat="45.93939" lon="4.78857">
        <ele>194</ele>
        <time>2018-03-31T08:58:00Z</time>
      </trkpt>
      <trkpt lat="45.93941" lon="4.78869">
        <ele>194</ele>
        <time>2018-03-31T08:58:02Z</time>
      </trkpt>
      <trkpt lat="45.93941" lon="4.78874">
        <ele>194</ele>
        <time>2018-03-31T08:58:03Z</time>
      </trkpt>
      <trkpt lat="45.9394" lon="4.78887">
        <ele>194</ele>
        <time>2018-03-31T08:58:05Z</time>
      </trkpt>
      <trkpt lat="45.93941" lon="4.78893">
        <ele>193</ele>
        <time>2018-03-31T08:58:06Z</time>
      </trkpt>
      <trkpt lat="45.93941" lon="4.78905">
        <ele>193</ele>
        <time>2018-03-31T08:58:08Z</time>
      </trkpt>
      <trkpt lat="45.93941" lon="4.78911">
        <ele>193</ele>
        <time>2018-03-31T08:58:09Z</time>
      </trkpt>
      <trkpt lat="45.93941" lon="4.78923">
        <ele>193</ele>
        <time>2018-03-31T08:58:11Z</time>
      </trkpt>
      <trkpt lat="45.93941" lon="4.78929">
        <ele>193</ele>
        <time>2018-03-31T08:58:12Z</time>
      </trkpt>
      <trkpt lat="45.93941" lon="4.78935">
        <ele>193</ele>
        <time>2018-03-31T08:58:13Z</time>
      </trkpt>
      <trkpt lat="45.93941" lon="4.78943">
        <ele>194</ele>
        <time>2018-03-31T08:58:14Z</time>
      </trkpt>
      <trkpt lat="45.93941" lon="4.7895">
        <ele>194</ele>
        <time>2018-03-31T08:58:15Z</time>
      </trkpt>
      <trkpt lat="45.93941" lon="4.78956">
        <ele>194</ele>
        <time>2018-03-31T08:58:16Z</time>
      </trkpt>
      <trkpt lat="45.93942" lon="4.78969">
        <ele>194</ele>
        <time>2018-03-31T08:58:18Z</time>
      </trkpt>
      <trkpt lat="45.93942" lon="4.78975">
        <ele>194</ele>
        <time>2018-03-31T08:58:19Z</time>
      </trkpt>
      <trkpt lat="45.93943" lon="4.78982">
        <ele>194</ele>
        <time>2018-03-31T08:58:20Z</time>
      </trkpt>
      <trkpt lat="45.93944" lon="4.78989">
        <ele>194</ele>
        <time>2018-03-31T08:58:21Z</time>
      </trkpt>
      <trkpt lat="45.93943" lon="4.79001">
        <ele>194</ele>
        <time>2018-03-31T08:58:23Z</time>
      </trkpt>
      <trkpt lat="45.93943" lon="4.79008">
        <ele>194</ele>
        <time>2018-03-31T08:58:24Z</time>
      </trkpt>
      <trkpt lat="45.93944" lon="4.7902">
        <ele>195</ele>
        <time>2018-03-31T08:58:26Z</time>
      </trkpt>
      <trkpt lat="45.93943" lon="4.79025">
        <ele>195</ele>
        <time>2018-03-31T08:58:27Z</time>
      </trkpt>
      <trkpt lat="45.93944" lon="4.79032">
        <ele>195</ele>
        <time>2018-03-31T08:58:28Z</time>
      </trkpt>
      <trkpt lat="45.93945" lon="4.79039">
        <ele>195</ele>
        <time>2018-03-31T08:58:29Z</time>
      </trkpt>
      <trkpt lat="45.93946" lon="4.79046">
        <ele>195</ele>
        <time>2018-03-31T08:58:30Z</time>
      </trkpt>
      <trkpt lat="45.93946" lon="4.79054">
        <ele>196</ele>
        <time>2018-03-31T08:58:31Z</time>
      </trkpt>
      <trkpt lat="45.93945" lon="4.79061">
        <ele>195</ele>
        <time>2018-03-31T08:58:32Z</time>
      </trkpt>
      <trkpt lat="45.93945" lon="4.79067">
        <ele>195</ele>
        <time>2018-03-31T08:58:33Z</time>
      </trkpt>
      <trkpt lat="45.93946" lon="4.79075">
        <ele>195</ele>
        <time>2018-03-31T08:58:34Z</time>
      </trkpt>
      <trkpt lat="45.93947" lon="4.7908">
        <ele>195</ele>
        <time>2018-03-31T08:58:35Z</time>
      </trkpt>
      <trkpt lat="45.93947" lon="4.79087">
        <ele>196</ele>
        <time>2018-03-31T08:58:36Z</time>
      </trkpt>
      <trkpt lat="45.93948" lon="4.79093">
        <ele>196</ele>
        <time>2018-03-31T08:58:37Z</time>
      </trkpt>
      <trkpt lat="45.93948" lon="4.79106">
        <ele>196</ele>
        <time>2018-03-31T08:58:39Z</time>
      </trkpt>
      <trkpt lat="45.93948" lon="4.79113">
        <ele>197</ele>
        <time>2018-03-31T08:58:40Z</time>
      </trkpt>
      <trkpt lat="45.93949" lon="4.79119">
        <ele>197</ele>
        <time>2018-03-31T08:58:41Z</time>
      </trkpt>
      <trkpt lat="45.93949" lon="4.79126">
        <ele>197</ele>
        <time>2018-03-31T08:58:42Z</time>
      </trkpt>
      <trkpt lat="45.93949" lon="4.79139">
        <ele>197</ele>
        <time>2018-03-31T08:58:44Z</time>
      </trkpt>
      <trkpt lat="45.93948" lon="4.79145">
        <ele>197</ele>
        <time>2018-03-31T08:58:45Z</time>
      </trkpt>
      <trkpt lat="45.93948" lon="4.79156">
        <ele>196</ele>
        <time>2018-03-31T08:58:47Z</time>
      </trkpt>
      <trkpt lat="45.93948" lon="4.79162">
        <ele>196</ele>
        <time>2018-03-31T08:58:48Z</time>
      </trkpt>
      <trkpt lat="45.93948" lon="4.79173">
        <ele>197</ele>
        <time>2018-03-31T08:58:50Z</time>
      </trkpt>
      <trkpt lat="45.93949" lon="4.79179">
        <ele>197</ele>
        <time>2018-03-31T08:58:51Z</time>
      </trkpt>
      <trkpt lat="45.93949" lon="4.79191">
        <ele>197</ele>
        <time>2018-03-31T08:58:53Z</time>
      </trkpt>
      <trkpt lat="45.93949" lon="4.79196">
        <ele>197</ele>
        <time>2018-03-31T08:58:54Z</time>
      </trkpt>
      <trkpt lat="45.93949" lon="4.79208">
        <ele>197</ele>
        <time>2018-03-31T08:58:56Z</time>
      </trkpt>
      <trkpt lat="45.9395" lon="4.79214">
        <ele>197</ele>
        <time>2018-03-31T08:58:57Z</time>
      </trkpt>
      <trkpt lat="45.9395" lon="4.7922">
        <ele>197</ele>
        <time>2018-03-31T08:58:58Z</time>
      </trkpt>
      <trkpt lat="45.9395" lon="4.79227">
        <ele>197</ele>
        <time>2018-03-31T08:58:59Z</time>
      </trkpt>
      <trkpt lat="45.93949" lon="4.79235">
        <ele>197</ele>
        <time>2018-03-31T08:59:00Z</time>
      </trkpt>
      <trkpt lat="45.9395" lon="4.79242">
        <ele>197</ele>
        <time>2018-03-31T08:59:01Z</time>
      </trkpt>
      <trkpt lat="45.9395" lon="4.79249">
        <ele>197</ele>
        <time>2018-03-31T08:59:02Z</time>
      </trkpt>
      <trkpt lat="45.9395" lon="4.79255">
        <ele>197</ele>
        <time>2018-03-31T08:59:03Z</time>
      </trkpt>
      <trkpt lat="45.93951" lon="4.79262">
        <ele>198</ele>
        <time>2018-03-31T08:59:04Z</time>
      </trkpt>
      <trkpt lat="45.93952" lon="4.79268">
        <ele>198</ele>
        <time>2018-03-31T08:59:05Z</time>
      </trkpt>
      <trkpt lat="45.93952" lon="4.79275">
        <ele>198</ele>
        <time>2018-03-31T08:59:06Z</time>
      </trkpt>
      <trkpt lat="45.93952" lon="4.79282">
        <ele>198</ele>
        <time>2018-03-31T08:59:07Z</time>
      </trkpt>
      <trkpt lat="45.93952" lon="4.79289">
        <ele>198</ele>
        <time>2018-03-31T08:59:08Z</time>
      </trkpt>
      <trkpt lat="45.93952" lon="4.79296">
        <ele>198</ele>
        <time>2018-03-31T08:59:09Z</time>
      </trkpt>
      <trkpt lat="45.93952" lon="4.79302">
        <ele>198</ele>
        <time>2018-03-31T08:59:10Z</time>
      </trkpt>
      <trkpt lat="45.93952" lon="4.79309">
        <ele>198</ele>
        <time>2018-03-31T08:59:11Z</time>
      </trkpt>
      <trkpt lat="45.93952" lon="4.79316">
        <ele>199</ele>
        <time>2018-03-31T08:59:12Z</time>
      </trkpt>
      <trkpt lat="45.93952" lon="4.79322">
        <ele>199</ele>
        <time>2018-03-31T08:59:13Z</time>
      </trkpt>
      <trkpt lat="45.93953" lon="4.79334">
        <ele>200</ele>
        <time>2018-03-31T08:59:15Z</time>
      </trkpt>
      <trkpt lat="45.93952" lon="4.7934">
        <ele>200</ele>
        <time>2018-03-31T08:59:16Z</time>
      </trkpt>
      <trkpt lat="45.93953" lon="4.79346">
        <ele>200</ele>
        <time>2018-03-31T08:59:17Z</time>
      </trkpt>
      <trkpt lat="45.93953" lon="4.79353">
        <ele>200</ele>
        <time>2018-03-31T08:59:18Z</time>
      </trkpt>
      <trkpt lat="45.93953" lon="4.7936">
        <ele>201</ele>
        <time>2018-03-31T08:59:19Z</time>
      </trkpt>
      <trkpt lat="45.93952" lon="4.79366">
        <ele>201</ele>
        <time>2018-03-31T08:59:20Z</time>
      </trkpt>
      <trkpt lat="45.93952" lon="4.79373">
        <ele>201</ele>
        <time>2018-03-31T08:59:21Z</time>
      </trkpt>
      <trkpt lat="45.93952" lon="4.7938">
        <ele>201</ele>
        <time>2018-03-31T08:59:22Z</time>
      </trkpt>
      <trkpt lat="45.93953" lon="4.79392">
        <ele>201</ele>
        <time>2018-03-31T08:59:24Z</time>
      </trkpt>
      <trkpt lat="45.93953" lon="4.79399">
        <ele>201</ele>
        <time>2018-03-31T08:59:25Z</time>
      </trkpt>
      <trkpt lat="45.93952" lon="4.79411">
        <ele>201</ele>
        <time>2018-03-31T08:59:27Z</time>
      </trkpt>
      <trkpt lat="45.93952" lon="4.79413">
        <ele>201</ele>
        <time>2018-03-31T08:59:28Z</time>
      </trkpt>
      <trkpt lat="45.93952" lon="4.7942">
        <ele>202</ele>
        <time>2018-03-31T08:59:29Z</time>
      </trkpt>
      <trkpt lat="45.93952" lon="4.79428">
        <ele>202</ele>
        <time>2018-03-31T08:59:30Z</time>
      </trkpt>
      <trkpt lat="45.93952" lon="4.7944">
        <ele>202</ele>
        <time>2018-03-31T08:59:32Z</time>
      </trkpt>
      <trkpt lat="45.93952" lon="4.79441">
        <ele>202</ele>
        <time>2018-03-31T08:59:33Z</time>
      </trkpt>
      <trkpt lat="45.9395" lon="4.7945">
        <ele>202</ele>
        <time>2018-03-31T08:59:35Z</time>
      </trkpt>
      <trkpt lat="45.93949" lon="4.79456">
        <ele>202</ele>
        <time>2018-03-31T08:59:36Z</time>
      </trkpt>
      <trkpt lat="45.93949" lon="4.79468">
        <ele>202</ele>
        <time>2018-03-31T08:59:38Z</time>
      </trkpt>
      <trkpt lat="45.93949" lon="4.79474">
        <ele>202</ele>
        <time>2018-03-31T08:59:39Z</time>
      </trkpt>
      <trkpt lat="45.9395" lon="4.79486">
        <ele>202</ele>
        <time>2018-03-31T08:59:41Z</time>
      </trkpt>
      <trkpt lat="45.9395" lon="4.79493">
        <ele>202</ele>
        <time>2018-03-31T08:59:42Z</time>
      </trkpt>
      <trkpt lat="45.93951" lon="4.79504">
        <ele>204</ele>
        <time>2018-03-31T08:59:44Z</time>
      </trkpt>
      <trkpt lat="45.93951" lon="4.7951">
        <ele>204</ele>
        <time>2018-03-31T08:59:45Z</time>
      </trkpt>
      <trkpt lat="45.93951" lon="4.7952">
        <ele>204</ele>
        <time>2018-03-31T08:59:47Z</time>
      </trkpt>
      <trkpt lat="45.93952" lon="4.79526">
        <ele>204</ele>
        <time>2018-03-31T08:59:48Z</time>
      </trkpt>
      <trkpt lat="45.93952" lon="4.79537">
        <ele>204</ele>
        <time>2018-03-31T08:59:50Z</time>
      </trkpt>
      <trkpt lat="45.93953" lon="4.79543">
        <ele>205</ele>
        <time>2018-03-31T08:59:51Z</time>
      </trkpt>
      <trkpt lat="45.93953" lon="4.79553">
        <ele>205</ele>
        <time>2018-03-31T08:59:54Z</time>
      </trkpt>
      <trkpt lat="45.93954" lon="4.79557">
        <ele>205</ele>
        <time>2018-03-31T08:59:55Z</time>
      </trkpt>
      <trkpt lat="45.93954" lon="4.79565">
        <ele>205</ele>
        <time>2018-03-31T08:59:57Z</time>
      </trkpt>
      <trkpt lat="45.93955" lon="4.79569">
        <ele>205</ele>
        <time>2018-03-31T08:59:58Z</time>
      </trkpt>
      <trkpt lat="45.93956" lon="4.79579">
        <ele>205</ele>
        <time>2018-03-31T09:00:00Z</time>
      </trkpt>
      <trkpt lat="45.93956" lon="4.79583">
        <ele>205</ele>
        <time>2018-03-31T09:00:01Z</time>
      </trkpt>
      <trkpt lat="45.93957" lon="4.79588">
        <ele>207</ele>
        <time>2018-03-31T09:00:02Z</time>
      </trkpt>
      <trkpt lat="45.93959" lon="4.79601">
        <ele>207</ele>
        <time>2018-03-31T09:00:03Z</time>
      </trkpt>
      <trkpt lat="45.9396" lon="4.79611">
        <ele>207</ele>
        <time>2018-03-31T09:00:06Z</time>
      </trkpt>
      <trkpt lat="45.93961" lon="4.79622">
        <ele>207</ele>
        <time>2018-03-31T09:00:07Z</time>
      </trkpt>
      <trkpt lat="45.93961" lon="4.79633">
        <ele>207</ele>
        <time>2018-03-31T09:00:09Z</time>
      </trkpt>
      <trkpt lat="45.93962" lon="4.79638">
        <ele>207</ele>
        <time>2018-03-31T09:00:10Z</time>
      </trkpt>
      <trkpt lat="45.93963" lon="4.79649">
        <ele>207</ele>
        <time>2018-03-31T09:00:12Z</time>
      </trkpt>
      <trkpt lat="45.93964" lon="4.79654">
        <ele>207</ele>
        <time>2018-03-31T09:00:13Z</time>
      </trkpt>
      <trkpt lat="45.93965" lon="4.79665">
        <ele>207</ele>
        <time>2018-03-31T09:00:15Z</time>
      </trkpt>
      <trkpt lat="45.93966" lon="4.7967">
        <ele>207</ele>
        <time>2018-03-31T09:00:16Z</time>
      </trkpt>
      <trkpt lat="45.93967" lon="4.79681">
        <ele>207</ele>
        <time>2018-03-31T09:00:18Z</time>
      </trkpt>
      <trkpt lat="45.93967" lon="4.79686">
        <ele>207</ele>
        <time>2018-03-31T09:00:19Z</time>
      </trkpt>
      <trkpt lat="45.93968" lon="4.79697">
        <ele>207</ele>
        <time>2018-03-31T09:00:21Z</time>
      </trkpt>
      <trkpt lat="45.93968" lon="4.79702">
        <ele>207</ele>
        <time>2018-03-31T09:00:22Z</time>
      </trkpt>
      <trkpt lat="45.93968" lon="4.79713">
        <ele>207</ele>
        <time>2018-03-31T09:00:24Z</time>
      </trkpt>
      <trkpt lat="45.93969" lon="4.79718">
        <ele>207</ele>
        <time>2018-03-31T09:00:25Z</time>
      </trkpt>
      <trkpt lat="45.9397" lon="4.79728">
        <ele>207</ele>
        <time>2018-03-31T09:00:27Z</time>
      </trkpt>
      <trkpt lat="45.9397" lon="4.79731">
        <ele>207</ele>
        <time>2018-03-31T09:00:28Z</time>
      </trkpt>
      <trkpt lat="45.9397" lon="4.79739">
        <ele>207</ele>
        <time>2018-03-31T09:00:29Z</time>
      </trkpt>
      <trkpt lat="45.93971" lon="4.79745">
        <ele>207</ele>
        <time>2018-03-31T09:00:30Z</time>
      </trkpt>
      <trkpt lat="45.93972" lon="4.79757">
        <ele>206</ele>
        <time>2018-03-31T09:00:32Z</time>
      </trkpt>
      <trkpt lat="45.93972" lon="4.79763">
        <ele>206</ele>
        <time>2018-03-31T09:00:33Z</time>
      </trkpt>
      <trkpt lat="45.93973" lon="4.79776">
        <ele>206</ele>
        <time>2018-03-31T09:00:35Z</time>
      </trkpt>
      <trkpt lat="45.93973" lon="4.79783">
        <ele>206</ele>
        <time>2018-03-31T09:00:36Z</time>
      </trkpt>
      <trkpt lat="45.93973" lon="4.7979">
        <ele>206</ele>
        <time>2018-03-31T09:00:37Z</time>
      </trkpt>
      <trkpt lat="45.93972" lon="4.79796">
        <ele>206</ele>
        <time>2018-03-31T09:00:38Z</time>
      </trkpt>
      <trkpt lat="45.93971" lon="4.79809">
        <ele>207</ele>
        <time>2018-03-31T09:00:40Z</time>
      </trkpt>
      <trkpt lat="45.93971" lon="4.79815">
        <ele>207</ele>
        <time>2018-03-31T09:00:41Z</time>
      </trkpt>
      <trkpt lat="45.9397" lon="4.79827">
        <ele>207</ele>
        <time>2018-03-31T09:00:43Z</time>
      </trkpt>
      <trkpt lat="45.93969" lon="4.79834">
        <ele>207</ele>
        <time>2018-03-31T09:00:44Z</time>
      </trkpt>
      <trkpt lat="45.93968" lon="4.79841">
        <ele>206</ele>
        <time>2018-03-31T09:00:45Z</time>
      </trkpt>
      <trkpt lat="45.93966" lon="4.79847">
        <ele>206</ele>
        <time>2018-03-31T09:00:46Z</time>
      </trkpt>
      <trkpt lat="45.93964" lon="4.79854">
        <ele>206</ele>
        <time>2018-03-31T09:00:47Z</time>
      </trkpt>
      <trkpt lat="45.93963" lon="4.79861">
        <ele>206</ele>
        <time>2018-03-31T09:00:48Z</time>
      </trkpt>
      <trkpt lat="45.93961" lon="4.79867">
        <ele>206</ele>
        <time>2018-03-31T09:00:49Z</time>
      </trkpt>
      <trkpt lat="45.9396" lon="4.79874">
        <ele>206</ele>
        <time>2018-03-31T09:00:50Z</time>
      </trkpt>
      <trkpt lat="45.93958" lon="4.79881">
        <ele>206</ele>
        <time>2018-03-31T09:00:51Z</time>
      </trkpt>
      <trkpt lat="45.93957" lon="4.79888">
        <ele>206</ele>
        <time>2018-03-31T09:00:52Z</time>
      </trkpt>
      <trkpt lat="45.93955" lon="4.79895">
        <ele>205</ele>
        <time>2018-03-31T09:00:53Z</time>
      </trkpt>
      <trkpt lat="45.93954" lon="4.79903">
        <ele>205</ele>
        <time>2018-03-31T09:00:54Z</time>
      </trkpt>
      <trkpt lat="45.93951" lon="4.79908">
        <ele>205</ele>
        <time>2018-03-31T09:00:55Z</time>
      </trkpt>
      <trkpt lat="45.9395" lon="4.79916">
        <ele>205</ele>
        <time>2018-03-31T09:00:56Z</time>
      </trkpt>
      <trkpt lat="45.93949" lon="4.79923">
        <ele>205</ele>
        <time>2018-03-31T09:00:57Z</time>
      </trkpt>
      <trkpt lat="45.93948" lon="4.7993">
        <ele>205</ele>
        <time>2018-03-31T09:00:58Z</time>
      </trkpt>
      <trkpt lat="45.93947" lon="4.79938">
        <ele>205</ele>
        <time>2018-03-31T09:00:59Z</time>
      </trkpt>
      <trkpt lat="45.93946" lon="4.79945">
        <ele>205</ele>
        <time>2018-03-31T09:01:00Z</time>
      </trkpt>
      <trkpt lat="45.93945" lon="4.79952">
        <ele>205</ele>
        <time>2018-03-31T09:01:01Z</time>
      </trkpt>
      <trkpt lat="45.93943" lon="4.79959">
        <ele>205</ele>
        <time>2018-03-31T09:01:02Z</time>
      </trkpt>
      <trkpt lat="45.93943" lon="4.79966">
        <ele>205</ele>
        <time>2018-03-31T09:01:03Z</time>
      </trkpt>
      <trkpt lat="45.93942" lon="4.79973">
        <ele>205</ele>
        <time>2018-03-31T09:01:04Z</time>
      </trkpt>
      <trkpt lat="45.93941" lon="4.7998">
        <ele>204</ele>
        <time>2018-03-31T09:01:05Z</time>
      </trkpt>
      <trkpt lat="45.93939" lon="4.79986">
        <ele>204</ele>
        <time>2018-03-31T09:01:06Z</time>
      </trkpt>
      <trkpt lat="45.93938" lon="4.79994">
        <ele>204</ele>
        <time>2018-03-31T09:01:07Z</time>
      </trkpt>
      <trkpt lat="45.93938" lon="4.80001">
        <ele>205</ele>
        <time>2018-03-31T09:01:08Z</time>
      </trkpt>
      <trkpt lat="45.93938" lon="4.80007">
        <ele>205</ele>
        <time>2018-03-31T09:01:09Z</time>
      </trkpt>
      <trkpt lat="45.93937" lon="4.80014">
        <ele>206</ele>
        <time>2018-03-31T09:01:10Z</time>
      </trkpt>
      <trkpt lat="45.93936" lon="4.80021">
        <ele>206</ele>
        <time>2018-03-31T09:01:11Z</time>
      </trkpt>
      <trkpt lat="45.93936" lon="4.80028">
        <ele>206</ele>
        <time>2018-03-31T09:01:12Z</time>
      </trkpt>
      <trkpt lat="45.93935" lon="4.80034">
        <ele>207</ele>
        <time>2018-03-31T09:01:13Z</time>
      </trkpt>
      <trkpt lat="45.93935" lon="4.80041">
        <ele>207</ele>
        <time>2018-03-31T09:01:14Z</time>
      </trkpt>
      <trkpt lat="45.93934" lon="4.8005">
        <ele>207</ele>
        <time>2018-03-31T09:01:15Z</time>
      </trkpt>
      <trkpt lat="45.93934" lon="4.80056">
        <ele>207</ele>
        <time>2018-03-31T09:01:16Z</time>
      </trkpt>
      <trkpt lat="45.93933" lon="4.80063">
        <ele>207</ele>
        <time>2018-03-31T09:01:17Z</time>
      </trkpt>
      <trkpt lat="45.93934" lon="4.80069">
        <ele>207</ele>
        <time>2018-03-31T09:01:18Z</time>
      </trkpt>
      <trkpt lat="45.93934" lon="4.80077">
        <ele>207</ele>
        <time>2018-03-31T09:01:19Z</time>
      </trkpt>
      <trkpt lat="45.93934" lon="4.80085">
        <ele>207</ele>
        <time>2018-03-31T09:01:20Z</time>
      </trkpt>
      <trkpt lat="45.93935" lon="4.80092">
        <ele>208</ele>
        <time>2018-03-31T09:01:21Z</time>
      </trkpt>
      <trkpt lat="45.93935" lon="4.80098">
        <ele>208</ele>
        <time>2018-03-31T09:01:22Z</time>
      </trkpt>
      <trkpt lat="45.93935" lon="4.80105">
        <ele>208</ele>
        <time>2018-03-31T09:01:23Z</time>
      </trkpt>
      <trkpt lat="45.93937" lon="4.80111">
        <ele>208</ele>
        <time>2018-03-31T09:01:24Z</time>
      </trkpt>
      <trkpt lat="45.93937" lon="4.80119">
        <ele>208</ele>
        <time>2018-03-31T09:01:25Z</time>
      </trkpt>
      <trkpt lat="45.93938" lon="4.80126">
        <ele>208</ele>
        <time>2018-03-31T09:01:26Z</time>
      </trkpt>
      <trkpt lat="45.93939" lon="4.80133">
        <ele>208</ele>
        <time>2018-03-31T09:01:27Z</time>
      </trkpt>
      <trkpt lat="45.9394" lon="4.8014">
        <ele>208</ele>
        <time>2018-03-31T09:01:28Z</time>
      </trkpt>
      <trkpt lat="45.93941" lon="4.80146">
        <ele>208</ele>
        <time>2018-03-31T09:01:29Z</time>
      </trkpt>
      <trkpt lat="45.93942" lon="4.80153">
        <ele>208</ele>
        <time>2018-03-31T09:01:30Z</time>
      </trkpt>
      <trkpt lat="45.93944" lon="4.8016">
        <ele>208</ele>
        <time>2018-03-31T09:01:31Z</time>
      </trkpt>
      <trkpt lat="45.93945" lon="4.80167">
        <ele>206</ele>
        <time>2018-03-31T09:01:32Z</time>
      </trkpt>
      <trkpt lat="45.93945" lon="4.80174">
        <ele>206</ele>
        <time>2018-03-31T09:01:33Z</time>
      </trkpt>
      <trkpt lat="45.93947" lon="4.80181">
        <ele>206</ele>
        <time>2018-03-31T09:01:34Z</time>
      </trkpt>
      <trkpt lat="45.93948" lon="4.80189">
        <ele>205</ele>
        <time>2018-03-31T09:01:35Z</time>
      </trkpt>
      <trkpt lat="45.9395" lon="4.80197">
        <ele>205</ele>
        <time>2018-03-31T09:01:36Z</time>
      </trkpt>
      <trkpt lat="45.93952" lon="4.80205">
        <ele>205</ele>
        <time>2018-03-31T09:01:37Z</time>
      </trkpt>
      <trkpt lat="45.93954" lon="4.80211">
        <ele>205</ele>
        <time>2018-03-31T09:01:38Z</time>
      </trkpt>
      <trkpt lat="45.93955" lon="4.80219">
        <ele>205</ele>
        <time>2018-03-31T09:01:39Z</time>
      </trkpt>
      <trkpt lat="45.93957" lon="4.80226">
        <ele>205</ele>
        <time>2018-03-31T09:01:40Z</time>
      </trkpt>
      <trkpt lat="45.93959" lon="4.80233">
        <ele>204</ele>
        <time>2018-03-31T09:01:41Z</time>
      </trkpt>
      <trkpt lat="45.9396" lon="4.8024">
        <ele>204</ele>
        <time>2018-03-31T09:01:42Z</time>
      </trkpt>
      <trkpt lat="45.93962" lon="4.80247">
        <ele>204</ele>
        <time>2018-03-31T09:01:43Z</time>
      </trkpt>
      <trkpt lat="45.93965" lon="4.80253">
        <ele>202</ele>
        <time>2018-03-31T09:01:44Z</time>
      </trkpt>
      <trkpt lat="45.93967" lon="4.8026">
        <ele>202</ele>
        <time>2018-03-31T09:01:45Z</time>
      </trkpt>
      <trkpt lat="45.93969" lon="4.80266">
        <ele>202</ele>
        <time>2018-03-31T09:01:46Z</time>
      </trkpt>
      <trkpt lat="45.93971" lon="4.80273">
        <ele>202</ele>
        <time>2018-03-31T09:01:47Z</time>
      </trkpt>
      <trkpt lat="45.93973" lon="4.8028">
        <ele>202</ele>
        <time>2018-03-31T09:01:48Z</time>
      </trkpt>
      <trkpt lat="45.93977" lon="4.80291">
        <ele>203</ele>
        <time>2018-03-31T09:01:50Z</time>
      </trkpt>
      <trkpt lat="45.93978" lon="4.80297">
        <ele>203</ele>
        <time>2018-03-31T09:01:51Z</time>
      </trkpt>
      <trkpt lat="45.93981" lon="4.80309">
        <ele>203</ele>
        <time>2018-03-31T09:01:54Z</time>
      </trkpt>
      <trkpt lat="45.93982" lon="4.80312">
        <ele>203</ele>
        <time>2018-03-31T09:01:55Z</time>
      </trkpt>
      <trkpt lat="45.93986" lon="4.80323">
        <ele>204</ele>
        <time>2018-03-31T09:01:58Z</time>
      </trkpt>
      <trkpt lat="45.93987" lon="4.80327">
        <ele>204</ele>
        <time>2018-03-31T09:01:59Z</time>
      </trkpt>
      <trkpt lat="45.93991" lon="4.80338">
        <ele>206</ele>
        <time>2018-03-31T09:02:02Z</time>
      </trkpt>
      <trkpt lat="45.93992" lon="4.80342">
        <ele>206</ele>
        <time>2018-03-31T09:02:03Z</time>
      </trkpt>
      <trkpt lat="45.93995" lon="4.80352">
        <ele>206</ele>
        <time>2018-03-31T09:02:06Z</time>
      </trkpt>
      <trkpt lat="45.93996" lon="4.80356">
        <ele>206</ele>
        <time>2018-03-31T09:02:07Z</time>
      </trkpt>
      <trkpt lat="45.93999" lon="4.80366">
        <ele>207</ele>
        <time>2018-03-31T09:02:10Z</time>
      </trkpt>
      <trkpt lat="45.94" lon="4.8037">
        <ele>207</ele>
        <time>2018-03-31T09:02:11Z</time>
      </trkpt>
      <trkpt lat="45.94003" lon="4.80381">
        <ele>216</ele>
        <time>2018-03-31T09:02:14Z</time>
      </trkpt>
      <trkpt lat="45.94004" lon="4.80385">
        <ele>217</ele>
        <time>2018-03-31T09:02:15Z</time>
      </trkpt>
      <trkpt lat="45.94007" lon="4.80397">
        <ele>217</ele>
        <time>2018-03-31T09:02:18Z</time>
      </trkpt>
      <trkpt lat="45.94008" lon="4.80401">
        <ele>217</ele>
        <time>2018-03-31T09:02:19Z</time>
      </trkpt>
      <trkpt lat="45.94011" lon="4.80413">
        <ele>217</ele>
        <time>2018-03-31T09:02:22Z</time>
      </trkpt>
      <trkpt lat="45.94013" lon="4.80417">
        <ele>220</ele>
        <time>2018-03-31T09:02:23Z</time>
      </trkpt>
      <trkpt lat="45.94014" lon="4.80425">
        <ele>221</ele>
        <time>2018-03-31T09:02:25Z</time>
      </trkpt>
      <trkpt lat="45.94015" lon="4.8043">
        <ele>221</ele>
        <time>2018-03-31T09:02:26Z</time>
      </trkpt>
      <trkpt lat="45.94016" lon="4.80438">
        <ele>222</ele>
        <time>2018-03-31T09:02:28Z</time>
      </trkpt>
      <trkpt lat="45.94017" lon="4.80443">
        <ele>222</ele>
        <time>2018-03-31T09:02:29Z</time>
      </trkpt>
      <trkpt lat="45.94017" lon="4.80452">
        <ele>223</ele>
        <time>2018-03-31T09:02:31Z</time>
      </trkpt>
      <trkpt lat="45.94018" lon="4.80456">
        <ele>223</ele>
        <time>2018-03-31T09:02:32Z</time>
      </trkpt>
      <trkpt lat="45.94018" lon="4.80465">
        <ele>223</ele>
        <time>2018-03-31T09:02:34Z</time>
      </trkpt>
      <trkpt lat="45.94018" lon="4.8047">
        <ele>223</ele>
        <time>2018-03-31T09:02:35Z</time>
      </trkpt>
      <trkpt lat="45.94018" lon="4.80479">
        <ele>223</ele>
        <time>2018-03-31T09:02:37Z</time>
      </trkpt>
      <trkpt lat="45.94018" lon="4.80483">
        <ele>223</ele>
        <time>2018-03-31T09:02:38Z</time>
      </trkpt>
      <trkpt lat="45.94018" lon="4.80496">
        <ele>222</ele>
        <time>2018-03-31T09:02:41Z</time>
      </trkpt>
      <trkpt lat="45.94018" lon="4.805">
        <ele>223</ele>
        <time>2018-03-31T09:02:42Z</time>
      </trkpt>
      <trkpt lat="45.94018" lon="4.80512">
        <ele>223</ele>
        <time>2018-03-31T09:02:45Z</time>
      </trkpt>
      <trkpt lat="45.94018" lon="4.80515">
        <ele>224</ele>
        <time>2018-03-31T09:02:46Z</time>
      </trkpt>
      <trkpt lat="45.94019" lon="4.80526">
        <ele>224</ele>
        <time>2018-03-31T09:02:49Z</time>
      </trkpt>
      <trkpt lat="45.94019" lon="4.80529">
        <ele>224</ele>
        <time>2018-03-31T09:02:50Z</time>
      </trkpt>
      <trkpt lat="45.94019" lon="4.80541">
        <ele>225</ele>
        <time>2018-03-31T09:02:53Z</time>
      </trkpt>
      <trkpt lat="45.94019" lon="4.80545">
        <ele>225</ele>
        <time>2018-03-31T09:02:54Z</time>
      </trkpt>
      <trkpt lat="45.9402" lon="4.80555">
        <ele>224</ele>
        <time>2018-03-31T09:02:57Z</time>
      </trkpt>
      <trkpt lat="45.9402" lon="4.80559">
        <ele>224</ele>
        <time>2018-03-31T09:02:58Z</time>
      </trkpt>
      <trkpt lat="45.9402" lon="4.80569">
        <ele>224</ele>
        <time>2018-03-31T09:03:01Z</time>
      </trkpt>
      <trkpt lat="45.9402" lon="4.80573">
        <ele>223</ele>
        <time>2018-03-31T09:03:02Z</time>
      </trkpt>
      <trkpt lat="45.94021" lon="4.80583">
        <ele>223</ele>
        <time>2018-03-31T09:03:05Z</time>
      </trkpt>
      <trkpt lat="45.94022" lon="4.80586">
        <ele>223</ele>
        <time>2018-03-31T09:03:06Z</time>
      </trkpt>
      <trkpt lat="45.94023" lon="4.80597">
        <ele>224</ele>
        <time>2018-03-31T09:03:09Z</time>
      </trkpt>
      <trkpt lat="45.94023" lon="4.806">
        <ele>224</ele>
        <time>2018-03-31T09:03:10Z</time>
      </trkpt>
      <trkpt lat="45.94024" lon="4.80612">
        <ele>225</ele>
        <time>2018-03-31T09:03:14Z</time>
      </trkpt>
      <trkpt lat="45.94024" lon="4.80616">
        <ele>225</ele>
        <time>2018-03-31T09:03:15Z</time>
      </trkpt>
      <trkpt lat="45.94025" lon="4.80627">
        <ele>225</ele>
        <time>2018-03-31T09:03:18Z</time>
      </trkpt>
      <trkpt lat="45.94026" lon="4.80631">
        <ele>225</ele>
        <time>2018-03-31T09:03:19Z</time>
      </trkpt>
      <trkpt lat="45.94027" lon="4.80642">
        <ele>225</ele>
        <time>2018-03-31T09:03:22Z</time>
      </trkpt>
      <trkpt lat="45.94028" lon="4.80646">
        <ele>224</ele>
        <time>2018-03-31T09:03:23Z</time>
      </trkpt>
      <trkpt lat="45.94029" lon="4.80658">
        <ele>224</ele>
        <time>2018-03-31T09:03:26Z</time>
      </trkpt>
      <trkpt lat="45.94029" lon="4.80662">
        <ele>224</ele>
        <time>2018-03-31T09:03:27Z</time>
      </trkpt>
      <trkpt lat="45.94031" lon="4.80674">
        <ele>225</ele>
        <time>2018-03-31T09:03:30Z</time>
      </trkpt>
      <trkpt lat="45.94032" lon="4.80678">
        <ele>225</ele>
        <time>2018-03-31T09:03:31Z</time>
      </trkpt>
      <trkpt lat="45.94033" lon="4.80687">
        <ele>225</ele>
        <time>2018-03-31T09:03:33Z</time>
      </trkpt>
      <trkpt lat="45.94033" lon="4.80691">
        <ele>225</ele>
        <time>2018-03-31T09:03:34Z</time>
      </trkpt>
      <trkpt lat="45.94035" lon="4.80703">
        <ele>226</ele>
        <time>2018-03-31T09:03:37Z</time>
      </trkpt>
      <trkpt lat="45.94035" lon="4.80706">
        <ele>226</ele>
        <time>2018-03-31T09:03:38Z</time>
      </trkpt>
      <trkpt lat="45.94037" lon="4.80718">
        <ele>226</ele>
        <time>2018-03-31T09:03:41Z</time>
      </trkpt>
      <trkpt lat="45.94038" lon="4.80721">
        <ele>226</ele>
        <time>2018-03-31T09:03:42Z</time>
      </trkpt>
      <trkpt lat="45.94039" lon="4.80732">
        <ele>227</ele>
        <time>2018-03-31T09:03:45Z</time>
      </trkpt>
      <trkpt lat="45.94039" lon="4.80735">
        <ele>227</ele>
        <time>2018-03-31T09:03:46Z</time>
      </trkpt>
      <trkpt lat="45.9404" lon="4.80746">
        <ele>227</ele>
        <time>2018-03-31T09:03:49Z</time>
      </trkpt>
      <trkpt lat="45.94041" lon="4.80749">
        <ele>227</ele>
        <time>2018-03-31T09:03:50Z</time>
      </trkpt>
      <trkpt lat="45.94042" lon="4.80759">
        <ele>228</ele>
        <time>2018-03-31T09:03:53Z</time>
      </trkpt>
      <trkpt lat="45.94042" lon="4.80763">
        <ele>228</ele>
        <time>2018-03-31T09:03:54Z</time>
      </trkpt>
      <trkpt lat="45.94044" lon="4.80774">
        <ele>228</ele>
        <time>2018-03-31T09:03:57Z</time>
      </trkpt>
      <trkpt lat="45.94044" lon="4.80778">
        <ele>228</ele>
        <time>2018-03-31T09:03:58Z</time>
      </trkpt>
      <trkpt lat="45.94045" lon="4.80789">
        <ele>228</ele>
        <time>2018-03-31T09:04:01Z</time>
      </trkpt>
      <trkpt lat="45.94045" lon="4.80793">
        <ele>228</ele>
        <time>2018-03-31T09:04:02Z</time>
      </trkpt>
      <trkpt lat="45.94046" lon="4.80806">
        <ele>229</ele>
        <time>2018-03-31T09:04:05Z</time>
      </trkpt>
      <trkpt lat="45.94046" lon="4.8081">
        <ele>229</ele>
        <time>2018-03-31T09:04:06Z</time>
      </trkpt>
      <trkpt lat="45.94047" lon="4.80822">
        <ele>229</ele>
        <time>2018-03-31T09:04:09Z</time>
      </trkpt>
      <trkpt lat="45.94048" lon="4.80826">
        <ele>229</ele>
        <time>2018-03-31T09:04:10Z</time>
      </trkpt>
      <trkpt lat="45.94049" lon="4.80837">
        <ele>230</ele>
        <time>2018-03-31T09:04:13Z</time>
      </trkpt>
      <trkpt lat="45.9405" lon="4.80841">
        <ele>230</ele>
        <time>2018-03-31T09:04:14Z</time>
      </trkpt>
      <trkpt lat="45.94051" lon="4.80852">
        <ele>230</ele>
        <time>2018-03-31T09:04:17Z</time>
      </trkpt>
      <trkpt lat="45.94052" lon="4.80856">
        <ele>230</ele>
        <time>2018-03-31T09:04:18Z</time>
      </trkpt>
      <trkpt lat="45.94053" lon="4.80867">
        <ele>230</ele>
        <time>2018-03-31T09:04:21Z</time>
      </trkpt>
      <trkpt lat="45.94054" lon="4.80871">
        <ele>230</ele>
        <time>2018-03-31T09:04:22Z</time>
      </trkpt>
      <trkpt lat="45.94055" lon="4.80881">
        <ele>230</ele>
        <time>2018-03-31T09:04:25Z</time>
      </trkpt>
      <trkpt lat="45.94056" lon="4.80885">
        <ele>230</ele>
        <time>2018-03-31T09:04:26Z</time>
      </trkpt>
      <trkpt lat="45.94057" lon="4.80896">
        <ele>231</ele>
        <time>2018-03-31T09:04:29Z</time>
      </trkpt>
      <trkpt lat="45.94057" lon="4.809">
        <ele>231</ele>
        <time>2018-03-31T09:04:30Z</time>
      </trkpt>
      <trkpt lat="45.94058" lon="4.8091">
        <ele>232</ele>
        <time>2018-03-31T09:04:33Z</time>
      </trkpt>
      <trkpt lat="45.94059" lon="4.80913">
        <ele>232</ele>
        <time>2018-03-31T09:04:34Z</time>
      </trkpt>
      <trkpt lat="45.94061" lon="4.80923">
        <ele>233</ele>
        <time>2018-03-31T09:04:37Z</time>
      </trkpt>
      <trkpt lat="45.94062" lon="4.80927">
        <ele>233</ele>
        <time>2018-03-31T09:04:38Z</time>
      </trkpt>
      <trkpt lat="45.94063" lon="4.80937">
        <ele>232</ele>
        <time>2018-03-31T09:04:41Z</time>
      </trkpt>
      <trkpt lat="45.94063" lon="4.80941">
        <ele>232</ele>
        <time>2018-03-31T09:04:42Z</time>
      </trkpt>
      <trkpt lat="45.94064" lon="4.80952">
        <ele>232</ele>
        <time>2018-03-31T09:04:45Z</time>
      </trkpt>
      <trkpt lat="45.94065" lon="4.80955">
        <ele>232</ele>
        <time>2018-03-31T09:04:46Z</time>
      </trkpt>
      <trkpt lat="45.94066" lon="4.80966">
        <ele>232</ele>
        <time>2018-03-31T09:04:49Z</time>
      </trkpt>
      <trkpt lat="45.94067" lon="4.8097">
        <ele>233</ele>
        <time>2018-03-31T09:04:50Z</time>
      </trkpt>
      <trkpt lat="45.94068" lon="4.80981">
        <ele>234</ele>
        <time>2018-03-31T09:04:53Z</time>
      </trkpt>
      <trkpt lat="45.94069" lon="4.80985">
        <ele>234</ele>
        <time>2018-03-31T09:04:54Z</time>
      </trkpt>
      <trkpt lat="45.9407" lon="4.80996">
        <ele>235</ele>
        <time>2018-03-31T09:04:57Z</time>
      </trkpt>
      <trkpt lat="45.94071" lon="4.81">
        <ele>236</ele>
        <time>2018-03-31T09:04:58Z</time>
      </trkpt>
      <trkpt lat="45.94072" lon="4.81011">
        <ele>235</ele>
        <time>2018-03-31T09:05:01Z</time>
      </trkpt>
      <trkpt lat="45.94072" lon="4.81015">
        <ele>235</ele>
        <time>2018-03-31T09:05:02Z</time>
      </trkpt>
      <trkpt lat="45.94075" lon="4.81027">
        <ele>234</ele>
        <time>2018-03-31T09:05:05Z</time>
      </trkpt>
      <trkpt lat="45.94076" lon="4.81031">
        <ele>234</ele>
        <time>2018-03-31T09:05:06Z</time>
      </trkpt>
      <trkpt lat="45.94079" lon="4.81042">
        <ele>233</ele>
        <time>2018-03-31T09:05:09Z</time>
      </trkpt>
      <trkpt lat="45.9408" lon="4.81046">
        <ele>233</ele>
        <time>2018-03-31T09:05:10Z</time>
      </trkpt>
      <trkpt lat="45.94084" lon="4.81057">
        <ele>243</ele>
        <time>2018-03-31T09:05:13Z</time>
      </trkpt>
      <trkpt lat="45.94085" lon="4.8106">
        <ele>242</ele>
        <time>2018-03-31T09:05:14Z</time>
      </trkpt>
      <trkpt lat="45.94089" lon="4.8107">
        <ele>241</ele>
        <time>2018-03-31T09:05:17Z</time>
      </trkpt>
      <trkpt lat="45.94091" lon="4.81073">
        <ele>241</ele>
        <time>2018-03-31T09:05:18Z</time>
      </trkpt>
      <trkpt lat="45.94095" lon="4.81082">
        <ele>241</ele>
        <time>2018-03-31T09:05:21Z</time>
      </trkpt>
      <trkpt lat="45.94097" lon="4.81085">
        <ele>240</ele>
        <time>2018-03-31T09:05:22Z</time>
      </trkpt>
      <trkpt lat="45.94102" lon="4.81094">
        <ele>241</ele>
        <time>2018-03-31T09:05:25Z</time>
      </trkpt>
      <trkpt lat="45.94104" lon="4.81097">
        <ele>241</ele>
        <time>2018-03-31T09:05:26Z</time>
      </trkpt>
      <trkpt lat="45.94109" lon="4.81106">
        <ele>242</ele>
        <time>2018-03-31T09:05:29Z</time>
      </trkpt>
      <trkpt lat="45.94111" lon="4.8111">
        <ele>242</ele>
        <time>2018-03-31T09:05:30Z</time>
      </trkpt>
      <trkpt lat="45.94116" lon="4.81118">
        <ele>243</ele>
        <time>2018-03-31T09:05:33Z</time>
      </trkpt>
      <trkpt lat="45.94118" lon="4.8112">
        <ele>243</ele>
        <time>2018-03-31T09:05:34Z</time>
      </trkpt>
      <trkpt lat="45.94122" lon="4.8113">
        <ele>243</ele>
        <time>2018-03-31T09:05:37Z</time>
      </trkpt>
      <trkpt lat="45.94124" lon="4.81133">
        <ele>243</ele>
        <time>2018-03-31T09:05:38Z</time>
      </trkpt>
      <trkpt lat="45.94129" lon="4.81143">
        <ele>243</ele>
        <time>2018-03-31T09:05:41Z</time>
      </trkpt>
      <trkpt lat="45.9413" lon="4.81146">
        <ele>243</ele>
        <time>2018-03-31T09:05:42Z</time>
      </trkpt>
      <trkpt lat="45.94135" lon="4.81156">
        <ele>244</ele>
        <time>2018-03-31T09:05:45Z</time>
      </trkpt>
      <trkpt lat="45.94136" lon="4.8116">
        <ele>244</ele>
        <time>2018-03-31T09:05:46Z</time>
      </trkpt>
      <trkpt lat="45.94139" lon="4.8117">
        <ele>244</ele>
        <time>2018-03-31T09:05:49Z</time>
      </trkpt>
      <trkpt lat="45.94141" lon="4.81173">
        <ele>244</ele>
        <time>2018-03-31T09:05:50Z</time>
      </trkpt>
      <trkpt lat="45.94144" lon="4.81183">
        <ele>244</ele>
        <time>2018-03-31T09:05:53Z</time>
      </trkpt>
      <trkpt lat="45.94145" lon="4.81186">
        <ele>244</ele>
        <time>2018-03-31T09:05:54Z</time>
      </trkpt>
      <trkpt lat="45.94148" lon="4.81195">
        <ele>244</ele>
        <time>2018-03-31T09:05:57Z</time>
      </trkpt>
      <trkpt lat="45.94149" lon="4.81199">
        <ele>244</ele>
        <time>2018-03-31T09:05:58Z</time>
      </trkpt>
      <trkpt lat="45.94152" lon="4.81209">
        <ele>244</ele>
        <time>2018-03-31T09:06:01Z</time>
      </trkpt>
      <trkpt lat="45.94153" lon="4.81212">
        <ele>245</ele>
        <time>2018-03-31T09:06:02Z</time>
      </trkpt>
      <trkpt lat="45.94155" lon="4.81221">
        <ele>245</ele>
        <time>2018-03-31T09:06:05Z</time>
      </trkpt>
      <trkpt lat="45.94156" lon="4.81224">
        <ele>245</ele>
        <time>2018-03-31T09:06:06Z</time>
      </trkpt>
      <trkpt lat="45.94159" lon="4.81235">
        <ele>246</ele>
        <time>2018-03-31T09:06:10Z</time>
      </trkpt>
      <trkpt lat="45.94159" lon="4.81237">
        <ele>247</ele>
        <time>2018-03-31T09:06:11Z</time>
      </trkpt>
      <trkpt lat="45.94161" lon="4.81248">
        <ele>248</ele>
        <time>2018-03-31T09:06:15Z</time>
      </trkpt>
      <trkpt lat="45.94162" lon="4.81251">
        <ele>249</ele>
        <time>2018-03-31T09:06:16Z</time>
      </trkpt>
      <trkpt lat="45.94163" lon="4.81263">
        <ele>248</ele>
        <time>2018-03-31T09:06:19Z</time>
      </trkpt>
      <trkpt lat="45.94164" lon="4.81268">
        <ele>248</ele>
        <time>2018-03-31T09:06:20Z</time>
      </trkpt>
      <trkpt lat="45.94165" lon="4.8128">
        <ele>247</ele>
        <time>2018-03-31T09:06:23Z</time>
      </trkpt>
      <trkpt lat="45.94165" lon="4.81284">
        <ele>247</ele>
        <time>2018-03-31T09:06:24Z</time>
      </trkpt>
      <trkpt lat="45.94166" lon="4.81296">
        <ele>247</ele>
        <time>2018-03-31T09:06:28Z</time>
      </trkpt>
      <trkpt lat="45.94166" lon="4.81299">
        <ele>248</ele>
        <time>2018-03-31T09:06:29Z</time>
      </trkpt>
      <trkpt lat="45.94165" lon="4.81311">
        <ele>248</ele>
        <time>2018-03-31T09:06:33Z</time>
      </trkpt>
      <trkpt lat="45.94165" lon="4.81315">
        <ele>249</ele>
        <time>2018-03-31T09:06:34Z</time>
      </trkpt>
      <trkpt lat="45.94164" lon="4.81325">
        <ele>250</ele>
        <time>2018-03-31T09:06:37Z</time>
      </trkpt>
      <trkpt lat="45.94164" lon="4.81329">
        <ele>251</ele>
        <time>2018-03-31T09:06:38Z</time>
      </trkpt>
      <trkpt lat="45.94163" lon="4.81341">
        <ele>251</ele>
        <time>2018-03-31T09:06:41Z</time>
      </trkpt>
      <trkpt lat="45.94162" lon="4.81345">
        <ele>251</ele>
        <time>2018-03-31T09:06:42Z</time>
      </trkpt>
      <trkpt lat="45.94161" lon="4.81354">
        <ele>251</ele>
        <time>2018-03-31T09:06:46Z</time>
      </trkpt>
      <trkpt lat="45.9416" lon="4.81357">
        <ele>250</ele>
        <time>2018-03-31T09:06:47Z</time>
      </trkpt>
      <trkpt lat="45.94158" lon="4.81369">
        <ele>250</ele>
        <time>2018-03-31T09:06:51Z</time>
      </trkpt>
      <trkpt lat="45.94157" lon="4.81373">
        <ele>251</ele>
        <time>2018-03-31T09:06:52Z</time>
      </trkpt>
      <trkpt lat="45.94156" lon="4.81385">
        <ele>251</ele>
        <time>2018-03-31T09:06:55Z</time>
      </trkpt>
      <trkpt lat="45.94156" lon="4.81389">
        <ele>251</ele>
        <time>2018-03-31T09:06:56Z</time>
      </trkpt>
      <trkpt lat="45.94155" lon="4.81398">
        <ele>252</ele>
        <time>2018-03-31T09:06:58Z</time>
      </trkpt>
      <trkpt lat="45.94154" lon="4.81403">
        <ele>252</ele>
        <time>2018-03-31T09:06:59Z</time>
      </trkpt>
      <trkpt lat="45.94153" lon="4.81414">
        <ele>253</ele>
        <time>2018-03-31T09:07:02Z</time>
      </trkpt>
      <trkpt lat="45.94153" lon="4.81417">
        <ele>256</ele>
        <time>2018-03-31T09:07:03Z</time>
      </trkpt>
      <trkpt lat="45.94151" lon="4.81428">
        <ele>256</ele>
        <time>2018-03-31T09:07:06Z</time>
      </trkpt>
      <trkpt lat="45.94151" lon="4.81431">
        <ele>256</ele>
        <time>2018-03-31T09:07:07Z</time>
      </trkpt>
      <trkpt lat="45.9415" lon="4.8144">
        <ele>256</ele>
        <time>2018-03-31T09:07:09Z</time>
      </trkpt>
      <trkpt lat="45.9415" lon="4.81444">
        <ele>256</ele>
        <time>2018-03-31T09:07:10Z</time>
      </trkpt>
      <trkpt lat="45.9415" lon="4.81455">
        <ele>257</ele>
        <time>2018-03-31T09:07:13Z</time>
      </trkpt>
      <trkpt lat="45.9415" lon="4.81457">
        <ele>257</ele>
        <time>2018-03-31T09:07:14Z</time>
      </trkpt>
      <trkpt lat="45.94148" lon="4.81467">
        <ele>257</ele>
        <time>2018-03-31T09:07:18Z</time>
      </trkpt>
      <trkpt lat="45.94147" lon="4.8147">
        <ele>258</ele>
        <time>2018-03-31T09:07:19Z</time>
      </trkpt>
      <trkpt lat="45.94146" lon="4.8148">
        <ele>258</ele>
        <time>2018-03-31T09:07:23Z</time>
      </trkpt>
      <trkpt lat="45.94145" lon="4.81483">
        <ele>258</ele>
        <time>2018-03-31T09:07:24Z</time>
      </trkpt>
      <trkpt lat="45.94145" lon="4.81495">
        <ele>259</ele>
        <time>2018-03-31T09:07:29Z</time>
      </trkpt>
      <trkpt lat="45.94145" lon="4.81498">
        <ele>259</ele>
        <time>2018-03-31T09:07:30Z</time>
      </trkpt>
      <trkpt lat="45.94146" lon="4.81508">
        <ele>263</ele>
        <time>2018-03-31T09:07:34Z</time>
      </trkpt>
      <trkpt lat="45.94146" lon="4.81512">
        <ele>263</ele>
        <time>2018-03-31T09:07:35Z</time>
      </trkpt>
      <trkpt lat="45.94147" lon="4.81522">
        <ele>263</ele>
        <time>2018-03-31T09:07:37Z</time>
      </trkpt>
      <trkpt lat="45.94148" lon="4.81527">
        <ele>263</ele>
        <time>2018-03-31T09:07:38Z</time>
      </trkpt>
      <trkpt lat="45.94149" lon="4.81537">
        <ele>264</ele>
        <time>2018-03-31T09:07:40Z</time>
      </trkpt>
      <trkpt lat="45.94149" lon="4.81542">
        <ele>264</ele>
        <time>2018-03-31T09:07:41Z</time>
      </trkpt>
      <trkpt lat="45.94149" lon="4.81552">
        <ele>264</ele>
        <time>2018-03-31T09:07:43Z</time>
      </trkpt>
      <trkpt lat="45.9415" lon="4.81557">
        <ele>265</ele>
        <time>2018-03-31T09:07:44Z</time>
      </trkpt>
      <trkpt lat="45.9415" lon="4.81567">
        <ele>265</ele>
        <time>2018-03-31T09:07:46Z</time>
      </trkpt>
      <trkpt lat="45.94151" lon="4.81572">
        <ele>265</ele>
        <time>2018-03-31T09:07:47Z</time>
      </trkpt>
      <trkpt lat="45.94152" lon="4.81583">
        <ele>266</ele>
        <time>2018-03-31T09:07:49Z</time>
      </trkpt>
      <trkpt lat="45.94152" lon="4.81587">
        <ele>267</ele>
        <time>2018-03-31T09:07:50Z</time>
      </trkpt>
      <trkpt lat="45.94154" lon="4.81597">
        <ele>267</ele>
        <time>2018-03-31T09:07:52Z</time>
      </trkpt>
      <trkpt lat="45.94154" lon="4.81601">
        <ele>267</ele>
        <time>2018-03-31T09:07:53Z</time>
      </trkpt>
      <trkpt lat="45.94156" lon="4.81611">
        <ele>267</ele>
        <time>2018-03-31T09:07:55Z</time>
      </trkpt>
      <trkpt lat="45.94157" lon="4.81616">
        <ele>268</ele>
        <time>2018-03-31T09:07:56Z</time>
      </trkpt>
      <trkpt lat="45.9416" lon="4.81625">
        <ele>268</ele>
        <time>2018-03-31T09:07:58Z</time>
      </trkpt>
      <trkpt lat="45.94161" lon="4.81629">
        <ele>268</ele>
        <time>2018-03-31T09:07:59Z</time>
      </trkpt>
      <trkpt lat="45.94163" lon="4.81641">
        <ele>268</ele>
        <time>2018-03-31T09:08:02Z</time>
      </trkpt>
      <trkpt lat="45.94164" lon="4.81645">
        <ele>268</ele>
        <time>2018-03-31T09:08:03Z</time>
      </trkpt>
      <trkpt lat="45.94166" lon="4.81657">
        <ele>269</ele>
        <time>2018-03-31T09:08:06Z</time>
      </trkpt>
      <trkpt lat="45.94167" lon="4.81661">
        <ele>269</ele>
        <time>2018-03-31T09:08:07Z</time>
      </trkpt>
      <trkpt lat="45.9417" lon="4.81672">
        <ele>268</ele>
        <time>2018-03-31T09:08:10Z</time>
      </trkpt>
      <trkpt lat="45.94171" lon="4.81676">
        <ele>268</ele>
        <time>2018-03-31T09:08:11Z</time>
      </trkpt>
      <trkpt lat="45.94173" lon="4.81685">
        <ele>268</ele>
        <time>2018-03-31T09:08:13Z</time>
      </trkpt>
      <trkpt lat="45.94175" lon="4.81689">
        <ele>267</ele>
        <time>2018-03-31T09:08:14Z</time>
      </trkpt>
      <trkpt lat="45.94178" lon="4.817">
        <ele>267</ele>
        <time>2018-03-31T09:08:17Z</time>
      </trkpt>
      <trkpt lat="45.94179" lon="4.81704">
        <ele>267</ele>
        <time>2018-03-31T09:08:18Z</time>
      </trkpt>
      <trkpt lat="45.9418" lon="4.81712">
        <ele>267</ele>
        <time>2018-03-31T09:08:20Z</time>
      </trkpt>
      <trkpt lat="45.9418" lon="4.81717">
        <ele>267</ele>
        <time>2018-03-31T09:08:21Z</time>
      </trkpt>
      <trkpt lat="45.94181" lon="4.81731">
        <ele>267</ele>
        <time>2018-03-31T09:08:22Z</time>
      </trkpt>
      <trkpt lat="45.94183" lon="4.81737">
        <ele>267</ele>
        <time>2018-03-31T09:08:24Z</time>
      </trkpt>
      <trkpt lat="45.94186" lon="4.81747">
        <ele>267</ele>
        <time>2018-03-31T09:08:25Z</time>
      </trkpt>
      <trkpt lat="45.9419" lon="4.81756">
        <ele>266</ele>
        <time>2018-03-31T09:08:28Z</time>
      </trkpt>
      <trkpt lat="45.94194" lon="4.81767">
        <ele>266</ele>
        <time>2018-03-31T09:08:29Z</time>
      </trkpt>
      <trkpt lat="45.94196" lon="4.81777">
        <ele>266</ele>
        <time>2018-03-31T09:08:31Z</time>
      </trkpt>
      <trkpt lat="45.94196" lon="4.81783">
        <ele>266</ele>
        <time>2018-03-31T09:08:32Z</time>
      </trkpt>
      <trkpt lat="45.94197" lon="4.81796">
        <ele>266</ele>
        <time>2018-03-31T09:08:34Z</time>
      </trkpt>
      <trkpt lat="45.94197" lon="4.81799">
        <ele>266</ele>
        <time>2018-03-31T09:08:35Z</time>
      </trkpt>
      <trkpt lat="45.94197" lon="4.81807">
        <ele>266</ele>
        <time>2018-03-31T09:08:36Z</time>
      </trkpt>
      <trkpt lat="45.94198" lon="4.81813">
        <ele>266</ele>
        <time>2018-03-31T09:08:37Z</time>
      </trkpt>
      <trkpt lat="45.94199" lon="4.81822">
        <ele>266</ele>
        <time>2018-03-31T09:08:40Z</time>
      </trkpt>
      <trkpt lat="45.942" lon="4.81826">
        <ele>266</ele>
        <time>2018-03-31T09:08:41Z</time>
      </trkpt>
      <trkpt lat="45.94202" lon="4.81838">
        <ele>266</ele>
        <time>2018-03-31T09:08:44Z</time>
      </trkpt>
      <trkpt lat="45.94204" lon="4.81852">
        <ele>266</ele>
        <time>2018-03-31T09:08:45Z</time>
      </trkpt>
      <trkpt lat="45.94206" lon="4.81863">
        <ele>265</ele>
        <time>2018-03-31T09:08:47Z</time>
      </trkpt>
      <trkpt lat="45.94207" lon="4.81868">
        <ele>265</ele>
        <time>2018-03-31T09:08:48Z</time>
      </trkpt>
      <trkpt lat="45.9421" lon="4.81879">
        <ele>265</ele>
        <time>2018-03-31T09:08:50Z</time>
      </trkpt>
      <trkpt lat="45.94211" lon="4.81885">
        <ele>265</ele>
        <time>2018-03-31T09:08:51Z</time>
      </trkpt>
      <trkpt lat="45.94212" lon="4.81892">
        <ele>265</ele>
        <time>2018-03-31T09:08:52Z</time>
      </trkpt>
      <trkpt lat="45.94214" lon="4.81898">
        <ele>265</ele>
        <time>2018-03-31T09:08:53Z</time>
      </trkpt>
      <trkpt lat="45.94216" lon="4.81905">
        <ele>265</ele>
        <time>2018-03-31T09:08:54Z</time>
      </trkpt>
      <trkpt lat="45.94217" lon="4.81912">
        <ele>265</ele>
        <time>2018-03-31T09:08:55Z</time>
      </trkpt>
      <trkpt lat="45.94218" lon="4.81918">
        <ele>264</ele>
        <time>2018-03-31T09:08:56Z</time>
      </trkpt>
      <trkpt lat="45.9422" lon="4.81924">
        <ele>264</ele>
        <time>2018-03-31T09:08:57Z</time>
      </trkpt>
      <trkpt lat="45.94222" lon="4.8193">
        <ele>264</ele>
        <time>2018-03-31T09:08:58Z</time>
      </trkpt>
      <trkpt lat="45.94223" lon="4.81937">
        <ele>264</ele>
        <time>2018-03-31T09:08:59Z</time>
      </trkpt>
      <trkpt lat="45.94224" lon="4.81944">
        <ele>264</ele>
        <time>2018-03-31T09:09:00Z</time>
      </trkpt>
      <trkpt lat="45.94226" lon="4.8195">
        <ele>264</ele>
        <time>2018-03-31T09:09:01Z</time>
      </trkpt>
      <trkpt lat="45.94228" lon="4.81956">
        <ele>264</ele>
        <time>2018-03-31T09:09:02Z</time>
      </trkpt>
      <trkpt lat="45.94229" lon="4.81963">
        <ele>264</ele>
        <time>2018-03-31T09:09:03Z</time>
      </trkpt>
      <trkpt lat="45.94231" lon="4.81971">
        <ele>264</ele>
        <time>2018-03-31T09:09:04Z</time>
      </trkpt>
      <trkpt lat="45.94233" lon="4.81977">
        <ele>263</ele>
        <time>2018-03-31T09:09:05Z</time>
      </trkpt>
      <trkpt lat="45.94234" lon="4.81983">
        <ele>263</ele>
        <time>2018-03-31T09:09:06Z</time>
      </trkpt>
      <trkpt lat="45.94235" lon="4.8199">
        <ele>263</ele>
        <time>2018-03-31T09:09:07Z</time>
      </trkpt>
      <trkpt lat="45.94237" lon="4.81996">
        <ele>263</ele>
        <time>2018-03-31T09:09:08Z</time>
      </trkpt>
      <trkpt lat="45.94238" lon="4.82002">
        <ele>263</ele>
        <time>2018-03-31T09:09:09Z</time>
      </trkpt>
      <trkpt lat="45.94239" lon="4.8201">
        <ele>263</ele>
        <time>2018-03-31T09:09:10Z</time>
      </trkpt>
      <trkpt lat="45.94241" lon="4.82016">
        <ele>263</ele>
        <time>2018-03-31T09:09:11Z</time>
      </trkpt>
      <trkpt lat="45.94242" lon="4.82028">
        <ele>263</ele>
        <time>2018-03-31T09:09:13Z</time>
      </trkpt>
      <trkpt lat="45.94242" lon="4.8203">
        <ele>263</ele>
        <time>2018-03-31T09:09:14Z</time>
      </trkpt>
      <trkpt lat="45.94242" lon="4.82033">
        <ele>263</ele>
        <time>2018-03-31T09:09:15Z</time>
      </trkpt>
      <trkpt lat="45.94245" lon="4.82044">
        <ele>263</ele>
        <time>2018-03-31T09:09:16Z</time>
      </trkpt>
      <trkpt lat="45.94246" lon="4.82049">
        <ele>263</ele>
        <time>2018-03-31T09:09:18Z</time>
      </trkpt>
      <trkpt lat="45.94247" lon="4.8206">
        <ele>263</ele>
        <time>2018-03-31T09:09:19Z</time>
      </trkpt>
      <trkpt lat="45.94248" lon="4.82067">
        <ele>263</ele>
        <time>2018-03-31T09:09:20Z</time>
      </trkpt>
      <trkpt lat="45.94249" lon="4.82074">
        <ele>263</ele>
        <time>2018-03-31T09:09:21Z</time>
      </trkpt>
      <trkpt lat="45.94251" lon="4.82082">
        <ele>262</ele>
        <time>2018-03-31T09:09:22Z</time>
      </trkpt>
      <trkpt lat="45.94251" lon="4.82088">
        <ele>262</ele>
        <time>2018-03-31T09:09:23Z</time>
      </trkpt>
      <trkpt lat="45.94252" lon="4.82099">
        <ele>262</ele>
        <time>2018-03-31T09:09:25Z</time>
      </trkpt>
      <trkpt lat="45.94253" lon="4.82105">
        <ele>262</ele>
        <time>2018-03-31T09:09:26Z</time>
      </trkpt>
      <trkpt lat="45.94255" lon="4.82112">
        <ele>263</ele>
        <time>2018-03-31T09:09:27Z</time>
      </trkpt>
      <trkpt lat="45.94257" lon="4.82119">
        <ele>263</ele>
        <time>2018-03-31T09:09:28Z</time>
      </trkpt>
      <trkpt lat="45.94259" lon="4.82126">
        <ele>263</ele>
        <time>2018-03-31T09:09:31Z</time>
      </trkpt>
      <trkpt lat="45.94263" lon="4.8214">
        <ele>263</ele>
        <time>2018-03-31T09:09:32Z</time>
      </trkpt>
      <trkpt lat="45.94265" lon="4.82148">
        <ele>263</ele>
        <time>2018-03-31T09:09:33Z</time>
      </trkpt>
      <trkpt lat="45.94266" lon="4.82155">
        <ele>263</ele>
        <time>2018-03-31T09:09:34Z</time>
      </trkpt>
      <trkpt lat="45.94268" lon="4.82163">
        <ele>263</ele>
        <time>2018-03-31T09:09:35Z</time>
      </trkpt>
      <trkpt lat="45.94269" lon="4.82171">
        <ele>263</ele>
        <time>2018-03-31T09:09:36Z</time>
      </trkpt>
      <trkpt lat="45.9427" lon="4.82179">
        <ele>264</ele>
        <time>2018-03-31T09:09:37Z</time>
      </trkpt>
      <trkpt lat="45.94271" lon="4.82186">
        <ele>264</ele>
        <time>2018-03-31T09:09:38Z</time>
      </trkpt>
      <trkpt lat="45.94272" lon="4.82194">
        <ele>264</ele>
        <time>2018-03-31T09:09:39Z</time>
      </trkpt>
      <trkpt lat="45.94274" lon="4.82201">
        <ele>264</ele>
        <time>2018-03-31T09:09:40Z</time>
      </trkpt>
      <trkpt lat="45.94276" lon="4.82212">
        <ele>264</ele>
        <time>2018-03-31T09:09:42Z</time>
      </trkpt>
      <trkpt lat="45.94276" lon="4.82219">
        <ele>264</ele>
        <time>2018-03-31T09:09:43Z</time>
      </trkpt>
      <trkpt lat="45.94278" lon="4.8223">
        <ele>264</ele>
        <time>2018-03-31T09:09:45Z</time>
      </trkpt>
      <trkpt lat="45.94279" lon="4.82237">
        <ele>264</ele>
        <time>2018-03-31T09:09:46Z</time>
      </trkpt>
      <trkpt lat="45.94281" lon="4.82243">
        <ele>264</ele>
        <time>2018-03-31T09:09:47Z</time>
      </trkpt>
      <trkpt lat="45.94281" lon="4.82251">
        <ele>265</ele>
        <time>2018-03-31T09:09:48Z</time>
      </trkpt>
      <trkpt lat="45.94282" lon="4.82258">
        <ele>265</ele>
        <time>2018-03-31T09:09:49Z</time>
      </trkpt>
      <trkpt lat="45.94282" lon="4.82266">
        <ele>265</ele>
        <time>2018-03-31T09:09:50Z</time>
      </trkpt>
      <trkpt lat="45.94281" lon="4.82273">
        <ele>265</ele>
        <time>2018-03-31T09:09:51Z</time>
      </trkpt>
      <trkpt lat="45.94282" lon="4.82279">
        <ele>265</ele>
        <time>2018-03-31T09:09:52Z</time>
      </trkpt>
      <trkpt lat="45.94282" lon="4.8229">
        <ele>265</ele>
        <time>2018-03-31T09:09:54Z</time>
      </trkpt>
      <trkpt lat="45.94283" lon="4.82297">
        <ele>265</ele>
        <time>2018-03-31T09:09:55Z</time>
      </trkpt>
      <trkpt lat="45.94285" lon="4.82309">
        <ele>265</ele>
        <time>2018-03-31T09:09:57Z</time>
      </trkpt>
      <trkpt lat="45.94285" lon="4.82317">
        <ele>265</ele>
        <time>2018-03-31T09:09:58Z</time>
      </trkpt>
      <trkpt lat="45.94286" lon="4.82328">
        <ele>265</ele>
        <time>2018-03-31T09:10:00Z</time>
      </trkpt>
      <trkpt lat="45.94286" lon="4.82334">
        <ele>264</ele>
        <time>2018-03-31T09:10:01Z</time>
      </trkpt>
      <trkpt lat="45.94287" lon="4.82346">
        <ele>264</ele>
        <time>2018-03-31T09:10:03Z</time>
      </trkpt>
      <trkpt lat="45.94288" lon="4.82352">
        <ele>264</ele>
        <time>2018-03-31T09:10:04Z</time>
      </trkpt>
      <trkpt lat="45.94288" lon="4.82365">
        <ele>264</ele>
        <time>2018-03-31T09:10:06Z</time>
      </trkpt>
      <trkpt lat="45.94288" lon="4.82372">
        <ele>264</ele>
        <time>2018-03-31T09:10:07Z</time>
      </trkpt>
      <trkpt lat="45.94289" lon="4.82378">
        <ele>264</ele>
        <time>2018-03-31T09:10:08Z</time>
      </trkpt>
      <trkpt lat="45.94289" lon="4.82385">
        <ele>264</ele>
        <time>2018-03-31T09:10:09Z</time>
      </trkpt>
      <trkpt lat="45.94289" lon="4.82392">
        <ele>264</ele>
        <time>2018-03-31T09:10:10Z</time>
      </trkpt>
      <trkpt lat="45.94289" lon="4.82398">
        <ele>264</ele>
        <time>2018-03-31T09:10:11Z</time>
      </trkpt>
      <trkpt lat="45.9429" lon="4.82405">
        <ele>264</ele>
        <time>2018-03-31T09:10:12Z</time>
      </trkpt>
      <trkpt lat="45.9429" lon="4.82411">
        <ele>264</ele>
        <time>2018-03-31T09:10:13Z</time>
      </trkpt>
      <trkpt lat="45.94291" lon="4.82418">
        <ele>264</ele>
        <time>2018-03-31T09:10:14Z</time>
      </trkpt>
      <trkpt lat="45.94291" lon="4.82424">
        <ele>264</ele>
        <time>2018-03-31T09:10:15Z</time>
      </trkpt>
      <trkpt lat="45.94292" lon="4.8243">
        <ele>264</ele>
        <time>2018-03-31T09:10:16Z</time>
      </trkpt>
      <trkpt lat="45.94292" lon="4.82437">
        <ele>264</ele>
        <time>2018-03-31T09:10:17Z</time>
      </trkpt>
      <trkpt lat="45.94292" lon="4.82443">
        <ele>264</ele>
        <time>2018-03-31T09:10:18Z</time>
      </trkpt>
      <trkpt lat="45.94292" lon="4.8245">
        <ele>264</ele>
        <time>2018-03-31T09:10:19Z</time>
      </trkpt>
      <trkpt lat="45.94293" lon="4.82462">
        <ele>264</ele>
        <time>2018-03-31T09:10:21Z</time>
      </trkpt>
      <trkpt lat="45.94293" lon="4.82469">
        <ele>264</ele>
        <time>2018-03-31T09:10:22Z</time>
      </trkpt>
      <trkpt lat="45.94292" lon="4.82481">
        <ele>264</ele>
        <time>2018-03-31T09:10:24Z</time>
      </trkpt>
      <trkpt lat="45.94293" lon="4.82487">
        <ele>264</ele>
        <time>2018-03-31T09:10:25Z</time>
      </trkpt>
      <trkpt lat="45.94293" lon="4.825">
        <ele>264</ele>
        <time>2018-03-31T09:10:27Z</time>
      </trkpt>
      <trkpt lat="45.94293" lon="4.82505">
        <ele>264</ele>
        <time>2018-03-31T09:10:28Z</time>
      </trkpt>
      <trkpt lat="45.94294" lon="4.82511">
        <ele>264</ele>
        <time>2018-03-31T09:10:29Z</time>
      </trkpt>
      <trkpt lat="45.94294" lon="4.82518">
        <ele>264</ele>
        <time>2018-03-31T09:10:30Z</time>
      </trkpt>
      <trkpt lat="45.94294" lon="4.82524">
        <ele>264</ele>
        <time>2018-03-31T09:10:31Z</time>
      </trkpt>
      <trkpt lat="45.94294" lon="4.82531">
        <ele>264</ele>
        <time>2018-03-31T09:10:32Z</time>
      </trkpt>
      <trkpt lat="45.94294" lon="4.82538">
        <ele>264</ele>
        <time>2018-03-31T09:10:33Z</time>
      </trkpt>
      <trkpt lat="45.94294" lon="4.82544">
        <ele>264</ele>
        <time>2018-03-31T09:10:34Z</time>
      </trkpt>
      <trkpt lat="45.94294" lon="4.8255">
        <ele>264</ele>
        <time>2018-03-31T09:10:35Z</time>
      </trkpt>
      <trkpt lat="45.94294" lon="4.82558">
        <ele>264</ele>
        <time>2018-03-31T09:10:36Z</time>
      </trkpt>
      <trkpt lat="45.94294" lon="4.82564">
        <ele>264</ele>
        <time>2018-03-31T09:10:37Z</time>
      </trkpt>
      <trkpt lat="45.94294" lon="4.82571">
        <ele>264</ele>
        <time>2018-03-31T09:10:38Z</time>
      </trkpt>
      <trkpt lat="45.94294" lon="4.82579">
        <ele>264</ele>
        <time>2018-03-31T09:10:39Z</time>
      </trkpt>
      <trkpt lat="45.94295" lon="4.82586">
        <ele>265</ele>
        <time>2018-03-31T09:10:40Z</time>
      </trkpt>
      <trkpt lat="45.94295" lon="4.82593">
        <ele>265</ele>
        <time>2018-03-31T09:10:41Z</time>
      </trkpt>
      <trkpt lat="45.94294" lon="4.82602">
        <ele>265</ele>
        <time>2018-03-31T09:10:42Z</time>
      </trkpt>
      <trkpt lat="45.94294" lon="4.82614">
        <ele>265</ele>
        <time>2018-03-31T09:10:44Z</time>
      </trkpt>
      <trkpt lat="45.94293" lon="4.82623">
        <ele>265</ele>
        <time>2018-03-31T09:10:45Z</time>
      </trkpt>
      <trkpt lat="45.94293" lon="4.8263">
        <ele>265</ele>
        <time>2018-03-31T09:10:46Z</time>
      </trkpt>
      <trkpt lat="45.94293" lon="4.82638">
        <ele>265</ele>
        <time>2018-03-31T09:10:47Z</time>
      </trkpt>
      <trkpt lat="45.94293" lon="4.82647">
        <ele>265</ele>
        <time>2018-03-31T09:10:48Z</time>
      </trkpt>
      <trkpt lat="45.94293" lon="4.82654">
        <ele>265</ele>
        <time>2018-03-31T09:10:49Z</time>
      </trkpt>
      <trkpt lat="45.94293" lon="4.82661">
        <ele>265</ele>
        <time>2018-03-31T09:10:50Z</time>
      </trkpt>
      <trkpt lat="45.94292" lon="4.82668">
        <ele>265</ele>
        <time>2018-03-31T09:10:51Z</time>
      </trkpt>
      <trkpt lat="45.94292" lon="4.82674">
        <ele>265</ele>
        <time>2018-03-31T09:10:52Z</time>
      </trkpt>
      <trkpt lat="45.94292" lon="4.82681">
        <ele>265</ele>
        <time>2018-03-31T09:10:53Z</time>
      </trkpt>
      <trkpt lat="45.94292" lon="4.82687">
        <ele>265</ele>
        <time>2018-03-31T09:10:54Z</time>
      </trkpt>
      <trkpt lat="45.94293" lon="4.82695">
        <ele>265</ele>
        <time>2018-03-31T09:10:55Z</time>
      </trkpt>
      <trkpt lat="45.94292" lon="4.82701">
        <ele>265</ele>
        <time>2018-03-31T09:10:56Z</time>
      </trkpt>
      <trkpt lat="45.94292" lon="4.82708">
        <ele>265</ele>
        <time>2018-03-31T09:10:57Z</time>
      </trkpt>
      <trkpt lat="45.94292" lon="4.8272">
        <ele>265</ele>
        <time>2018-03-31T09:10:59Z</time>
      </trkpt>
      <trkpt lat="45.94291" lon="4.82727">
        <ele>265</ele>
        <time>2018-03-31T09:11:00Z</time>
      </trkpt>
      <trkpt lat="45.94292" lon="4.82734">
        <ele>265</ele>
        <time>2018-03-31T09:11:01Z</time>
      </trkpt>
      <trkpt lat="45.94291" lon="4.8274">
        <ele>265</ele>
        <time>2018-03-31T09:11:02Z</time>
      </trkpt>
      <trkpt lat="45.94291" lon="4.82747">
        <ele>265</ele>
        <time>2018-03-31T09:11:03Z</time>
      </trkpt>
      <trkpt lat="45.94292" lon="4.82754">
        <ele>265</ele>
        <time>2018-03-31T09:11:04Z</time>
      </trkpt>
      <trkpt lat="45.94291" lon="4.82762">
        <ele>265</ele>
        <time>2018-03-31T09:11:05Z</time>
      </trkpt>
      <trkpt lat="45.94291" lon="4.82768">
        <ele>265</ele>
        <time>2018-03-31T09:11:06Z</time>
      </trkpt>
      <trkpt lat="45.94291" lon="4.82781">
        <ele>265</ele>
        <time>2018-03-31T09:11:08Z</time>
      </trkpt>
      <trkpt lat="45.94291" lon="4.82788">
        <ele>265</ele>
        <time>2018-03-31T09:11:09Z</time>
      </trkpt>
      <trkpt lat="45.94291" lon="4.82795">
        <ele>265</ele>
        <time>2018-03-31T09:11:10Z</time>
      </trkpt>
      <trkpt lat="45.94291" lon="4.82802">
        <ele>265</ele>
        <time>2018-03-31T09:11:11Z</time>
      </trkpt>
      <trkpt lat="45.94291" lon="4.82814">
        <ele>265</ele>
        <time>2018-03-31T09:11:13Z</time>
      </trkpt>
      <trkpt lat="45.9429" lon="4.82821">
        <ele>265</ele>
        <time>2018-03-31T09:11:14Z</time>
      </trkpt>
      <trkpt lat="45.9429" lon="4.8283">
        <ele>265</ele>
        <time>2018-03-31T09:11:15Z</time>
      </trkpt>
      <trkpt lat="45.9429" lon="4.82837">
        <ele>265</ele>
        <time>2018-03-31T09:11:16Z</time>
      </trkpt>
      <trkpt lat="45.9429" lon="4.82844">
        <ele>265</ele>
        <time>2018-03-31T09:11:17Z</time>
      </trkpt>
      <trkpt lat="45.9429" lon="4.8285">
        <ele>265</ele>
        <time>2018-03-31T09:11:18Z</time>
      </trkpt>
      <trkpt lat="45.9429" lon="4.82858">
        <ele>265</ele>
        <time>2018-03-31T09:11:19Z</time>
      </trkpt>
      <trkpt lat="45.94289" lon="4.82864">
        <ele>265</ele>
        <time>2018-03-31T09:11:20Z</time>
      </trkpt>
      <trkpt lat="45.94289" lon="4.82871">
        <ele>265</ele>
        <time>2018-03-31T09:11:21Z</time>
      </trkpt>
      <trkpt lat="45.94288" lon="4.82878">
        <ele>265</ele>
        <time>2018-03-31T09:11:22Z</time>
      </trkpt>
      <trkpt lat="45.94288" lon="4.8289">
        <ele>265</ele>
        <time>2018-03-31T09:11:24Z</time>
      </trkpt>
      <trkpt lat="45.94287" lon="4.82898">
        <ele>265</ele>
        <time>2018-03-31T09:11:25Z</time>
      </trkpt>
      <trkpt lat="45.94287" lon="4.82909">
        <ele>265</ele>
        <time>2018-03-31T09:11:27Z</time>
      </trkpt>
      <trkpt lat="45.94286" lon="4.82916">
        <ele>265</ele>
        <time>2018-03-31T09:11:28Z</time>
      </trkpt>
      <trkpt lat="45.94285" lon="4.82923">
        <ele>265</ele>
        <time>2018-03-31T09:11:29Z</time>
      </trkpt>
      <trkpt lat="45.94284" lon="4.8293">
        <ele>265</ele>
        <time>2018-03-31T09:11:30Z</time>
      </trkpt>
      <trkpt lat="45.94284" lon="4.82937">
        <ele>265</ele>
        <time>2018-03-31T09:11:31Z</time>
      </trkpt>
      <trkpt lat="45.94283" lon="4.82944">
        <ele>265</ele>
        <time>2018-03-31T09:11:32Z</time>
      </trkpt>
      <trkpt lat="45.94282" lon="4.82953">
        <ele>265</ele>
        <time>2018-03-31T09:11:34Z</time>
      </trkpt>
      <trkpt lat="45.94284" lon="4.82961">
        <ele>265</ele>
        <time>2018-03-31T09:11:35Z</time>
      </trkpt>
      <trkpt lat="45.94286" lon="4.82967">
        <ele>265</ele>
        <time>2018-03-31T09:11:36Z</time>
      </trkpt>
      <trkpt lat="45.94289" lon="4.82974">
        <ele>265</ele>
        <time>2018-03-31T09:11:37Z</time>
      </trkpt>
      <trkpt lat="45.94291" lon="4.82981">
        <ele>265</ele>
        <time>2018-03-31T09:11:38Z</time>
      </trkpt>
      <trkpt lat="45.94292" lon="4.82989">
        <ele>265</ele>
        <time>2018-03-31T09:11:39Z</time>
      </trkpt>
      <trkpt lat="45.94294" lon="4.82996">
        <ele>265</ele>
        <time>2018-03-31T09:11:40Z</time>
      </trkpt>
      <trkpt lat="45.94295" lon="4.83004">
        <ele>266</ele>
        <time>2018-03-31T09:11:41Z</time>
      </trkpt>
      <trkpt lat="45.94296" lon="4.83011">
        <ele>266</ele>
        <time>2018-03-31T09:11:42Z</time>
      </trkpt>
      <trkpt lat="45.94297" lon="4.83019">
        <ele>266</ele>
        <time>2018-03-31T09:11:43Z</time>
      </trkpt>
      <trkpt lat="45.94299" lon="4.83026">
        <ele>266</ele>
        <time>2018-03-31T09:11:44Z</time>
      </trkpt>
      <trkpt lat="45.943" lon="4.83033">
        <ele>266</ele>
        <time>2018-03-31T09:11:45Z</time>
      </trkpt>
      <trkpt lat="45.94301" lon="4.83039">
        <ele>266</ele>
        <time>2018-03-31T09:11:46Z</time>
      </trkpt>
      <trkpt lat="45.94302" lon="4.83046">
        <ele>266</ele>
        <time>2018-03-31T09:11:47Z</time>
      </trkpt>
      <trkpt lat="45.94304" lon="4.83052">
        <ele>266</ele>
        <time>2018-03-31T09:11:48Z</time>
      </trkpt>
      <trkpt lat="45.94305" lon="4.83058">
        <ele>266</ele>
        <time>2018-03-31T09:11:49Z</time>
      </trkpt>
      <trkpt lat="45.94307" lon="4.83065">
        <ele>266</ele>
        <time>2018-03-31T09:11:50Z</time>
      </trkpt>
      <trkpt lat="45.94309" lon="4.83072">
        <ele>266</ele>
        <time>2018-03-31T09:11:51Z</time>
      </trkpt>
      <trkpt lat="45.9431" lon="4.83079">
        <ele>266</ele>
        <time>2018-03-31T09:11:52Z</time>
      </trkpt>
      <trkpt lat="45.94312" lon="4.83085">
        <ele>266</ele>
        <time>2018-03-31T09:11:53Z</time>
      </trkpt>
      <trkpt lat="45.94314" lon="4.83097">
        <ele>266</ele>
        <time>2018-03-31T09:11:55Z</time>
      </trkpt>
      <trkpt lat="45.94315" lon="4.83103">
        <ele>266</ele>
        <time>2018-03-31T09:11:56Z</time>
      </trkpt>
      <trkpt lat="45.94317" lon="4.83111">
        <ele>266</ele>
        <time>2018-03-31T09:11:57Z</time>
      </trkpt>
      <trkpt lat="45.9432" lon="4.83118">
        <ele>266</ele>
        <time>2018-03-31T09:11:58Z</time>
      </trkpt>
      <trkpt lat="45.94322" lon="4.83124">
        <ele>266</ele>
        <time>2018-03-31T09:11:59Z</time>
      </trkpt>
      <trkpt lat="45.94325" lon="4.8313">
        <ele>266</ele>
        <time>2018-03-31T09:12:00Z</time>
      </trkpt>
      <trkpt lat="45.94327" lon="4.83137">
        <ele>266</ele>
        <time>2018-03-31T09:12:01Z</time>
      </trkpt>
      <trkpt lat="45.9433" lon="4.83143">
        <ele>266</ele>
        <time>2018-03-31T09:12:02Z</time>
      </trkpt>
      <trkpt lat="45.94332" lon="4.8315">
        <ele>266</ele>
        <time>2018-03-31T09:12:03Z</time>
      </trkpt>
      <trkpt lat="45.94334" lon="4.83157">
        <ele>266</ele>
        <time>2018-03-31T09:12:04Z</time>
      </trkpt>
      <trkpt lat="45.94336" lon="4.83164">
        <ele>266</ele>
        <time>2018-03-31T09:12:05Z</time>
      </trkpt>
      <trkpt lat="45.94338" lon="4.8317">
        <ele>266</ele>
        <time>2018-03-31T09:12:06Z</time>
      </trkpt>
      <trkpt lat="45.94341" lon="4.83177">
        <ele>266</ele>
        <time>2018-03-31T09:12:07Z</time>
      </trkpt>
      <trkpt lat="45.94343" lon="4.83183">
        <ele>266</ele>
        <time>2018-03-31T09:12:08Z</time>
      </trkpt>
      <trkpt lat="45.94345" lon="4.83191">
        <ele>266</ele>
        <time>2018-03-31T09:12:09Z</time>
      </trkpt>
      <trkpt lat="45.94348" lon="4.83197">
        <ele>266</ele>
        <time>2018-03-31T09:12:10Z</time>
      </trkpt>
      <trkpt lat="45.9435" lon="4.83204">
        <ele>266</ele>
        <time>2018-03-31T09:12:11Z</time>
      </trkpt>
      <trkpt lat="45.94353" lon="4.83212">
        <ele>266</ele>
        <time>2018-03-31T09:12:12Z</time>
      </trkpt>
      <trkpt lat="45.94355" lon="4.8322">
        <ele>266</ele>
        <time>2018-03-31T09:12:13Z</time>
      </trkpt>
      <trkpt lat="45.94358" lon="4.83227">
        <ele>266</ele>
        <time>2018-03-31T09:12:14Z</time>
      </trkpt>
      <trkpt lat="45.94361" lon="4.83236">
        <ele>265</ele>
        <time>2018-03-31T09:12:15Z</time>
      </trkpt>
      <trkpt lat="45.94364" lon="4.83244">
        <ele>265</ele>
        <time>2018-03-31T09:12:16Z</time>
      </trkpt>
      <trkpt lat="45.94367" lon="4.83252">
        <ele>265</ele>
        <time>2018-03-31T09:12:17Z</time>
      </trkpt>
      <trkpt lat="45.9437" lon="4.8326">
        <ele>265</ele>
        <time>2018-03-31T09:12:18Z</time>
      </trkpt>
      <trkpt lat="45.94373" lon="4.83268">
        <ele>264</ele>
        <time>2018-03-31T09:12:19Z</time>
      </trkpt>
      <trkpt lat="45.94376" lon="4.83276">
        <ele>264</ele>
        <time>2018-03-31T09:12:20Z</time>
      </trkpt>
      <trkpt lat="45.94379" lon="4.83284">
        <ele>264</ele>
        <time>2018-03-31T09:12:21Z</time>
      </trkpt>
      <trkpt lat="45.94382" lon="4.83293">
        <ele>264</ele>
        <time>2018-03-31T09:12:22Z</time>
      </trkpt>
      <trkpt lat="45.94385" lon="4.83302">
        <ele>264</ele>
        <time>2018-03-31T09:12:23Z</time>
      </trkpt>
      <trkpt lat="45.94387" lon="4.83309">
        <ele>264</ele>
        <time>2018-03-31T09:12:24Z</time>
      </trkpt>
      <trkpt lat="45.9439" lon="4.83317">
        <ele>264</ele>
        <time>2018-03-31T09:12:25Z</time>
      </trkpt>
      <trkpt lat="45.94393" lon="4.83325">
        <ele>264</ele>
        <time>2018-03-31T09:12:26Z</time>
      </trkpt>
      <trkpt lat="45.94396" lon="4.83333">
        <ele>264</ele>
        <time>2018-03-31T09:12:27Z</time>
      </trkpt>
      <trkpt lat="45.94399" lon="4.83341">
        <ele>263</ele>
        <time>2018-03-31T09:12:28Z</time>
      </trkpt>
      <trkpt lat="45.94402" lon="4.83349">
        <ele>263</ele>
        <time>2018-03-31T09:12:29Z</time>
      </trkpt>
      <trkpt lat="45.94405" lon="4.83357">
        <ele>264</ele>
        <time>2018-03-31T09:12:30Z</time>
      </trkpt>
      <trkpt lat="45.94408" lon="4.83364">
        <ele>264</ele>
        <time>2018-03-31T09:12:31Z</time>
      </trkpt>
      <trkpt lat="45.94412" lon="4.83372">
        <ele>264</ele>
        <time>2018-03-31T09:12:32Z</time>
      </trkpt>
      <trkpt lat="45.94415" lon="4.83379">
        <ele>264</ele>
        <time>2018-03-31T09:12:33Z</time>
      </trkpt>
      <trkpt lat="45.94418" lon="4.83385">
        <ele>264</ele>
        <time>2018-03-31T09:12:34Z</time>
      </trkpt>
      <trkpt lat="45.94421" lon="4.83392">
        <ele>264</ele>
        <time>2018-03-31T09:12:35Z</time>
      </trkpt>
      <trkpt lat="45.94424" lon="4.83399">
        <ele>264</ele>
        <time>2018-03-31T09:12:36Z</time>
      </trkpt>
      <trkpt lat="45.94427" lon="4.83406">
        <ele>264</ele>
        <time>2018-03-31T09:12:37Z</time>
      </trkpt>
      <trkpt lat="45.94429" lon="4.83412">
        <ele>264</ele>
        <time>2018-03-31T09:12:38Z</time>
      </trkpt>
      <trkpt lat="45.94433" lon="4.83418">
        <ele>264</ele>
        <time>2018-03-31T09:12:39Z</time>
      </trkpt>
      <trkpt lat="45.94436" lon="4.83425">
        <ele>264</ele>
        <time>2018-03-31T09:12:40Z</time>
      </trkpt>
      <trkpt lat="45.94439" lon="4.83432">
        <ele>263</ele>
        <time>2018-03-31T09:12:41Z</time>
      </trkpt>
      <trkpt lat="45.94443" lon="4.83439">
        <ele>263</ele>
        <time>2018-03-31T09:12:42Z</time>
      </trkpt>
      <trkpt lat="45.94447" lon="4.83446">
        <ele>263</ele>
        <time>2018-03-31T09:12:43Z</time>
      </trkpt>
      <trkpt lat="45.9445" lon="4.83453">
        <ele>263</ele>
        <time>2018-03-31T09:12:44Z</time>
      </trkpt>
      <trkpt lat="45.94455" lon="4.8346">
        <ele>263</ele>
        <time>2018-03-31T09:12:45Z</time>
      </trkpt>
      <trkpt lat="45.94459" lon="4.83468">
        <ele>263</ele>
        <time>2018-03-31T09:12:46Z</time>
      </trkpt>
      <trkpt lat="45.94464" lon="4.83475">
        <ele>263</ele>
        <time>2018-03-31T09:12:47Z</time>
      </trkpt>
      <trkpt lat="45.94468" lon="4.83483">
        <ele>263</ele>
        <time>2018-03-31T09:12:48Z</time>
      </trkpt>
      <trkpt lat="45.94473" lon="4.83491">
        <ele>263</ele>
        <time>2018-03-31T09:12:49Z</time>
      </trkpt>
      <trkpt lat="45.94477" lon="4.83498">
        <ele>263</ele>
        <time>2018-03-31T09:12:50Z</time>
      </trkpt>
      <trkpt lat="45.94481" lon="4.83504">
        <ele>262</ele>
        <time>2018-03-31T09:12:51Z</time>
      </trkpt>
      <trkpt lat="45.94486" lon="4.83512">
        <ele>262</ele>
        <time>2018-03-31T09:12:52Z</time>
      </trkpt>
      <trkpt lat="45.9449" lon="4.83519">
        <ele>262</ele>
        <time>2018-03-31T09:12:53Z</time>
      </trkpt>
      <trkpt lat="45.94494" lon="4.83526">
        <ele>262</ele>
        <time>2018-03-31T09:12:54Z</time>
      </trkpt>
      <trkpt lat="45.94498" lon="4.83533">
        <ele>262</ele>
        <time>2018-03-31T09:12:55Z</time>
      </trkpt>
      <trkpt lat="45.94503" lon="4.83539">
        <ele>262</ele>
        <time>2018-03-31T09:12:56Z</time>
      </trkpt>
      <trkpt lat="45.94506" lon="4.83546">
        <ele>261</ele>
        <time>2018-03-31T09:12:57Z</time>
      </trkpt>
      <trkpt lat="45.9451" lon="4.83553">
        <ele>261</ele>
        <time>2018-03-31T09:12:58Z</time>
      </trkpt>
      <trkpt lat="45.94512" lon="4.8356">
        <ele>261</ele>
        <time>2018-03-31T09:12:59Z</time>
      </trkpt>
      <trkpt lat="45.94516" lon="4.83567">
        <ele>261</ele>
        <time>2018-03-31T09:13:00Z</time>
      </trkpt>
      <trkpt lat="45.94519" lon="4.83574">
        <ele>261</ele>
        <time>2018-03-31T09:13:01Z</time>
      </trkpt>
      <trkpt lat="45.94522" lon="4.83582">
        <ele>261</ele>
        <time>2018-03-31T09:13:02Z</time>
      </trkpt>
      <trkpt lat="45.94524" lon="4.83589">
        <ele>261</ele>
        <time>2018-03-31T09:13:03Z</time>
      </trkpt>
      <trkpt lat="45.94526" lon="4.83597">
        <ele>261</ele>
        <time>2018-03-31T09:13:04Z</time>
      </trkpt>
      <trkpt lat="45.94529" lon="4.83603">
        <ele>261</ele>
        <time>2018-03-31T09:13:05Z</time>
      </trkpt>
      <trkpt lat="45.9453" lon="4.83611">
        <ele>261</ele>
        <time>2018-03-31T09:13:06Z</time>
      </trkpt>
      <trkpt lat="45.94532" lon="4.83619">
        <ele>261</ele>
        <time>2018-03-31T09:13:07Z</time>
      </trkpt>
      <trkpt lat="45.94533" lon="4.83628">
        <ele>261</ele>
        <time>2018-03-31T09:13:08Z</time>
      </trkpt>
      <trkpt lat="45.94534" lon="4.83636">
        <ele>261</ele>
        <time>2018-03-31T09:13:09Z</time>
      </trkpt>
      <trkpt lat="45.94535" lon="4.83645">
        <ele>261</ele>
        <time>2018-03-31T09:13:10Z</time>
      </trkpt>
      <trkpt lat="45.94537" lon="4.83654">
        <ele>261</ele>
        <time>2018-03-31T09:13:11Z</time>
      </trkpt>
      <trkpt lat="45.94538" lon="4.83662">
        <ele>261</ele>
        <time>2018-03-31T09:13:12Z</time>
      </trkpt>
      <trkpt lat="45.9454" lon="4.8367">
        <ele>262</ele>
        <time>2018-03-31T09:13:13Z</time>
      </trkpt>
      <trkpt lat="45.94542" lon="4.83678">
        <ele>262</ele>
        <time>2018-03-31T09:13:14Z</time>
      </trkpt>
      <trkpt lat="45.94543" lon="4.83686">
        <ele>262</ele>
        <time>2018-03-31T09:13:15Z</time>
      </trkpt>
      <trkpt lat="45.94544" lon="4.83694">
        <ele>262</ele>
        <time>2018-03-31T09:13:16Z</time>
      </trkpt>
      <trkpt lat="45.94545" lon="4.83702">
        <ele>262</ele>
        <time>2018-03-31T09:13:17Z</time>
      </trkpt>
      <trkpt lat="45.94546" lon="4.83709">
        <ele>262</ele>
        <time>2018-03-31T09:13:18Z</time>
      </trkpt>
      <trkpt lat="45.94547" lon="4.83718">
        <ele>262</ele>
        <time>2018-03-31T09:13:19Z</time>
      </trkpt>
      <trkpt lat="45.94548" lon="4.83726">
        <ele>262</ele>
        <time>2018-03-31T09:13:20Z</time>
      </trkpt>
      <trkpt lat="45.94549" lon="4.83734">
        <ele>262</ele>
        <time>2018-03-31T09:13:21Z</time>
      </trkpt>
      <trkpt lat="45.9455" lon="4.83742">
        <ele>262</ele>
        <time>2018-03-31T09:13:22Z</time>
      </trkpt>
      <trkpt lat="45.94552" lon="4.83751">
        <ele>263</ele>
        <time>2018-03-31T09:13:23Z</time>
      </trkpt>
      <trkpt lat="45.94553" lon="4.8376">
        <ele>263</ele>
        <time>2018-03-31T09:13:24Z</time>
      </trkpt>
      <trkpt lat="45.94554" lon="4.83769">
        <ele>263</ele>
        <time>2018-03-31T09:13:25Z</time>
      </trkpt>
      <trkpt lat="45.94555" lon="4.83777">
        <ele>264</ele>
        <time>2018-03-31T09:13:26Z</time>
      </trkpt>
      <trkpt lat="45.94557" lon="4.83788">
        <ele>264</ele>
        <time>2018-03-31T09:13:27Z</time>
      </trkpt>
      <trkpt lat="45.94559" lon="4.83797">
        <ele>264</ele>
        <time>2018-03-31T09:13:28Z</time>
      </trkpt>
      <trkpt lat="45.9456" lon="4.83805">
        <ele>264</ele>
        <time>2018-03-31T09:13:29Z</time>
      </trkpt>
      <trkpt lat="45.94561" lon="4.83815">
        <ele>264</ele>
        <time>2018-03-31T09:13:30Z</time>
      </trkpt>
      <trkpt lat="45.94563" lon="4.83824">
        <ele>264</ele>
        <time>2018-03-31T09:13:31Z</time>
      </trkpt>
      <trkpt lat="45.94564" lon="4.83833">
        <ele>265</ele>
        <time>2018-03-31T09:13:32Z</time>
      </trkpt>
      <trkpt lat="45.94565" lon="4.83841">
        <ele>266</ele>
        <time>2018-03-31T09:13:33Z</time>
      </trkpt>
      <trkpt lat="45.94567" lon="4.83849">
        <ele>266</ele>
        <time>2018-03-31T09:13:34Z</time>
      </trkpt>
      <trkpt lat="45.94568" lon="4.83858">
        <ele>267</ele>
        <time>2018-03-31T09:13:35Z</time>
      </trkpt>
      <trkpt lat="45.9457" lon="4.83865">
        <ele>267</ele>
        <time>2018-03-31T09:13:36Z</time>
      </trkpt>
      <trkpt lat="45.94571" lon="4.83873">
        <ele>267</ele>
        <time>2018-03-31T09:13:37Z</time>
      </trkpt>
      <trkpt lat="45.94573" lon="4.8388">
        <ele>267</ele>
        <time>2018-03-31T09:13:38Z</time>
      </trkpt>
      <trkpt lat="45.94574" lon="4.83887">
        <ele>267</ele>
        <time>2018-03-31T09:13:39Z</time>
      </trkpt>
      <trkpt lat="45.94576" lon="4.83895">
        <ele>267</ele>
        <time>2018-03-31T09:13:40Z</time>
      </trkpt>
      <trkpt lat="45.94576" lon="4.83902">
        <ele>268</ele>
        <time>2018-03-31T09:13:41Z</time>
      </trkpt>
      <trkpt lat="45.94577" lon="4.83909">
        <ele>268</ele>
        <time>2018-03-31T09:13:42Z</time>
      </trkpt>
      <trkpt lat="45.94578" lon="4.83916">
        <ele>268</ele>
        <time>2018-03-31T09:13:43Z</time>
      </trkpt>
      <trkpt lat="45.94579" lon="4.83923">
        <ele>268</ele>
        <time>2018-03-31T09:13:44Z</time>
      </trkpt>
      <trkpt lat="45.9458" lon="4.83929">
        <ele>268</ele>
        <time>2018-03-31T09:13:45Z</time>
      </trkpt>
      <trkpt lat="45.94581" lon="4.83936">
        <ele>269</ele>
        <time>2018-03-31T09:13:46Z</time>
      </trkpt>
      <trkpt lat="45.94583" lon="4.83948">
        <ele>269</ele>
        <time>2018-03-31T09:13:48Z</time>
      </trkpt>
      <trkpt lat="45.94584" lon="4.83955">
        <ele>268</ele>
        <time>2018-03-31T09:13:49Z</time>
      </trkpt>
      <trkpt lat="45.94585" lon="4.83962">
        <ele>268</ele>
        <time>2018-03-31T09:13:50Z</time>
      </trkpt>
      <trkpt lat="45.94586" lon="4.83968">
        <ele>268</ele>
        <time>2018-03-31T09:13:51Z</time>
      </trkpt>
      <trkpt lat="45.94586" lon="4.83974">
        <ele>268</ele>
        <time>2018-03-31T09:13:52Z</time>
      </trkpt>
      <trkpt lat="45.94587" lon="4.83981">
        <ele>268</ele>
        <time>2018-03-31T09:13:53Z</time>
      </trkpt>
      <trkpt lat="45.94589" lon="4.83987">
        <ele>269</ele>
        <time>2018-03-31T09:13:54Z</time>
      </trkpt>
      <trkpt lat="45.9459" lon="4.83994">
        <ele>269</ele>
        <time>2018-03-31T09:13:55Z</time>
      </trkpt>
      <trkpt lat="45.94592" lon="4.84005">
        <ele>269</ele>
        <time>2018-03-31T09:13:57Z</time>
      </trkpt>
      <trkpt lat="45.94593" lon="4.8401">
        <ele>269</ele>
        <time>2018-03-31T09:13:58Z</time>
      </trkpt>
      <trkpt lat="45.94594" lon="4.84018">
        <ele>269</ele>
        <time>2018-03-31T09:13:59Z</time>
      </trkpt>
      <trkpt lat="45.94595" lon="4.84024">
        <ele>269</ele>
        <time>2018-03-31T09:14:00Z</time>
      </trkpt>
      <trkpt lat="45.94597" lon="4.84032">
        <ele>269</ele>
        <time>2018-03-31T09:14:01Z</time>
      </trkpt>
      <trkpt lat="45.94597" lon="4.84038">
        <ele>269</ele>
        <time>2018-03-31T09:14:02Z</time>
      </trkpt>
      <trkpt lat="45.94599" lon="4.84045">
        <ele>269</ele>
        <time>2018-03-31T09:14:03Z</time>
      </trkpt>
      <trkpt lat="45.94599" lon="4.84053">
        <ele>269</ele>
        <time>2018-03-31T09:14:04Z</time>
      </trkpt>
      <trkpt lat="45.946" lon="4.8406">
        <ele>269</ele>
        <time>2018-03-31T09:14:05Z</time>
      </trkpt>
      <trkpt lat="45.94602" lon="4.84068">
        <ele>269</ele>
        <time>2018-03-31T09:14:06Z</time>
      </trkpt>
      <trkpt lat="45.94603" lon="4.84076">
        <ele>269</ele>
        <time>2018-03-31T09:14:07Z</time>
      </trkpt>
      <trkpt lat="45.94604" lon="4.84083">
        <ele>269</ele>
        <time>2018-03-31T09:14:08Z</time>
      </trkpt>
      <trkpt lat="45.94605" lon="4.84091">
        <ele>269</ele>
        <time>2018-03-31T09:14:09Z</time>
      </trkpt>
      <trkpt lat="45.94607" lon="4.841">
        <ele>269</ele>
        <time>2018-03-31T09:14:10Z</time>
      </trkpt>
      <trkpt lat="45.94608" lon="4.84109">
        <ele>269</ele>
        <time>2018-03-31T09:14:11Z</time>
      </trkpt>
      <trkpt lat="45.94609" lon="4.84116">
        <ele>269</ele>
        <time>2018-03-31T09:14:12Z</time>
      </trkpt>
      <trkpt lat="45.94611" lon="4.84124">
        <ele>269</ele>
        <time>2018-03-31T09:14:13Z</time>
      </trkpt>
      <trkpt lat="45.94612" lon="4.84133">
        <ele>269</ele>
        <time>2018-03-31T09:14:14Z</time>
      </trkpt>
      <trkpt lat="45.94613" lon="4.84141">
        <ele>269</ele>
        <time>2018-03-31T09:14:15Z</time>
      </trkpt>
      <trkpt lat="45.94614" lon="4.84149">
        <ele>269</ele>
        <time>2018-03-31T09:14:16Z</time>
      </trkpt>
      <trkpt lat="45.94615" lon="4.84156">
        <ele>269</ele>
        <time>2018-03-31T09:14:17Z</time>
      </trkpt>
      <trkpt lat="45.94617" lon="4.84164">
        <ele>269</ele>
        <time>2018-03-31T09:14:18Z</time>
      </trkpt>
      <trkpt lat="45.94618" lon="4.84171">
        <ele>269</ele>
        <time>2018-03-31T09:14:19Z</time>
      </trkpt>
      <trkpt lat="45.94619" lon="4.84178">
        <ele>269</ele>
        <time>2018-03-31T09:14:20Z</time>
      </trkpt>
      <trkpt lat="45.9462" lon="4.84185">
        <ele>269</ele>
        <time>2018-03-31T09:14:21Z</time>
      </trkpt>
      <trkpt lat="45.94621" lon="4.84192">
        <ele>269</ele>
        <time>2018-03-31T09:14:22Z</time>
      </trkpt>
      <trkpt lat="45.94622" lon="4.84198">
        <ele>269</ele>
        <time>2018-03-31T09:14:23Z</time>
      </trkpt>
      <trkpt lat="45.94623" lon="4.84205">
        <ele>269</ele>
        <time>2018-03-31T09:14:24Z</time>
      </trkpt>
      <trkpt lat="45.94624" lon="4.84212">
        <ele>269</ele>
        <time>2018-03-31T09:14:25Z</time>
      </trkpt>
      <trkpt lat="45.94625" lon="4.84218">
        <ele>269</ele>
        <time>2018-03-31T09:14:26Z</time>
      </trkpt>
      <trkpt lat="45.94626" lon="4.84225">
        <ele>269</ele>
        <time>2018-03-31T09:14:27Z</time>
      </trkpt>
      <trkpt lat="45.94627" lon="4.84232">
        <ele>269</ele>
        <time>2018-03-31T09:14:28Z</time>
      </trkpt>
      <trkpt lat="45.94627" lon="4.84239">
        <ele>269</ele>
        <time>2018-03-31T09:14:29Z</time>
      </trkpt>
      <trkpt lat="45.94628" lon="4.84246">
        <ele>269</ele>
        <time>2018-03-31T09:14:30Z</time>
      </trkpt>
      <trkpt lat="45.94629" lon="4.84254">
        <ele>269</ele>
        <time>2018-03-31T09:14:31Z</time>
      </trkpt>
      <trkpt lat="45.9463" lon="4.84261">
        <ele>269</ele>
        <time>2018-03-31T09:14:32Z</time>
      </trkpt>
      <trkpt lat="45.94631" lon="4.84268">
        <ele>269</ele>
        <time>2018-03-31T09:14:33Z</time>
      </trkpt>
      <trkpt lat="45.94633" lon="4.84276">
        <ele>269</ele>
        <time>2018-03-31T09:14:34Z</time>
      </trkpt>
      <trkpt lat="45.94635" lon="4.84288">
        <ele>269</ele>
        <time>2018-03-31T09:14:36Z</time>
      </trkpt>
      <trkpt lat="45.94636" lon="4.84293">
        <ele>269</ele>
        <time>2018-03-31T09:14:37Z</time>
      </trkpt>
      <trkpt lat="45.94636" lon="4.843">
        <ele>269</ele>
        <time>2018-03-31T09:14:38Z</time>
      </trkpt>
      <trkpt lat="45.94637" lon="4.84306">
        <ele>269</ele>
        <time>2018-03-31T09:14:39Z</time>
      </trkpt>
      <trkpt lat="45.94638" lon="4.84312">
        <ele>269</ele>
        <time>2018-03-31T09:14:40Z</time>
      </trkpt>
      <trkpt lat="45.94639" lon="4.84319">
        <ele>269</ele>
        <time>2018-03-31T09:14:41Z</time>
      </trkpt>
      <trkpt lat="45.94641" lon="4.84332">
        <ele>268</ele>
        <time>2018-03-31T09:14:43Z</time>
      </trkpt>
      <trkpt lat="45.94642" lon="4.84339">
        <ele>268</ele>
        <time>2018-03-31T09:14:44Z</time>
      </trkpt>
      <trkpt lat="45.94643" lon="4.84345">
        <ele>268</ele>
        <time>2018-03-31T09:14:45Z</time>
      </trkpt>
      <trkpt lat="45.94644" lon="4.84351">
        <ele>268</ele>
        <time>2018-03-31T09:14:46Z</time>
      </trkpt>
      <trkpt lat="45.94645" lon="4.8436">
        <ele>268</ele>
        <time>2018-03-31T09:14:47Z</time>
      </trkpt>
      <trkpt lat="45.94645" lon="4.84366">
        <ele>268</ele>
        <time>2018-03-31T09:14:48Z</time>
      </trkpt>
      <trkpt lat="45.94646" lon="4.84373">
        <ele>268</ele>
        <time>2018-03-31T09:14:49Z</time>
      </trkpt>
      <trkpt lat="45.94647" lon="4.84379">
        <ele>268</ele>
        <time>2018-03-31T09:14:50Z</time>
      </trkpt>
      <trkpt lat="45.94648" lon="4.84386">
        <ele>268</ele>
        <time>2018-03-31T09:14:51Z</time>
      </trkpt>
      <trkpt lat="45.94648" lon="4.84393">
        <ele>268</ele>
        <time>2018-03-31T09:14:52Z</time>
      </trkpt>
      <trkpt lat="45.94649" lon="4.84401">
        <ele>268</ele>
        <time>2018-03-31T09:14:53Z</time>
      </trkpt>
      <trkpt lat="45.94649" lon="4.84408">
        <ele>268</ele>
        <time>2018-03-31T09:14:54Z</time>
      </trkpt>
      <trkpt lat="45.9465" lon="4.84414">
        <ele>268</ele>
        <time>2018-03-31T09:14:55Z</time>
      </trkpt>
      <trkpt lat="45.94651" lon="4.84421">
        <ele>268</ele>
        <time>2018-03-31T09:14:56Z</time>
      </trkpt>
      <trkpt lat="45.94651" lon="4.84428">
        <ele>268</ele>
        <time>2018-03-31T09:14:57Z</time>
      </trkpt>
      <trkpt lat="45.94652" lon="4.84434">
        <ele>268</ele>
        <time>2018-03-31T09:14:58Z</time>
      </trkpt>
      <trkpt lat="45.94653" lon="4.84441">
        <ele>268</ele>
        <time>2018-03-31T09:14:59Z</time>
      </trkpt>
      <trkpt lat="45.94654" lon="4.84447">
        <ele>268</ele>
        <time>2018-03-31T09:15:00Z</time>
      </trkpt>
      <trkpt lat="45.94656" lon="4.84459">
        <ele>268</ele>
        <time>2018-03-31T09:15:02Z</time>
      </trkpt>
      <trkpt lat="45.94657" lon="4.84464">
        <ele>268</ele>
        <time>2018-03-31T09:15:03Z</time>
      </trkpt>
      <trkpt lat="45.94657" lon="4.84471">
        <ele>268</ele>
        <time>2018-03-31T09:15:04Z</time>
      </trkpt>
      <trkpt lat="45.94658" lon="4.84479">
        <ele>268</ele>
        <time>2018-03-31T09:15:05Z</time>
      </trkpt>
      <trkpt lat="45.94659" lon="4.84486">
        <ele>268</ele>
        <time>2018-03-31T09:15:06Z</time>
      </trkpt>
      <trkpt lat="45.94659" lon="4.84493">
        <ele>268</ele>
        <time>2018-03-31T09:15:07Z</time>
      </trkpt>
      <trkpt lat="45.9466" lon="4.84501">
        <ele>268</ele>
        <time>2018-03-31T09:15:08Z</time>
      </trkpt>
      <trkpt lat="45.94661" lon="4.84509">
        <ele>268</ele>
        <time>2018-03-31T09:15:09Z</time>
      </trkpt>
      <trkpt lat="45.94662" lon="4.84516">
        <ele>268</ele>
        <time>2018-03-31T09:15:10Z</time>
      </trkpt>
      <trkpt lat="45.94662" lon="4.84523">
        <ele>268</ele>
        <time>2018-03-31T09:15:11Z</time>
      </trkpt>
      <trkpt lat="45.94663" lon="4.84531">
        <ele>268</ele>
        <time>2018-03-31T09:15:12Z</time>
      </trkpt>
      <trkpt lat="45.94664" lon="4.84539">
        <ele>268</ele>
        <time>2018-03-31T09:15:13Z</time>
      </trkpt>
      <trkpt lat="45.94664" lon="4.84547">
        <ele>268</ele>
        <time>2018-03-31T09:15:14Z</time>
      </trkpt>
      <trkpt lat="45.94664" lon="4.84554">
        <ele>268</ele>
        <time>2018-03-31T09:15:15Z</time>
      </trkpt>
      <trkpt lat="45.94665" lon="4.84563">
        <ele>268</ele>
        <time>2018-03-31T09:15:16Z</time>
      </trkpt>
      <trkpt lat="45.94665" lon="4.8457">
        <ele>268</ele>
        <time>2018-03-31T09:15:17Z</time>
      </trkpt>
      <trkpt lat="45.94666" lon="4.84576">
        <ele>268</ele>
        <time>2018-03-31T09:15:18Z</time>
      </trkpt>
      <trkpt lat="45.94666" lon="4.84584">
        <ele>268</ele>
        <time>2018-03-31T09:15:19Z</time>
      </trkpt>
      <trkpt lat="45.94666" lon="4.8459">
        <ele>268</ele>
        <time>2018-03-31T09:15:20Z</time>
      </trkpt>
      <trkpt lat="45.94667" lon="4.84598">
        <ele>268</ele>
        <time>2018-03-31T09:15:21Z</time>
      </trkpt>
      <trkpt lat="45.94667" lon="4.84605">
        <ele>268</ele>
        <time>2018-03-31T09:15:22Z</time>
      </trkpt>
      <trkpt lat="45.94668" lon="4.84613">
        <ele>268</ele>
        <time>2018-03-31T09:15:23Z</time>
      </trkpt>
      <trkpt lat="45.94668" lon="4.8462">
        <ele>268</ele>
        <time>2018-03-31T09:15:24Z</time>
      </trkpt>
      <trkpt lat="45.94668" lon="4.84627">
        <ele>268</ele>
        <time>2018-03-31T09:15:25Z</time>
      </trkpt>
      <trkpt lat="45.94669" lon="4.84637">
        <ele>268</ele>
        <time>2018-03-31T09:15:26Z</time>
      </trkpt>
      <trkpt lat="45.94668" lon="4.84646">
        <ele>268</ele>
        <time>2018-03-31T09:15:27Z</time>
      </trkpt>
      <trkpt lat="45.94669" lon="4.84653">
        <ele>268</ele>
        <time>2018-03-31T09:15:28Z</time>
      </trkpt>
      <trkpt lat="45.94669" lon="4.8466">
        <ele>269</ele>
        <time>2018-03-31T09:15:29Z</time>
      </trkpt>
      <trkpt lat="45.9467" lon="4.84668">
        <ele>269</ele>
        <time>2018-03-31T09:15:30Z</time>
      </trkpt>
      <trkpt lat="45.9467" lon="4.84675">
        <ele>269</ele>
        <time>2018-03-31T09:15:31Z</time>
      </trkpt>
      <trkpt lat="45.94671" lon="4.84683">
        <ele>269</ele>
        <time>2018-03-31T09:15:32Z</time>
      </trkpt>
      <trkpt lat="45.94671" lon="4.84691">
        <ele>269</ele>
        <time>2018-03-31T09:15:33Z</time>
      </trkpt>
      <trkpt lat="45.94671" lon="4.84699">
        <ele>269</ele>
        <time>2018-03-31T09:15:34Z</time>
      </trkpt>
      <trkpt lat="45.94671" lon="4.84706">
        <ele>269</ele>
        <time>2018-03-31T09:15:35Z</time>
      </trkpt>
      <trkpt lat="45.94671" lon="4.84714">
        <ele>269</ele>
        <time>2018-03-31T09:15:36Z</time>
      </trkpt>
      <trkpt lat="45.94672" lon="4.84723">
        <ele>269</ele>
        <time>2018-03-31T09:15:37Z</time>
      </trkpt>
      <trkpt lat="45.94672" lon="4.8473">
        <ele>269</ele>
        <time>2018-03-31T09:15:38Z</time>
      </trkpt>
      <trkpt lat="45.94673" lon="4.84739">
        <ele>269</ele>
        <time>2018-03-31T09:15:39Z</time>
      </trkpt>
      <trkpt lat="45.94673" lon="4.84747">
        <ele>269</ele>
        <time>2018-03-31T09:15:40Z</time>
      </trkpt>
      <trkpt lat="45.94674" lon="4.84755">
        <ele>269</ele>
        <time>2018-03-31T09:15:41Z</time>
      </trkpt>
      <trkpt lat="45.94675" lon="4.84764">
        <ele>269</ele>
        <time>2018-03-31T09:15:42Z</time>
      </trkpt>
      <trkpt lat="45.94676" lon="4.84773">
        <ele>269</ele>
        <time>2018-03-31T09:15:43Z</time>
      </trkpt>
      <trkpt lat="45.94676" lon="4.84781">
        <ele>269</ele>
        <time>2018-03-31T09:15:44Z</time>
      </trkpt>
      <trkpt lat="45.94677" lon="4.84789">
        <ele>269</ele>
        <time>2018-03-31T09:15:45Z</time>
      </trkpt>
      <trkpt lat="45.94677" lon="4.84798">
        <ele>268</ele>
        <time>2018-03-31T09:15:46Z</time>
      </trkpt>
      <trkpt lat="45.94678" lon="4.84806">
        <ele>268</ele>
        <time>2018-03-31T09:15:47Z</time>
      </trkpt>
      <trkpt lat="45.94678" lon="4.84814">
        <ele>268</ele>
        <time>2018-03-31T09:15:48Z</time>
      </trkpt>
      <trkpt lat="45.94679" lon="4.84822">
        <ele>268</ele>
        <time>2018-03-31T09:15:49Z</time>
      </trkpt>
      <trkpt lat="45.94679" lon="4.84831">
        <ele>268</ele>
        <time>2018-03-31T09:15:50Z</time>
      </trkpt>
      <trkpt lat="45.9468" lon="4.84839">
        <ele>268</ele>
        <time>2018-03-31T09:15:51Z</time>
      </trkpt>
      <trkpt lat="45.94681" lon="4.84847">
        <ele>268</ele>
        <time>2018-03-31T09:15:52Z</time>
      </trkpt>
      <trkpt lat="45.94682" lon="4.84855">
        <ele>268</ele>
        <time>2018-03-31T09:15:53Z</time>
      </trkpt>
      <trkpt lat="45.94682" lon="4.84863">
        <ele>268</ele>
        <time>2018-03-31T09:15:54Z</time>
      </trkpt>
      <trkpt lat="45.94684" lon="4.84872">
        <ele>268</ele>
        <time>2018-03-31T09:15:55Z</time>
      </trkpt>
      <trkpt lat="45.94684" lon="4.8488">
        <ele>268</ele>
        <time>2018-03-31T09:15:56Z</time>
      </trkpt>
      <trkpt lat="45.94686" lon="4.84888">
        <ele>268</ele>
        <time>2018-03-31T09:15:57Z</time>
      </trkpt>
      <trkpt lat="45.94686" lon="4.84897">
        <ele>268</ele>
        <time>2018-03-31T09:15:58Z</time>
      </trkpt>
      <trkpt lat="45.94688" lon="4.84904">
        <ele>269</ele>
        <time>2018-03-31T09:15:59Z</time>
      </trkpt>
      <trkpt lat="45.94689" lon="4.84913">
        <ele>269</ele>
        <time>2018-03-31T09:16:00Z</time>
      </trkpt>
      <trkpt lat="45.94689" lon="4.84921">
        <ele>269</ele>
        <time>2018-03-31T09:16:01Z</time>
      </trkpt>
      <trkpt lat="45.9469" lon="4.8493">
        <ele>269</ele>
        <time>2018-03-31T09:16:02Z</time>
      </trkpt>
      <trkpt lat="45.9469" lon="4.84938">
        <ele>269</ele>
        <time>2018-03-31T09:16:03Z</time>
      </trkpt>
      <trkpt lat="45.94691" lon="4.84947">
        <ele>269</ele>
        <time>2018-03-31T09:16:04Z</time>
      </trkpt>
      <trkpt lat="45.94692" lon="4.84954">
        <ele>269</ele>
        <time>2018-03-31T09:16:05Z</time>
      </trkpt>
      <trkpt lat="45.94693" lon="4.84961">
        <ele>269</ele>
        <time>2018-03-31T09:16:06Z</time>
      </trkpt>
      <trkpt lat="45.94694" lon="4.84969">
        <ele>269</ele>
        <time>2018-03-31T09:16:07Z</time>
      </trkpt>
      <trkpt lat="45.94695" lon="4.84977">
        <ele>269</ele>
        <time>2018-03-31T09:16:08Z</time>
      </trkpt>
      <trkpt lat="45.94695" lon="4.84984">
        <ele>269</ele>
        <time>2018-03-31T09:16:09Z</time>
      </trkpt>
      <trkpt lat="45.94696" lon="4.84992">
        <ele>269</ele>
        <time>2018-03-31T09:16:10Z</time>
      </trkpt>
      <trkpt lat="45.94696" lon="4.85">
        <ele>269</ele>
        <time>2018-03-31T09:16:11Z</time>
      </trkpt>
      <trkpt lat="45.94697" lon="4.85009">
        <ele>269</ele>
        <time>2018-03-31T09:16:12Z</time>
      </trkpt>
      <trkpt lat="45.94698" lon="4.85016">
        <ele>269</ele>
        <time>2018-03-31T09:16:13Z</time>
      </trkpt>
      <trkpt lat="45.94699" lon="4.85024">
        <ele>269</ele>
        <time>2018-03-31T09:16:14Z</time>
      </trkpt>
      <trkpt lat="45.94699" lon="4.85031">
        <ele>269</ele>
        <time>2018-03-31T09:16:15Z</time>
      </trkpt>
      <trkpt lat="45.947" lon="4.85039">
        <ele>269</ele>
        <time>2018-03-31T09:16:16Z</time>
      </trkpt>
      <trkpt lat="45.94701" lon="4.85047">
        <ele>269</ele>
        <time>2018-03-31T09:16:17Z</time>
      </trkpt>
      <trkpt lat="45.94702" lon="4.85055">
        <ele>269</ele>
        <time>2018-03-31T09:16:18Z</time>
      </trkpt>
      <trkpt lat="45.94703" lon="4.85063">
        <ele>269</ele>
        <time>2018-03-31T09:16:19Z</time>
      </trkpt>
      <trkpt lat="45.94703" lon="4.8507">
        <ele>269</ele>
        <time>2018-03-31T09:16:20Z</time>
      </trkpt>
      <trkpt lat="45.94704" lon="4.85077">
        <ele>269</ele>
        <time>2018-03-31T09:16:21Z</time>
      </trkpt>
      <trkpt lat="45.94705" lon="4.85085">
        <ele>269</ele>
        <time>2018-03-31T09:16:22Z</time>
      </trkpt>
      <trkpt lat="45.94706" lon="4.85092">
        <ele>269</ele>
        <time>2018-03-31T09:16:23Z</time>
      </trkpt>
      <trkpt lat="45.94707" lon="4.851">
        <ele>269</ele>
        <time>2018-03-31T09:16:24Z</time>
      </trkpt>
      <trkpt lat="45.94707" lon="4.85107">
        <ele>269</ele>
        <time>2018-03-31T09:16:25Z</time>
      </trkpt>
      <trkpt lat="45.94708" lon="4.85115">
        <ele>269</ele>
        <time>2018-03-31T09:16:26Z</time>
      </trkpt>
      <trkpt lat="45.9471" lon="4.85122">
        <ele>269</ele>
        <time>2018-03-31T09:16:27Z</time>
      </trkpt>
      <trkpt lat="45.9471" lon="4.8513">
        <ele>269</ele>
        <time>2018-03-31T09:16:28Z</time>
      </trkpt>
      <trkpt lat="45.9471" lon="4.85137">
        <ele>269</ele>
        <time>2018-03-31T09:16:29Z</time>
      </trkpt>
      <trkpt lat="45.94711" lon="4.85144">
        <ele>269</ele>
        <time>2018-03-31T09:16:30Z</time>
      </trkpt>
      <trkpt lat="45.94711" lon="4.85151">
        <ele>269</ele>
        <time>2018-03-31T09:16:31Z</time>
      </trkpt>
      <trkpt lat="45.94713" lon="4.85158">
        <ele>269</ele>
        <time>2018-03-31T09:16:32Z</time>
      </trkpt>
      <trkpt lat="45.94713" lon="4.85164">
        <ele>269</ele>
        <time>2018-03-31T09:16:33Z</time>
      </trkpt>
      <trkpt lat="45.94715" lon="4.85171">
        <ele>269</ele>
        <time>2018-03-31T09:16:34Z</time>
      </trkpt>
      <trkpt lat="45.94716" lon="4.85179">
        <ele>269</ele>
        <time>2018-03-31T09:16:35Z</time>
      </trkpt>
      <trkpt lat="45.94716" lon="4.85186">
        <ele>269</ele>
        <time>2018-03-31T09:16:36Z</time>
      </trkpt>
      <trkpt lat="45.94718" lon="4.85194">
        <ele>269</ele>
        <time>2018-03-31T09:16:37Z</time>
      </trkpt>
      <trkpt lat="45.94718" lon="4.85201">
        <ele>269</ele>
        <time>2018-03-31T09:16:38Z</time>
      </trkpt>
      <trkpt lat="45.94719" lon="4.85208">
        <ele>269</ele>
        <time>2018-03-31T09:16:39Z</time>
      </trkpt>
      <trkpt lat="45.9472" lon="4.85216">
        <ele>269</ele>
        <time>2018-03-31T09:16:40Z</time>
      </trkpt>
      <trkpt lat="45.94721" lon="4.85223">
        <ele>269</ele>
        <time>2018-03-31T09:16:41Z</time>
      </trkpt>
      <trkpt lat="45.94722" lon="4.85231">
        <ele>269</ele>
        <time>2018-03-31T09:16:42Z</time>
      </trkpt>
      <trkpt lat="45.94723" lon="4.85239">
        <ele>269</ele>
        <time>2018-03-31T09:16:43Z</time>
      </trkpt>
      <trkpt lat="45.94724" lon="4.85246">
        <ele>269</ele>
        <time>2018-03-31T09:16:44Z</time>
      </trkpt>
      <trkpt lat="45.94725" lon="4.85254">
        <ele>269</ele>
        <time>2018-03-31T09:16:45Z</time>
      </trkpt>
      <trkpt lat="45.94725" lon="4.85262">
        <ele>269</ele>
        <time>2018-03-31T09:16:46Z</time>
      </trkpt>
      <trkpt lat="45.94726" lon="4.85269">
        <ele>269</ele>
        <time>2018-03-31T09:16:47Z</time>
      </trkpt>
      <trkpt lat="45.94726" lon="4.85276">
        <ele>269</ele>
        <time>2018-03-31T09:16:48Z</time>
      </trkpt>
      <trkpt lat="45.94727" lon="4.85284">
        <ele>269</ele>
        <time>2018-03-31T09:16:49Z</time>
      </trkpt>
      <trkpt lat="45.94728" lon="4.85291">
        <ele>269</ele>
        <time>2018-03-31T09:16:50Z</time>
      </trkpt>
      <trkpt lat="45.94729" lon="4.85298">
        <ele>270</ele>
        <time>2018-03-31T09:16:51Z</time>
      </trkpt>
      <trkpt lat="45.9473" lon="4.85306">
        <ele>270</ele>
        <time>2018-03-31T09:16:52Z</time>
      </trkpt>
      <trkpt lat="45.94731" lon="4.85314">
        <ele>270</ele>
        <time>2018-03-31T09:16:53Z</time>
      </trkpt>
      <trkpt lat="45.94732" lon="4.85321">
        <ele>270</ele>
        <time>2018-03-31T09:16:54Z</time>
      </trkpt>
      <trkpt lat="45.94732" lon="4.85328">
        <ele>270</ele>
        <time>2018-03-31T09:16:55Z</time>
      </trkpt>
      <trkpt lat="45.94733" lon="4.85335">
        <ele>271</ele>
        <time>2018-03-31T09:16:56Z</time>
      </trkpt>
      <trkpt lat="45.94734" lon="4.85343">
        <ele>271</ele>
        <time>2018-03-31T09:16:57Z</time>
      </trkpt>
      <trkpt lat="45.94734" lon="4.85351">
        <ele>271</ele>
        <time>2018-03-31T09:16:58Z</time>
      </trkpt>
      <trkpt lat="45.94735" lon="4.85358">
        <ele>271</ele>
        <time>2018-03-31T09:16:59Z</time>
      </trkpt>
      <trkpt lat="45.94737" lon="4.85366">
        <ele>271</ele>
        <time>2018-03-31T09:17:00Z</time>
      </trkpt>
      <trkpt lat="45.94737" lon="4.85373">
        <ele>271</ele>
        <time>2018-03-31T09:17:01Z</time>
      </trkpt>
      <trkpt lat="45.94737" lon="4.8538">
        <ele>271</ele>
        <time>2018-03-31T09:17:02Z</time>
      </trkpt>
      <trkpt lat="45.94738" lon="4.85387">
        <ele>272</ele>
        <time>2018-03-31T09:17:03Z</time>
      </trkpt>
      <trkpt lat="45.9474" lon="4.85393">
        <ele>272</ele>
        <time>2018-03-31T09:17:04Z</time>
      </trkpt>
      <trkpt lat="45.94741" lon="4.854">
        <ele>272</ele>
        <time>2018-03-31T09:17:05Z</time>
      </trkpt>
      <trkpt lat="45.94742" lon="4.85408">
        <ele>272</ele>
        <time>2018-03-31T09:17:06Z</time>
      </trkpt>
      <trkpt lat="45.94742" lon="4.85415">
        <ele>272</ele>
        <time>2018-03-31T09:17:07Z</time>
      </trkpt>
      <trkpt lat="45.94743" lon="4.85421">
        <ele>273</ele>
        <time>2018-03-31T09:17:08Z</time>
      </trkpt>
      <trkpt lat="45.94744" lon="4.85427">
        <ele>273</ele>
        <time>2018-03-31T09:17:09Z</time>
      </trkpt>
      <trkpt lat="45.94745" lon="4.8544">
        <ele>274</ele>
        <time>2018-03-31T09:17:11Z</time>
      </trkpt>
      <trkpt lat="45.94746" lon="4.85445">
        <ele>274</ele>
        <time>2018-03-31T09:17:12Z</time>
      </trkpt>
      <trkpt lat="45.94747" lon="4.85457">
        <ele>274</ele>
        <time>2018-03-31T09:17:14Z</time>
      </trkpt>
      <trkpt lat="45.94748" lon="4.85463">
        <ele>274</ele>
        <time>2018-03-31T09:17:15Z</time>
      </trkpt>
      <trkpt lat="45.94749" lon="4.85474">
        <ele>274</ele>
        <time>2018-03-31T09:17:17Z</time>
      </trkpt>
      <trkpt lat="45.94749" lon="4.8548">
        <ele>275</ele>
        <time>2018-03-31T09:17:18Z</time>
      </trkpt>
      <trkpt lat="45.94751" lon="4.8549">
        <ele>276</ele>
        <time>2018-03-31T09:17:20Z</time>
      </trkpt>
      <trkpt lat="45.94751" lon="4.85493">
        <ele>276</ele>
        <time>2018-03-31T09:17:21Z</time>
      </trkpt>
      <trkpt lat="45.94754" lon="4.85505">
        <ele>276</ele>
        <time>2018-03-31T09:17:23Z</time>
      </trkpt>
      <trkpt lat="45.94754" lon="4.85507">
        <ele>277</ele>
        <time>2018-03-31T09:17:24Z</time>
      </trkpt>
      <trkpt lat="45.94755" lon="4.85518">
        <ele>277</ele>
        <time>2018-03-31T09:17:27Z</time>
      </trkpt>
      <trkpt lat="45.94755" lon="4.85522">
        <ele>277</ele>
        <time>2018-03-31T09:17:28Z</time>
      </trkpt>
      <trkpt lat="45.94756" lon="4.85531">
        <ele>278</ele>
        <time>2018-03-31T09:17:30Z</time>
      </trkpt>
      <trkpt lat="45.94756" lon="4.85535">
        <ele>278</ele>
        <time>2018-03-31T09:17:31Z</time>
      </trkpt>
      <trkpt lat="45.94757" lon="4.85544">
        <ele>278</ele>
        <time>2018-03-31T09:17:33Z</time>
      </trkpt>
      <trkpt lat="45.94758" lon="4.85548">
        <ele>278</ele>
        <time>2018-03-31T09:17:34Z</time>
      </trkpt>
      <trkpt lat="45.9476" lon="4.8556">
        <ele>278</ele>
        <time>2018-03-31T09:17:37Z</time>
      </trkpt>
      <trkpt lat="45.94761" lon="4.85565">
        <ele>279</ele>
        <time>2018-03-31T09:17:38Z</time>
      </trkpt>
      <trkpt lat="45.94763" lon="4.85577">
        <ele>279</ele>
        <time>2018-03-31T09:17:41Z</time>
      </trkpt>
      <trkpt lat="45.94763" lon="4.85581">
        <ele>279</ele>
        <time>2018-03-31T09:17:42Z</time>
      </trkpt>
      <trkpt lat="45.94765" lon="4.8559">
        <ele>280</ele>
        <time>2018-03-31T09:17:44Z</time>
      </trkpt>
      <trkpt lat="45.94766" lon="4.85594">
        <ele>280</ele>
        <time>2018-03-31T09:17:45Z</time>
      </trkpt>
      <trkpt lat="45.94767" lon="4.85602">
        <ele>280</ele>
        <time>2018-03-31T09:17:47Z</time>
      </trkpt>
      <trkpt lat="45.94768" lon="4.85606">
        <ele>280</ele>
        <time>2018-03-31T09:17:48Z</time>
      </trkpt>
      <trkpt lat="45.9477" lon="4.85615">
        <ele>280</ele>
        <time>2018-03-31T09:17:50Z</time>
      </trkpt>
      <trkpt lat="45.94773" lon="4.85628">
        <ele>280</ele>
        <time>2018-03-31T09:17:51Z</time>
      </trkpt>
      <trkpt lat="45.94776" lon="4.85637">
        <ele>281</ele>
        <time>2018-03-31T09:17:54Z</time>
      </trkpt>
      <trkpt lat="45.94777" lon="4.8564">
        <ele>281</ele>
        <time>2018-03-31T09:17:55Z</time>
      </trkpt>
      <trkpt lat="45.94779" lon="4.85649">
        <ele>281</ele>
        <time>2018-03-31T09:17:57Z</time>
      </trkpt>
      <trkpt lat="45.9478" lon="4.85653">
        <ele>281</ele>
        <time>2018-03-31T09:17:58Z</time>
      </trkpt>
      <trkpt lat="45.94783" lon="4.85666">
        <ele>281</ele>
        <time>2018-03-31T09:17:59Z</time>
      </trkpt>
      <trkpt lat="45.94786" lon="4.85676">
        <ele>280</ele>
        <time>2018-03-31T09:18:01Z</time>
      </trkpt>
      <trkpt lat="45.94787" lon="4.85681">
        <ele>280</ele>
        <time>2018-03-31T09:18:02Z</time>
      </trkpt>
      <trkpt lat="45.94789" lon="4.85691">
        <ele>280</ele>
        <time>2018-03-31T09:18:04Z</time>
      </trkpt>
      <trkpt lat="45.9479" lon="4.85697">
        <ele>280</ele>
        <time>2018-03-31T09:18:05Z</time>
      </trkpt>
      <trkpt lat="45.94794" lon="4.85707">
        <ele>280</ele>
        <time>2018-03-31T09:18:07Z</time>
      </trkpt>
      <trkpt lat="45.94795" lon="4.85713">
        <ele>280</ele>
        <time>2018-03-31T09:18:08Z</time>
      </trkpt>
      <trkpt lat="45.94797" lon="4.85719">
        <ele>280</ele>
        <time>2018-03-31T09:18:09Z</time>
      </trkpt>
      <trkpt lat="45.94799" lon="4.85726">
        <ele>280</ele>
        <time>2018-03-31T09:18:10Z</time>
      </trkpt>
      <trkpt lat="45.948" lon="4.85732">
        <ele>280</ele>
        <time>2018-03-31T09:18:11Z</time>
      </trkpt>
      <trkpt lat="45.94802" lon="4.85738">
        <ele>280</ele>
        <time>2018-03-31T09:18:12Z</time>
      </trkpt>
      <trkpt lat="45.94804" lon="4.85746">
        <ele>279</ele>
        <time>2018-03-31T09:18:13Z</time>
      </trkpt>
      <trkpt lat="45.94806" lon="4.85752">
        <ele>278</ele>
        <time>2018-03-31T09:18:14Z</time>
      </trkpt>
      <trkpt lat="45.94807" lon="4.85759">
        <ele>278</ele>
        <time>2018-03-31T09:18:15Z</time>
      </trkpt>
      <trkpt lat="45.94809" lon="4.85765">
        <ele>278</ele>
        <time>2018-03-31T09:18:16Z</time>
      </trkpt>
      <trkpt lat="45.94811" lon="4.85772">
        <ele>278</ele>
        <time>2018-03-31T09:18:17Z</time>
      </trkpt>
      <trkpt lat="45.94813" lon="4.85779">
        <ele>278</ele>
        <time>2018-03-31T09:18:18Z</time>
      </trkpt>
      <trkpt lat="45.94815" lon="4.85787">
        <ele>278</ele>
        <time>2018-03-31T09:18:19Z</time>
      </trkpt>
      <trkpt lat="45.94817" lon="4.85794">
        <ele>278</ele>
        <time>2018-03-31T09:18:20Z</time>
      </trkpt>
      <trkpt lat="45.94819" lon="4.85801">
        <ele>278</ele>
        <time>2018-03-31T09:18:21Z</time>
      </trkpt>
      <trkpt lat="45.94821" lon="4.8581">
        <ele>278</ele>
        <time>2018-03-31T09:18:22Z</time>
      </trkpt>
      <trkpt lat="45.94822" lon="4.85817">
        <ele>278</ele>
        <time>2018-03-31T09:18:23Z</time>
      </trkpt>
      <trkpt lat="45.94824" lon="4.85823">
        <ele>278</ele>
        <time>2018-03-31T09:18:24Z</time>
      </trkpt>
      <trkpt lat="45.94826" lon="4.8583">
        <ele>277</ele>
        <time>2018-03-31T09:18:25Z</time>
      </trkpt>
      <trkpt lat="45.94828" lon="4.85837">
        <ele>277</ele>
        <time>2018-03-31T09:18:26Z</time>
      </trkpt>
      <trkpt lat="45.94829" lon="4.85843">
        <ele>277</ele>
        <time>2018-03-31T09:18:27Z</time>
      </trkpt>
      <trkpt lat="45.94831" lon="4.8585">
        <ele>277</ele>
        <time>2018-03-31T09:18:28Z</time>
      </trkpt>
      <trkpt lat="45.94833" lon="4.85857">
        <ele>277</ele>
        <time>2018-03-31T09:18:29Z</time>
      </trkpt>
      <trkpt lat="45.94835" lon="4.85863">
        <ele>276</ele>
        <time>2018-03-31T09:18:30Z</time>
      </trkpt>
      <trkpt lat="45.94837" lon="4.8587">
        <ele>276</ele>
        <time>2018-03-31T09:18:31Z</time>
      </trkpt>
      <trkpt lat="45.94838" lon="4.85878">
        <ele>276</ele>
        <time>2018-03-31T09:18:32Z</time>
      </trkpt>
      <trkpt lat="45.9484" lon="4.85885">
        <ele>276</ele>
        <time>2018-03-31T09:18:33Z</time>
      </trkpt>
      <trkpt lat="45.94843" lon="4.85894">
        <ele>276</ele>
        <time>2018-03-31T09:18:34Z</time>
      </trkpt>
      <trkpt lat="45.94845" lon="4.85902">
        <ele>276</ele>
        <time>2018-03-31T09:18:35Z</time>
      </trkpt>
      <trkpt lat="45.94847" lon="4.8591">
        <ele>275</ele>
        <time>2018-03-31T09:18:36Z</time>
      </trkpt>
      <trkpt lat="45.94849" lon="4.85918">
        <ele>275</ele>
        <time>2018-03-31T09:18:37Z</time>
      </trkpt>
      <trkpt lat="45.94852" lon="4.85925">
        <ele>275</ele>
        <time>2018-03-31T09:18:38Z</time>
      </trkpt>
      <trkpt lat="45.94854" lon="4.85932">
        <ele>275</ele>
        <time>2018-03-31T09:18:39Z</time>
      </trkpt>
      <trkpt lat="45.94856" lon="4.85939">
        <ele>275</ele>
        <time>2018-03-31T09:18:40Z</time>
      </trkpt>
      <trkpt lat="45.94858" lon="4.85948">
        <ele>275</ele>
        <time>2018-03-31T09:18:41Z</time>
      </trkpt>
      <trkpt lat="45.9486" lon="4.85956">
        <ele>275</ele>
        <time>2018-03-31T09:18:42Z</time>
      </trkpt>
      <trkpt lat="45.94862" lon="4.85963">
        <ele>275</ele>
        <time>2018-03-31T09:18:43Z</time>
      </trkpt>
      <trkpt lat="45.94864" lon="4.85971">
        <ele>275</ele>
        <time>2018-03-31T09:18:44Z</time>
      </trkpt>
      <trkpt lat="45.94866" lon="4.85979">
        <ele>275</ele>
        <time>2018-03-31T09:18:45Z</time>
      </trkpt>
      <trkpt lat="45.94868" lon="4.85985">
        <ele>275</ele>
        <time>2018-03-31T09:18:46Z</time>
      </trkpt>
      <trkpt lat="45.9487" lon="4.85993">
        <ele>275</ele>
        <time>2018-03-31T09:18:47Z</time>
      </trkpt>
      <trkpt lat="45.94871" lon="4.86">
        <ele>274</ele>
        <time>2018-03-31T09:18:48Z</time>
      </trkpt>
      <trkpt lat="45.94873" lon="4.86007">
        <ele>274</ele>
        <time>2018-03-31T09:18:49Z</time>
      </trkpt>
      <trkpt lat="45.94874" lon="4.86014">
        <ele>274</ele>
        <time>2018-03-31T09:18:50Z</time>
      </trkpt>
      <trkpt lat="45.94876" lon="4.86021">
        <ele>274</ele>
        <time>2018-03-31T09:18:51Z</time>
      </trkpt>
      <trkpt lat="45.94878" lon="4.86028">
        <ele>274</ele>
        <time>2018-03-31T09:18:52Z</time>
      </trkpt>
      <trkpt lat="45.9488" lon="4.86034">
        <ele>274</ele>
        <time>2018-03-31T09:18:53Z</time>
      </trkpt>
      <trkpt lat="45.94882" lon="4.86041">
        <ele>274</ele>
        <time>2018-03-31T09:18:54Z</time>
      </trkpt>
      <trkpt lat="45.94884" lon="4.86049">
        <ele>274</ele>
        <time>2018-03-31T09:18:55Z</time>
      </trkpt>
      <trkpt lat="45.94886" lon="4.86056">
        <ele>274</ele>
        <time>2018-03-31T09:18:56Z</time>
      </trkpt>
      <trkpt lat="45.94888" lon="4.86063">
        <ele>274</ele>
        <time>2018-03-31T09:18:57Z</time>
      </trkpt>
      <trkpt lat="45.9489" lon="4.86071">
        <ele>274</ele>
        <time>2018-03-31T09:18:58Z</time>
      </trkpt>
      <trkpt lat="45.94893" lon="4.86078">
        <ele>274</ele>
        <time>2018-03-31T09:18:59Z</time>
      </trkpt>
      <trkpt lat="45.94895" lon="4.86085">
        <ele>274</ele>
        <time>2018-03-31T09:19:00Z</time>
      </trkpt>
      <trkpt lat="45.94897" lon="4.86093">
        <ele>274</ele>
        <time>2018-03-31T09:19:01Z</time>
      </trkpt>
      <trkpt lat="45.949" lon="4.861">
        <ele>274</ele>
        <time>2018-03-31T09:19:02Z</time>
      </trkpt>
      <trkpt lat="45.94903" lon="4.86106">
        <ele>274</ele>
        <time>2018-03-31T09:19:03Z</time>
      </trkpt>
      <trkpt lat="45.94906" lon="4.86113">
        <ele>274</ele>
        <time>2018-03-31T09:19:04Z</time>
      </trkpt>
      <trkpt lat="45.94909" lon="4.8612">
        <ele>274</ele>
        <time>2018-03-31T09:19:05Z</time>
      </trkpt>
      <trkpt lat="45.94912" lon="4.86126">
        <ele>274</ele>
        <time>2018-03-31T09:19:06Z</time>
      </trkpt>
      <trkpt lat="45.94917" lon="4.86132">
        <ele>273</ele>
        <time>2018-03-31T09:19:07Z</time>
      </trkpt>
      <trkpt lat="45.9492" lon="4.86138">
        <ele>273</ele>
        <time>2018-03-31T09:19:08Z</time>
      </trkpt>
      <trkpt lat="45.94924" lon="4.86143">
        <ele>273</ele>
        <time>2018-03-31T09:19:09Z</time>
      </trkpt>
      <trkpt lat="45.94928" lon="4.86148">
        <ele>273</ele>
        <time>2018-03-31T09:19:10Z</time>
      </trkpt>
      <trkpt lat="45.94932" lon="4.86155">
        <ele>273</ele>
        <time>2018-03-31T09:19:11Z</time>
      </trkpt>
      <trkpt lat="45.94937" lon="4.86161">
        <ele>273</ele>
        <time>2018-03-31T09:19:12Z</time>
      </trkpt>
      <trkpt lat="45.94941" lon="4.86167">
        <ele>273</ele>
        <time>2018-03-31T09:19:13Z</time>
      </trkpt>
      <trkpt lat="45.94944" lon="4.86173">
        <ele>273</ele>
        <time>2018-03-31T09:19:14Z</time>
      </trkpt>
      <trkpt lat="45.94948" lon="4.86179">
        <ele>273</ele>
        <time>2018-03-31T09:19:15Z</time>
      </trkpt>
      <trkpt lat="45.94952" lon="4.86184">
        <ele>273</ele>
        <time>2018-03-31T09:19:16Z</time>
      </trkpt>
      <trkpt lat="45.94957" lon="4.8619">
        <ele>273</ele>
        <time>2018-03-31T09:19:17Z</time>
      </trkpt>
      <trkpt lat="45.94961" lon="4.86195">
        <ele>272</ele>
        <time>2018-03-31T09:19:18Z</time>
      </trkpt>
      <trkpt lat="45.94966" lon="4.86199">
        <ele>272</ele>
        <time>2018-03-31T09:19:19Z</time>
      </trkpt>
      <trkpt lat="45.9497" lon="4.86205">
        <ele>272</ele>
        <time>2018-03-31T09:19:20Z</time>
      </trkpt>
      <trkpt lat="45.94974" lon="4.86211">
        <ele>272</ele>
        <time>2018-03-31T09:19:21Z</time>
      </trkpt>
      <trkpt lat="45.94979" lon="4.86217">
        <ele>272</ele>
        <time>2018-03-31T09:19:22Z</time>
      </trkpt>
      <trkpt lat="45.94984" lon="4.86223">
        <ele>272</ele>
        <time>2018-03-31T09:19:23Z</time>
      </trkpt>
      <trkpt lat="45.94988" lon="4.86229">
        <ele>272</ele>
        <time>2018-03-31T09:19:24Z</time>
      </trkpt>
      <trkpt lat="45.94993" lon="4.86235">
        <ele>272</ele>
        <time>2018-03-31T09:19:25Z</time>
      </trkpt>
      <trkpt lat="45.94999" lon="4.86242">
        <ele>272</ele>
        <time>2018-03-31T09:19:26Z</time>
      </trkpt>
      <trkpt lat="45.95004" lon="4.8625">
        <ele>272</ele>
        <time>2018-03-31T09:19:27Z</time>
      </trkpt>
      <trkpt lat="45.9501" lon="4.86257">
        <ele>272</ele>
        <time>2018-03-31T09:19:28Z</time>
      </trkpt>
      <trkpt lat="45.95016" lon="4.86264">
        <ele>271</ele>
        <time>2018-03-31T09:19:29Z</time>
      </trkpt>
      <trkpt lat="45.95022" lon="4.86271">
        <ele>271</ele>
        <time>2018-03-31T09:19:30Z</time>
      </trkpt>
      <trkpt lat="45.95028" lon="4.86278">
        <ele>271</ele>
        <time>2018-03-31T09:19:31Z</time>
      </trkpt>
      <trkpt lat="45.95034" lon="4.86285">
        <ele>271</ele>
        <time>2018-03-31T09:19:32Z</time>
      </trkpt>
      <trkpt lat="45.95039" lon="4.86292">
        <ele>271</ele>
        <time>2018-03-31T09:19:33Z</time>
      </trkpt>
      <trkpt lat="45.95045" lon="4.86299">
        <ele>271</ele>
        <time>2018-03-31T09:19:34Z</time>
      </trkpt>
      <trkpt lat="45.9505" lon="4.86306">
        <ele>271</ele>
        <time>2018-03-31T09:19:35Z</time>
      </trkpt>
      <trkpt lat="45.95055" lon="4.86313">
        <ele>271</ele>
        <time>2018-03-31T09:19:36Z</time>
      </trkpt>
      <trkpt lat="45.95061" lon="4.8632">
        <ele>270</ele>
        <time>2018-03-31T09:19:37Z</time>
      </trkpt>
      <trkpt lat="45.95067" lon="4.86327">
        <ele>270</ele>
        <time>2018-03-31T09:19:38Z</time>
      </trkpt>
      <trkpt lat="45.95072" lon="4.86334">
        <ele>270</ele>
        <time>2018-03-31T09:19:39Z</time>
      </trkpt>
      <trkpt lat="45.95078" lon="4.8634">
        <ele>270</ele>
        <time>2018-03-31T09:19:40Z</time>
      </trkpt>
      <trkpt lat="45.95083" lon="4.86347">
        <ele>270</ele>
        <time>2018-03-31T09:19:41Z</time>
      </trkpt>
      <trkpt lat="45.95089" lon="4.86353">
        <ele>269</ele>
        <time>2018-03-31T09:19:42Z</time>
      </trkpt>
      <trkpt lat="45.95094" lon="4.86358">
        <ele>269</ele>
        <time>2018-03-31T09:19:43Z</time>
      </trkpt>
      <trkpt lat="45.951" lon="4.86365">
        <ele>269</ele>
        <time>2018-03-31T09:19:44Z</time>
      </trkpt>
      <trkpt lat="45.95104" lon="4.86371">
        <ele>269</ele>
        <time>2018-03-31T09:19:45Z</time>
      </trkpt>
      <trkpt lat="45.95109" lon="4.86378">
        <ele>269</ele>
        <time>2018-03-31T09:19:46Z</time>
      </trkpt>
      <trkpt lat="45.95114" lon="4.86384">
        <ele>269</ele>
        <time>2018-03-31T09:19:47Z</time>
      </trkpt>
      <trkpt lat="45.95119" lon="4.86391">
        <ele>269</ele>
        <time>2018-03-31T09:19:48Z</time>
      </trkpt>
      <trkpt lat="45.95124" lon="4.86398">
        <ele>269</ele>
        <time>2018-03-31T09:19:49Z</time>
      </trkpt>
      <trkpt lat="45.95128" lon="4.86403">
        <ele>268</ele>
        <time>2018-03-31T09:19:50Z</time>
      </trkpt>
      <trkpt lat="45.95132" lon="4.86409">
        <ele>268</ele>
        <time>2018-03-31T09:19:51Z</time>
      </trkpt>
      <trkpt lat="45.95137" lon="4.86414">
        <ele>268</ele>
        <time>2018-03-31T09:19:52Z</time>
      </trkpt>
      <trkpt lat="45.95141" lon="4.86419">
        <ele>268</ele>
        <time>2018-03-31T09:19:53Z</time>
      </trkpt>
      <trkpt lat="45.95146" lon="4.86425">
        <ele>268</ele>
        <time>2018-03-31T09:19:54Z</time>
      </trkpt>
      <trkpt lat="45.9515" lon="4.8643">
        <ele>268</ele>
        <time>2018-03-31T09:19:55Z</time>
      </trkpt>
      <trkpt lat="45.95155" lon="4.86435">
        <ele>268</ele>
        <time>2018-03-31T09:19:56Z</time>
      </trkpt>
      <trkpt lat="45.9516" lon="4.8644">
        <ele>268</ele>
        <time>2018-03-31T09:19:57Z</time>
      </trkpt>
      <trkpt lat="45.95165" lon="4.86446">
        <ele>269</ele>
        <time>2018-03-31T09:19:58Z</time>
      </trkpt>
      <trkpt lat="45.95169" lon="4.86452">
        <ele>268</ele>
        <time>2018-03-31T09:19:59Z</time>
      </trkpt>
      <trkpt lat="45.95175" lon="4.86458">
        <ele>268</ele>
        <time>2018-03-31T09:20:00Z</time>
      </trkpt>
      <trkpt lat="45.95179" lon="4.86464">
        <ele>268</ele>
        <time>2018-03-31T09:20:01Z</time>
      </trkpt>
      <trkpt lat="45.95185" lon="4.8647">
        <ele>268</ele>
        <time>2018-03-31T09:20:02Z</time>
      </trkpt>
      <trkpt lat="45.9519" lon="4.86476">
        <ele>268</ele>
        <time>2018-03-31T09:20:03Z</time>
      </trkpt>
      <trkpt lat="45.95195" lon="4.86484">
        <ele>268</ele>
        <time>2018-03-31T09:20:04Z</time>
      </trkpt>
      <trkpt lat="45.95202" lon="4.8649">
        <ele>268</ele>
        <time>2018-03-31T09:20:05Z</time>
      </trkpt>
      <trkpt lat="45.95207" lon="4.86496">
        <ele>268</ele>
        <time>2018-03-31T09:20:06Z</time>
      </trkpt>
      <trkpt lat="45.95212" lon="4.86502">
        <ele>268</ele>
        <time>2018-03-31T09:20:07Z</time>
      </trkpt>
      <trkpt lat="45.95217" lon="4.86507">
        <ele>268</ele>
        <time>2018-03-31T09:20:08Z</time>
      </trkpt>
      <trkpt lat="45.95222" lon="4.86514">
        <ele>268</ele>
        <time>2018-03-31T09:20:09Z</time>
      </trkpt>
      <trkpt lat="45.95227" lon="4.86519">
        <ele>268</ele>
        <time>2018-03-31T09:20:10Z</time>
      </trkpt>
      <trkpt lat="45.95232" lon="4.86525">
        <ele>268</ele>
        <time>2018-03-31T09:20:11Z</time>
      </trkpt>
      <trkpt lat="45.95237" lon="4.86532">
        <ele>268</ele>
        <time>2018-03-31T09:20:12Z</time>
      </trkpt>
      <trkpt lat="45.95242" lon="4.86537">
        <ele>268</ele>
        <time>2018-03-31T09:20:13Z</time>
      </trkpt>
      <trkpt lat="45.95255" lon="4.86554">
        <ele>267</ele>
        <time>2018-03-31T09:20:16Z</time>
      </trkpt>
      <trkpt lat="45.95257" lon="4.86562">
        <ele>267</ele>
        <time>2018-03-31T09:20:17Z</time>
      </trkpt>
      <trkpt lat="45.95258" lon="4.86569">
        <ele>267</ele>
        <time>2018-03-31T09:20:18Z</time>
      </trkpt>
      <trkpt lat="45.95255" lon="4.8658">
        <ele>268</ele>
        <time>2018-03-31T09:20:20Z</time>
      </trkpt>
      <trkpt lat="45.9525" lon="4.86583">
        <ele>268</ele>
        <time>2018-03-31T09:20:21Z</time>
      </trkpt>
      <trkpt lat="45.95242" lon="4.86584">
        <ele>268</ele>
        <time>2018-03-31T09:20:23Z</time>
      </trkpt>
      <trkpt lat="45.95238" lon="4.86583">
        <ele>268</ele>
        <time>2018-03-31T09:20:24Z</time>
      </trkpt>
      <trkpt lat="45.95232" lon="4.86582">
        <ele>268</ele>
        <time>2018-03-31T09:20:25Z</time>
      </trkpt>
      <trkpt lat="45.95227" lon="4.86581">
        <ele>268</ele>
        <time>2018-03-31T09:20:26Z</time>
      </trkpt>
      <trkpt lat="45.95218" lon="4.86579">
        <ele>268</ele>
        <time>2018-03-31T09:20:28Z</time>
      </trkpt>
      <trkpt lat="45.95217" lon="4.86579">
        <ele>268</ele>
        <time>2018-03-31T09:20:29Z</time>
      </trkpt>
      <trkpt lat="45.95209" lon="4.86578">
        <ele>268</ele>
        <time>2018-03-31T09:20:32Z</time>
      </trkpt>
      <trkpt lat="45.95206" lon="4.86577">
        <ele>268</ele>
        <time>2018-03-31T09:20:33Z</time>
      </trkpt>
      <trkpt lat="45.95198" lon="4.86576">
        <ele>268</ele>
        <time>2018-03-31T09:20:36Z</time>
      </trkpt>
      <trkpt lat="45.95196" lon="4.86576">
        <ele>268</ele>
        <time>2018-03-31T09:20:37Z</time>
      </trkpt>
      <trkpt lat="45.95188" lon="4.86578">
        <ele>269</ele>
        <time>2018-03-31T09:20:40Z</time>
      </trkpt>
      <trkpt lat="45.95185" lon="4.86578">
        <ele>269</ele>
        <time>2018-03-31T09:20:41Z</time>
      </trkpt>
      <trkpt lat="45.95177" lon="4.8658">
        <ele>269</ele>
        <time>2018-03-31T09:20:44Z</time>
      </trkpt>
      <trkpt lat="45.95174" lon="4.86581">
        <ele>269</ele>
        <time>2018-03-31T09:20:45Z</time>
      </trkpt>
      <trkpt lat="45.95169" lon="4.86581">
        <ele>269</ele>
        <time>2018-03-31T09:20:47Z</time>
      </trkpt>
      <trkpt lat="45.95165" lon="4.86581">
        <ele>269</ele>
        <time>2018-03-31T09:20:48Z</time>
      </trkpt>
      <trkpt lat="45.95158" lon="4.86581">
        <ele>269</ele>
        <time>2018-03-31T09:20:50Z</time>
      </trkpt>
      <trkpt lat="45.95154" lon="4.86581">
        <ele>269</ele>
        <time>2018-03-31T09:20:51Z</time>
      </trkpt>
      <trkpt lat="45.95147" lon="4.86581">
        <ele>270</ele>
        <time>2018-03-31T09:20:53Z</time>
      </trkpt>
      <trkpt lat="45.95143" lon="4.86581">
        <ele>270</ele>
        <time>2018-03-31T09:20:54Z</time>
      </trkpt>
      <trkpt lat="45.95136" lon="4.86582">
        <ele>270</ele>
        <time>2018-03-31T09:20:56Z</time>
      </trkpt>
      <trkpt lat="45.95133" lon="4.86582">
        <ele>270</ele>
        <time>2018-03-31T09:20:57Z</time>
      </trkpt>
      <trkpt lat="45.95127" lon="4.86582">
        <ele>270</ele>
        <time>2018-03-31T09:20:59Z</time>
      </trkpt>
      <trkpt lat="45.95123" lon="4.86583">
        <ele>270</ele>
        <time>2018-03-31T09:21:00Z</time>
      </trkpt>
      <trkpt lat="45.95117" lon="4.86583">
        <ele>270</ele>
        <time>2018-03-31T09:21:02Z</time>
      </trkpt>
      <trkpt lat="45.95114" lon="4.86584">
        <ele>270</ele>
        <time>2018-03-31T09:21:03Z</time>
      </trkpt>
      <trkpt lat="45.95105" lon="4.86586">
        <ele>271</ele>
        <time>2018-03-31T09:21:06Z</time>
      </trkpt>
      <trkpt lat="45.95102" lon="4.86587">
        <ele>271</ele>
        <time>2018-03-31T09:21:07Z</time>
      </trkpt>
      <trkpt lat="45.95096" lon="4.86588">
        <ele>271</ele>
        <time>2018-03-31T09:21:09Z</time>
      </trkpt>
      <trkpt lat="45.95093" lon="4.86588">
        <ele>271</ele>
        <time>2018-03-31T09:21:10Z</time>
      </trkpt>
      <trkpt lat="45.95087" lon="4.86589">
        <ele>271</ele>
        <time>2018-03-31T09:21:12Z</time>
      </trkpt>
      <trkpt lat="45.95083" lon="4.86589">
        <ele>271</ele>
        <time>2018-03-31T09:21:13Z</time>
      </trkpt>
      <trkpt lat="45.95077" lon="4.8659">
        <ele>271</ele>
        <time>2018-03-31T09:21:15Z</time>
      </trkpt>
      <trkpt lat="45.95074" lon="4.8659">
        <ele>272</ele>
        <time>2018-03-31T09:21:16Z</time>
      </trkpt>
      <trkpt lat="45.95065" lon="4.86593">
        <ele>272</ele>
        <time>2018-03-31T09:21:19Z</time>
      </trkpt>
      <trkpt lat="45.95063" lon="4.86594">
        <ele>272</ele>
        <time>2018-03-31T09:21:20Z</time>
      </trkpt>
      <trkpt lat="45.95057" lon="4.86596">
        <ele>272</ele>
        <time>2018-03-31T09:21:22Z</time>
      </trkpt>
      <trkpt lat="45.95054" lon="4.86597">
        <ele>272</ele>
        <time>2018-03-31T09:21:23Z</time>
      </trkpt>
      <trkpt lat="45.95047" lon="4.86599">
        <ele>272</ele>
        <time>2018-03-31T09:21:25Z</time>
      </trkpt>
      <trkpt lat="45.95044" lon="4.866">
        <ele>272</ele>
        <time>2018-03-31T09:21:26Z</time>
      </trkpt>
      <trkpt lat="45.95038" lon="4.86602">
        <ele>273</ele>
        <time>2018-03-31T09:21:28Z</time>
      </trkpt>
      <trkpt lat="45.95034" lon="4.86603">
        <ele>273</ele>
        <time>2018-03-31T09:21:29Z</time>
      </trkpt>
      <trkpt lat="45.95028" lon="4.86605">
        <ele>273</ele>
        <time>2018-03-31T09:21:31Z</time>
      </trkpt>
      <trkpt lat="45.95025" lon="4.86606">
        <ele>273</ele>
        <time>2018-03-31T09:21:32Z</time>
      </trkpt>
      <trkpt lat="45.95019" lon="4.86608">
        <ele>273</ele>
        <time>2018-03-31T09:21:34Z</time>
      </trkpt>
      <trkpt lat="45.95016" lon="4.86609">
        <ele>273</ele>
        <time>2018-03-31T09:21:35Z</time>
      </trkpt>
      <trkpt lat="45.9501" lon="4.86611">
        <ele>273</ele>
        <time>2018-03-31T09:21:37Z</time>
      </trkpt>
      <trkpt lat="45.95006" lon="4.86612">
        <ele>273</ele>
        <time>2018-03-31T09:21:38Z</time>
      </trkpt>
      <trkpt lat="45.95" lon="4.86614">
        <ele>273</ele>
        <time>2018-03-31T09:21:40Z</time>
      </trkpt>
      <trkpt lat="45.94997" lon="4.86614">
        <ele>275</ele>
        <time>2018-03-31T09:21:41Z</time>
      </trkpt>
      <trkpt lat="45.94991" lon="4.86615">
        <ele>275</ele>
        <time>2018-03-31T09:21:43Z</time>
      </trkpt>
      <trkpt lat="45.94987" lon="4.86615">
        <ele>275</ele>
        <time>2018-03-31T09:21:44Z</time>
      </trkpt>
      <trkpt lat="45.94981" lon="4.86616">
        <ele>275</ele>
        <time>2018-03-31T09:21:46Z</time>
      </trkpt>
      <trkpt lat="45.94978" lon="4.86616">
        <ele>275</ele>
        <time>2018-03-31T09:21:47Z</time>
      </trkpt>
      <trkpt lat="45.94972" lon="4.86618">
        <ele>275</ele>
        <time>2018-03-31T09:21:49Z</time>
      </trkpt>
      <trkpt lat="45.94969" lon="4.86619">
        <ele>275</ele>
        <time>2018-03-31T09:21:50Z</time>
      </trkpt>
      <trkpt lat="45.94959" lon="4.86624">
        <ele>275</ele>
        <time>2018-03-31T09:21:51Z</time>
      </trkpt>
      <trkpt lat="45.94953" lon="4.8663">
        <ele>276</ele>
        <time>2018-03-31T09:21:53Z</time>
      </trkpt>
      <trkpt lat="45.94951" lon="4.86633">
        <ele>276</ele>
        <time>2018-03-31T09:21:54Z</time>
      </trkpt>
      <trkpt lat="45.94946" lon="4.86641">
        <ele>276</ele>
        <time>2018-03-31T09:21:56Z</time>
      </trkpt>
      <trkpt lat="45.94943" lon="4.86646">
        <ele>276</ele>
        <time>2018-03-31T09:21:57Z</time>
      </trkpt>
      <trkpt lat="45.9494" lon="4.86656">
        <ele>276</ele>
        <time>2018-03-31T09:21:59Z</time>
      </trkpt>
      <trkpt lat="45.94939" lon="4.86663">
        <ele>276</ele>
        <time>2018-03-31T09:22:00Z</time>
      </trkpt>
      <trkpt lat="45.94939" lon="4.86675">
        <ele>276</ele>
        <time>2018-03-31T09:22:02Z</time>
      </trkpt>
      <trkpt lat="45.94939" lon="4.86682">
        <ele>276</ele>
        <time>2018-03-31T09:22:03Z</time>
      </trkpt>
      <trkpt lat="45.9494" lon="4.86688">
        <ele>276</ele>
        <time>2018-03-31T09:22:04Z</time>
      </trkpt>
      <trkpt lat="45.94941" lon="4.86695">
        <ele>276</ele>
        <time>2018-03-31T09:22:05Z</time>
      </trkpt>
      <trkpt lat="45.94944" lon="4.86707">
        <ele>275</ele>
        <time>2018-03-31T09:22:07Z</time>
      </trkpt>
      <trkpt lat="45.94945" lon="4.86713">
        <ele>275</ele>
        <time>2018-03-31T09:22:08Z</time>
      </trkpt>
      <trkpt lat="45.94947" lon="4.86719">
        <ele>275</ele>
        <time>2018-03-31T09:22:09Z</time>
      </trkpt>
      <trkpt lat="45.94949" lon="4.86724">
        <ele>275</ele>
        <time>2018-03-31T09:22:10Z</time>
      </trkpt>
      <trkpt lat="45.94953" lon="4.86735">
        <ele>275</ele>
        <time>2018-03-31T09:22:12Z</time>
      </trkpt>
      <trkpt lat="45.94956" lon="4.8674">
        <ele>275</ele>
        <time>2018-03-31T09:22:13Z</time>
      </trkpt>
      <trkpt lat="45.94961" lon="4.8675">
        <ele>275</ele>
        <time>2018-03-31T09:22:15Z</time>
      </trkpt>
      <trkpt lat="45.94963" lon="4.86755">
        <ele>275</ele>
        <time>2018-03-31T09:22:16Z</time>
      </trkpt>
      <trkpt lat="45.94966" lon="4.8676">
        <ele>275</ele>
        <time>2018-03-31T09:22:17Z</time>
      </trkpt>
      <trkpt lat="45.94969" lon="4.86766">
        <ele>275</ele>
        <time>2018-03-31T09:22:18Z</time>
      </trkpt>
      <trkpt lat="45.94972" lon="4.86772">
        <ele>275</ele>
        <time>2018-03-31T09:22:19Z</time>
      </trkpt>
      <trkpt lat="45.94975" lon="4.86777">
        <ele>275</ele>
        <time>2018-03-31T09:22:20Z</time>
      </trkpt>
      <trkpt lat="45.9498" lon="4.86785">
        <ele>275</ele>
        <time>2018-03-31T09:22:22Z</time>
      </trkpt>
      <trkpt lat="45.94982" lon="4.8679">
        <ele>276</ele>
        <time>2018-03-31T09:22:23Z</time>
      </trkpt>
      <trkpt lat="45.94987" lon="4.868">
        <ele>276</ele>
        <time>2018-03-31T09:22:25Z</time>
      </trkpt>
      <trkpt lat="45.94989" lon="4.86805">
        <ele>276</ele>
        <time>2018-03-31T09:22:26Z</time>
      </trkpt>
      <trkpt lat="45.94992" lon="4.8681">
        <ele>276</ele>
        <time>2018-03-31T09:22:27Z</time>
      </trkpt>
      <trkpt lat="45.94995" lon="4.86815">
        <ele>276</ele>
        <time>2018-03-31T09:22:28Z</time>
      </trkpt>
      <trkpt lat="45.94998" lon="4.86821">
        <ele>276</ele>
        <time>2018-03-31T09:22:29Z</time>
      </trkpt>
      <trkpt lat="45.95" lon="4.86827">
        <ele>276</ele>
        <time>2018-03-31T09:22:30Z</time>
      </trkpt>
      <trkpt lat="45.95003" lon="4.86833">
        <ele>276</ele>
        <time>2018-03-31T09:22:31Z</time>
      </trkpt>
      <trkpt lat="45.95006" lon="4.86838">
        <ele>276</ele>
        <time>2018-03-31T09:22:32Z</time>
      </trkpt>
      <trkpt lat="45.95009" lon="4.86845">
        <ele>276</ele>
        <time>2018-03-31T09:22:33Z</time>
      </trkpt>
      <trkpt lat="45.95011" lon="4.86852">
        <ele>275</ele>
        <time>2018-03-31T09:22:34Z</time>
      </trkpt>
      <trkpt lat="45.95013" lon="4.86859">
        <ele>275</ele>
        <time>2018-03-31T09:22:35Z</time>
      </trkpt>
      <trkpt lat="45.95015" lon="4.86866">
        <ele>275</ele>
        <time>2018-03-31T09:22:36Z</time>
      </trkpt>
      <trkpt lat="45.95018" lon="4.86872">
        <ele>275</ele>
        <time>2018-03-31T09:22:37Z</time>
      </trkpt>
      <trkpt lat="45.9502" lon="4.8688">
        <ele>275</ele>
        <time>2018-03-31T09:22:38Z</time>
      </trkpt>
      <trkpt lat="45.95022" lon="4.86886">
        <ele>275</ele>
        <time>2018-03-31T09:22:39Z</time>
      </trkpt>
      <trkpt lat="45.95024" lon="4.86892">
        <ele>275</ele>
        <time>2018-03-31T09:22:40Z</time>
      </trkpt>
      <trkpt lat="45.95026" lon="4.86897">
        <ele>275</ele>
        <time>2018-03-31T09:22:41Z</time>
      </trkpt>
      <trkpt lat="45.95028" lon="4.86904">
        <ele>275</ele>
        <time>2018-03-31T09:22:42Z</time>
      </trkpt>
      <trkpt lat="45.9503" lon="4.8691">
        <ele>275</ele>
        <time>2018-03-31T09:22:43Z</time>
      </trkpt>
      <trkpt lat="45.95032" lon="4.86916">
        <ele>275</ele>
        <time>2018-03-31T09:22:44Z</time>
      </trkpt>
      <trkpt lat="45.95034" lon="4.86923">
        <ele>276</ele>
        <time>2018-03-31T09:22:45Z</time>
      </trkpt>
      <trkpt lat="45.95036" lon="4.8693">
        <ele>276</ele>
        <time>2018-03-31T09:22:46Z</time>
      </trkpt>
      <trkpt lat="45.95038" lon="4.86937">
        <ele>276</ele>
        <time>2018-03-31T09:22:47Z</time>
      </trkpt>
      <trkpt lat="45.9504" lon="4.86944">
        <ele>276</ele>
        <time>2018-03-31T09:22:48Z</time>
      </trkpt>
      <trkpt lat="45.95043" lon="4.8695">
        <ele>276</ele>
        <time>2018-03-31T09:22:49Z</time>
      </trkpt>
      <trkpt lat="45.95045" lon="4.86957">
        <ele>276</ele>
        <time>2018-03-31T09:22:50Z</time>
      </trkpt>
      <trkpt lat="45.95046" lon="4.86966">
        <ele>276</ele>
        <time>2018-03-31T09:22:51Z</time>
      </trkpt>
      <trkpt lat="45.95049" lon="4.86972">
        <ele>276</ele>
        <time>2018-03-31T09:22:52Z</time>
      </trkpt>
      <trkpt lat="45.9505" lon="4.86978">
        <ele>276</ele>
        <time>2018-03-31T09:22:53Z</time>
      </trkpt>
      <trkpt lat="45.95053" lon="4.86985">
        <ele>276</ele>
        <time>2018-03-31T09:22:54Z</time>
      </trkpt>
      <trkpt lat="45.95056" lon="4.86991">
        <ele>276</ele>
        <time>2018-03-31T09:22:55Z</time>
      </trkpt>
      <trkpt lat="45.95058" lon="4.86996">
        <ele>276</ele>
        <time>2018-03-31T09:22:56Z</time>
      </trkpt>
      <trkpt lat="45.95063" lon="4.87007">
        <ele>277</ele>
        <time>2018-03-31T09:22:58Z</time>
      </trkpt>
      <trkpt lat="45.95066" lon="4.87013">
        <ele>277</ele>
        <time>2018-03-31T09:22:59Z</time>
      </trkpt>
      <trkpt lat="45.9507" lon="4.87023">
        <ele>277</ele>
        <time>2018-03-31T09:23:01Z</time>
      </trkpt>
      <trkpt lat="45.95073" lon="4.8703">
        <ele>277</ele>
        <time>2018-03-31T09:23:02Z</time>
      </trkpt>
      <trkpt lat="45.95074" lon="4.87037">
        <ele>277</ele>
        <time>2018-03-31T09:23:04Z</time>
      </trkpt>
      <trkpt lat="45.95075" lon="4.87045">
        <ele>277</ele>
        <time>2018-03-31T09:23:05Z</time>
      </trkpt>
      <trkpt lat="45.95082" lon="4.87052">
        <ele>277</ele>
        <time>2018-03-31T09:23:07Z</time>
      </trkpt>
      <trkpt lat="45.95086" lon="4.87056">
        <ele>277</ele>
        <time>2018-03-31T09:23:08Z</time>
      </trkpt>
      <trkpt lat="45.95089" lon="4.87062">
        <ele>277</ele>
        <time>2018-03-31T09:23:09Z</time>
      </trkpt>
      <trkpt lat="45.95092" lon="4.87067">
        <ele>277</ele>
        <time>2018-03-31T09:23:10Z</time>
      </trkpt>
      <trkpt lat="45.95095" lon="4.87072">
        <ele>277</ele>
        <time>2018-03-31T09:23:11Z</time>
      </trkpt>
      <trkpt lat="45.95098" lon="4.87079">
        <ele>277</ele>
        <time>2018-03-31T09:23:12Z</time>
      </trkpt>
      <trkpt lat="45.951" lon="4.87086">
        <ele>277</ele>
        <time>2018-03-31T09:23:13Z</time>
      </trkpt>
      <trkpt lat="45.95102" lon="4.87092">
        <ele>277</ele>
        <time>2018-03-31T09:23:14Z</time>
      </trkpt>
      <trkpt lat="45.95106" lon="4.87103">
        <ele>277</ele>
        <time>2018-03-31T09:23:16Z</time>
      </trkpt>
      <trkpt lat="45.95108" lon="4.8711">
        <ele>277</ele>
        <time>2018-03-31T09:23:17Z</time>
      </trkpt>
      <trkpt lat="45.95109" lon="4.87117">
        <ele>277</ele>
        <time>2018-03-31T09:23:18Z</time>
      </trkpt>
      <trkpt lat="45.9511" lon="4.87123">
        <ele>277</ele>
        <time>2018-03-31T09:23:19Z</time>
      </trkpt>
      <trkpt lat="45.95112" lon="4.8713">
        <ele>277</ele>
        <time>2018-03-31T09:23:20Z</time>
      </trkpt>
      <trkpt lat="45.95114" lon="4.87137">
        <ele>277</ele>
        <time>2018-03-31T09:23:21Z</time>
      </trkpt>
      <trkpt lat="45.95116" lon="4.87144">
        <ele>277</ele>
        <time>2018-03-31T09:23:22Z</time>
      </trkpt>
      <trkpt lat="45.95117" lon="4.87151">
        <ele>277</ele>
        <time>2018-03-31T09:23:23Z</time>
      </trkpt>
      <trkpt lat="45.95118" lon="4.87157">
        <ele>277</ele>
        <time>2018-03-31T09:23:24Z</time>
      </trkpt>
      <trkpt lat="45.95119" lon="4.87164">
        <ele>277</ele>
        <time>2018-03-31T09:23:25Z</time>
      </trkpt>
      <trkpt lat="45.95121" lon="4.87171">
        <ele>277</ele>
        <time>2018-03-31T09:23:26Z</time>
      </trkpt>
      <trkpt lat="45.95122" lon="4.87178">
        <ele>276</ele>
        <time>2018-03-31T09:23:27Z</time>
      </trkpt>
      <trkpt lat="45.95124" lon="4.87185">
        <ele>276</ele>
        <time>2018-03-31T09:23:28Z</time>
      </trkpt>
      <trkpt lat="45.95126" lon="4.87194">
        <ele>276</ele>
        <time>2018-03-31T09:23:29Z</time>
      </trkpt>
      <trkpt lat="45.95128" lon="4.87203">
        <ele>276</ele>
        <time>2018-03-31T09:23:30Z</time>
      </trkpt>
      <trkpt lat="45.9513" lon="4.8721">
        <ele>276</ele>
        <time>2018-03-31T09:23:31Z</time>
      </trkpt>
      <trkpt lat="45.95132" lon="4.87219">
        <ele>276</ele>
        <time>2018-03-31T09:23:32Z</time>
      </trkpt>
      <trkpt lat="45.95134" lon="4.87229">
        <ele>276</ele>
        <time>2018-03-31T09:23:33Z</time>
      </trkpt>
      <trkpt lat="45.95136" lon="4.87239">
        <ele>276</ele>
        <time>2018-03-31T09:23:34Z</time>
      </trkpt>
      <trkpt lat="45.95138" lon="4.87248">
        <ele>275</ele>
        <time>2018-03-31T09:23:35Z</time>
      </trkpt>
      <trkpt lat="45.95139" lon="4.87256">
        <ele>275</ele>
        <time>2018-03-31T09:23:36Z</time>
      </trkpt>
      <trkpt lat="45.95141" lon="4.87265">
        <ele>274</ele>
        <time>2018-03-31T09:23:37Z</time>
      </trkpt>
      <trkpt lat="45.95142" lon="4.87274">
        <ele>274</ele>
        <time>2018-03-31T09:23:38Z</time>
      </trkpt>
      <trkpt lat="45.95145" lon="4.87285">
        <ele>274</ele>
        <time>2018-03-31T09:23:39Z</time>
      </trkpt>
      <trkpt lat="45.95146" lon="4.87294">
        <ele>274</ele>
        <time>2018-03-31T09:23:40Z</time>
      </trkpt>
      <trkpt lat="45.95149" lon="4.87301">
        <ele>274</ele>
        <time>2018-03-31T09:23:41Z</time>
      </trkpt>
      <trkpt lat="45.95151" lon="4.87309">
        <ele>274</ele>
        <time>2018-03-31T09:23:42Z</time>
      </trkpt>
      <trkpt lat="45.95154" lon="4.8732">
        <ele>273</ele>
        <time>2018-03-31T09:23:43Z</time>
      </trkpt>
      <trkpt lat="45.95156" lon="4.87329">
        <ele>272</ele>
        <time>2018-03-31T09:23:44Z</time>
      </trkpt>
      <trkpt lat="45.95159" lon="4.87338">
        <ele>272</ele>
        <time>2018-03-31T09:23:45Z</time>
      </trkpt>
      <trkpt lat="45.95161" lon="4.87348">
        <ele>272</ele>
        <time>2018-03-31T09:23:46Z</time>
      </trkpt>
      <trkpt lat="45.95163" lon="4.87356">
        <ele>272</ele>
        <time>2018-03-31T09:23:47Z</time>
      </trkpt>
      <trkpt lat="45.95165" lon="4.87365">
        <ele>272</ele>
        <time>2018-03-31T09:23:48Z</time>
      </trkpt>
      <trkpt lat="45.95167" lon="4.87373">
        <ele>272</ele>
        <time>2018-03-31T09:23:49Z</time>
      </trkpt>
      <trkpt lat="45.95168" lon="4.87382">
        <ele>271</ele>
        <time>2018-03-31T09:23:50Z</time>
      </trkpt>
      <trkpt lat="45.9517" lon="4.8739">
        <ele>271</ele>
        <time>2018-03-31T09:23:51Z</time>
      </trkpt>
      <trkpt lat="45.95171" lon="4.87397">
        <ele>271</ele>
        <time>2018-03-31T09:23:52Z</time>
      </trkpt>
      <trkpt lat="45.95173" lon="4.87404">
        <ele>271</ele>
        <time>2018-03-31T09:23:53Z</time>
      </trkpt>
      <trkpt lat="45.95175" lon="4.87411">
        <ele>271</ele>
        <time>2018-03-31T09:23:54Z</time>
      </trkpt>
      <trkpt lat="45.95176" lon="4.87419">
        <ele>271</ele>
        <time>2018-03-31T09:23:55Z</time>
      </trkpt>
      <trkpt lat="45.95178" lon="4.87427">
        <ele>271</ele>
        <time>2018-03-31T09:23:56Z</time>
      </trkpt>
      <trkpt lat="45.9518" lon="4.87435">
        <ele>271</ele>
        <time>2018-03-31T09:23:57Z</time>
      </trkpt>
      <trkpt lat="45.95181" lon="4.87444">
        <ele>272</ele>
        <time>2018-03-31T09:23:58Z</time>
      </trkpt>
      <trkpt lat="45.95183" lon="4.87452">
        <ele>272</ele>
        <time>2018-03-31T09:23:59Z</time>
      </trkpt>
      <trkpt lat="45.95185" lon="4.8746">
        <ele>272</ele>
        <time>2018-03-31T09:24:00Z</time>
      </trkpt>
      <trkpt lat="45.95188" lon="4.87469">
        <ele>272</ele>
        <time>2018-03-31T09:24:01Z</time>
      </trkpt>
      <trkpt lat="45.9519" lon="4.87478">
        <ele>272</ele>
        <time>2018-03-31T09:24:02Z</time>
      </trkpt>
      <trkpt lat="45.95192" lon="4.87487">
        <ele>272</ele>
        <time>2018-03-31T09:24:03Z</time>
      </trkpt>
      <trkpt lat="45.95194" lon="4.87495">
        <ele>272</ele>
        <time>2018-03-31T09:24:04Z</time>
      </trkpt>
      <trkpt lat="45.95196" lon="4.87503">
        <ele>273</ele>
        <time>2018-03-31T09:24:05Z</time>
      </trkpt>
      <trkpt lat="45.95199" lon="4.87515">
        <ele>273</ele>
        <time>2018-03-31T09:24:06Z</time>
      </trkpt>
      <trkpt lat="45.95201" lon="4.87523">
        <ele>274</ele>
        <time>2018-03-31T09:24:07Z</time>
      </trkpt>
      <trkpt lat="45.95203" lon="4.87531">
        <ele>274</ele>
        <time>2018-03-31T09:24:08Z</time>
      </trkpt>
      <trkpt lat="45.95204" lon="4.87538">
        <ele>274</ele>
        <time>2018-03-31T09:24:09Z</time>
      </trkpt>
      <trkpt lat="45.95206" lon="4.87546">
        <ele>274</ele>
        <time>2018-03-31T09:24:10Z</time>
      </trkpt>
      <trkpt lat="45.95208" lon="4.87553">
        <ele>274</ele>
        <time>2018-03-31T09:24:11Z</time>
      </trkpt>
      <trkpt lat="45.95208" lon="4.87562">
        <ele>274</ele>
        <time>2018-03-31T09:24:12Z</time>
      </trkpt>
      <trkpt lat="45.95209" lon="4.87569">
        <ele>274</ele>
        <time>2018-03-31T09:24:13Z</time>
      </trkpt>
      <trkpt lat="45.95209" lon="4.87575">
        <ele>274</ele>
        <time>2018-03-31T09:24:14Z</time>
      </trkpt>
      <trkpt lat="45.9521" lon="4.87583">
        <ele>274</ele>
        <time>2018-03-31T09:24:15Z</time>
      </trkpt>
      <trkpt lat="45.95209" lon="4.87594">
        <ele>276</ele>
        <time>2018-03-31T09:24:17Z</time>
      </trkpt>
      <trkpt lat="45.9521" lon="4.87601">
        <ele>276</ele>
        <time>2018-03-31T09:24:18Z</time>
      </trkpt>
      <trkpt lat="45.95211" lon="4.87611">
        <ele>276</ele>
        <time>2018-03-31T09:24:20Z</time>
      </trkpt>
      <trkpt lat="45.95211" lon="4.87617">
        <ele>276</ele>
        <time>2018-03-31T09:24:21Z</time>
      </trkpt>
      <trkpt lat="45.95212" lon="4.87628">
        <ele>276</ele>
        <time>2018-03-31T09:24:23Z</time>
      </trkpt>
      <trkpt lat="45.95213" lon="4.87634">
        <ele>276</ele>
        <time>2018-03-31T09:24:24Z</time>
      </trkpt>
      <trkpt lat="45.95215" lon="4.87647">
        <ele>276</ele>
        <time>2018-03-31T09:24:26Z</time>
      </trkpt>
      <trkpt lat="45.95216" lon="4.87652">
        <ele>276</ele>
        <time>2018-03-31T09:24:27Z</time>
      </trkpt>
      <trkpt lat="45.95218" lon="4.8766">
        <ele>276</ele>
        <time>2018-03-31T09:24:28Z</time>
      </trkpt>
      <trkpt lat="45.95219" lon="4.87666">
        <ele>276</ele>
        <time>2018-03-31T09:24:29Z</time>
      </trkpt>
      <trkpt lat="45.9522" lon="4.87677">
        <ele>278</ele>
        <time>2018-03-31T09:24:31Z</time>
      </trkpt>
      <trkpt lat="45.9522" lon="4.8768">
        <ele>279</ele>
        <time>2018-03-31T09:24:32Z</time>
      </trkpt>
      <trkpt lat="45.95222" lon="4.87691">
        <ele>279</ele>
        <time>2018-03-31T09:24:35Z</time>
      </trkpt>
      <trkpt lat="45.95224" lon="4.87702">
        <ele>279</ele>
        <time>2018-03-31T09:24:36Z</time>
      </trkpt>
      <trkpt lat="45.95226" lon="4.87713">
        <ele>279</ele>
        <time>2018-03-31T09:24:39Z</time>
      </trkpt>
      <trkpt lat="45.95226" lon="4.87717">
        <ele>279</ele>
        <time>2018-03-31T09:24:40Z</time>
      </trkpt>
      <trkpt lat="45.95227" lon="4.87721">
        <ele>279</ele>
        <time>2018-03-31T09:24:41Z</time>
      </trkpt>
      <trkpt lat="45.95229" lon="4.87732">
        <ele>280</ele>
        <time>2018-03-31T09:24:42Z</time>
      </trkpt>
      <trkpt lat="45.95232" lon="4.87744">
        <ele>280</ele>
        <time>2018-03-31T09:24:46Z</time>
      </trkpt>
      <trkpt lat="45.95233" lon="4.87747">
        <ele>280</ele>
        <time>2018-03-31T09:24:47Z</time>
      </trkpt>
      <trkpt lat="45.95234" lon="4.87754">
        <ele>281</ele>
        <time>2018-03-31T09:24:49Z</time>
      </trkpt>
      <trkpt lat="45.95235" lon="4.87765">
        <ele>282</ele>
        <time>2018-03-31T09:24:50Z</time>
      </trkpt>
      <trkpt lat="45.95236" lon="4.87774">
        <ele>282</ele>
        <time>2018-03-31T09:24:52Z</time>
      </trkpt>
      <trkpt lat="45.95237" lon="4.87779">
        <ele>282</ele>
        <time>2018-03-31T09:24:53Z</time>
      </trkpt>
      <trkpt lat="45.95239" lon="4.8779">
        <ele>282</ele>
        <time>2018-03-31T09:24:56Z</time>
      </trkpt>
      <trkpt lat="45.9524" lon="4.87793">
        <ele>282</ele>
        <time>2018-03-31T09:24:57Z</time>
      </trkpt>
      <trkpt lat="45.95241" lon="4.878">
        <ele>282</ele>
        <time>2018-03-31T09:24:59Z</time>
      </trkpt>
      <trkpt lat="45.95243" lon="4.87811">
        <ele>282</ele>
        <time>2018-03-31T09:25:00Z</time>
      </trkpt>
      <trkpt lat="45.95244" lon="4.8782">
        <ele>282</ele>
        <time>2018-03-31T09:25:03Z</time>
      </trkpt>
      <trkpt lat="45.95245" lon="4.87824">
        <ele>282</ele>
        <time>2018-03-31T09:25:04Z</time>
      </trkpt>
      <trkpt lat="45.95246" lon="4.87828">
        <ele>282</ele>
        <time>2018-03-31T09:25:05Z</time>
      </trkpt>
      <trkpt lat="45.95247" lon="4.87839">
        <ele>282</ele>
        <time>2018-03-31T09:25:06Z</time>
      </trkpt>
      <trkpt lat="45.95249" lon="4.8785">
        <ele>283</ele>
        <time>2018-03-31T09:25:08Z</time>
      </trkpt>
      <trkpt lat="45.95251" lon="4.87855">
        <ele>281</ele>
        <time>2018-03-31T09:25:09Z</time>
      </trkpt>
      <trkpt lat="45.95253" lon="4.87866">
        <ele>281</ele>
        <time>2018-03-31T09:25:11Z</time>
      </trkpt>
      <trkpt lat="45.95255" lon="4.87872">
        <ele>281</ele>
        <time>2018-03-31T09:25:12Z</time>
      </trkpt>
      <trkpt lat="45.95258" lon="4.87879">
        <ele>281</ele>
        <time>2018-03-31T09:25:13Z</time>
      </trkpt>
      <trkpt lat="45.95259" lon="4.87886">
        <ele>281</ele>
        <time>2018-03-31T09:25:14Z</time>
      </trkpt>
      <trkpt lat="45.9526" lon="4.87894">
        <ele>281</ele>
        <time>2018-03-31T09:25:15Z</time>
      </trkpt>
      <trkpt lat="45.95261" lon="4.87899">
        <ele>281</ele>
        <time>2018-03-31T09:25:16Z</time>
      </trkpt>
      <trkpt lat="45.95262" lon="4.87912">
        <ele>282</ele>
        <time>2018-03-31T09:25:18Z</time>
      </trkpt>
      <trkpt lat="45.95261" lon="4.87918">
        <ele>281</ele>
        <time>2018-03-31T09:25:19Z</time>
      </trkpt>
      <trkpt lat="45.9526" lon="4.87928">
        <ele>281</ele>
        <time>2018-03-31T09:25:21Z</time>
      </trkpt>
      <trkpt lat="45.95261" lon="4.87933">
        <ele>281</ele>
        <time>2018-03-31T09:25:22Z</time>
      </trkpt>
      <trkpt lat="45.95259" lon="4.87945">
        <ele>280</ele>
        <time>2018-03-31T09:25:24Z</time>
      </trkpt>
      <trkpt lat="45.95257" lon="4.87951">
        <ele>280</ele>
        <time>2018-03-31T09:25:25Z</time>
      </trkpt>
      <trkpt lat="45.95252" lon="4.87961">
        <ele>280</ele>
        <time>2018-03-31T09:25:27Z</time>
      </trkpt>
      <trkpt lat="45.9525" lon="4.87965">
        <ele>282</ele>
        <time>2018-03-31T09:25:28Z</time>
      </trkpt>
      <trkpt lat="45.95247" lon="4.8797">
        <ele>282</ele>
        <time>2018-03-31T09:25:29Z</time>
      </trkpt>
      <trkpt lat="45.95243" lon="4.87975">
        <ele>282</ele>
        <time>2018-03-31T09:25:30Z</time>
      </trkpt>
      <trkpt lat="45.95237" lon="4.87982">
        <ele>281</ele>
        <time>2018-03-31T09:25:32Z</time>
      </trkpt>
      <trkpt lat="45.95233" lon="4.87987">
        <ele>281</ele>
        <time>2018-03-31T09:25:33Z</time>
      </trkpt>
      <trkpt lat="45.9523" lon="4.87991">
        <ele>281</ele>
        <time>2018-03-31T09:25:34Z</time>
      </trkpt>
      <trkpt lat="45.95226" lon="4.87996">
        <ele>282</ele>
        <time>2018-03-31T09:25:35Z</time>
      </trkpt>
      <trkpt lat="45.95223" lon="4.88001">
        <ele>281</ele>
        <time>2018-03-31T09:25:36Z</time>
      </trkpt>
      <trkpt lat="45.95219" lon="4.88005">
        <ele>281</ele>
        <time>2018-03-31T09:25:37Z</time>
      </trkpt>
      <trkpt lat="45.95214" lon="4.88015">
        <ele>281</ele>
        <time>2018-03-31T09:25:39Z</time>
      </trkpt>
      <trkpt lat="45.95211" lon="4.88019">
        <ele>281</ele>
        <time>2018-03-31T09:25:40Z</time>
      </trkpt>
      <trkpt lat="45.95206" lon="4.88027">
        <ele>281</ele>
        <time>2018-03-31T09:25:42Z</time>
      </trkpt>
      <trkpt lat="45.95203" lon="4.88031">
        <ele>281</ele>
        <time>2018-03-31T09:25:43Z</time>
      </trkpt>
      <trkpt lat="45.95197" lon="4.8804">
        <ele>281</ele>
        <time>2018-03-31T09:25:45Z</time>
      </trkpt>
      <trkpt lat="45.95195" lon="4.88045">
        <ele>281</ele>
        <time>2018-03-31T09:25:46Z</time>
      </trkpt>
      <trkpt lat="45.95192" lon="4.88056">
        <ele>281</ele>
        <time>2018-03-31T09:25:48Z</time>
      </trkpt>
      <trkpt lat="45.95191" lon="4.88062">
        <ele>281</ele>
        <time>2018-03-31T09:25:49Z</time>
      </trkpt>
      <trkpt lat="45.95189" lon="4.8807">
        <ele>281</ele>
        <time>2018-03-31T09:25:50Z</time>
      </trkpt>
      <trkpt lat="45.95189" lon="4.88079">
        <ele>281</ele>
        <time>2018-03-31T09:25:51Z</time>
      </trkpt>
      <trkpt lat="45.95186" lon="4.88091">
        <ele>282</ele>
        <time>2018-03-31T09:25:53Z</time>
      </trkpt>
      <trkpt lat="45.95184" lon="4.88097">
        <ele>282</ele>
        <time>2018-03-31T09:25:54Z</time>
      </trkpt>
      <trkpt lat="45.95183" lon="4.88103">
        <ele>282</ele>
        <time>2018-03-31T09:25:55Z</time>
      </trkpt>
      <trkpt lat="45.95182" lon="4.8811">
        <ele>282</ele>
        <time>2018-03-31T09:25:56Z</time>
      </trkpt>
      <trkpt lat="45.95181" lon="4.88122">
        <ele>282</ele>
        <time>2018-03-31T09:25:58Z</time>
      </trkpt>
      <trkpt lat="45.9518" lon="4.88128">
        <ele>282</ele>
        <time>2018-03-31T09:25:59Z</time>
      </trkpt>
      <trkpt lat="45.95178" lon="4.8814">
        <ele>283</ele>
        <time>2018-03-31T09:26:01Z</time>
      </trkpt>
      <trkpt lat="45.95176" lon="4.88144">
        <ele>283</ele>
        <time>2018-03-31T09:26:02Z</time>
      </trkpt>
      <trkpt lat="45.95174" lon="4.88154">
        <ele>284</ele>
        <time>2018-03-31T09:26:04Z</time>
      </trkpt>
      <trkpt lat="45.95173" lon="4.88157">
        <ele>284</ele>
        <time>2018-03-31T09:26:05Z</time>
      </trkpt>
      <trkpt lat="45.95174" lon="4.88166">
        <ele>284</ele>
        <time>2018-03-31T09:26:06Z</time>
      </trkpt>
      <trkpt lat="45.95175" lon="4.88172">
        <ele>285</ele>
        <time>2018-03-31T09:26:07Z</time>
      </trkpt>
      <trkpt lat="45.9518" lon="4.88175">
        <ele>285</ele>
        <time>2018-03-31T09:26:09Z</time>
      </trkpt>
      <trkpt lat="45.95184" lon="4.88176">
        <ele>285</ele>
        <time>2018-03-31T09:26:10Z</time>
      </trkpt>
      <trkpt lat="45.95192" lon="4.88175">
        <ele>285</ele>
        <time>2018-03-31T09:26:12Z</time>
      </trkpt>
      <trkpt lat="45.95197" lon="4.88174">
        <ele>285</ele>
        <time>2018-03-31T09:26:13Z</time>
      </trkpt>
      <trkpt lat="45.95201" lon="4.88173">
        <ele>285</ele>
        <time>2018-03-31T09:26:14Z</time>
      </trkpt>
      <trkpt lat="45.95206" lon="4.88171">
        <ele>285</ele>
        <time>2018-03-31T09:26:15Z</time>
      </trkpt>
      <trkpt lat="45.95211" lon="4.88172">
        <ele>284</ele>
        <time>2018-03-31T09:26:16Z</time>
      </trkpt>
      <trkpt lat="45.95216" lon="4.88171">
        <ele>284</ele>
        <time>2018-03-31T09:26:17Z</time>
      </trkpt>
      <trkpt lat="45.95222" lon="4.8817">
        <ele>284</ele>
        <time>2018-03-31T09:26:18Z</time>
      </trkpt>
      <trkpt lat="45.95227" lon="4.88169">
        <ele>284</ele>
        <time>2018-03-31T09:26:19Z</time>
      </trkpt>
      <trkpt lat="45.95233" lon="4.88169">
        <ele>283</ele>
        <time>2018-03-31T09:26:20Z</time>
      </trkpt>
      <trkpt lat="45.95239" lon="4.8817">
        <ele>283</ele>
        <time>2018-03-31T09:26:21Z</time>
      </trkpt>
      <trkpt lat="45.95245" lon="4.8817">
        <ele>282</ele>
        <time>2018-03-31T09:26:22Z</time>
      </trkpt>
      <trkpt lat="45.95252" lon="4.88169">
        <ele>281</ele>
        <time>2018-03-31T09:26:23Z</time>
      </trkpt>
      <trkpt lat="45.95258" lon="4.88169">
        <ele>281</ele>
        <time>2018-03-31T09:26:24Z</time>
      </trkpt>
      <trkpt lat="45.95264" lon="4.88169">
        <ele>281</ele>
        <time>2018-03-31T09:26:25Z</time>
      </trkpt>
      <trkpt lat="45.95271" lon="4.8817">
        <ele>281</ele>
        <time>2018-03-31T09:26:26Z</time>
      </trkpt>
      <trkpt lat="45.95277" lon="4.88171">
        <ele>281</ele>
        <time>2018-03-31T09:26:27Z</time>
      </trkpt>
      <trkpt lat="45.95285" lon="4.88171">
        <ele>281</ele>
        <time>2018-03-31T09:26:28Z</time>
      </trkpt>
      <trkpt lat="45.95292" lon="4.88172">
        <ele>281</ele>
        <time>2018-03-31T09:26:29Z</time>
      </trkpt>
      <trkpt lat="45.953" lon="4.88174">
        <ele>281</ele>
        <time>2018-03-31T09:26:30Z</time>
      </trkpt>
      <trkpt lat="45.95307" lon="4.88175">
        <ele>280</ele>
        <time>2018-03-31T09:26:31Z</time>
      </trkpt>
      <trkpt lat="45.95315" lon="4.88175">
        <ele>280</ele>
        <time>2018-03-31T09:26:32Z</time>
      </trkpt>
      <trkpt lat="45.95323" lon="4.88175">
        <ele>280</ele>
        <time>2018-03-31T09:26:33Z</time>
      </trkpt>
      <trkpt lat="45.95331" lon="4.88175">
        <ele>279</ele>
        <time>2018-03-31T09:26:34Z</time>
      </trkpt>
      <trkpt lat="45.95339" lon="4.88174">
        <ele>278</ele>
        <time>2018-03-31T09:26:35Z</time>
      </trkpt>
      <trkpt lat="45.95347" lon="4.88173">
        <ele>278</ele>
        <time>2018-03-31T09:26:36Z</time>
      </trkpt>
      <trkpt lat="45.95355" lon="4.88172">
        <ele>278</ele>
        <time>2018-03-31T09:26:37Z</time>
      </trkpt>
      <trkpt lat="45.95363" lon="4.88171">
        <ele>278</ele>
        <time>2018-03-31T09:26:38Z</time>
      </trkpt>
      <trkpt lat="45.95371" lon="4.88168">
        <ele>278</ele>
        <time>2018-03-31T09:26:39Z</time>
      </trkpt>
      <trkpt lat="45.95378" lon="4.88167">
        <ele>276</ele>
        <time>2018-03-31T09:26:40Z</time>
      </trkpt>
      <trkpt lat="45.95385" lon="4.88164">
        <ele>276</ele>
        <time>2018-03-31T09:26:41Z</time>
      </trkpt>
      <trkpt lat="45.95392" lon="4.88162">
        <ele>276</ele>
        <time>2018-03-31T09:26:42Z</time>
      </trkpt>
      <trkpt lat="45.95399" lon="4.88161">
        <ele>276</ele>
        <time>2018-03-31T09:26:43Z</time>
      </trkpt>
      <trkpt lat="45.95405" lon="4.88158">
        <ele>276</ele>
        <time>2018-03-31T09:26:44Z</time>
      </trkpt>
      <trkpt lat="45.9541" lon="4.88155">
        <ele>276</ele>
        <time>2018-03-31T09:26:45Z</time>
      </trkpt>
      <trkpt lat="45.95415" lon="4.88152">
        <ele>276</ele>
        <time>2018-03-31T09:26:46Z</time>
      </trkpt>
      <trkpt lat="45.9542" lon="4.8815">
        <ele>276</ele>
        <time>2018-03-31T09:26:47Z</time>
      </trkpt>
      <trkpt lat="45.95426" lon="4.88147">
        <ele>276</ele>
        <time>2018-03-31T09:26:48Z</time>
      </trkpt>
      <trkpt lat="45.95431" lon="4.88145">
        <ele>276</ele>
        <time>2018-03-31T09:26:49Z</time>
      </trkpt>
      <trkpt lat="45.95438" lon="4.88143">
        <ele>276</ele>
        <time>2018-03-31T09:26:50Z</time>
      </trkpt>
      <trkpt lat="45.95442" lon="4.88141">
        <ele>276</ele>
        <time>2018-03-31T09:26:51Z</time>
      </trkpt>
      <trkpt lat="45.95447" lon="4.88139">
        <ele>276</ele>
        <time>2018-03-31T09:26:52Z</time>
      </trkpt>
      <trkpt lat="45.95454" lon="4.88137">
        <ele>276</ele>
        <time>2018-03-31T09:26:53Z</time>
      </trkpt>
      <trkpt lat="45.95459" lon="4.88133">
        <ele>276</ele>
        <time>2018-03-31T09:26:54Z</time>
      </trkpt>
      <trkpt lat="45.95464" lon="4.8813">
        <ele>276</ele>
        <time>2018-03-31T09:26:55Z</time>
      </trkpt>
      <trkpt lat="45.9547" lon="4.88128">
        <ele>276</ele>
        <time>2018-03-31T09:26:56Z</time>
      </trkpt>
      <trkpt lat="45.95476" lon="4.88124">
        <ele>276</ele>
        <time>2018-03-31T09:26:57Z</time>
      </trkpt>
      <trkpt lat="45.95482" lon="4.88122">
        <ele>276</ele>
        <time>2018-03-31T09:26:58Z</time>
      </trkpt>
      <trkpt lat="45.95489" lon="4.88119">
        <ele>276</ele>
        <time>2018-03-31T09:26:59Z</time>
      </trkpt>
      <trkpt lat="45.95494" lon="4.88117">
        <ele>276</ele>
        <time>2018-03-31T09:27:00Z</time>
      </trkpt>
      <trkpt lat="45.955" lon="4.88114">
        <ele>276</ele>
        <time>2018-03-31T09:27:01Z</time>
      </trkpt>
      <trkpt lat="45.95506" lon="4.88111">
        <ele>276</ele>
        <time>2018-03-31T09:27:02Z</time>
      </trkpt>
      <trkpt lat="45.95511" lon="4.88109">
        <ele>276</ele>
        <time>2018-03-31T09:27:03Z</time>
      </trkpt>
      <trkpt lat="45.95516" lon="4.88106">
        <ele>276</ele>
        <time>2018-03-31T09:27:04Z</time>
      </trkpt>
      <trkpt lat="45.95522" lon="4.88104">
        <ele>277</ele>
        <time>2018-03-31T09:27:05Z</time>
      </trkpt>
      <trkpt lat="45.95527" lon="4.88101">
        <ele>277</ele>
        <time>2018-03-31T09:27:06Z</time>
      </trkpt>
      <trkpt lat="45.95532" lon="4.88098">
        <ele>277</ele>
        <time>2018-03-31T09:27:07Z</time>
      </trkpt>
      <trkpt lat="45.95537" lon="4.88097">
        <ele>277</ele>
        <time>2018-03-31T09:27:08Z</time>
      </trkpt>
      <trkpt lat="45.95543" lon="4.88095">
        <ele>277</ele>
        <time>2018-03-31T09:27:09Z</time>
      </trkpt>
      <trkpt lat="45.95548" lon="4.88093">
        <ele>277</ele>
        <time>2018-03-31T09:27:10Z</time>
      </trkpt>
      <trkpt lat="45.95552" lon="4.88091">
        <ele>277</ele>
        <time>2018-03-31T09:27:11Z</time>
      </trkpt>
      <trkpt lat="45.95557" lon="4.88089">
        <ele>277</ele>
        <time>2018-03-31T09:27:12Z</time>
      </trkpt>
      <trkpt lat="45.95562" lon="4.88086">
        <ele>277</ele>
        <time>2018-03-31T09:27:13Z</time>
      </trkpt>
      <trkpt lat="45.95567" lon="4.88082">
        <ele>276</ele>
        <time>2018-03-31T09:27:14Z</time>
      </trkpt>
      <trkpt lat="45.95571" lon="4.88079">
        <ele>277</ele>
        <time>2018-03-31T09:27:15Z</time>
      </trkpt>
      <trkpt lat="45.95575" lon="4.88076">
        <ele>277</ele>
        <time>2018-03-31T09:27:16Z</time>
      </trkpt>
      <trkpt lat="45.95581" lon="4.88073">
        <ele>277</ele>
        <time>2018-03-31T09:27:17Z</time>
      </trkpt>
      <trkpt lat="45.95587" lon="4.8807">
        <ele>278</ele>
        <time>2018-03-31T09:27:18Z</time>
      </trkpt>
      <trkpt lat="45.95591" lon="4.88067">
        <ele>278</ele>
        <time>2018-03-31T09:27:19Z</time>
      </trkpt>
      <trkpt lat="45.95595" lon="4.88063">
        <ele>278</ele>
        <time>2018-03-31T09:27:20Z</time>
      </trkpt>
      <trkpt lat="45.95599" lon="4.8806">
        <ele>278</ele>
        <time>2018-03-31T09:27:21Z</time>
      </trkpt>
      <trkpt lat="45.95603" lon="4.88056">
        <ele>278</ele>
        <time>2018-03-31T09:27:22Z</time>
      </trkpt>
      <trkpt lat="45.95607" lon="4.88051">
        <ele>278</ele>
        <time>2018-03-31T09:27:23Z</time>
      </trkpt>
      <trkpt lat="45.9561" lon="4.88047">
        <ele>278</ele>
        <time>2018-03-31T09:27:24Z</time>
      </trkpt>
      <trkpt lat="45.95615" lon="4.88043">
        <ele>278</ele>
        <time>2018-03-31T09:27:25Z</time>
      </trkpt>
      <trkpt lat="45.95619" lon="4.88039">
        <ele>278</ele>
        <time>2018-03-31T09:27:26Z</time>
      </trkpt>
      <trkpt lat="45.95624" lon="4.88035">
        <ele>278</ele>
        <time>2018-03-31T09:27:27Z</time>
      </trkpt>
      <trkpt lat="45.95628" lon="4.88031">
        <ele>279</ele>
        <time>2018-03-31T09:27:28Z</time>
      </trkpt>
      <trkpt lat="45.95633" lon="4.88027">
        <ele>279</ele>
        <time>2018-03-31T09:27:29Z</time>
      </trkpt>
      <trkpt lat="45.95637" lon="4.88023">
        <ele>279</ele>
        <time>2018-03-31T09:27:30Z</time>
      </trkpt>
      <trkpt lat="45.95642" lon="4.8802">
        <ele>279</ele>
        <time>2018-03-31T09:27:31Z</time>
      </trkpt>
      <trkpt lat="45.95646" lon="4.88015">
        <ele>279</ele>
        <time>2018-03-31T09:27:32Z</time>
      </trkpt>
      <trkpt lat="45.95649" lon="4.88011">
        <ele>280</ele>
        <time>2018-03-31T09:27:33Z</time>
      </trkpt>
      <trkpt lat="45.95653" lon="4.88007">
        <ele>280</ele>
        <time>2018-03-31T09:27:34Z</time>
      </trkpt>
      <trkpt lat="45.95657" lon="4.88003">
        <ele>280</ele>
        <time>2018-03-31T09:27:35Z</time>
      </trkpt>
      <trkpt lat="45.95665" lon="4.87996">
        <ele>280</ele>
        <time>2018-03-31T09:27:37Z</time>
      </trkpt>
      <trkpt lat="45.95668" lon="4.87993">
        <ele>281</ele>
        <time>2018-03-31T09:27:38Z</time>
      </trkpt>
      <trkpt lat="45.95675" lon="4.87986">
        <ele>282</ele>
        <time>2018-03-31T09:27:40Z</time>
      </trkpt>
      <trkpt lat="45.95678" lon="4.87982">
        <ele>282</ele>
        <time>2018-03-31T09:27:41Z</time>
      </trkpt>
      <trkpt lat="45.95684" lon="4.87975">
        <ele>282</ele>
        <time>2018-03-31T09:27:43Z</time>
      </trkpt>
      <trkpt lat="45.95688" lon="4.87972">
        <ele>282</ele>
        <time>2018-03-31T09:27:44Z</time>
      </trkpt>
      <trkpt lat="45.95696" lon="4.87966">
        <ele>282</ele>
        <time>2018-03-31T09:27:47Z</time>
      </trkpt>
      <trkpt lat="45.957" lon="4.87962">
        <ele>283</ele>
        <time>2018-03-31T09:27:48Z</time>
      </trkpt>
      <trkpt lat="45.95704" lon="4.87959">
        <ele>283</ele>
        <time>2018-03-31T09:27:50Z</time>
      </trkpt>
      <trkpt lat="45.95709" lon="4.87955">
        <ele>283</ele>
        <time>2018-03-31T09:27:51Z</time>
      </trkpt>
      <trkpt lat="45.95713" lon="4.87952">
        <ele>283</ele>
        <time>2018-03-31T09:27:53Z</time>
      </trkpt>
      <trkpt lat="45.95718" lon="4.87949">
        <ele>283</ele>
        <time>2018-03-31T09:27:54Z</time>
      </trkpt>
      <trkpt lat="45.95726" lon="4.87943">
        <ele>283</ele>
        <time>2018-03-31T09:27:57Z</time>
      </trkpt>
      <trkpt lat="45.95728" lon="4.87942">
        <ele>283</ele>
        <time>2018-03-31T09:27:58Z</time>
      </trkpt>
      <trkpt lat="45.9573" lon="4.8794">
        <ele>283</ele>
        <time>2018-03-31T09:27:59Z</time>
      </trkpt>
      <trkpt lat="45.95736" lon="4.87934">
        <ele>284</ele>
        <time>2018-03-31T09:28:00Z</time>
      </trkpt>
      <trkpt lat="45.95742" lon="4.87928">
        <ele>284</ele>
        <time>2018-03-31T09:28:03Z</time>
      </trkpt>
      <trkpt lat="45.95744" lon="4.87926">
        <ele>284</ele>
        <time>2018-03-31T09:28:04Z</time>
      </trkpt>
      <trkpt lat="45.95749" lon="4.87922">
        <ele>285</ele>
        <time>2018-03-31T09:28:06Z</time>
      </trkpt>
      <trkpt lat="45.95752" lon="4.87919">
        <ele>285</ele>
        <time>2018-03-31T09:28:07Z</time>
      </trkpt>
      <trkpt lat="45.95758" lon="4.87915">
        <ele>285</ele>
        <time>2018-03-31T09:28:09Z</time>
      </trkpt>
      <trkpt lat="45.95761" lon="4.87913">
        <ele>285</ele>
        <time>2018-03-31T09:28:10Z</time>
      </trkpt>
      <trkpt lat="45.95767" lon="4.87909">
        <ele>286</ele>
        <time>2018-03-31T09:28:12Z</time>
      </trkpt>
      <trkpt lat="45.95769" lon="4.87908">
        <ele>286</ele>
        <time>2018-03-31T09:28:13Z</time>
      </trkpt>
      <trkpt lat="45.95777" lon="4.87904">
        <ele>286</ele>
        <time>2018-03-31T09:28:16Z</time>
      </trkpt>
      <trkpt lat="45.9578" lon="4.87903">
        <ele>286</ele>
        <time>2018-03-31T09:28:17Z</time>
      </trkpt>
      <trkpt lat="45.95788" lon="4.87899">
        <ele>286</ele>
        <time>2018-03-31T09:28:20Z</time>
      </trkpt>
      <trkpt lat="45.95791" lon="4.87897">
        <ele>286</ele>
        <time>2018-03-31T09:28:21Z</time>
      </trkpt>
      <trkpt lat="45.95799" lon="4.87893">
        <ele>287</ele>
        <time>2018-03-31T09:28:24Z</time>
      </trkpt>
      <trkpt lat="45.95802" lon="4.87891">
        <ele>287</ele>
        <time>2018-03-31T09:28:25Z</time>
      </trkpt>
      <trkpt lat="45.95807" lon="4.87888">
        <ele>287</ele>
        <time>2018-03-31T09:28:27Z</time>
      </trkpt>
      <trkpt lat="45.9581" lon="4.87887">
        <ele>287</ele>
        <time>2018-03-31T09:28:28Z</time>
      </trkpt>
      <trkpt lat="45.95819" lon="4.87885">
        <ele>287</ele>
        <time>2018-03-31T09:28:31Z</time>
      </trkpt>
      <trkpt lat="45.95822" lon="4.87884">
        <ele>287</ele>
        <time>2018-03-31T09:28:32Z</time>
      </trkpt>
      <trkpt lat="45.95827" lon="4.87882">
        <ele>287</ele>
        <time>2018-03-31T09:28:34Z</time>
      </trkpt>
      <trkpt lat="45.95831" lon="4.87881">
        <ele>287</ele>
        <time>2018-03-31T09:28:35Z</time>
      </trkpt>
      <trkpt lat="45.95837" lon="4.87877">
        <ele>289</ele>
        <time>2018-03-31T09:28:37Z</time>
      </trkpt>
      <trkpt lat="45.95846" lon="4.87868">
        <ele>289</ele>
        <time>2018-03-31T09:28:38Z</time>
      </trkpt>
      <trkpt lat="45.95852" lon="4.87859">
        <ele>289</ele>
        <time>2018-03-31T09:28:40Z</time>
      </trkpt>
      <trkpt lat="45.95856" lon="4.87854">
        <ele>289</ele>
        <time>2018-03-31T09:28:41Z</time>
      </trkpt>
      <trkpt lat="45.9586" lon="4.8785">
        <ele>289</ele>
        <time>2018-03-31T09:28:42Z</time>
      </trkpt>
      <trkpt lat="45.95864" lon="4.87846">
        <ele>289</ele>
        <time>2018-03-31T09:28:43Z</time>
      </trkpt>
      <trkpt lat="45.95867" lon="4.87842">
        <ele>289</ele>
        <time>2018-03-31T09:28:44Z</time>
      </trkpt>
      <trkpt lat="45.95871" lon="4.87838">
        <ele>289</ele>
        <time>2018-03-31T09:28:45Z</time>
      </trkpt>
      <trkpt lat="45.95876" lon="4.87834">
        <ele>289</ele>
        <time>2018-03-31T09:28:46Z</time>
      </trkpt>
      <trkpt lat="45.9588" lon="4.8783">
        <ele>288</ele>
        <time>2018-03-31T09:28:47Z</time>
      </trkpt>
      <trkpt lat="45.95884" lon="4.87826">
        <ele>288</ele>
        <time>2018-03-31T09:28:48Z</time>
      </trkpt>
      <trkpt lat="45.95887" lon="4.87821">
        <ele>288</ele>
        <time>2018-03-31T09:28:49Z</time>
      </trkpt>
      <trkpt lat="45.95894" lon="4.87812">
        <ele>288</ele>
        <time>2018-03-31T09:28:51Z</time>
      </trkpt>
      <trkpt lat="45.95897" lon="4.87807">
        <ele>288</ele>
        <time>2018-03-31T09:28:52Z</time>
      </trkpt>
      <trkpt lat="45.95903" lon="4.87797">
        <ele>288</ele>
        <time>2018-03-31T09:28:54Z</time>
      </trkpt>
      <trkpt lat="45.95907" lon="4.87792">
        <ele>288</ele>
        <time>2018-03-31T09:28:55Z</time>
      </trkpt>
      <trkpt lat="45.95909" lon="4.87787">
        <ele>288</ele>
        <time>2018-03-31T09:28:56Z</time>
      </trkpt>
      <trkpt lat="45.95912" lon="4.87782">
        <ele>288</ele>
        <time>2018-03-31T09:28:57Z</time>
      </trkpt>
      <trkpt lat="45.95918" lon="4.87773">
        <ele>289</ele>
        <time>2018-03-31T09:28:59Z</time>
      </trkpt>
      <trkpt lat="45.9592" lon="4.87768">
        <ele>289</ele>
        <time>2018-03-31T09:29:00Z</time>
      </trkpt>
      <trkpt lat="45.95926" lon="4.8776">
        <ele>288</ele>
        <time>2018-03-31T09:29:02Z</time>
      </trkpt>
      <trkpt lat="45.95929" lon="4.87755">
        <ele>288</ele>
        <time>2018-03-31T09:29:03Z</time>
      </trkpt>
      <trkpt lat="45.95932" lon="4.8775">
        <ele>288</ele>
        <time>2018-03-31T09:29:04Z</time>
      </trkpt>
      <trkpt lat="45.95936" lon="4.87744">
        <ele>288</ele>
        <time>2018-03-31T09:29:05Z</time>
      </trkpt>
      <trkpt lat="45.95942" lon="4.87736">
        <ele>289</ele>
        <time>2018-03-31T09:29:07Z</time>
      </trkpt>
      <trkpt lat="45.95945" lon="4.87731">
        <ele>289</ele>
        <time>2018-03-31T09:29:08Z</time>
      </trkpt>
      <trkpt lat="45.95951" lon="4.87723">
        <ele>289</ele>
        <time>2018-03-31T09:29:10Z</time>
      </trkpt>
      <trkpt lat="45.95954" lon="4.87719">
        <ele>289</ele>
        <time>2018-03-31T09:29:11Z</time>
      </trkpt>
      <trkpt lat="45.9596" lon="4.8771">
        <ele>289</ele>
        <time>2018-03-31T09:29:13Z</time>
      </trkpt>
      <trkpt lat="45.95963" lon="4.87706">
        <ele>289</ele>
        <time>2018-03-31T09:29:14Z</time>
      </trkpt>
      <trkpt lat="45.95967" lon="4.87701">
        <ele>289</ele>
        <time>2018-03-31T09:29:15Z</time>
      </trkpt>
      <trkpt lat="45.95971" lon="4.87697">
        <ele>289</ele>
        <time>2018-03-31T09:29:16Z</time>
      </trkpt>
      <trkpt lat="45.95975" lon="4.87693">
        <ele>289</ele>
        <time>2018-03-31T09:29:17Z</time>
      </trkpt>
      <trkpt lat="45.95979" lon="4.87689">
        <ele>289</ele>
        <time>2018-03-31T09:29:18Z</time>
      </trkpt>
      <trkpt lat="45.95982" lon="4.87685">
        <ele>289</ele>
        <time>2018-03-31T09:29:19Z</time>
      </trkpt>
      <trkpt lat="45.95986" lon="4.8768">
        <ele>289</ele>
        <time>2018-03-31T09:29:20Z</time>
      </trkpt>
      <trkpt lat="45.9599" lon="4.87676">
        <ele>289</ele>
        <time>2018-03-31T09:29:21Z</time>
      </trkpt>
      <trkpt lat="45.95995" lon="4.87671">
        <ele>290</ele>
        <time>2018-03-31T09:29:22Z</time>
      </trkpt>
      <trkpt lat="45.95998" lon="4.87667">
        <ele>290</ele>
        <time>2018-03-31T09:29:23Z</time>
      </trkpt>
      <trkpt lat="45.96002" lon="4.87662">
        <ele>290</ele>
        <time>2018-03-31T09:29:24Z</time>
      </trkpt>
      <trkpt lat="45.96006" lon="4.87657">
        <ele>290</ele>
        <time>2018-03-31T09:29:25Z</time>
      </trkpt>
      <trkpt lat="45.9601" lon="4.87652">
        <ele>289</ele>
        <time>2018-03-31T09:29:26Z</time>
      </trkpt>
      <trkpt lat="45.96014" lon="4.87648">
        <ele>289</ele>
        <time>2018-03-31T09:29:27Z</time>
      </trkpt>
      <trkpt lat="45.96018" lon="4.87644">
        <ele>289</ele>
        <time>2018-03-31T09:29:28Z</time>
      </trkpt>
      <trkpt lat="45.96021" lon="4.87639">
        <ele>289</ele>
        <time>2018-03-31T09:29:29Z</time>
      </trkpt>
      <trkpt lat="45.96025" lon="4.87635">
        <ele>289</ele>
        <time>2018-03-31T09:29:30Z</time>
      </trkpt>
      <trkpt lat="45.96032" lon="4.87627">
        <ele>289</ele>
        <time>2018-03-31T09:29:32Z</time>
      </trkpt>
      <trkpt lat="45.96033" lon="4.87626">
        <ele>289</ele>
        <time>2018-03-31T09:29:33Z</time>
      </trkpt>
      <trkpt lat="45.96039" lon="4.87621">
        <ele>289</ele>
        <time>2018-03-31T09:29:34Z</time>
      </trkpt>
      <trkpt lat="45.96042" lon="4.87617">
        <ele>289</ele>
        <time>2018-03-31T09:29:35Z</time>
      </trkpt>
      <trkpt lat="45.96047" lon="4.87612">
        <ele>289</ele>
        <time>2018-03-31T09:29:36Z</time>
      </trkpt>
      <trkpt lat="45.96051" lon="4.87607">
        <ele>289</ele>
        <time>2018-03-31T09:29:37Z</time>
      </trkpt>
      <trkpt lat="45.96055" lon="4.87603">
        <ele>289</ele>
        <time>2018-03-31T09:29:38Z</time>
      </trkpt>
      <trkpt lat="45.96059" lon="4.87597">
        <ele>288</ele>
        <time>2018-03-31T09:29:39Z</time>
      </trkpt>
      <trkpt lat="45.96064" lon="4.87592">
        <ele>288</ele>
        <time>2018-03-31T09:29:40Z</time>
      </trkpt>
      <trkpt lat="45.96068" lon="4.87587">
        <ele>288</ele>
        <time>2018-03-31T09:29:41Z</time>
      </trkpt>
      <trkpt lat="45.96072" lon="4.87581">
        <ele>288</ele>
        <time>2018-03-31T09:29:42Z</time>
      </trkpt>
      <trkpt lat="45.96077" lon="4.87576">
        <ele>288</ele>
        <time>2018-03-31T09:29:43Z</time>
      </trkpt>
      <trkpt lat="45.9608" lon="4.87571">
        <ele>288</ele>
        <time>2018-03-31T09:29:44Z</time>
      </trkpt>
      <trkpt lat="45.96085" lon="4.87566">
        <ele>287</ele>
        <time>2018-03-31T09:29:45Z</time>
      </trkpt>
      <trkpt lat="45.96089" lon="4.87561">
        <ele>287</ele>
        <time>2018-03-31T09:29:46Z</time>
      </trkpt>
      <trkpt lat="45.96093" lon="4.87556">
        <ele>287</ele>
        <time>2018-03-31T09:29:47Z</time>
      </trkpt>
      <trkpt lat="45.96099" lon="4.8755">
        <ele>287</ele>
        <time>2018-03-31T09:29:48Z</time>
      </trkpt>
      <trkpt lat="45.96103" lon="4.87544">
        <ele>287</ele>
        <time>2018-03-31T09:29:49Z</time>
      </trkpt>
      <trkpt lat="45.96107" lon="4.87539">
        <ele>287</ele>
        <time>2018-03-31T09:29:50Z</time>
      </trkpt>
      <trkpt lat="45.96112" lon="4.87532">
        <ele>287</ele>
        <time>2018-03-31T09:29:51Z</time>
      </trkpt>
      <trkpt lat="45.96117" lon="4.87526">
        <ele>287</ele>
        <time>2018-03-31T09:29:52Z</time>
      </trkpt>
      <trkpt lat="45.96124" lon="4.8752">
        <ele>286</ele>
        <time>2018-03-31T09:29:53Z</time>
      </trkpt>
      <trkpt lat="45.9613" lon="4.87514">
        <ele>286</ele>
        <time>2018-03-31T09:29:54Z</time>
      </trkpt>
      <trkpt lat="45.96136" lon="4.87508">
        <ele>286</ele>
        <time>2018-03-31T09:29:55Z</time>
      </trkpt>
      <trkpt lat="45.96141" lon="4.87503">
        <ele>286</ele>
        <time>2018-03-31T09:29:56Z</time>
      </trkpt>
      <trkpt lat="45.96146" lon="4.87497">
        <ele>285</ele>
        <time>2018-03-31T09:29:57Z</time>
      </trkpt>
      <trkpt lat="45.96152" lon="4.87491">
        <ele>285</ele>
        <time>2018-03-31T09:29:58Z</time>
      </trkpt>
      <trkpt lat="45.96157" lon="4.87485">
        <ele>285</ele>
        <time>2018-03-31T09:29:59Z</time>
      </trkpt>
      <trkpt lat="45.96163" lon="4.87479">
        <ele>285</ele>
        <time>2018-03-31T09:30:00Z</time>
      </trkpt>
      <trkpt lat="45.96168" lon="4.87473">
        <ele>284</ele>
        <time>2018-03-31T09:30:01Z</time>
      </trkpt>
      <trkpt lat="45.96173" lon="4.87466">
        <ele>284</ele>
        <time>2018-03-31T09:30:02Z</time>
      </trkpt>
      <trkpt lat="45.96179" lon="4.8746">
        <ele>284</ele>
        <time>2018-03-31T09:30:03Z</time>
      </trkpt>
      <trkpt lat="45.96184" lon="4.87454">
        <ele>284</ele>
        <time>2018-03-31T09:30:04Z</time>
      </trkpt>
      <trkpt lat="45.9619" lon="4.87447">
        <ele>284</ele>
        <time>2018-03-31T09:30:05Z</time>
      </trkpt>
      <trkpt lat="45.96195" lon="4.8744">
        <ele>284</ele>
        <time>2018-03-31T09:30:06Z</time>
      </trkpt>
      <trkpt lat="45.96201" lon="4.87434">
        <ele>284</ele>
        <time>2018-03-31T09:30:07Z</time>
      </trkpt>
      <trkpt lat="45.96206" lon="4.87428">
        <ele>284</ele>
        <time>2018-03-31T09:30:08Z</time>
      </trkpt>
      <trkpt lat="45.96211" lon="4.87423">
        <ele>284</ele>
        <time>2018-03-31T09:30:09Z</time>
      </trkpt>
      <trkpt lat="45.96216" lon="4.87417">
        <ele>283</ele>
        <time>2018-03-31T09:30:10Z</time>
      </trkpt>
      <trkpt lat="45.96222" lon="4.87411">
        <ele>283</ele>
        <time>2018-03-31T09:30:11Z</time>
      </trkpt>
      <trkpt lat="45.96226" lon="4.87405">
        <ele>283</ele>
        <time>2018-03-31T09:30:12Z</time>
      </trkpt>
      <trkpt lat="45.96231" lon="4.874">
        <ele>283</ele>
        <time>2018-03-31T09:30:13Z</time>
      </trkpt>
      <trkpt lat="45.96236" lon="4.87394">
        <ele>283</ele>
        <time>2018-03-31T09:30:14Z</time>
      </trkpt>
      <trkpt lat="45.9624" lon="4.87388">
        <ele>283</ele>
        <time>2018-03-31T09:30:15Z</time>
      </trkpt>
      <trkpt lat="45.96246" lon="4.87382">
        <ele>283</ele>
        <time>2018-03-31T09:30:16Z</time>
      </trkpt>
      <trkpt lat="45.9625" lon="4.87376">
        <ele>283</ele>
        <time>2018-03-31T09:30:17Z</time>
      </trkpt>
      <trkpt lat="45.96254" lon="4.87371">
        <ele>283</ele>
        <time>2018-03-31T09:30:18Z</time>
      </trkpt>
      <trkpt lat="45.96259" lon="4.87365">
        <ele>283</ele>
        <time>2018-03-31T09:30:19Z</time>
      </trkpt>
      <trkpt lat="45.96263" lon="4.8736">
        <ele>283</ele>
        <time>2018-03-31T09:30:20Z</time>
      </trkpt>
      <trkpt lat="45.96268" lon="4.87354">
        <ele>283</ele>
        <time>2018-03-31T09:30:21Z</time>
      </trkpt>
      <trkpt lat="45.96273" lon="4.87349">
        <ele>283</ele>
        <time>2018-03-31T09:30:22Z</time>
      </trkpt>
      <trkpt lat="45.96277" lon="4.87344">
        <ele>284</ele>
        <time>2018-03-31T09:30:23Z</time>
      </trkpt>
      <trkpt lat="45.96282" lon="4.87337">
        <ele>284</ele>
        <time>2018-03-31T09:30:24Z</time>
      </trkpt>
      <trkpt lat="45.96286" lon="4.87331">
        <ele>283</ele>
        <time>2018-03-31T09:30:25Z</time>
      </trkpt>
      <trkpt lat="45.9629" lon="4.87326">
        <ele>283</ele>
        <time>2018-03-31T09:30:26Z</time>
      </trkpt>
      <trkpt lat="45.96294" lon="4.87321">
        <ele>283</ele>
        <time>2018-03-31T09:30:27Z</time>
      </trkpt>
      <trkpt lat="45.96298" lon="4.87315">
        <ele>283</ele>
        <time>2018-03-31T09:30:28Z</time>
      </trkpt>
      <trkpt lat="45.96302" lon="4.87309">
        <ele>283</ele>
        <time>2018-03-31T09:30:29Z</time>
      </trkpt>
      <trkpt lat="45.96306" lon="4.87303">
        <ele>283</ele>
        <time>2018-03-31T09:30:30Z</time>
      </trkpt>
      <trkpt lat="45.9631" lon="4.87298">
        <ele>283</ele>
        <time>2018-03-31T09:30:31Z</time>
      </trkpt>
      <trkpt lat="45.96315" lon="4.87292">
        <ele>283</ele>
        <time>2018-03-31T09:30:32Z</time>
      </trkpt>
      <trkpt lat="45.96319" lon="4.87286">
        <ele>283</ele>
        <time>2018-03-31T09:30:33Z</time>
      </trkpt>
      <trkpt lat="45.96323" lon="4.8728">
        <ele>283</ele>
        <time>2018-03-31T09:30:34Z</time>
      </trkpt>
      <trkpt lat="45.96328" lon="4.87274">
        <ele>283</ele>
        <time>2018-03-31T09:30:35Z</time>
      </trkpt>
      <trkpt lat="45.96333" lon="4.87267">
        <ele>283</ele>
        <time>2018-03-31T09:30:36Z</time>
      </trkpt>
      <trkpt lat="45.96338" lon="4.8726">
        <ele>283</ele>
        <time>2018-03-31T09:30:37Z</time>
      </trkpt>
      <trkpt lat="45.96343" lon="4.87254">
        <ele>283</ele>
        <time>2018-03-31T09:30:38Z</time>
      </trkpt>
      <trkpt lat="45.96348" lon="4.87248">
        <ele>283</ele>
        <time>2018-03-31T09:30:39Z</time>
      </trkpt>
      <trkpt lat="45.96353" lon="4.87242">
        <ele>282</ele>
        <time>2018-03-31T09:30:40Z</time>
      </trkpt>
      <trkpt lat="45.96358" lon="4.87236">
        <ele>282</ele>
        <time>2018-03-31T09:30:41Z</time>
      </trkpt>
      <trkpt lat="45.96363" lon="4.8723">
        <ele>282</ele>
        <time>2018-03-31T09:30:42Z</time>
      </trkpt>
      <trkpt lat="45.96369" lon="4.87222">
        <ele>282</ele>
        <time>2018-03-31T09:30:43Z</time>
      </trkpt>
      <trkpt lat="45.96374" lon="4.87216">
        <ele>282</ele>
        <time>2018-03-31T09:30:44Z</time>
      </trkpt>
      <trkpt lat="45.96379" lon="4.87208">
        <ele>282</ele>
        <time>2018-03-31T09:30:45Z</time>
      </trkpt>
      <trkpt lat="45.96384" lon="4.87202">
        <ele>282</ele>
        <time>2018-03-31T09:30:46Z</time>
      </trkpt>
      <trkpt lat="45.96389" lon="4.87195">
        <ele>282</ele>
        <time>2018-03-31T09:30:47Z</time>
      </trkpt>
      <trkpt lat="45.96395" lon="4.87188">
        <ele>282</ele>
        <time>2018-03-31T09:30:48Z</time>
      </trkpt>
      <trkpt lat="45.96401" lon="4.87181">
        <ele>282</ele>
        <time>2018-03-31T09:30:49Z</time>
      </trkpt>
      <trkpt lat="45.96405" lon="4.87175">
        <ele>281</ele>
        <time>2018-03-31T09:30:50Z</time>
      </trkpt>
      <trkpt lat="45.96409" lon="4.87169">
        <ele>281</ele>
        <time>2018-03-31T09:30:51Z</time>
      </trkpt>
      <trkpt lat="45.96413" lon="4.87163">
        <ele>281</ele>
        <time>2018-03-31T09:30:52Z</time>
      </trkpt>
      <trkpt lat="45.96417" lon="4.87158">
        <ele>281</ele>
        <time>2018-03-31T09:30:53Z</time>
      </trkpt>
      <trkpt lat="45.96421" lon="4.87154">
        <ele>281</ele>
        <time>2018-03-31T09:30:54Z</time>
      </trkpt>
      <trkpt lat="45.96424" lon="4.8715">
        <ele>281</ele>
        <time>2018-03-31T09:30:55Z</time>
      </trkpt>
      <trkpt lat="45.96427" lon="4.87145">
        <ele>281</ele>
        <time>2018-03-31T09:30:56Z</time>
      </trkpt>
      <trkpt lat="45.96433" lon="4.87138">
        <ele>281</ele>
        <time>2018-03-31T09:30:57Z</time>
      </trkpt>
      <trkpt lat="45.96436" lon="4.87133">
        <ele>281</ele>
        <time>2018-03-31T09:30:58Z</time>
      </trkpt>
      <trkpt lat="45.9644" lon="4.87128">
        <ele>281</ele>
        <time>2018-03-31T09:30:59Z</time>
      </trkpt>
      <trkpt lat="45.96444" lon="4.87123">
        <ele>281</ele>
        <time>2018-03-31T09:31:00Z</time>
      </trkpt>
      <trkpt lat="45.96447" lon="4.87119">
        <ele>281</ele>
        <time>2018-03-31T09:31:01Z</time>
      </trkpt>
      <trkpt lat="45.96451" lon="4.87114">
        <ele>281</ele>
        <time>2018-03-31T09:31:02Z</time>
      </trkpt>
      <trkpt lat="45.96454" lon="4.87109">
        <ele>281</ele>
        <time>2018-03-31T09:31:03Z</time>
      </trkpt>
      <trkpt lat="45.96457" lon="4.87105">
        <ele>281</ele>
        <time>2018-03-31T09:31:04Z</time>
      </trkpt>
      <trkpt lat="45.96461" lon="4.871">
        <ele>282</ele>
        <time>2018-03-31T09:31:05Z</time>
      </trkpt>
      <trkpt lat="45.96465" lon="4.87096">
        <ele>282</ele>
        <time>2018-03-31T09:31:06Z</time>
      </trkpt>
      <trkpt lat="45.96468" lon="4.87091">
        <ele>282</ele>
        <time>2018-03-31T09:31:07Z</time>
      </trkpt>
      <trkpt lat="45.96471" lon="4.87086">
        <ele>282</ele>
        <time>2018-03-31T09:31:08Z</time>
      </trkpt>
      <trkpt lat="45.96476" lon="4.87083">
        <ele>282</ele>
        <time>2018-03-31T09:31:09Z</time>
      </trkpt>
      <trkpt lat="45.9648" lon="4.87078">
        <ele>282</ele>
        <time>2018-03-31T09:31:10Z</time>
      </trkpt>
      <trkpt lat="45.96485" lon="4.87072">
        <ele>282</ele>
        <time>2018-03-31T09:31:11Z</time>
      </trkpt>
      <trkpt lat="45.96492" lon="4.87064">
        <ele>282</ele>
        <time>2018-03-31T09:31:13Z</time>
      </trkpt>
      <trkpt lat="45.96494" lon="4.8706">
        <ele>282</ele>
        <time>2018-03-31T09:31:14Z</time>
      </trkpt>
      <trkpt lat="45.965" lon="4.87053">
        <ele>282</ele>
        <time>2018-03-31T09:31:16Z</time>
      </trkpt>
      <trkpt lat="45.96502" lon="4.87052">
        <ele>282</ele>
        <time>2018-03-31T09:31:17Z</time>
      </trkpt>
      <trkpt lat="45.96511" lon="4.87055">
        <ele>283</ele>
        <time>2018-03-31T09:31:21Z</time>
      </trkpt>
      <trkpt lat="45.96513" lon="4.87058">
        <ele>283</ele>
        <time>2018-03-31T09:31:22Z</time>
      </trkpt>
      <trkpt lat="45.96519" lon="4.87066">
        <ele>283</ele>
        <time>2018-03-31T09:31:25Z</time>
      </trkpt>
      <trkpt lat="45.96521" lon="4.87068">
        <ele>283</ele>
        <time>2018-03-31T09:31:26Z</time>
      </trkpt>
      <trkpt lat="45.96528" lon="4.8707">
        <ele>283</ele>
        <time>2018-03-31T09:31:29Z</time>
      </trkpt>
      <trkpt lat="45.9653" lon="4.87069">
        <ele>283</ele>
        <time>2018-03-31T09:31:30Z</time>
      </trkpt>
      <trkpt lat="45.96538" lon="4.87072">
        <ele>283</ele>
        <time>2018-03-31T09:31:38Z</time>
      </trkpt>
      <trkpt lat="45.96539" lon="4.87073">
        <ele>283</ele>
        <time>2018-03-31T09:31:39Z</time>
      </trkpt>
      <trkpt lat="45.96547" lon="4.87074">
        <ele>283</ele>
        <time>2018-03-31T09:31:45Z</time>
      </trkpt>
      <trkpt lat="45.96549" lon="4.87074">
        <ele>283</ele>
        <time>2018-03-31T09:31:46Z</time>
      </trkpt>
      <trkpt lat="45.96554" lon="4.87067">
        <ele>283</ele>
        <time>2018-03-31T09:31:49Z</time>
      </trkpt>
      <trkpt lat="45.96554" lon="4.87063">
        <ele>283</ele>
        <time>2018-03-31T09:31:50Z</time>
      </trkpt>
      <trkpt lat="45.96556" lon="4.87051">
        <ele>283</ele>
        <time>2018-03-31T09:31:53Z</time>
      </trkpt>
      <trkpt lat="45.96556" lon="4.87047">
        <ele>283</ele>
        <time>2018-03-31T09:31:54Z</time>
      </trkpt>
      <trkpt lat="45.96554" lon="4.87036">
        <ele>283</ele>
        <time>2018-03-31T09:31:57Z</time>
      </trkpt>
      <trkpt lat="45.9655" lon="4.87025">
        <ele>283</ele>
        <time>2018-03-31T09:31:58Z</time>
      </trkpt>
      <trkpt lat="45.96545" lon="4.87032">
        <ele>283</ele>
        <time>2018-03-31T09:32:33Z</time>
      </trkpt>
      <trkpt lat="45.96545" lon="4.87032">
        <ele>283</ele>
        <time>2018-03-31T09:32:34Z</time>
      </trkpt>
      <trkpt lat="45.96545" lon="4.87032">
        <ele>283</ele>
        <time>2018-03-31T09:32:35Z</time>
      </trkpt>
      <trkpt lat="45.96544" lon="4.8702">
        <ele>283</ele>
        <time>2018-03-31T09:43:11Z</time>
      </trkpt>
      <trkpt lat="45.96544" lon="4.87018">
        <ele>283</ele>
        <time>2018-03-31T09:43:12Z</time>
      </trkpt>
      <trkpt lat="45.96544" lon="4.87007">
        <ele>283</ele>
        <time>2018-03-31T09:43:16Z</time>
      </trkpt>
      <trkpt lat="45.96544" lon="4.87004">
        <ele>283</ele>
        <time>2018-03-31T09:43:17Z</time>
      </trkpt>
      <trkpt lat="45.96546" lon="4.86993">
        <ele>283</ele>
        <time>2018-03-31T09:43:22Z</time>
      </trkpt>
      <trkpt lat="45.96546" lon="4.86991">
        <ele>283</ele>
        <time>2018-03-31T09:43:23Z</time>
      </trkpt>
      <trkpt lat="45.96552" lon="4.86981">
        <ele>283</ele>
        <time>2018-03-31T09:43:27Z</time>
      </trkpt>
      <trkpt lat="45.96554" lon="4.86979">
        <ele>283</ele>
        <time>2018-03-31T09:43:28Z</time>
      </trkpt>
      <trkpt lat="45.96559" lon="4.8697">
        <ele>283</ele>
        <time>2018-03-31T09:43:31Z</time>
      </trkpt>
      <trkpt lat="45.96561" lon="4.86967">
        <ele>283</ele>
        <time>2018-03-31T09:43:32Z</time>
      </trkpt>
      <trkpt lat="45.96566" lon="4.86958">
        <ele>284</ele>
        <time>2018-03-31T09:43:35Z</time>
      </trkpt>
      <trkpt lat="45.96568" lon="4.86954">
        <ele>284</ele>
        <time>2018-03-31T09:43:36Z</time>
      </trkpt>
      <trkpt lat="45.96572" lon="4.86948">
        <ele>284</ele>
        <time>2018-03-31T09:43:38Z</time>
      </trkpt>
      <trkpt lat="45.96574" lon="4.86944">
        <ele>284</ele>
        <time>2018-03-31T09:43:39Z</time>
      </trkpt>
      <trkpt lat="45.96578" lon="4.86938">
        <ele>284</ele>
        <time>2018-03-31T09:43:41Z</time>
      </trkpt>
      <trkpt lat="45.9658" lon="4.86934">
        <ele>284</ele>
        <time>2018-03-31T09:43:42Z</time>
      </trkpt>
      <trkpt lat="45.96586" lon="4.86924">
        <ele>285</ele>
        <time>2018-03-31T09:43:45Z</time>
      </trkpt>
      <trkpt lat="45.96592" lon="4.86913">
        <ele>286</ele>
        <time>2018-03-31T09:43:46Z</time>
      </trkpt>
      <trkpt lat="45.96596" lon="4.86906">
        <ele>286</ele>
        <time>2018-03-31T09:43:49Z</time>
      </trkpt>
      <trkpt lat="45.96598" lon="4.86904">
        <ele>286</ele>
        <time>2018-03-31T09:43:50Z</time>
      </trkpt>
      <trkpt lat="45.96602" lon="4.86896">
        <ele>286</ele>
        <time>2018-03-31T09:43:53Z</time>
      </trkpt>
      <trkpt lat="45.96604" lon="4.86893">
        <ele>286</ele>
        <time>2018-03-31T09:43:54Z</time>
      </trkpt>
      <trkpt lat="45.96606" lon="4.8689">
        <ele>287</ele>
        <time>2018-03-31T09:43:55Z</time>
      </trkpt>
      <trkpt lat="45.96611" lon="4.8688">
        <ele>287</ele>
        <time>2018-03-31T09:43:56Z</time>
      </trkpt>
      <trkpt lat="45.96616" lon="4.86872">
        <ele>287</ele>
        <time>2018-03-31T09:43:58Z</time>
      </trkpt>
      <trkpt lat="45.96619" lon="4.86868">
        <ele>287</ele>
        <time>2018-03-31T09:43:59Z</time>
      </trkpt>
      <trkpt lat="45.96625" lon="4.86859">
        <ele>287</ele>
        <time>2018-03-31T09:44:01Z</time>
      </trkpt>
      <trkpt lat="45.96627" lon="4.86854">
        <ele>287</ele>
        <time>2018-03-31T09:44:02Z</time>
      </trkpt>
      <trkpt lat="45.96632" lon="4.86846">
        <ele>287</ele>
        <time>2018-03-31T09:44:05Z</time>
      </trkpt>
      <trkpt lat="45.96633" lon="4.86844">
        <ele>287</ele>
        <time>2018-03-31T09:44:06Z</time>
      </trkpt>
      <trkpt lat="45.96635" lon="4.86841">
        <ele>287</ele>
        <time>2018-03-31T09:44:07Z</time>
      </trkpt>
      <trkpt lat="45.96639" lon="4.86832">
        <ele>288</ele>
        <time>2018-03-31T09:44:08Z</time>
      </trkpt>
      <trkpt lat="45.96641" lon="4.8683">
        <ele>288</ele>
        <time>2018-03-31T09:44:09Z</time>
      </trkpt>
      <trkpt lat="45.96645" lon="4.86822">
        <ele>288</ele>
        <time>2018-03-31T09:44:10Z</time>
      </trkpt>
      <trkpt lat="45.96651" lon="4.86813">
        <ele>288</ele>
        <time>2018-03-31T09:44:13Z</time>
      </trkpt>
      <trkpt lat="45.96653" lon="4.86809">
        <ele>288</ele>
        <time>2018-03-31T09:44:14Z</time>
      </trkpt>
      <trkpt lat="45.96655" lon="4.86806">
        <ele>288</ele>
        <time>2018-03-31T09:44:15Z</time>
      </trkpt>
      <trkpt lat="45.96662" lon="4.86796">
        <ele>288</ele>
        <time>2018-03-31T09:44:16Z</time>
      </trkpt>
      <trkpt lat="45.96668" lon="4.86786">
        <ele>289</ele>
        <time>2018-03-31T09:44:18Z</time>
      </trkpt>
      <trkpt lat="45.9667" lon="4.86782">
        <ele>289</ele>
        <time>2018-03-31T09:44:19Z</time>
      </trkpt>
      <trkpt lat="45.96675" lon="4.86775">
        <ele>289</ele>
        <time>2018-03-31T09:44:21Z</time>
      </trkpt>
      <trkpt lat="45.96678" lon="4.8677">
        <ele>289</ele>
        <time>2018-03-31T09:44:22Z</time>
      </trkpt>
      <trkpt lat="45.96682" lon="4.86764">
        <ele>289</ele>
        <time>2018-03-31T09:44:23Z</time>
      </trkpt>
      <trkpt lat="45.96685" lon="4.86759">
        <ele>289</ele>
        <time>2018-03-31T09:44:24Z</time>
      </trkpt>
      <trkpt lat="45.96689" lon="4.86754">
        <ele>289</ele>
        <time>2018-03-31T09:44:25Z</time>
      </trkpt>
      <trkpt lat="45.96694" lon="4.86745">
        <ele>289</ele>
        <time>2018-03-31T09:44:26Z</time>
      </trkpt>
      <trkpt lat="45.96697" lon="4.86739">
        <ele>289</ele>
        <time>2018-03-31T09:44:27Z</time>
      </trkpt>
      <trkpt lat="45.96701" lon="4.86733">
        <ele>289</ele>
        <time>2018-03-31T09:44:28Z</time>
      </trkpt>
      <trkpt lat="45.96705" lon="4.86724">
        <ele>289</ele>
        <time>2018-03-31T09:44:30Z</time>
      </trkpt>
      <trkpt lat="45.96708" lon="4.86718">
        <ele>289</ele>
        <time>2018-03-31T09:44:31Z</time>
      </trkpt>
      <trkpt lat="45.9671" lon="4.86713">
        <ele>289</ele>
        <time>2018-03-31T09:44:32Z</time>
      </trkpt>
      <trkpt lat="45.96714" lon="4.86708">
        <ele>289</ele>
        <time>2018-03-31T09:44:33Z</time>
      </trkpt>
      <trkpt lat="45.96719" lon="4.867">
        <ele>289</ele>
        <time>2018-03-31T09:44:35Z</time>
      </trkpt>
      <trkpt lat="45.96722" lon="4.86695">
        <ele>289</ele>
        <time>2018-03-31T09:44:36Z</time>
      </trkpt>
      <trkpt lat="45.96728" lon="4.86685">
        <ele>289</ele>
        <time>2018-03-31T09:44:38Z</time>
      </trkpt>
      <trkpt lat="45.96731" lon="4.86681">
        <ele>289</ele>
        <time>2018-03-31T09:44:39Z</time>
      </trkpt>
      <trkpt lat="45.96735" lon="4.86672">
        <ele>290</ele>
        <time>2018-03-31T09:44:41Z</time>
      </trkpt>
      <trkpt lat="45.96738" lon="4.86668">
        <ele>290</ele>
        <time>2018-03-31T09:44:42Z</time>
      </trkpt>
      <trkpt lat="45.96742" lon="4.8666">
        <ele>290</ele>
        <time>2018-03-31T09:44:44Z</time>
      </trkpt>
      <trkpt lat="45.96744" lon="4.86656">
        <ele>290</ele>
        <time>2018-03-31T09:44:45Z</time>
      </trkpt>
      <trkpt lat="45.9675" lon="4.86647">
        <ele>290</ele>
        <time>2018-03-31T09:44:47Z</time>
      </trkpt>
      <trkpt lat="45.96752" lon="4.86643">
        <ele>290</ele>
        <time>2018-03-31T09:44:48Z</time>
      </trkpt>
      <trkpt lat="45.96757" lon="4.86635">
        <ele>290</ele>
        <time>2018-03-31T09:44:50Z</time>
      </trkpt>
      <trkpt lat="45.96759" lon="4.86631">
        <ele>289</ele>
        <time>2018-03-31T09:44:51Z</time>
      </trkpt>
      <trkpt lat="45.96764" lon="4.86622">
        <ele>289</ele>
        <time>2018-03-31T09:44:53Z</time>
      </trkpt>
      <trkpt lat="45.96767" lon="4.86617">
        <ele>289</ele>
        <time>2018-03-31T09:44:54Z</time>
      </trkpt>
      <trkpt lat="45.96772" lon="4.86609">
        <ele>289</ele>
        <time>2018-03-31T09:44:56Z</time>
      </trkpt>
      <trkpt lat="45.96775" lon="4.86604">
        <ele>289</ele>
        <time>2018-03-31T09:44:57Z</time>
      </trkpt>
      <trkpt lat="45.96778" lon="4.86599">
        <ele>289</ele>
        <time>2018-03-31T09:44:58Z</time>
      </trkpt>
      <trkpt lat="45.96781" lon="4.86593">
        <ele>289</ele>
        <time>2018-03-31T09:44:59Z</time>
      </trkpt>
      <trkpt lat="45.96784" lon="4.86588">
        <ele>289</ele>
        <time>2018-03-31T09:45:00Z</time>
      </trkpt>
      <trkpt lat="45.96787" lon="4.86583">
        <ele>290</ele>
        <time>2018-03-31T09:45:01Z</time>
      </trkpt>
      <trkpt lat="45.96791" lon="4.86577">
        <ele>290</ele>
        <time>2018-03-31T09:45:02Z</time>
      </trkpt>
      <trkpt lat="45.96794" lon="4.86572">
        <ele>290</ele>
        <time>2018-03-31T09:45:03Z</time>
      </trkpt>
      <trkpt lat="45.96798" lon="4.86567">
        <ele>290</ele>
        <time>2018-03-31T09:45:04Z</time>
      </trkpt>
      <trkpt lat="45.96802" lon="4.86562">
        <ele>290</ele>
        <time>2018-03-31T09:45:05Z</time>
      </trkpt>
      <trkpt lat="45.96806" lon="4.86557">
        <ele>290</ele>
        <time>2018-03-31T09:45:06Z</time>
      </trkpt>
      <trkpt lat="45.9681" lon="4.8655">
        <ele>290</ele>
        <time>2018-03-31T09:45:07Z</time>
      </trkpt>
      <trkpt lat="45.96813" lon="4.86545">
        <ele>290</ele>
        <time>2018-03-31T09:45:08Z</time>
      </trkpt>
      <trkpt lat="45.96816" lon="4.8654">
        <ele>290</ele>
        <time>2018-03-31T09:45:09Z</time>
      </trkpt>
      <trkpt lat="45.9682" lon="4.86533">
        <ele>290</ele>
        <time>2018-03-31T09:45:10Z</time>
      </trkpt>
      <trkpt lat="45.96823" lon="4.86528">
        <ele>289</ele>
        <time>2018-03-31T09:45:11Z</time>
      </trkpt>
      <trkpt lat="45.96826" lon="4.86522">
        <ele>289</ele>
        <time>2018-03-31T09:45:12Z</time>
      </trkpt>
      <trkpt lat="45.96829" lon="4.86517">
        <ele>289</ele>
        <time>2018-03-31T09:45:13Z</time>
      </trkpt>
      <trkpt lat="45.96834" lon="4.86508">
        <ele>289</ele>
        <time>2018-03-31T09:45:14Z</time>
      </trkpt>
      <trkpt lat="45.96837" lon="4.86502">
        <ele>289</ele>
        <time>2018-03-31T09:45:15Z</time>
      </trkpt>
      <trkpt lat="45.9684" lon="4.86495">
        <ele>289</ele>
        <time>2018-03-31T09:45:16Z</time>
      </trkpt>
      <trkpt lat="45.96843" lon="4.8649">
        <ele>289</ele>
        <time>2018-03-31T09:45:17Z</time>
      </trkpt>
      <trkpt lat="45.96846" lon="4.86483">
        <ele>289</ele>
        <time>2018-03-31T09:45:18Z</time>
      </trkpt>
      <trkpt lat="45.96847" lon="4.86478">
        <ele>289</ele>
        <time>2018-03-31T09:45:19Z</time>
      </trkpt>
      <trkpt lat="45.96851" lon="4.86466">
        <ele>289</ele>
        <time>2018-03-31T09:45:21Z</time>
      </trkpt>
      <trkpt lat="45.96852" lon="4.86459">
        <ele>289</ele>
        <time>2018-03-31T09:45:22Z</time>
      </trkpt>
      <trkpt lat="45.96854" lon="4.86453">
        <ele>289</ele>
        <time>2018-03-31T09:45:23Z</time>
      </trkpt>
      <trkpt lat="45.96855" lon="4.86446">
        <ele>289</ele>
        <time>2018-03-31T09:45:24Z</time>
      </trkpt>
      <trkpt lat="45.96856" lon="4.86439">
        <ele>290</ele>
        <time>2018-03-31T09:45:25Z</time>
      </trkpt>
      <trkpt lat="45.96856" lon="4.86433">
        <ele>290</ele>
        <time>2018-03-31T09:45:26Z</time>
      </trkpt>
      <trkpt lat="45.96858" lon="4.86423">
        <ele>290</ele>
        <time>2018-03-31T09:45:27Z</time>
      </trkpt>
      <trkpt lat="45.96859" lon="4.86416">
        <ele>290</ele>
        <time>2018-03-31T09:45:28Z</time>
      </trkpt>
      <trkpt lat="45.96861" lon="4.86408">
        <ele>290</ele>
        <time>2018-03-31T09:45:29Z</time>
      </trkpt>
      <trkpt lat="45.96861" lon="4.864">
        <ele>290</ele>
        <time>2018-03-31T09:45:30Z</time>
      </trkpt>
      <trkpt lat="45.96863" lon="4.86393">
        <ele>290</ele>
        <time>2018-03-31T09:45:31Z</time>
      </trkpt>
      <trkpt lat="45.96864" lon="4.86386">
        <ele>290</ele>
        <time>2018-03-31T09:45:32Z</time>
      </trkpt>
      <trkpt lat="45.96865" lon="4.86379">
        <ele>290</ele>
        <time>2018-03-31T09:45:33Z</time>
      </trkpt>
      <trkpt lat="45.96866" lon="4.86372">
        <ele>290</ele>
        <time>2018-03-31T09:45:34Z</time>
      </trkpt>
      <trkpt lat="45.96868" lon="4.86364">
        <ele>290</ele>
        <time>2018-03-31T09:45:35Z</time>
      </trkpt>
      <trkpt lat="45.96868" lon="4.86356">
        <ele>290</ele>
        <time>2018-03-31T09:45:36Z</time>
      </trkpt>
      <trkpt lat="45.96869" lon="4.8635">
        <ele>290</ele>
        <time>2018-03-31T09:45:37Z</time>
      </trkpt>
      <trkpt lat="45.96871" lon="4.86342">
        <ele>290</ele>
        <time>2018-03-31T09:45:38Z</time>
      </trkpt>
      <trkpt lat="45.96872" lon="4.86335">
        <ele>290</ele>
        <time>2018-03-31T09:45:39Z</time>
      </trkpt>
      <trkpt lat="45.96873" lon="4.86328">
        <ele>289</ele>
        <time>2018-03-31T09:45:40Z</time>
      </trkpt>
      <trkpt lat="45.96874" lon="4.8632">
        <ele>289</ele>
        <time>2018-03-31T09:45:41Z</time>
      </trkpt>
      <trkpt lat="45.96874" lon="4.86312">
        <ele>289</ele>
        <time>2018-03-31T09:45:42Z</time>
      </trkpt>
      <trkpt lat="45.96876" lon="4.86304">
        <ele>289</ele>
        <time>2018-03-31T09:45:43Z</time>
      </trkpt>
      <trkpt lat="45.96877" lon="4.86296">
        <ele>289</ele>
        <time>2018-03-31T09:45:44Z</time>
      </trkpt>
      <trkpt lat="45.96878" lon="4.86288">
        <ele>289</ele>
        <time>2018-03-31T09:45:45Z</time>
      </trkpt>
      <trkpt lat="45.96879" lon="4.86279">
        <ele>289</ele>
        <time>2018-03-31T09:45:46Z</time>
      </trkpt>
      <trkpt lat="45.9688" lon="4.86272">
        <ele>288</ele>
        <time>2018-03-31T09:45:47Z</time>
      </trkpt>
      <trkpt lat="45.96882" lon="4.86264">
        <ele>288</ele>
        <time>2018-03-31T09:45:48Z</time>
      </trkpt>
      <trkpt lat="45.96883" lon="4.86255">
        <ele>288</ele>
        <time>2018-03-31T09:45:49Z</time>
      </trkpt>
      <trkpt lat="45.96884" lon="4.86247">
        <ele>288</ele>
        <time>2018-03-31T09:45:50Z</time>
      </trkpt>
      <trkpt lat="45.96885" lon="4.86238">
        <ele>288</ele>
        <time>2018-03-31T09:45:51Z</time>
      </trkpt>
      <trkpt lat="45.96886" lon="4.8623">
        <ele>289</ele>
        <time>2018-03-31T09:45:52Z</time>
      </trkpt>
      <trkpt lat="45.96887" lon="4.86221">
        <ele>289</ele>
        <time>2018-03-31T09:45:53Z</time>
      </trkpt>
      <trkpt lat="45.96888" lon="4.86213">
        <ele>289</ele>
        <time>2018-03-31T09:45:54Z</time>
      </trkpt>
      <trkpt lat="45.96889" lon="4.86205">
        <ele>289</ele>
        <time>2018-03-31T09:45:55Z</time>
      </trkpt>
      <trkpt lat="45.9689" lon="4.86196">
        <ele>289</ele>
        <time>2018-03-31T09:45:56Z</time>
      </trkpt>
      <trkpt lat="45.96891" lon="4.86187">
        <ele>289</ele>
        <time>2018-03-31T09:45:57Z</time>
      </trkpt>
      <trkpt lat="45.96892" lon="4.86178">
        <ele>289</ele>
        <time>2018-03-31T09:45:58Z</time>
      </trkpt>
      <trkpt lat="45.96893" lon="4.8617">
        <ele>289</ele>
        <time>2018-03-31T09:45:59Z</time>
      </trkpt>
      <trkpt lat="45.96894" lon="4.86161">
        <ele>289</ele>
        <time>2018-03-31T09:46:00Z</time>
      </trkpt>
      <trkpt lat="45.96895" lon="4.86153">
        <ele>289</ele>
        <time>2018-03-31T09:46:01Z</time>
      </trkpt>
      <trkpt lat="45.96897" lon="4.86144">
        <ele>289</ele>
        <time>2018-03-31T09:46:02Z</time>
      </trkpt>
      <trkpt lat="45.96897" lon="4.86135">
        <ele>289</ele>
        <time>2018-03-31T09:46:03Z</time>
      </trkpt>
      <trkpt lat="45.969" lon="4.86125">
        <ele>289</ele>
        <time>2018-03-31T09:46:04Z</time>
      </trkpt>
      <trkpt lat="45.96901" lon="4.86114">
        <ele>289</ele>
        <time>2018-03-31T09:46:05Z</time>
      </trkpt>
      <trkpt lat="45.96902" lon="4.86104">
        <ele>289</ele>
        <time>2018-03-31T09:46:06Z</time>
      </trkpt>
      <trkpt lat="45.96904" lon="4.86093">
        <ele>288</ele>
        <time>2018-03-31T09:46:07Z</time>
      </trkpt>
      <trkpt lat="45.96905" lon="4.86083">
        <ele>288</ele>
        <time>2018-03-31T09:46:08Z</time>
      </trkpt>
      <trkpt lat="45.96906" lon="4.86074">
        <ele>288</ele>
        <time>2018-03-31T09:46:09Z</time>
      </trkpt>
      <trkpt lat="45.96907" lon="4.86065">
        <ele>288</ele>
        <time>2018-03-31T09:46:10Z</time>
      </trkpt>
      <trkpt lat="45.96907" lon="4.86055">
        <ele>288</ele>
        <time>2018-03-31T09:46:11Z</time>
      </trkpt>
      <trkpt lat="45.96908" lon="4.86045">
        <ele>289</ele>
        <time>2018-03-31T09:46:12Z</time>
      </trkpt>
      <trkpt lat="45.96909" lon="4.86037">
        <ele>289</ele>
        <time>2018-03-31T09:46:13Z</time>
      </trkpt>
      <trkpt lat="45.9691" lon="4.86028">
        <ele>289</ele>
        <time>2018-03-31T09:46:14Z</time>
      </trkpt>
      <trkpt lat="45.96912" lon="4.8602">
        <ele>289</ele>
        <time>2018-03-31T09:46:15Z</time>
      </trkpt>
      <trkpt lat="45.96913" lon="4.86011">
        <ele>288</ele>
        <time>2018-03-31T09:46:16Z</time>
      </trkpt>
      <trkpt lat="45.96914" lon="4.86002">
        <ele>288</ele>
        <time>2018-03-31T09:46:17Z</time>
      </trkpt>
      <trkpt lat="45.96916" lon="4.85993">
        <ele>288</ele>
        <time>2018-03-31T09:46:18Z</time>
      </trkpt>
      <trkpt lat="45.96917" lon="4.85985">
        <ele>287</ele>
        <time>2018-03-31T09:46:19Z</time>
      </trkpt>
      <trkpt lat="45.9692" lon="4.85976">
        <ele>287</ele>
        <time>2018-03-31T09:46:20Z</time>
      </trkpt>
      <trkpt lat="45.96921" lon="4.85967">
        <ele>287</ele>
        <time>2018-03-31T09:46:21Z</time>
      </trkpt>
      <trkpt lat="45.96923" lon="4.85959">
        <ele>287</ele>
        <time>2018-03-31T09:46:22Z</time>
      </trkpt>
      <trkpt lat="45.96926" lon="4.85951">
        <ele>287</ele>
        <time>2018-03-31T09:46:23Z</time>
      </trkpt>
      <trkpt lat="45.96928" lon="4.85941">
        <ele>286</ele>
        <time>2018-03-31T09:46:24Z</time>
      </trkpt>
      <trkpt lat="45.9693" lon="4.85933">
        <ele>286</ele>
        <time>2018-03-31T09:46:25Z</time>
      </trkpt>
      <trkpt lat="45.96932" lon="4.85924">
        <ele>286</ele>
        <time>2018-03-31T09:46:26Z</time>
      </trkpt>
      <trkpt lat="45.96935" lon="4.85915">
        <ele>286</ele>
        <time>2018-03-31T09:46:27Z</time>
      </trkpt>
      <trkpt lat="45.96937" lon="4.85905">
        <ele>286</ele>
        <time>2018-03-31T09:46:28Z</time>
      </trkpt>
      <trkpt lat="45.9694" lon="4.85896">
        <ele>285</ele>
        <time>2018-03-31T09:46:29Z</time>
      </trkpt>
      <trkpt lat="45.96943" lon="4.85886">
        <ele>285</ele>
        <time>2018-03-31T09:46:30Z</time>
      </trkpt>
      <trkpt lat="45.96945" lon="4.85876">
        <ele>285</ele>
        <time>2018-03-31T09:46:31Z</time>
      </trkpt>
      <trkpt lat="45.96947" lon="4.85866">
        <ele>285</ele>
        <time>2018-03-31T09:46:32Z</time>
      </trkpt>
      <trkpt lat="45.96951" lon="4.85856">
        <ele>285</ele>
        <time>2018-03-31T09:46:33Z</time>
      </trkpt>
      <trkpt lat="45.96953" lon="4.85847">
        <ele>285</ele>
        <time>2018-03-31T09:46:34Z</time>
      </trkpt>
      <trkpt lat="45.96955" lon="4.85838">
        <ele>285</ele>
        <time>2018-03-31T09:46:35Z</time>
      </trkpt>
      <trkpt lat="45.96958" lon="4.85829">
        <ele>285</ele>
        <time>2018-03-31T09:46:36Z</time>
      </trkpt>
      <trkpt lat="45.9696" lon="4.85819">
        <ele>285</ele>
        <time>2018-03-31T09:46:37Z</time>
      </trkpt>
      <trkpt lat="45.96963" lon="4.8581">
        <ele>285</ele>
        <time>2018-03-31T09:46:38Z</time>
      </trkpt>
      <trkpt lat="45.96964" lon="4.85802">
        <ele>285</ele>
        <time>2018-03-31T09:46:39Z</time>
      </trkpt>
      <trkpt lat="45.96967" lon="4.85793">
        <ele>285</ele>
        <time>2018-03-31T09:46:40Z</time>
      </trkpt>
      <trkpt lat="45.96969" lon="4.85785">
        <ele>285</ele>
        <time>2018-03-31T09:46:41Z</time>
      </trkpt>
      <trkpt lat="45.96972" lon="4.85777">
        <ele>285</ele>
        <time>2018-03-31T09:46:42Z</time>
      </trkpt>
      <trkpt lat="45.96975" lon="4.85767">
        <ele>285</ele>
        <time>2018-03-31T09:46:43Z</time>
      </trkpt>
      <trkpt lat="45.96977" lon="4.85759">
        <ele>285</ele>
        <time>2018-03-31T09:46:44Z</time>
      </trkpt>
      <trkpt lat="45.96979" lon="4.85749">
        <ele>285</ele>
        <time>2018-03-31T09:46:45Z</time>
      </trkpt>
      <trkpt lat="45.96981" lon="4.85741">
        <ele>285</ele>
        <time>2018-03-31T09:46:46Z</time>
      </trkpt>
      <trkpt lat="45.96984" lon="4.85733">
        <ele>285</ele>
        <time>2018-03-31T09:46:47Z</time>
      </trkpt>
      <trkpt lat="45.96986" lon="4.85725">
        <ele>285</ele>
        <time>2018-03-31T09:46:48Z</time>
      </trkpt>
      <trkpt lat="45.96988" lon="4.85716">
        <ele>285</ele>
        <time>2018-03-31T09:46:49Z</time>
      </trkpt>
      <trkpt lat="45.9699" lon="4.85709">
        <ele>285</ele>
        <time>2018-03-31T09:46:50Z</time>
      </trkpt>
      <trkpt lat="45.96992" lon="4.85701">
        <ele>285</ele>
        <time>2018-03-31T09:46:51Z</time>
      </trkpt>
      <trkpt lat="45.96994" lon="4.85693">
        <ele>285</ele>
        <time>2018-03-31T09:46:52Z</time>
      </trkpt>
      <trkpt lat="45.96996" lon="4.85683">
        <ele>286</ele>
        <time>2018-03-31T09:46:53Z</time>
      </trkpt>
      <trkpt lat="45.96998" lon="4.85675">
        <ele>286</ele>
        <time>2018-03-31T09:46:54Z</time>
      </trkpt>
      <trkpt lat="45.97" lon="4.85666">
        <ele>286</ele>
        <time>2018-03-31T09:46:55Z</time>
      </trkpt>
      <trkpt lat="45.97002" lon="4.85658">
        <ele>285</ele>
        <time>2018-03-31T09:46:56Z</time>
      </trkpt>
      <trkpt lat="45.97005" lon="4.85648">
        <ele>285</ele>
        <time>2018-03-31T09:46:57Z</time>
      </trkpt>
      <trkpt lat="45.97009" lon="4.85637">
        <ele>284</ele>
        <time>2018-03-31T09:46:58Z</time>
      </trkpt>
      <trkpt lat="45.97011" lon="4.85628">
        <ele>284</ele>
        <time>2018-03-31T09:46:59Z</time>
      </trkpt>
      <trkpt lat="45.97013" lon="4.85618">
        <ele>284</ele>
        <time>2018-03-31T09:47:00Z</time>
      </trkpt>
      <trkpt lat="45.97016" lon="4.85609">
        <ele>284</ele>
        <time>2018-03-31T09:47:01Z</time>
      </trkpt>
      <trkpt lat="45.97018" lon="4.85599">
        <ele>284</ele>
        <time>2018-03-31T09:47:02Z</time>
      </trkpt>
      <trkpt lat="45.97021" lon="4.8559">
        <ele>284</ele>
        <time>2018-03-31T09:47:03Z</time>
      </trkpt>
      <trkpt lat="45.97023" lon="4.8558">
        <ele>283</ele>
        <time>2018-03-31T09:47:04Z</time>
      </trkpt>
      <trkpt lat="45.97026" lon="4.8557">
        <ele>283</ele>
        <time>2018-03-31T09:47:05Z</time>
      </trkpt>
      <trkpt lat="45.9703" lon="4.85561">
        <ele>283</ele>
        <time>2018-03-31T09:47:06Z</time>
      </trkpt>
      <trkpt lat="45.97033" lon="4.85551">
        <ele>283</ele>
        <time>2018-03-31T09:47:07Z</time>
      </trkpt>
      <trkpt lat="45.97035" lon="4.85542">
        <ele>282</ele>
        <time>2018-03-31T09:47:08Z</time>
      </trkpt>
      <trkpt lat="45.97038" lon="4.85532">
        <ele>282</ele>
        <time>2018-03-31T09:47:09Z</time>
      </trkpt>
      <trkpt lat="45.97041" lon="4.85522">
        <ele>282</ele>
        <time>2018-03-31T09:47:10Z</time>
      </trkpt>
      <trkpt lat="45.97044" lon="4.85513">
        <ele>282</ele>
        <time>2018-03-31T09:47:11Z</time>
      </trkpt>
      <trkpt lat="45.97047" lon="4.85504">
        <ele>282</ele>
        <time>2018-03-31T09:47:12Z</time>
      </trkpt>
      <trkpt lat="45.9705" lon="4.85495">
        <ele>281</ele>
        <time>2018-03-31T09:47:13Z</time>
      </trkpt>
      <trkpt lat="45.97053" lon="4.85486">
        <ele>281</ele>
        <time>2018-03-31T09:47:14Z</time>
      </trkpt>
      <trkpt lat="45.97056" lon="4.85475">
        <ele>281</ele>
        <time>2018-03-31T09:47:15Z</time>
      </trkpt>
      <trkpt lat="45.97059" lon="4.85465">
        <ele>281</ele>
        <time>2018-03-31T09:47:16Z</time>
      </trkpt>
      <trkpt lat="45.97062" lon="4.85455">
        <ele>281</ele>
        <time>2018-03-31T09:47:17Z</time>
      </trkpt>
      <trkpt lat="45.97066" lon="4.85444">
        <ele>281</ele>
        <time>2018-03-31T09:47:18Z</time>
      </trkpt>
      <trkpt lat="45.97069" lon="4.85433">
        <ele>281</ele>
        <time>2018-03-31T09:47:19Z</time>
      </trkpt>
      <trkpt lat="45.97072" lon="4.85423">
        <ele>281</ele>
        <time>2018-03-31T09:47:20Z</time>
      </trkpt>
      <trkpt lat="45.97076" lon="4.85413">
        <ele>280</ele>
        <time>2018-03-31T09:47:21Z</time>
      </trkpt>
      <trkpt lat="45.97079" lon="4.85404">
        <ele>281</ele>
        <time>2018-03-31T09:47:22Z</time>
      </trkpt>
      <trkpt lat="45.97082" lon="4.85395">
        <ele>281</ele>
        <time>2018-03-31T09:47:23Z</time>
      </trkpt>
      <trkpt lat="45.97085" lon="4.85385">
        <ele>280</ele>
        <time>2018-03-31T09:47:24Z</time>
      </trkpt>
      <trkpt lat="45.97088" lon="4.85376">
        <ele>280</ele>
        <time>2018-03-31T09:47:25Z</time>
      </trkpt>
      <trkpt lat="45.97091" lon="4.85368">
        <ele>280</ele>
        <time>2018-03-31T09:47:26Z</time>
      </trkpt>
      <trkpt lat="45.97094" lon="4.85358">
        <ele>280</ele>
        <time>2018-03-31T09:47:27Z</time>
      </trkpt>
      <trkpt lat="45.97097" lon="4.85348">
        <ele>280</ele>
        <time>2018-03-31T09:47:28Z</time>
      </trkpt>
      <trkpt lat="45.971" lon="4.85339">
        <ele>280</ele>
        <time>2018-03-31T09:47:29Z</time>
      </trkpt>
      <trkpt lat="45.97103" lon="4.8533">
        <ele>280</ele>
        <time>2018-03-31T09:47:30Z</time>
      </trkpt>
      <trkpt lat="45.97106" lon="4.8532">
        <ele>280</ele>
        <time>2018-03-31T09:47:31Z</time>
      </trkpt>
      <trkpt lat="45.9711" lon="4.85311">
        <ele>280</ele>
        <time>2018-03-31T09:47:32Z</time>
      </trkpt>
      <trkpt lat="45.97114" lon="4.85301">
        <ele>280</ele>
        <time>2018-03-31T09:47:33Z</time>
      </trkpt>
      <trkpt lat="45.97118" lon="4.85293">
        <ele>280</ele>
        <time>2018-03-31T09:47:34Z</time>
      </trkpt>
      <trkpt lat="45.97122" lon="4.85284">
        <ele>280</ele>
        <time>2018-03-31T09:47:35Z</time>
      </trkpt>
      <trkpt lat="45.97127" lon="4.85276">
        <ele>279</ele>
        <time>2018-03-31T09:47:36Z</time>
      </trkpt>
      <trkpt lat="45.97131" lon="4.85266">
        <ele>279</ele>
        <time>2018-03-31T09:47:37Z</time>
      </trkpt>
      <trkpt lat="45.97135" lon="4.85257">
        <ele>279</ele>
        <time>2018-03-31T09:47:38Z</time>
      </trkpt>
      <trkpt lat="45.97139" lon="4.85249">
        <ele>279</ele>
        <time>2018-03-31T09:47:39Z</time>
      </trkpt>
      <trkpt lat="45.97143" lon="4.85241">
        <ele>279</ele>
        <time>2018-03-31T09:47:40Z</time>
      </trkpt>
      <trkpt lat="45.97147" lon="4.85232">
        <ele>279</ele>
        <time>2018-03-31T09:47:41Z</time>
      </trkpt>
      <trkpt lat="45.97152" lon="4.85223">
        <ele>279</ele>
        <time>2018-03-31T09:47:42Z</time>
      </trkpt>
      <trkpt lat="45.97156" lon="4.85215">
        <ele>279</ele>
        <time>2018-03-31T09:47:43Z</time>
      </trkpt>
      <trkpt lat="45.97161" lon="4.85206">
        <ele>279</ele>
        <time>2018-03-31T09:47:44Z</time>
      </trkpt>
      <trkpt lat="45.97165" lon="4.85197">
        <ele>279</ele>
        <time>2018-03-31T09:47:45Z</time>
      </trkpt>
      <trkpt lat="45.97169" lon="4.85188">
        <ele>278</ele>
        <time>2018-03-31T09:47:46Z</time>
      </trkpt>
      <trkpt lat="45.97174" lon="4.85177">
        <ele>278</ele>
        <time>2018-03-31T09:47:47Z</time>
      </trkpt>
      <trkpt lat="45.97179" lon="4.85168">
        <ele>278</ele>
        <time>2018-03-31T09:47:48Z</time>
      </trkpt>
      <trkpt lat="45.97183" lon="4.8516">
        <ele>278</ele>
        <time>2018-03-31T09:47:49Z</time>
      </trkpt>
      <trkpt lat="45.97187" lon="4.85151">
        <ele>278</ele>
        <time>2018-03-31T09:47:50Z</time>
      </trkpt>
      <trkpt lat="45.97192" lon="4.85142">
        <ele>278</ele>
        <time>2018-03-31T09:47:51Z</time>
      </trkpt>
      <trkpt lat="45.97197" lon="4.85132">
        <ele>278</ele>
        <time>2018-03-31T09:47:52Z</time>
      </trkpt>
      <trkpt lat="45.97201" lon="4.85125">
        <ele>278</ele>
        <time>2018-03-31T09:47:53Z</time>
      </trkpt>
      <trkpt lat="45.97205" lon="4.85115">
        <ele>278</ele>
        <time>2018-03-31T09:47:54Z</time>
      </trkpt>
      <trkpt lat="45.97208" lon="4.85108">
        <ele>278</ele>
        <time>2018-03-31T09:47:55Z</time>
      </trkpt>
      <trkpt lat="45.97212" lon="4.851">
        <ele>278</ele>
        <time>2018-03-31T09:47:56Z</time>
      </trkpt>
      <trkpt lat="45.97216" lon="4.85093">
        <ele>278</ele>
        <time>2018-03-31T09:47:57Z</time>
      </trkpt>
      <trkpt lat="45.9722" lon="4.85084">
        <ele>278</ele>
        <time>2018-03-31T09:47:58Z</time>
      </trkpt>
      <trkpt lat="45.97224" lon="4.85077">
        <ele>278</ele>
        <time>2018-03-31T09:47:59Z</time>
      </trkpt>
      <trkpt lat="45.97228" lon="4.85069">
        <ele>278</ele>
        <time>2018-03-31T09:48:00Z</time>
      </trkpt>
      <trkpt lat="45.97231" lon="4.85061">
        <ele>279</ele>
        <time>2018-03-31T09:48:01Z</time>
      </trkpt>
      <trkpt lat="45.97236" lon="4.85052">
        <ele>279</ele>
        <time>2018-03-31T09:48:02Z</time>
      </trkpt>
      <trkpt lat="45.97239" lon="4.85044">
        <ele>279</ele>
        <time>2018-03-31T09:48:03Z</time>
      </trkpt>
      <trkpt lat="45.97243" lon="4.85036">
        <ele>279</ele>
        <time>2018-03-31T09:48:04Z</time>
      </trkpt>
      <trkpt lat="45.97247" lon="4.85027">
        <ele>279</ele>
        <time>2018-03-31T09:48:05Z</time>
      </trkpt>
      <trkpt lat="45.97251" lon="4.85018">
        <ele>279</ele>
        <time>2018-03-31T09:48:06Z</time>
      </trkpt>
      <trkpt lat="45.97255" lon="4.8501">
        <ele>279</ele>
        <time>2018-03-31T09:48:07Z</time>
      </trkpt>
      <trkpt lat="45.97259" lon="4.85001">
        <ele>279</ele>
        <time>2018-03-31T09:48:08Z</time>
      </trkpt>
      <trkpt lat="45.97262" lon="4.84994">
        <ele>279</ele>
        <time>2018-03-31T09:48:09Z</time>
      </trkpt>
      <trkpt lat="45.97266" lon="4.84985">
        <ele>279</ele>
        <time>2018-03-31T09:48:10Z</time>
      </trkpt>
      <trkpt lat="45.97269" lon="4.84977">
        <ele>279</ele>
        <time>2018-03-31T09:48:11Z</time>
      </trkpt>
      <trkpt lat="45.97273" lon="4.84968">
        <ele>278</ele>
        <time>2018-03-31T09:48:12Z</time>
      </trkpt>
      <trkpt lat="45.97278" lon="4.8496">
        <ele>278</ele>
        <time>2018-03-31T09:48:13Z</time>
      </trkpt>
      <trkpt lat="45.97282" lon="4.84952">
        <ele>278</ele>
        <time>2018-03-31T09:48:14Z</time>
      </trkpt>
      <trkpt lat="45.97286" lon="4.84943">
        <ele>278</ele>
        <time>2018-03-31T09:48:15Z</time>
      </trkpt>
      <trkpt lat="45.97291" lon="4.84935">
        <ele>278</ele>
        <time>2018-03-31T09:48:16Z</time>
      </trkpt>
      <trkpt lat="45.97295" lon="4.84926">
        <ele>278</ele>
        <time>2018-03-31T09:48:17Z</time>
      </trkpt>
      <trkpt lat="45.973" lon="4.84919">
        <ele>278</ele>
        <time>2018-03-31T09:48:18Z</time>
      </trkpt>
      <trkpt lat="45.97305" lon="4.84912">
        <ele>278</ele>
        <time>2018-03-31T09:48:19Z</time>
      </trkpt>
      <trkpt lat="45.9731" lon="4.84904">
        <ele>278</ele>
        <time>2018-03-31T09:48:20Z</time>
      </trkpt>
      <trkpt lat="45.97314" lon="4.84897">
        <ele>278</ele>
        <time>2018-03-31T09:48:21Z</time>
      </trkpt>
      <trkpt lat="45.97319" lon="4.8489">
        <ele>278</ele>
        <time>2018-03-31T09:48:22Z</time>
      </trkpt>
      <trkpt lat="45.97323" lon="4.84884">
        <ele>278</ele>
        <time>2018-03-31T09:48:23Z</time>
      </trkpt>
      <trkpt lat="45.97328" lon="4.84876">
        <ele>278</ele>
        <time>2018-03-31T09:48:24Z</time>
      </trkpt>
      <trkpt lat="45.97332" lon="4.84869">
        <ele>278</ele>
        <time>2018-03-31T09:48:25Z</time>
      </trkpt>
      <trkpt lat="45.97335" lon="4.84862">
        <ele>277</ele>
        <time>2018-03-31T09:48:26Z</time>
      </trkpt>
      <trkpt lat="45.9734" lon="4.84852">
        <ele>277</ele>
        <time>2018-03-31T09:48:27Z</time>
      </trkpt>
      <trkpt lat="45.97343" lon="4.84843">
        <ele>277</ele>
        <time>2018-03-31T09:48:28Z</time>
      </trkpt>
      <trkpt lat="45.97346" lon="4.84835">
        <ele>277</ele>
        <time>2018-03-31T09:48:29Z</time>
      </trkpt>
      <trkpt lat="45.97348" lon="4.8483">
        <ele>278</ele>
        <time>2018-03-31T09:48:30Z</time>
      </trkpt>
      <trkpt lat="45.97353" lon="4.84821">
        <ele>278</ele>
        <time>2018-03-31T09:48:31Z</time>
      </trkpt>
      <trkpt lat="45.97356" lon="4.84812">
        <ele>278</ele>
        <time>2018-03-31T09:48:32Z</time>
      </trkpt>
      <trkpt lat="45.9736" lon="4.84804">
        <ele>278</ele>
        <time>2018-03-31T09:48:33Z</time>
      </trkpt>
      <trkpt lat="45.97363" lon="4.84796">
        <ele>278</ele>
        <time>2018-03-31T09:48:34Z</time>
      </trkpt>
      <trkpt lat="45.97366" lon="4.84787">
        <ele>278</ele>
        <time>2018-03-31T09:48:35Z</time>
      </trkpt>
      <trkpt lat="45.97369" lon="4.84777">
        <ele>278</ele>
        <time>2018-03-31T09:48:36Z</time>
      </trkpt>
      <trkpt lat="45.97373" lon="4.84767">
        <ele>278</ele>
        <time>2018-03-31T09:48:37Z</time>
      </trkpt>
      <trkpt lat="45.97377" lon="4.84758">
        <ele>278</ele>
        <time>2018-03-31T09:48:38Z</time>
      </trkpt>
      <trkpt lat="45.97381" lon="4.84748">
        <ele>278</ele>
        <time>2018-03-31T09:48:39Z</time>
      </trkpt>
      <trkpt lat="45.97387" lon="4.84739">
        <ele>278</ele>
        <time>2018-03-31T09:48:40Z</time>
      </trkpt>
      <trkpt lat="45.97393" lon="4.84732">
        <ele>278</ele>
        <time>2018-03-31T09:48:41Z</time>
      </trkpt>
      <trkpt lat="45.97399" lon="4.84725">
        <ele>278</ele>
        <time>2018-03-31T09:48:42Z</time>
      </trkpt>
      <trkpt lat="45.97406" lon="4.8472">
        <ele>278</ele>
        <time>2018-03-31T09:48:43Z</time>
      </trkpt>
      <trkpt lat="45.97413" lon="4.84715">
        <ele>278</ele>
        <time>2018-03-31T09:48:44Z</time>
      </trkpt>
      <trkpt lat="45.9742" lon="4.8471">
        <ele>276</ele>
        <time>2018-03-31T09:48:45Z</time>
      </trkpt>
      <trkpt lat="45.97427" lon="4.84706">
        <ele>276</ele>
        <time>2018-03-31T09:48:46Z</time>
      </trkpt>
      <trkpt lat="45.97434" lon="4.84702">
        <ele>276</ele>
        <time>2018-03-31T09:48:47Z</time>
      </trkpt>
      <trkpt lat="45.97441" lon="4.84696">
        <ele>276</ele>
        <time>2018-03-31T09:48:48Z</time>
      </trkpt>
      <trkpt lat="45.97449" lon="4.84691">
        <ele>276</ele>
        <time>2018-03-31T09:48:49Z</time>
      </trkpt>
      <trkpt lat="45.97456" lon="4.84687">
        <ele>276</ele>
        <time>2018-03-31T09:48:50Z</time>
      </trkpt>
      <trkpt lat="45.97463" lon="4.84683">
        <ele>276</ele>
        <time>2018-03-31T09:48:51Z</time>
      </trkpt>
      <trkpt lat="45.97469" lon="4.84678">
        <ele>276</ele>
        <time>2018-03-31T09:48:52Z</time>
      </trkpt>
      <trkpt lat="45.97476" lon="4.84674">
        <ele>276</ele>
        <time>2018-03-31T09:48:53Z</time>
      </trkpt>
      <trkpt lat="45.97483" lon="4.84669">
        <ele>276</ele>
        <time>2018-03-31T09:48:54Z</time>
      </trkpt>
      <trkpt lat="45.97489" lon="4.84664">
        <ele>275</ele>
        <time>2018-03-31T09:48:55Z</time>
      </trkpt>
      <trkpt lat="45.97496" lon="4.84659">
        <ele>275</ele>
        <time>2018-03-31T09:48:56Z</time>
      </trkpt>
      <trkpt lat="45.97503" lon="4.84654">
        <ele>275</ele>
        <time>2018-03-31T09:48:57Z</time>
      </trkpt>
      <trkpt lat="45.97509" lon="4.8465">
        <ele>275</ele>
        <time>2018-03-31T09:48:58Z</time>
      </trkpt>
      <trkpt lat="45.97515" lon="4.84646">
        <ele>275</ele>
        <time>2018-03-31T09:48:59Z</time>
      </trkpt>
      <trkpt lat="45.97522" lon="4.84641">
        <ele>275</ele>
        <time>2018-03-31T09:49:00Z</time>
      </trkpt>
      <trkpt lat="45.97528" lon="4.84636">
        <ele>275</ele>
        <time>2018-03-31T09:49:01Z</time>
      </trkpt>
      <trkpt lat="45.97534" lon="4.84631">
        <ele>275</ele>
        <time>2018-03-31T09:49:02Z</time>
      </trkpt>
      <trkpt lat="45.9754" lon="4.84626">
        <ele>275</ele>
        <time>2018-03-31T09:49:03Z</time>
      </trkpt>
      <trkpt lat="45.97546" lon="4.84621">
        <ele>274</ele>
        <time>2018-03-31T09:49:04Z</time>
      </trkpt>
      <trkpt lat="45.97552" lon="4.84615">
        <ele>274</ele>
        <time>2018-03-31T09:49:05Z</time>
      </trkpt>
      <trkpt lat="45.97558" lon="4.84609">
        <ele>274</ele>
        <time>2018-03-31T09:49:06Z</time>
      </trkpt>
      <trkpt lat="45.97563" lon="4.84603">
        <ele>274</ele>
        <time>2018-03-31T09:49:07Z</time>
      </trkpt>
      <trkpt lat="45.97568" lon="4.84596">
        <ele>274</ele>
        <time>2018-03-31T09:49:08Z</time>
      </trkpt>
      <trkpt lat="45.97574" lon="4.8459">
        <ele>274</ele>
        <time>2018-03-31T09:49:09Z</time>
      </trkpt>
      <trkpt lat="45.9758" lon="4.84582">
        <ele>274</ele>
        <time>2018-03-31T09:49:10Z</time>
      </trkpt>
      <trkpt lat="45.97585" lon="4.84576">
        <ele>274</ele>
        <time>2018-03-31T09:49:11Z</time>
      </trkpt>
      <trkpt lat="45.97591" lon="4.8457">
        <ele>274</ele>
        <time>2018-03-31T09:49:12Z</time>
      </trkpt>
      <trkpt lat="45.97597" lon="4.84563">
        <ele>274</ele>
        <time>2018-03-31T09:49:13Z</time>
      </trkpt>
      <trkpt lat="45.97602" lon="4.84556">
        <ele>275</ele>
        <time>2018-03-31T09:49:14Z</time>
      </trkpt>
      <trkpt lat="45.97608" lon="4.84549">
        <ele>275</ele>
        <time>2018-03-31T09:49:15Z</time>
      </trkpt>
      <trkpt lat="45.97613" lon="4.84542">
        <ele>275</ele>
        <time>2018-03-31T09:49:16Z</time>
      </trkpt>
      <trkpt lat="45.97618" lon="4.84535">
        <ele>275</ele>
        <time>2018-03-31T09:49:17Z</time>
      </trkpt>
      <trkpt lat="45.97624" lon="4.84528">
        <ele>275</ele>
        <time>2018-03-31T09:49:18Z</time>
      </trkpt>
      <trkpt lat="45.97629" lon="4.84521">
        <ele>275</ele>
        <time>2018-03-31T09:49:19Z</time>
      </trkpt>
      <trkpt lat="45.97636" lon="4.84513">
        <ele>275</ele>
        <time>2018-03-31T09:49:20Z</time>
      </trkpt>
      <trkpt lat="45.97642" lon="4.84505">
        <ele>275</ele>
        <time>2018-03-31T09:49:21Z</time>
      </trkpt>
      <trkpt lat="45.97647" lon="4.84498">
        <ele>275</ele>
        <time>2018-03-31T09:49:22Z</time>
      </trkpt>
      <trkpt lat="45.97653" lon="4.84492">
        <ele>275</ele>
        <time>2018-03-31T09:49:23Z</time>
      </trkpt>
      <trkpt lat="45.9766" lon="4.84487">
        <ele>275</ele>
        <time>2018-03-31T09:49:24Z</time>
      </trkpt>
      <trkpt lat="45.97667" lon="4.84482">
        <ele>276</ele>
        <time>2018-03-31T09:49:25Z</time>
      </trkpt>
      <trkpt lat="45.97673" lon="4.84477">
        <ele>276</ele>
        <time>2018-03-31T09:49:26Z</time>
      </trkpt>
      <trkpt lat="45.9768" lon="4.84472">
        <ele>277</ele>
        <time>2018-03-31T09:49:27Z</time>
      </trkpt>
      <trkpt lat="45.97688" lon="4.84467">
        <ele>277</ele>
        <time>2018-03-31T09:49:28Z</time>
      </trkpt>
      <trkpt lat="45.97695" lon="4.84463">
        <ele>277</ele>
        <time>2018-03-31T09:49:29Z</time>
      </trkpt>
      <trkpt lat="45.97702" lon="4.84459">
        <ele>277</ele>
        <time>2018-03-31T09:49:30Z</time>
      </trkpt>
      <trkpt lat="45.97709" lon="4.84457">
        <ele>277</ele>
        <time>2018-03-31T09:49:31Z</time>
      </trkpt>
      <trkpt lat="45.97715" lon="4.84455">
        <ele>277</ele>
        <time>2018-03-31T09:49:32Z</time>
      </trkpt>
      <trkpt lat="45.97723" lon="4.84452">
        <ele>277</ele>
        <time>2018-03-31T09:49:33Z</time>
      </trkpt>
      <trkpt lat="45.97729" lon="4.8445">
        <ele>277</ele>
        <time>2018-03-31T09:49:34Z</time>
      </trkpt>
      <trkpt lat="45.97736" lon="4.84448">
        <ele>277</ele>
        <time>2018-03-31T09:49:35Z</time>
      </trkpt>
      <trkpt lat="45.97742" lon="4.84445">
        <ele>277</ele>
        <time>2018-03-31T09:49:36Z</time>
      </trkpt>
      <trkpt lat="45.97748" lon="4.84444">
        <ele>277</ele>
        <time>2018-03-31T09:49:37Z</time>
      </trkpt>
      <trkpt lat="45.97756" lon="4.84442">
        <ele>277</ele>
        <time>2018-03-31T09:49:38Z</time>
      </trkpt>
      <trkpt lat="45.97762" lon="4.8444">
        <ele>277</ele>
        <time>2018-03-31T09:49:39Z</time>
      </trkpt>
      <trkpt lat="45.97769" lon="4.84437">
        <ele>277</ele>
        <time>2018-03-31T09:49:40Z</time>
      </trkpt>
      <trkpt lat="45.97775" lon="4.84433">
        <ele>277</ele>
        <time>2018-03-31T09:49:41Z</time>
      </trkpt>
      <trkpt lat="45.97781" lon="4.84431">
        <ele>277</ele>
        <time>2018-03-31T09:49:42Z</time>
      </trkpt>
      <trkpt lat="45.97788" lon="4.84428">
        <ele>277</ele>
        <time>2018-03-31T09:49:43Z</time>
      </trkpt>
      <trkpt lat="45.97794" lon="4.84425">
        <ele>277</ele>
        <time>2018-03-31T09:49:44Z</time>
      </trkpt>
      <trkpt lat="45.978" lon="4.84423">
        <ele>277</ele>
        <time>2018-03-31T09:49:45Z</time>
      </trkpt>
      <trkpt lat="45.97806" lon="4.84419">
        <ele>277</ele>
        <time>2018-03-31T09:49:46Z</time>
      </trkpt>
      <trkpt lat="45.97812" lon="4.84415">
        <ele>276</ele>
        <time>2018-03-31T09:49:47Z</time>
      </trkpt>
      <trkpt lat="45.97818" lon="4.84412">
        <ele>276</ele>
        <time>2018-03-31T09:49:48Z</time>
      </trkpt>
      <trkpt lat="45.97823" lon="4.84408">
        <ele>276</ele>
        <time>2018-03-31T09:49:49Z</time>
      </trkpt>
      <trkpt lat="45.97828" lon="4.84403">
        <ele>276</ele>
        <time>2018-03-31T09:49:50Z</time>
      </trkpt>
      <trkpt lat="45.97834" lon="4.84398">
        <ele>276</ele>
        <time>2018-03-31T09:49:51Z</time>
      </trkpt>
      <trkpt lat="45.97839" lon="4.84394">
        <ele>276</ele>
        <time>2018-03-31T09:49:52Z</time>
      </trkpt>
      <trkpt lat="45.97845" lon="4.84389">
        <ele>276</ele>
        <time>2018-03-31T09:49:53Z</time>
      </trkpt>
      <trkpt lat="45.97849" lon="4.84383">
        <ele>276</ele>
        <time>2018-03-31T09:49:54Z</time>
      </trkpt>
      <trkpt lat="45.97854" lon="4.84377">
        <ele>276</ele>
        <time>2018-03-31T09:49:55Z</time>
      </trkpt>
      <trkpt lat="45.97857" lon="4.84371">
        <ele>276</ele>
        <time>2018-03-31T09:49:56Z</time>
      </trkpt>
      <trkpt lat="45.97862" lon="4.84366">
        <ele>276</ele>
        <time>2018-03-31T09:49:57Z</time>
      </trkpt>
      <trkpt lat="45.97865" lon="4.8436">
        <ele>276</ele>
        <time>2018-03-31T09:49:58Z</time>
      </trkpt>
      <trkpt lat="45.97869" lon="4.84354">
        <ele>276</ele>
        <time>2018-03-31T09:49:59Z</time>
      </trkpt>
      <trkpt lat="45.97872" lon="4.84348">
        <ele>276</ele>
        <time>2018-03-31T09:50:00Z</time>
      </trkpt>
      <trkpt lat="45.97877" lon="4.84342">
        <ele>275</ele>
        <time>2018-03-31T09:50:01Z</time>
      </trkpt>
      <trkpt lat="45.97881" lon="4.84336">
        <ele>275</ele>
        <time>2018-03-31T09:50:02Z</time>
      </trkpt>
      <trkpt lat="45.97885" lon="4.84329">
        <ele>275</ele>
        <time>2018-03-31T09:50:03Z</time>
      </trkpt>
      <trkpt lat="45.97888" lon="4.84323">
        <ele>275</ele>
        <time>2018-03-31T09:50:04Z</time>
      </trkpt>
      <trkpt lat="45.97892" lon="4.84316">
        <ele>275</ele>
        <time>2018-03-31T09:50:05Z</time>
      </trkpt>
      <trkpt lat="45.97896" lon="4.8431">
        <ele>275</ele>
        <time>2018-03-31T09:50:06Z</time>
      </trkpt>
      <trkpt lat="45.979" lon="4.84305">
        <ele>275</ele>
        <time>2018-03-31T09:50:07Z</time>
      </trkpt>
      <trkpt lat="45.97905" lon="4.84298">
        <ele>275</ele>
        <time>2018-03-31T09:50:08Z</time>
      </trkpt>
      <trkpt lat="45.97909" lon="4.84293">
        <ele>275</ele>
        <time>2018-03-31T09:50:09Z</time>
      </trkpt>
      <trkpt lat="45.97914" lon="4.84287">
        <ele>275</ele>
        <time>2018-03-31T09:50:10Z</time>
      </trkpt>
      <trkpt lat="45.97919" lon="4.8428">
        <ele>275</ele>
        <time>2018-03-31T09:50:11Z</time>
      </trkpt>
      <trkpt lat="45.97924" lon="4.84274">
        <ele>275</ele>
        <time>2018-03-31T09:50:12Z</time>
      </trkpt>
      <trkpt lat="45.97928" lon="4.8427">
        <ele>275</ele>
        <time>2018-03-31T09:50:13Z</time>
      </trkpt>
      <trkpt lat="45.97933" lon="4.84265">
        <ele>275</ele>
        <time>2018-03-31T09:50:14Z</time>
      </trkpt>
      <trkpt lat="45.97937" lon="4.84259">
        <ele>275</ele>
        <time>2018-03-31T09:50:15Z</time>
      </trkpt>
      <trkpt lat="45.97942" lon="4.84255">
        <ele>275</ele>
        <time>2018-03-31T09:50:16Z</time>
      </trkpt>
      <trkpt lat="45.97947" lon="4.8425">
        <ele>275</ele>
        <time>2018-03-31T09:50:17Z</time>
      </trkpt>
      <trkpt lat="45.97952" lon="4.84245">
        <ele>275</ele>
        <time>2018-03-31T09:50:18Z</time>
      </trkpt>
      <trkpt lat="45.97957" lon="4.8424">
        <ele>275</ele>
        <time>2018-03-31T09:50:19Z</time>
      </trkpt>
      <trkpt lat="45.97963" lon="4.84235">
        <ele>274</ele>
        <time>2018-03-31T09:50:20Z</time>
      </trkpt>
      <trkpt lat="45.97968" lon="4.8423">
        <ele>274</ele>
        <time>2018-03-31T09:50:21Z</time>
      </trkpt>
      <trkpt lat="45.97973" lon="4.84225">
        <ele>274</ele>
        <time>2018-03-31T09:50:22Z</time>
      </trkpt>
      <trkpt lat="45.97979" lon="4.8422">
        <ele>274</ele>
        <time>2018-03-31T09:50:23Z</time>
      </trkpt>
      <trkpt lat="45.97984" lon="4.84215">
        <ele>274</ele>
        <time>2018-03-31T09:50:24Z</time>
      </trkpt>
      <trkpt lat="45.9799" lon="4.84209">
        <ele>274</ele>
        <time>2018-03-31T09:50:25Z</time>
      </trkpt>
      <trkpt lat="45.97995" lon="4.84204">
        <ele>274</ele>
        <time>2018-03-31T09:50:26Z</time>
      </trkpt>
      <trkpt lat="45.98" lon="4.84199">
        <ele>274</ele>
        <time>2018-03-31T09:50:27Z</time>
      </trkpt>
      <trkpt lat="45.98006" lon="4.84193">
        <ele>274</ele>
        <time>2018-03-31T09:50:28Z</time>
      </trkpt>
      <trkpt lat="45.98012" lon="4.84188">
        <ele>274</ele>
        <time>2018-03-31T09:50:29Z</time>
      </trkpt>
      <trkpt lat="45.98018" lon="4.84182">
        <ele>274</ele>
        <time>2018-03-31T09:50:30Z</time>
      </trkpt>
      <trkpt lat="45.98024" lon="4.84177">
        <ele>274</ele>
        <time>2018-03-31T09:50:31Z</time>
      </trkpt>
      <trkpt lat="45.98029" lon="4.84174">
        <ele>274</ele>
        <time>2018-03-31T09:50:32Z</time>
      </trkpt>
      <trkpt lat="45.98034" lon="4.84168">
        <ele>273</ele>
        <time>2018-03-31T09:50:33Z</time>
      </trkpt>
      <trkpt lat="45.98038" lon="4.84164">
        <ele>273</ele>
        <time>2018-03-31T09:50:34Z</time>
      </trkpt>
      <trkpt lat="45.98043" lon="4.84159">
        <ele>273</ele>
        <time>2018-03-31T09:50:35Z</time>
      </trkpt>
      <trkpt lat="45.98048" lon="4.84154">
        <ele>273</ele>
        <time>2018-03-31T09:50:36Z</time>
      </trkpt>
      <trkpt lat="45.98052" lon="4.84148">
        <ele>273</ele>
        <time>2018-03-31T09:50:37Z</time>
      </trkpt>
      <trkpt lat="45.98057" lon="4.84142">
        <ele>273</ele>
        <time>2018-03-31T09:50:38Z</time>
      </trkpt>
      <trkpt lat="45.98062" lon="4.84138">
        <ele>273</ele>
        <time>2018-03-31T09:50:39Z</time>
      </trkpt>
      <trkpt lat="45.98068" lon="4.84134">
        <ele>273</ele>
        <time>2018-03-31T09:50:40Z</time>
      </trkpt>
      <trkpt lat="45.98073" lon="4.8413">
        <ele>273</ele>
        <time>2018-03-31T09:50:41Z</time>
      </trkpt>
      <trkpt lat="45.98079" lon="4.84124">
        <ele>273</ele>
        <time>2018-03-31T09:50:42Z</time>
      </trkpt>
      <trkpt lat="45.98084" lon="4.8412">
        <ele>273</ele>
        <time>2018-03-31T09:50:43Z</time>
      </trkpt>
      <trkpt lat="45.98089" lon="4.84115">
        <ele>273</ele>
        <time>2018-03-31T09:50:44Z</time>
      </trkpt>
      <trkpt lat="45.98094" lon="4.8411">
        <ele>273</ele>
        <time>2018-03-31T09:50:45Z</time>
      </trkpt>
      <trkpt lat="45.98098" lon="4.84105">
        <ele>273</ele>
        <time>2018-03-31T09:50:46Z</time>
      </trkpt>
      <trkpt lat="45.98104" lon="4.84099">
        <ele>273</ele>
        <time>2018-03-31T09:50:47Z</time>
      </trkpt>
      <trkpt lat="45.98109" lon="4.84094">
        <ele>273</ele>
        <time>2018-03-31T09:50:48Z</time>
      </trkpt>
      <trkpt lat="45.98114" lon="4.84089">
        <ele>273</ele>
        <time>2018-03-31T09:50:49Z</time>
      </trkpt>
      <trkpt lat="45.98119" lon="4.84084">
        <ele>273</ele>
        <time>2018-03-31T09:50:50Z</time>
      </trkpt>
      <trkpt lat="45.98124" lon="4.84079">
        <ele>273</ele>
        <time>2018-03-31T09:50:51Z</time>
      </trkpt>
      <trkpt lat="45.98129" lon="4.84073">
        <ele>273</ele>
        <time>2018-03-31T09:50:52Z</time>
      </trkpt>
      <trkpt lat="45.98134" lon="4.84068">
        <ele>273</ele>
        <time>2018-03-31T09:50:53Z</time>
      </trkpt>
      <trkpt lat="45.98138" lon="4.84062">
        <ele>273</ele>
        <time>2018-03-31T09:50:54Z</time>
      </trkpt>
      <trkpt lat="45.98143" lon="4.84056">
        <ele>273</ele>
        <time>2018-03-31T09:50:55Z</time>
      </trkpt>
      <trkpt lat="45.98148" lon="4.84049">
        <ele>273</ele>
        <time>2018-03-31T09:50:56Z</time>
      </trkpt>
      <trkpt lat="45.98152" lon="4.84042">
        <ele>273</ele>
        <time>2018-03-31T09:50:57Z</time>
      </trkpt>
      <trkpt lat="45.98157" lon="4.84035">
        <ele>273</ele>
        <time>2018-03-31T09:50:58Z</time>
      </trkpt>
      <trkpt lat="45.98162" lon="4.84027">
        <ele>273</ele>
        <time>2018-03-31T09:50:59Z</time>
      </trkpt>
      <trkpt lat="45.98166" lon="4.8402">
        <ele>273</ele>
        <time>2018-03-31T09:51:00Z</time>
      </trkpt>
      <trkpt lat="45.9817" lon="4.84013">
        <ele>273</ele>
        <time>2018-03-31T09:51:01Z</time>
      </trkpt>
      <trkpt lat="45.98174" lon="4.84005">
        <ele>273</ele>
        <time>2018-03-31T09:51:02Z</time>
      </trkpt>
      <trkpt lat="45.98179" lon="4.83995">
        <ele>273</ele>
        <time>2018-03-31T09:51:03Z</time>
      </trkpt>
      <trkpt lat="45.98183" lon="4.83987">
        <ele>273</ele>
        <time>2018-03-31T09:51:04Z</time>
      </trkpt>
      <trkpt lat="45.98186" lon="4.83978">
        <ele>273</ele>
        <time>2018-03-31T09:51:05Z</time>
      </trkpt>
      <trkpt lat="45.9819" lon="4.83969">
        <ele>273</ele>
        <time>2018-03-31T09:51:06Z</time>
      </trkpt>
      <trkpt lat="45.98194" lon="4.8396">
        <ele>273</ele>
        <time>2018-03-31T09:51:07Z</time>
      </trkpt>
      <trkpt lat="45.98197" lon="4.83951">
        <ele>273</ele>
        <time>2018-03-31T09:51:08Z</time>
      </trkpt>
      <trkpt lat="45.98201" lon="4.83941">
        <ele>273</ele>
        <time>2018-03-31T09:51:09Z</time>
      </trkpt>
      <trkpt lat="45.98205" lon="4.83931">
        <ele>273</ele>
        <time>2018-03-31T09:51:10Z</time>
      </trkpt>
      <trkpt lat="45.98208" lon="4.83922">
        <ele>273</ele>
        <time>2018-03-31T09:51:11Z</time>
      </trkpt>
      <trkpt lat="45.9821" lon="4.83913">
        <ele>273</ele>
        <time>2018-03-31T09:51:12Z</time>
      </trkpt>
      <trkpt lat="45.98213" lon="4.83904">
        <ele>273</ele>
        <time>2018-03-31T09:51:13Z</time>
      </trkpt>
      <trkpt lat="45.98216" lon="4.83896">
        <ele>273</ele>
        <time>2018-03-31T09:51:14Z</time>
      </trkpt>
      <trkpt lat="45.9822" lon="4.83886">
        <ele>272</ele>
        <time>2018-03-31T09:51:15Z</time>
      </trkpt>
      <trkpt lat="45.98224" lon="4.83877">
        <ele>272</ele>
        <time>2018-03-31T09:51:16Z</time>
      </trkpt>
      <trkpt lat="45.98227" lon="4.83868">
        <ele>272</ele>
        <time>2018-03-31T09:51:17Z</time>
      </trkpt>
      <trkpt lat="45.9823" lon="4.83859">
        <ele>272</ele>
        <time>2018-03-31T09:51:18Z</time>
      </trkpt>
      <trkpt lat="45.98233" lon="4.8385">
        <ele>272</ele>
        <time>2018-03-31T09:51:19Z</time>
      </trkpt>
      <trkpt lat="45.98236" lon="4.8384">
        <ele>272</ele>
        <time>2018-03-31T09:51:20Z</time>
      </trkpt>
      <trkpt lat="45.98239" lon="4.83831">
        <ele>272</ele>
        <time>2018-03-31T09:51:21Z</time>
      </trkpt>
      <trkpt lat="45.98242" lon="4.83822">
        <ele>272</ele>
        <time>2018-03-31T09:51:22Z</time>
      </trkpt>
      <trkpt lat="45.98245" lon="4.83813">
        <ele>272</ele>
        <time>2018-03-31T09:51:23Z</time>
      </trkpt>
      <trkpt lat="45.98248" lon="4.83804">
        <ele>272</ele>
        <time>2018-03-31T09:51:24Z</time>
      </trkpt>
      <trkpt lat="45.98251" lon="4.83794">
        <ele>272</ele>
        <time>2018-03-31T09:51:25Z</time>
      </trkpt>
      <trkpt lat="45.98254" lon="4.83784">
        <ele>272</ele>
        <time>2018-03-31T09:51:26Z</time>
      </trkpt>
      <trkpt lat="45.98257" lon="4.83776">
        <ele>272</ele>
        <time>2018-03-31T09:51:27Z</time>
      </trkpt>
      <trkpt lat="45.9826" lon="4.83768">
        <ele>272</ele>
        <time>2018-03-31T09:51:28Z</time>
      </trkpt>
      <trkpt lat="45.98263" lon="4.83759">
        <ele>272</ele>
        <time>2018-03-31T09:51:29Z</time>
      </trkpt>
      <trkpt lat="45.98266" lon="4.8375">
        <ele>272</ele>
        <time>2018-03-31T09:51:30Z</time>
      </trkpt>
      <trkpt lat="45.9827" lon="4.83741">
        <ele>272</ele>
        <time>2018-03-31T09:51:31Z</time>
      </trkpt>
      <trkpt lat="45.98273" lon="4.83731">
        <ele>272</ele>
        <time>2018-03-31T09:51:32Z</time>
      </trkpt>
      <trkpt lat="45.98276" lon="4.83722">
        <ele>272</ele>
        <time>2018-03-31T09:51:33Z</time>
      </trkpt>
      <trkpt lat="45.98279" lon="4.83713">
        <ele>272</ele>
        <time>2018-03-31T09:51:34Z</time>
      </trkpt>
      <trkpt lat="45.98281" lon="4.83704">
        <ele>272</ele>
        <time>2018-03-31T09:51:35Z</time>
      </trkpt>
      <trkpt lat="45.98285" lon="4.83694">
        <ele>272</ele>
        <time>2018-03-31T09:51:36Z</time>
      </trkpt>
      <trkpt lat="45.98289" lon="4.83685">
        <ele>272</ele>
        <time>2018-03-31T09:51:37Z</time>
      </trkpt>
      <trkpt lat="45.98292" lon="4.83676">
        <ele>272</ele>
        <time>2018-03-31T09:51:38Z</time>
      </trkpt>
      <trkpt lat="45.98296" lon="4.83667">
        <ele>272</ele>
        <time>2018-03-31T09:51:39Z</time>
      </trkpt>
      <trkpt lat="45.983" lon="4.83658">
        <ele>271</ele>
        <time>2018-03-31T09:51:40Z</time>
      </trkpt>
      <trkpt lat="45.98305" lon="4.83647">
        <ele>271</ele>
        <time>2018-03-31T09:51:41Z</time>
      </trkpt>
      <trkpt lat="45.98309" lon="4.83639">
        <ele>271</ele>
        <time>2018-03-31T09:51:42Z</time>
      </trkpt>
      <trkpt lat="45.98313" lon="4.83631">
        <ele>271</ele>
        <time>2018-03-31T09:51:43Z</time>
      </trkpt>
      <trkpt lat="45.98318" lon="4.83622">
        <ele>271</ele>
        <time>2018-03-31T09:51:44Z</time>
      </trkpt>
      <trkpt lat="45.98322" lon="4.83613">
        <ele>271</ele>
        <time>2018-03-31T09:51:45Z</time>
      </trkpt>
      <trkpt lat="45.98326" lon="4.83606">
        <ele>271</ele>
        <time>2018-03-31T09:51:46Z</time>
      </trkpt>
      <trkpt lat="45.9833" lon="4.83599">
        <ele>271</ele>
        <time>2018-03-31T09:51:47Z</time>
      </trkpt>
      <trkpt lat="45.98335" lon="4.83592">
        <ele>270</ele>
        <time>2018-03-31T09:51:48Z</time>
      </trkpt>
      <trkpt lat="45.9834" lon="4.83584">
        <ele>270</ele>
        <time>2018-03-31T09:51:49Z</time>
      </trkpt>
      <trkpt lat="45.98346" lon="4.83576">
        <ele>270</ele>
        <time>2018-03-31T09:51:50Z</time>
      </trkpt>
      <trkpt lat="45.98351" lon="4.83568">
        <ele>269</ele>
        <time>2018-03-31T09:51:51Z</time>
      </trkpt>
      <trkpt lat="45.98357" lon="4.83561">
        <ele>269</ele>
        <time>2018-03-31T09:51:52Z</time>
      </trkpt>
      <trkpt lat="45.98363" lon="4.83554">
        <ele>269</ele>
        <time>2018-03-31T09:51:53Z</time>
      </trkpt>
      <trkpt lat="45.98369" lon="4.83546">
        <ele>269</ele>
        <time>2018-03-31T09:51:54Z</time>
      </trkpt>
      <trkpt lat="45.98373" lon="4.8354">
        <ele>269</ele>
        <time>2018-03-31T09:51:55Z</time>
      </trkpt>
      <trkpt lat="45.98379" lon="4.83532">
        <ele>269</ele>
        <time>2018-03-31T09:51:56Z</time>
      </trkpt>
      <trkpt lat="45.98385" lon="4.83525">
        <ele>269</ele>
        <time>2018-03-31T09:51:57Z</time>
      </trkpt>
      <trkpt lat="45.9839" lon="4.83518">
        <ele>269</ele>
        <time>2018-03-31T09:51:58Z</time>
      </trkpt>
      <trkpt lat="45.98396" lon="4.8351">
        <ele>269</ele>
        <time>2018-03-31T09:51:59Z</time>
      </trkpt>
      <trkpt lat="45.98401" lon="4.83503">
        <ele>268</ele>
        <time>2018-03-31T09:52:00Z</time>
      </trkpt>
      <trkpt lat="45.98407" lon="4.83496">
        <ele>268</ele>
        <time>2018-03-31T09:52:01Z</time>
      </trkpt>
      <trkpt lat="45.98412" lon="4.83489">
        <ele>268</ele>
        <time>2018-03-31T09:52:02Z</time>
      </trkpt>
      <trkpt lat="45.98417" lon="4.83482">
        <ele>268</ele>
        <time>2018-03-31T09:52:03Z</time>
      </trkpt>
      <trkpt lat="45.98423" lon="4.83475">
        <ele>268</ele>
        <time>2018-03-31T09:52:04Z</time>
      </trkpt>
      <trkpt lat="45.98428" lon="4.83467">
        <ele>268</ele>
        <time>2018-03-31T09:52:05Z</time>
      </trkpt>
      <trkpt lat="45.98433" lon="4.8346">
        <ele>268</ele>
        <time>2018-03-31T09:52:06Z</time>
      </trkpt>
      <trkpt lat="45.98438" lon="4.83453">
        <ele>268</ele>
        <time>2018-03-31T09:52:07Z</time>
      </trkpt>
      <trkpt lat="45.98443" lon="4.83445">
        <ele>268</ele>
        <time>2018-03-31T09:52:08Z</time>
      </trkpt>
      <trkpt lat="45.98448" lon="4.83438">
        <ele>268</ele>
        <time>2018-03-31T09:52:09Z</time>
      </trkpt>
      <trkpt lat="45.98454" lon="4.83431">
        <ele>268</ele>
        <time>2018-03-31T09:52:10Z</time>
      </trkpt>
      <trkpt lat="45.98459" lon="4.83424">
        <ele>269</ele>
        <time>2018-03-31T09:52:11Z</time>
      </trkpt>
      <trkpt lat="45.98464" lon="4.83418">
        <ele>269</ele>
        <time>2018-03-31T09:52:12Z</time>
      </trkpt>
      <trkpt lat="45.98469" lon="4.83411">
        <ele>269</ele>
        <time>2018-03-31T09:52:13Z</time>
      </trkpt>
      <trkpt lat="45.98474" lon="4.83404">
        <ele>269</ele>
        <time>2018-03-31T09:52:14Z</time>
      </trkpt>
      <trkpt lat="45.98479" lon="4.83397">
        <ele>269</ele>
        <time>2018-03-31T09:52:15Z</time>
      </trkpt>
      <trkpt lat="45.98484" lon="4.83391">
        <ele>269</ele>
        <time>2018-03-31T09:52:16Z</time>
      </trkpt>
      <trkpt lat="45.98488" lon="4.83384">
        <ele>269</ele>
        <time>2018-03-31T09:52:17Z</time>
      </trkpt>
      <trkpt lat="45.98493" lon="4.83377">
        <ele>269</ele>
        <time>2018-03-31T09:52:18Z</time>
      </trkpt>
      <trkpt lat="45.98498" lon="4.83371">
        <ele>270</ele>
        <time>2018-03-31T09:52:19Z</time>
      </trkpt>
      <trkpt lat="45.98503" lon="4.83364">
        <ele>269</ele>
        <time>2018-03-31T09:52:20Z</time>
      </trkpt>
      <trkpt lat="45.98508" lon="4.83359">
        <ele>269</ele>
        <time>2018-03-31T09:52:21Z</time>
      </trkpt>
      <trkpt lat="45.98514" lon="4.83351">
        <ele>270</ele>
        <time>2018-03-31T09:52:22Z</time>
      </trkpt>
      <trkpt lat="45.98519" lon="4.83345">
        <ele>270</ele>
        <time>2018-03-31T09:52:23Z</time>
      </trkpt>
      <trkpt lat="45.98523" lon="4.83339">
        <ele>270</ele>
        <time>2018-03-31T09:52:24Z</time>
      </trkpt>
      <trkpt lat="45.98528" lon="4.83332">
        <ele>269</ele>
        <time>2018-03-31T09:52:25Z</time>
      </trkpt>
      <trkpt lat="45.98532" lon="4.83327">
        <ele>269</ele>
        <time>2018-03-31T09:52:26Z</time>
      </trkpt>
      <trkpt lat="45.98536" lon="4.8332">
        <ele>269</ele>
        <time>2018-03-31T09:52:27Z</time>
      </trkpt>
      <trkpt lat="45.98541" lon="4.83313">
        <ele>269</ele>
        <time>2018-03-31T09:52:28Z</time>
      </trkpt>
      <trkpt lat="45.98546" lon="4.83307">
        <ele>269</ele>
        <time>2018-03-31T09:52:29Z</time>
      </trkpt>
      <trkpt lat="45.9855" lon="4.83301">
        <ele>269</ele>
        <time>2018-03-31T09:52:30Z</time>
      </trkpt>
      <trkpt lat="45.98555" lon="4.83295">
        <ele>269</ele>
        <time>2018-03-31T09:52:31Z</time>
      </trkpt>
      <trkpt lat="45.9856" lon="4.83289">
        <ele>269</ele>
        <time>2018-03-31T09:52:32Z</time>
      </trkpt>
      <trkpt lat="45.98565" lon="4.83283">
        <ele>269</ele>
        <time>2018-03-31T09:52:33Z</time>
      </trkpt>
      <trkpt lat="45.9857" lon="4.83276">
        <ele>269</ele>
        <time>2018-03-31T09:52:34Z</time>
      </trkpt>
      <trkpt lat="45.98576" lon="4.83266">
        <ele>269</ele>
        <time>2018-03-31T09:52:35Z</time>
      </trkpt>
      <trkpt lat="45.98581" lon="4.83259">
        <ele>268</ele>
        <time>2018-03-31T09:52:36Z</time>
      </trkpt>
      <trkpt lat="45.98586" lon="4.83252">
        <ele>268</ele>
        <time>2018-03-31T09:52:37Z</time>
      </trkpt>
      <trkpt lat="45.98591" lon="4.83245">
        <ele>268</ele>
        <time>2018-03-31T09:52:38Z</time>
      </trkpt>
      <trkpt lat="45.98596" lon="4.83239">
        <ele>268</ele>
        <time>2018-03-31T09:52:39Z</time>
      </trkpt>
      <trkpt lat="45.98601" lon="4.83232">
        <ele>268</ele>
        <time>2018-03-31T09:52:40Z</time>
      </trkpt>
      <trkpt lat="45.98606" lon="4.83225">
        <ele>267</ele>
        <time>2018-03-31T09:52:41Z</time>
      </trkpt>
      <trkpt lat="45.98611" lon="4.83219">
        <ele>267</ele>
        <time>2018-03-31T09:52:42Z</time>
      </trkpt>
      <trkpt lat="45.98617" lon="4.83212">
        <ele>267</ele>
        <time>2018-03-31T09:52:43Z</time>
      </trkpt>
      <trkpt lat="45.98624" lon="4.83203">
        <ele>267</ele>
        <time>2018-03-31T09:52:44Z</time>
      </trkpt>
      <trkpt lat="45.9863" lon="4.83197">
        <ele>267</ele>
        <time>2018-03-31T09:52:45Z</time>
      </trkpt>
      <trkpt lat="45.98636" lon="4.83191">
        <ele>267</ele>
        <time>2018-03-31T09:52:46Z</time>
      </trkpt>
      <trkpt lat="45.98643" lon="4.83183">
        <ele>267</ele>
        <time>2018-03-31T09:52:47Z</time>
      </trkpt>
      <trkpt lat="45.98649" lon="4.83177">
        <ele>267</ele>
        <time>2018-03-31T09:52:48Z</time>
      </trkpt>
      <trkpt lat="45.98657" lon="4.8317">
        <ele>266</ele>
        <time>2018-03-31T09:52:49Z</time>
      </trkpt>
      <trkpt lat="45.98663" lon="4.83165">
        <ele>266</ele>
        <time>2018-03-31T09:52:50Z</time>
      </trkpt>
      <trkpt lat="45.9867" lon="4.8316">
        <ele>266</ele>
        <time>2018-03-31T09:52:51Z</time>
      </trkpt>
      <trkpt lat="45.98677" lon="4.83154">
        <ele>266</ele>
        <time>2018-03-31T09:52:52Z</time>
      </trkpt>
      <trkpt lat="45.98683" lon="4.8315">
        <ele>266</ele>
        <time>2018-03-31T09:52:53Z</time>
      </trkpt>
      <trkpt lat="45.98689" lon="4.83145">
        <ele>266</ele>
        <time>2018-03-31T09:52:54Z</time>
      </trkpt>
      <trkpt lat="45.98695" lon="4.8314">
        <ele>266</ele>
        <time>2018-03-31T09:52:55Z</time>
      </trkpt>
      <trkpt lat="45.98702" lon="4.83134">
        <ele>266</ele>
        <time>2018-03-31T09:52:56Z</time>
      </trkpt>
      <trkpt lat="45.98708" lon="4.8313">
        <ele>266</ele>
        <time>2018-03-31T09:52:57Z</time>
      </trkpt>
      <trkpt lat="45.98715" lon="4.83124">
        <ele>266</ele>
        <time>2018-03-31T09:52:58Z</time>
      </trkpt>
      <trkpt lat="45.98721" lon="4.83119">
        <ele>267</ele>
        <time>2018-03-31T09:52:59Z</time>
      </trkpt>
      <trkpt lat="45.98727" lon="4.83113">
        <ele>267</ele>
        <time>2018-03-31T09:53:00Z</time>
      </trkpt>
      <trkpt lat="45.98733" lon="4.83108">
        <ele>267</ele>
        <time>2018-03-31T09:53:01Z</time>
      </trkpt>
      <trkpt lat="45.98738" lon="4.83102">
        <ele>267</ele>
        <time>2018-03-31T09:53:02Z</time>
      </trkpt>
      <trkpt lat="45.98745" lon="4.83096">
        <ele>267</ele>
        <time>2018-03-31T09:53:03Z</time>
      </trkpt>
      <trkpt lat="45.98752" lon="4.83092">
        <ele>266</ele>
        <time>2018-03-31T09:53:04Z</time>
      </trkpt>
      <trkpt lat="45.98758" lon="4.83086">
        <ele>266</ele>
        <time>2018-03-31T09:53:05Z</time>
      </trkpt>
      <trkpt lat="45.98765" lon="4.8308">
        <ele>266</ele>
        <time>2018-03-31T09:53:06Z</time>
      </trkpt>
      <trkpt lat="45.98771" lon="4.83074">
        <ele>266</ele>
        <time>2018-03-31T09:53:07Z</time>
      </trkpt>
      <trkpt lat="45.98779" lon="4.83069">
        <ele>265</ele>
        <time>2018-03-31T09:53:08Z</time>
      </trkpt>
      <trkpt lat="45.98786" lon="4.83063">
        <ele>265</ele>
        <time>2018-03-31T09:53:09Z</time>
      </trkpt>
      <trkpt lat="45.98793" lon="4.83054">
        <ele>265</ele>
        <time>2018-03-31T09:53:10Z</time>
      </trkpt>
      <trkpt lat="45.98801" lon="4.83046">
        <ele>264</ele>
        <time>2018-03-31T09:53:11Z</time>
      </trkpt>
      <trkpt lat="45.98809" lon="4.8304">
        <ele>264</ele>
        <time>2018-03-31T09:53:12Z</time>
      </trkpt>
      <trkpt lat="45.98816" lon="4.83034">
        <ele>264</ele>
        <time>2018-03-31T09:53:13Z</time>
      </trkpt>
      <trkpt lat="45.98823" lon="4.83028">
        <ele>264</ele>
        <time>2018-03-31T09:53:14Z</time>
      </trkpt>
      <trkpt lat="45.98831" lon="4.83022">
        <ele>264</ele>
        <time>2018-03-31T09:53:15Z</time>
      </trkpt>
      <trkpt lat="45.98839" lon="4.83017">
        <ele>261</ele>
        <time>2018-03-31T09:53:16Z</time>
      </trkpt>
      <trkpt lat="45.98847" lon="4.83011">
        <ele>261</ele>
        <time>2018-03-31T09:53:17Z</time>
      </trkpt>
      <trkpt lat="45.98856" lon="4.83005">
        <ele>261</ele>
        <time>2018-03-31T09:53:18Z</time>
      </trkpt>
      <trkpt lat="45.98864" lon="4.83">
        <ele>260</ele>
        <time>2018-03-31T09:53:19Z</time>
      </trkpt>
      <trkpt lat="45.98873" lon="4.82995">
        <ele>260</ele>
        <time>2018-03-31T09:53:20Z</time>
      </trkpt>
      <trkpt lat="45.98883" lon="4.82987">
        <ele>259</ele>
        <time>2018-03-31T09:53:21Z</time>
      </trkpt>
      <trkpt lat="45.98893" lon="4.8298">
        <ele>259</ele>
        <time>2018-03-31T09:53:22Z</time>
      </trkpt>
      <trkpt lat="45.98902" lon="4.82972">
        <ele>259</ele>
        <time>2018-03-31T09:53:23Z</time>
      </trkpt>
      <trkpt lat="45.9891" lon="4.82963">
        <ele>258</ele>
        <time>2018-03-31T09:53:24Z</time>
      </trkpt>
      <trkpt lat="45.98918" lon="4.82951">
        <ele>255</ele>
        <time>2018-03-31T09:53:25Z</time>
      </trkpt>
      <trkpt lat="45.98924" lon="4.82938">
        <ele>255</ele>
        <time>2018-03-31T09:53:26Z</time>
      </trkpt>
      <trkpt lat="45.98931" lon="4.82922">
        <ele>255</ele>
        <time>2018-03-31T09:53:27Z</time>
      </trkpt>
      <trkpt lat="45.98938" lon="4.82908">
        <ele>254</ele>
        <time>2018-03-31T09:53:28Z</time>
      </trkpt>
      <trkpt lat="45.98944" lon="4.82893">
        <ele>253</ele>
        <time>2018-03-31T09:53:29Z</time>
      </trkpt>
      <trkpt lat="45.98951" lon="4.82877">
        <ele>253</ele>
        <time>2018-03-31T09:53:30Z</time>
      </trkpt>
      <trkpt lat="45.98958" lon="4.82861">
        <ele>252</ele>
        <time>2018-03-31T09:53:31Z</time>
      </trkpt>
      <trkpt lat="45.98965" lon="4.82845">
        <ele>252</ele>
        <time>2018-03-31T09:53:32Z</time>
      </trkpt>
      <trkpt lat="45.98971" lon="4.82829">
        <ele>249</ele>
        <time>2018-03-31T09:53:33Z</time>
      </trkpt>
      <trkpt lat="45.98978" lon="4.82814">
        <ele>248</ele>
        <time>2018-03-31T09:53:34Z</time>
      </trkpt>
      <trkpt lat="45.98985" lon="4.82798">
        <ele>248</ele>
        <time>2018-03-31T09:53:35Z</time>
      </trkpt>
      <trkpt lat="45.98991" lon="4.82783">
        <ele>247</ele>
        <time>2018-03-31T09:53:36Z</time>
      </trkpt>
      <trkpt lat="45.99" lon="4.82766">
        <ele>244</ele>
        <time>2018-03-31T09:53:37Z</time>
      </trkpt>
      <trkpt lat="45.99006" lon="4.8275">
        <ele>241</ele>
        <time>2018-03-31T09:53:38Z</time>
      </trkpt>
      <trkpt lat="45.99013" lon="4.82735">
        <ele>239</ele>
        <time>2018-03-31T09:53:39Z</time>
      </trkpt>
      <trkpt lat="45.99019" lon="4.8272">
        <ele>239</ele>
        <time>2018-03-31T09:53:40Z</time>
      </trkpt>
      <trkpt lat="45.99026" lon="4.82704">
        <ele>238</ele>
        <time>2018-03-31T09:53:41Z</time>
      </trkpt>
      <trkpt lat="45.99033" lon="4.82688">
        <ele>238</ele>
        <time>2018-03-31T09:53:42Z</time>
      </trkpt>
      <trkpt lat="45.99039" lon="4.82673">
        <ele>238</ele>
        <time>2018-03-31T09:53:43Z</time>
      </trkpt>
      <trkpt lat="45.99045" lon="4.82659">
        <ele>236</ele>
        <time>2018-03-31T09:53:44Z</time>
      </trkpt>
      <trkpt lat="45.9905" lon="4.82646">
        <ele>236</ele>
        <time>2018-03-31T09:53:45Z</time>
      </trkpt>
      <trkpt lat="45.99055" lon="4.82634">
        <ele>236</ele>
        <time>2018-03-31T09:53:46Z</time>
      </trkpt>
      <trkpt lat="45.9906" lon="4.82622">
        <ele>236</ele>
        <time>2018-03-31T09:53:47Z</time>
      </trkpt>
      <trkpt lat="45.99063" lon="4.82614">
        <ele>236</ele>
        <time>2018-03-31T09:53:48Z</time>
      </trkpt>
      <trkpt lat="45.99068" lon="4.82604">
        <ele>236</ele>
        <time>2018-03-31T09:53:49Z</time>
      </trkpt>
      <trkpt lat="45.9907" lon="4.82598">
        <ele>235</ele>
        <time>2018-03-31T09:53:50Z</time>
      </trkpt>
      <trkpt lat="45.99071" lon="4.82591">
        <ele>235</ele>
        <time>2018-03-31T09:53:51Z</time>
      </trkpt>
      <trkpt lat="45.99071" lon="4.82583">
        <ele>235</ele>
        <time>2018-03-31T09:53:52Z</time>
      </trkpt>
      <trkpt lat="45.9907" lon="4.82578">
        <ele>235</ele>
        <time>2018-03-31T09:53:53Z</time>
      </trkpt>
      <trkpt lat="45.99068" lon="4.82571">
        <ele>235</ele>
        <time>2018-03-31T09:53:54Z</time>
      </trkpt>
      <trkpt lat="45.99064" lon="4.82568">
        <ele>235</ele>
        <time>2018-03-31T09:53:55Z</time>
      </trkpt>
      <trkpt lat="45.99059" lon="4.82565">
        <ele>235</ele>
        <time>2018-03-31T09:53:56Z</time>
      </trkpt>
      <trkpt lat="45.99053" lon="4.82564">
        <ele>235</ele>
        <time>2018-03-31T09:53:57Z</time>
      </trkpt>
      <trkpt lat="45.99048" lon="4.82563">
        <ele>235</ele>
        <time>2018-03-31T09:53:58Z</time>
      </trkpt>
      <trkpt lat="45.99044" lon="4.82561">
        <ele>235</ele>
        <time>2018-03-31T09:53:59Z</time>
      </trkpt>
      <trkpt lat="45.99036" lon="4.82557">
        <ele>235</ele>
        <time>2018-03-31T09:54:01Z</time>
      </trkpt>
      <trkpt lat="45.99034" lon="4.82556">
        <ele>235</ele>
        <time>2018-03-31T09:54:02Z</time>
      </trkpt>
      <trkpt lat="45.9903" lon="4.82551">
        <ele>235</ele>
        <time>2018-03-31T09:54:03Z</time>
      </trkpt>
      <trkpt lat="45.99027" lon="4.82547">
        <ele>235</ele>
        <time>2018-03-31T09:54:04Z</time>
      </trkpt>
      <trkpt lat="45.99021" lon="4.82539">
        <ele>235</ele>
        <time>2018-03-31T09:54:06Z</time>
      </trkpt>
      <trkpt lat="45.99016" lon="4.82534">
        <ele>235</ele>
        <time>2018-03-31T09:54:07Z</time>
      </trkpt>
      <trkpt lat="45.99014" lon="4.82528">
        <ele>235</ele>
        <time>2018-03-31T09:54:08Z</time>
      </trkpt>
      <trkpt lat="45.9901" lon="4.82524">
        <ele>235</ele>
        <time>2018-03-31T09:54:09Z</time>
      </trkpt>
      <trkpt lat="45.99007" lon="4.82518">
        <ele>235</ele>
        <time>2018-03-31T09:54:10Z</time>
      </trkpt>
      <trkpt lat="45.99005" lon="4.82511">
        <ele>235</ele>
        <time>2018-03-31T09:54:11Z</time>
      </trkpt>
      <trkpt lat="45.99002" lon="4.82505">
        <ele>235</ele>
        <time>2018-03-31T09:54:12Z</time>
      </trkpt>
      <trkpt lat="45.99" lon="4.82498">
        <ele>235</ele>
        <time>2018-03-31T09:54:13Z</time>
      </trkpt>
      <trkpt lat="45.98998" lon="4.82493">
        <ele>235</ele>
        <time>2018-03-31T09:54:14Z</time>
      </trkpt>
      <trkpt lat="45.98995" lon="4.82487">
        <ele>236</ele>
        <time>2018-03-31T09:54:15Z</time>
      </trkpt>
      <trkpt lat="45.98991" lon="4.8248">
        <ele>236</ele>
        <time>2018-03-31T09:54:16Z</time>
      </trkpt>
      <trkpt lat="45.98989" lon="4.82474">
        <ele>236</ele>
        <time>2018-03-31T09:54:17Z</time>
      </trkpt>
      <trkpt lat="45.98986" lon="4.82466">
        <ele>236</ele>
        <time>2018-03-31T09:54:18Z</time>
      </trkpt>
      <trkpt lat="45.98984" lon="4.82459">
        <ele>236</ele>
        <time>2018-03-31T09:54:19Z</time>
      </trkpt>
      <trkpt lat="45.98982" lon="4.82453">
        <ele>236</ele>
        <time>2018-03-31T09:54:20Z</time>
      </trkpt>
      <trkpt lat="45.98982" lon="4.82446">
        <ele>236</ele>
        <time>2018-03-31T09:54:21Z</time>
      </trkpt>
      <trkpt lat="45.98979" lon="4.82441">
        <ele>236</ele>
        <time>2018-03-31T09:54:22Z</time>
      </trkpt>
      <trkpt lat="45.98977" lon="4.82432">
        <ele>236</ele>
        <time>2018-03-31T09:54:23Z</time>
      </trkpt>
      <trkpt lat="45.98976" lon="4.82426">
        <ele>236</ele>
        <time>2018-03-31T09:54:24Z</time>
      </trkpt>
      <trkpt lat="45.98974" lon="4.82418">
        <ele>236</ele>
        <time>2018-03-31T09:54:25Z</time>
      </trkpt>
      <trkpt lat="45.98973" lon="4.82411">
        <ele>235</ele>
        <time>2018-03-31T09:54:26Z</time>
      </trkpt>
      <trkpt lat="45.9897" lon="4.82404">
        <ele>235</ele>
        <time>2018-03-31T09:54:27Z</time>
      </trkpt>
      <trkpt lat="45.98969" lon="4.82397">
        <ele>235</ele>
        <time>2018-03-31T09:54:28Z</time>
      </trkpt>
      <trkpt lat="45.98967" lon="4.82391">
        <ele>235</ele>
        <time>2018-03-31T09:54:29Z</time>
      </trkpt>
      <trkpt lat="45.98965" lon="4.82384">
        <ele>235</ele>
        <time>2018-03-31T09:54:30Z</time>
      </trkpt>
      <trkpt lat="45.98963" lon="4.82377">
        <ele>235</ele>
        <time>2018-03-31T09:54:31Z</time>
      </trkpt>
      <trkpt lat="45.98961" lon="4.82371">
        <ele>235</ele>
        <time>2018-03-31T09:54:32Z</time>
      </trkpt>
      <trkpt lat="45.9896" lon="4.82363">
        <ele>235</ele>
        <time>2018-03-31T09:54:33Z</time>
      </trkpt>
      <trkpt lat="45.98958" lon="4.82356">
        <ele>235</ele>
        <time>2018-03-31T09:54:34Z</time>
      </trkpt>
      <trkpt lat="45.98954" lon="4.82349">
        <ele>235</ele>
        <time>2018-03-31T09:54:35Z</time>
      </trkpt>
      <trkpt lat="45.98952" lon="4.82343">
        <ele>235</ele>
        <time>2018-03-31T09:54:36Z</time>
      </trkpt>
      <trkpt lat="45.9895" lon="4.82335">
        <ele>235</ele>
        <time>2018-03-31T09:54:37Z</time>
      </trkpt>
      <trkpt lat="45.98947" lon="4.82329">
        <ele>234</ele>
        <time>2018-03-31T09:54:38Z</time>
      </trkpt>
      <trkpt lat="45.98943" lon="4.82324">
        <ele>234</ele>
        <time>2018-03-31T09:54:39Z</time>
      </trkpt>
      <trkpt lat="45.98939" lon="4.8232">
        <ele>234</ele>
        <time>2018-03-31T09:54:40Z</time>
      </trkpt>
      <trkpt lat="45.98935" lon="4.82315">
        <ele>234</ele>
        <time>2018-03-31T09:54:41Z</time>
      </trkpt>
      <trkpt lat="45.98931" lon="4.82311">
        <ele>234</ele>
        <time>2018-03-31T09:54:42Z</time>
      </trkpt>
      <trkpt lat="45.98927" lon="4.82306">
        <ele>234</ele>
        <time>2018-03-31T09:54:43Z</time>
      </trkpt>
      <trkpt lat="45.98924" lon="4.82302">
        <ele>234</ele>
        <time>2018-03-31T09:54:44Z</time>
      </trkpt>
      <trkpt lat="45.98919" lon="4.82298">
        <ele>234</ele>
        <time>2018-03-31T09:54:45Z</time>
      </trkpt>
      <trkpt lat="45.98915" lon="4.82293">
        <ele>236</ele>
        <time>2018-03-31T09:54:46Z</time>
      </trkpt>
      <trkpt lat="45.9891" lon="4.82288">
        <ele>236</ele>
        <time>2018-03-31T09:54:47Z</time>
      </trkpt>
      <trkpt lat="45.98907" lon="4.82283">
        <ele>236</ele>
        <time>2018-03-31T09:54:48Z</time>
      </trkpt>
      <trkpt lat="45.98904" lon="4.82279">
        <ele>236</ele>
        <time>2018-03-31T09:54:49Z</time>
      </trkpt>
      <trkpt lat="45.98899" lon="4.82273">
        <ele>236</ele>
        <time>2018-03-31T09:54:50Z</time>
      </trkpt>
      <trkpt lat="45.98896" lon="4.82268">
        <ele>236</ele>
        <time>2018-03-31T09:54:51Z</time>
      </trkpt>
      <trkpt lat="45.98893" lon="4.82263">
        <ele>236</ele>
        <time>2018-03-31T09:54:52Z</time>
      </trkpt>
      <trkpt lat="45.98889" lon="4.82258">
        <ele>236</ele>
        <time>2018-03-31T09:54:53Z</time>
      </trkpt>
      <trkpt lat="45.98886" lon="4.82252">
        <ele>236</ele>
        <time>2018-03-31T09:54:54Z</time>
      </trkpt>
      <trkpt lat="45.98883" lon="4.82247">
        <ele>236</ele>
        <time>2018-03-31T09:54:55Z</time>
      </trkpt>
      <trkpt lat="45.98879" lon="4.82241">
        <ele>236</ele>
        <time>2018-03-31T09:54:56Z</time>
      </trkpt>
      <trkpt lat="45.98876" lon="4.82234">
        <ele>236</ele>
        <time>2018-03-31T09:54:57Z</time>
      </trkpt>
      <trkpt lat="45.98874" lon="4.82228">
        <ele>236</ele>
        <time>2018-03-31T09:54:58Z</time>
      </trkpt>
      <trkpt lat="45.98871" lon="4.82222">
        <ele>236</ele>
        <time>2018-03-31T09:54:59Z</time>
      </trkpt>
      <trkpt lat="45.98868" lon="4.82215">
        <ele>236</ele>
        <time>2018-03-31T09:55:00Z</time>
      </trkpt>
      <trkpt lat="45.98866" lon="4.82208">
        <ele>236</ele>
        <time>2018-03-31T09:55:01Z</time>
      </trkpt>
      <trkpt lat="45.98862" lon="4.82201">
        <ele>236</ele>
        <time>2018-03-31T09:55:02Z</time>
      </trkpt>
      <trkpt lat="45.98859" lon="4.82193">
        <ele>236</ele>
        <time>2018-03-31T09:55:03Z</time>
      </trkpt>
      <trkpt lat="45.98857" lon="4.82185">
        <ele>236</ele>
        <time>2018-03-31T09:55:04Z</time>
      </trkpt>
      <trkpt lat="45.98853" lon="4.82178">
        <ele>236</ele>
        <time>2018-03-31T09:55:05Z</time>
      </trkpt>
      <trkpt lat="45.98851" lon="4.82171">
        <ele>236</ele>
        <time>2018-03-31T09:55:06Z</time>
      </trkpt>
      <trkpt lat="45.9885" lon="4.82164">
        <ele>236</ele>
        <time>2018-03-31T09:55:07Z</time>
      </trkpt>
      <trkpt lat="45.98849" lon="4.82156">
        <ele>236</ele>
        <time>2018-03-31T09:55:08Z</time>
      </trkpt>
      <trkpt lat="45.98847" lon="4.82148">
        <ele>236</ele>
        <time>2018-03-31T09:55:09Z</time>
      </trkpt>
      <trkpt lat="45.98845" lon="4.8214">
        <ele>236</ele>
        <time>2018-03-31T09:55:10Z</time>
      </trkpt>
      <trkpt lat="45.98844" lon="4.82131">
        <ele>236</ele>
        <time>2018-03-31T09:55:11Z</time>
      </trkpt>
      <trkpt lat="45.98842" lon="4.82123">
        <ele>235</ele>
        <time>2018-03-31T09:55:12Z</time>
      </trkpt>
      <trkpt lat="45.98841" lon="4.82115">
        <ele>235</ele>
        <time>2018-03-31T09:55:13Z</time>
      </trkpt>
      <trkpt lat="45.9884" lon="4.82107">
        <ele>235</ele>
        <time>2018-03-31T09:55:14Z</time>
      </trkpt>
      <trkpt lat="45.98838" lon="4.82099">
        <ele>236</ele>
        <time>2018-03-31T09:55:15Z</time>
      </trkpt>
      <trkpt lat="45.98836" lon="4.82092">
        <ele>236</ele>
        <time>2018-03-31T09:55:16Z</time>
      </trkpt>
      <trkpt lat="45.98835" lon="4.82084">
        <ele>236</ele>
        <time>2018-03-31T09:55:17Z</time>
      </trkpt>
      <trkpt lat="45.98833" lon="4.82076">
        <ele>236</ele>
        <time>2018-03-31T09:55:18Z</time>
      </trkpt>
      <trkpt lat="45.98832" lon="4.82069">
        <ele>237</ele>
        <time>2018-03-31T09:55:19Z</time>
      </trkpt>
      <trkpt lat="45.98831" lon="4.82061">
        <ele>237</ele>
        <time>2018-03-31T09:55:20Z</time>
      </trkpt>
      <trkpt lat="45.9883" lon="4.82054">
        <ele>237</ele>
        <time>2018-03-31T09:55:21Z</time>
      </trkpt>
      <trkpt lat="45.98829" lon="4.82047">
        <ele>238</ele>
        <time>2018-03-31T09:55:22Z</time>
      </trkpt>
      <trkpt lat="45.98827" lon="4.8204">
        <ele>238</ele>
        <time>2018-03-31T09:55:23Z</time>
      </trkpt>
      <trkpt lat="45.98827" lon="4.82033">
        <ele>238</ele>
        <time>2018-03-31T09:55:24Z</time>
      </trkpt>
      <trkpt lat="45.98826" lon="4.82026">
        <ele>238</ele>
        <time>2018-03-31T09:55:25Z</time>
      </trkpt>
      <trkpt lat="45.98825" lon="4.82018">
        <ele>238</ele>
        <time>2018-03-31T09:55:26Z</time>
      </trkpt>
      <trkpt lat="45.98824" lon="4.8201">
        <ele>238</ele>
        <time>2018-03-31T09:55:27Z</time>
      </trkpt>
      <trkpt lat="45.98823" lon="4.82002">
        <ele>238</ele>
        <time>2018-03-31T09:55:28Z</time>
      </trkpt>
      <trkpt lat="45.98822" lon="4.81995">
        <ele>238</ele>
        <time>2018-03-31T09:55:29Z</time>
      </trkpt>
      <trkpt lat="45.98821" lon="4.81987">
        <ele>238</ele>
        <time>2018-03-31T09:55:30Z</time>
      </trkpt>
      <trkpt lat="45.9882" lon="4.81979">
        <ele>239</ele>
        <time>2018-03-31T09:55:31Z</time>
      </trkpt>
      <trkpt lat="45.98818" lon="4.81971">
        <ele>239</ele>
        <time>2018-03-31T09:55:32Z</time>
      </trkpt>
      <trkpt lat="45.98817" lon="4.81963">
        <ele>239</ele>
        <time>2018-03-31T09:55:33Z</time>
      </trkpt>
      <trkpt lat="45.98816" lon="4.81955">
        <ele>239</ele>
        <time>2018-03-31T09:55:34Z</time>
      </trkpt>
      <trkpt lat="45.98815" lon="4.81948">
        <ele>239</ele>
        <time>2018-03-31T09:55:35Z</time>
      </trkpt>
      <trkpt lat="45.98813" lon="4.8194">
        <ele>239</ele>
        <time>2018-03-31T09:55:36Z</time>
      </trkpt>
      <trkpt lat="45.98812" lon="4.81931">
        <ele>239</ele>
        <time>2018-03-31T09:55:37Z</time>
      </trkpt>
      <trkpt lat="45.98811" lon="4.81924">
        <ele>239</ele>
        <time>2018-03-31T09:55:38Z</time>
      </trkpt>
      <trkpt lat="45.98809" lon="4.81916">
        <ele>239</ele>
        <time>2018-03-31T09:55:39Z</time>
      </trkpt>
      <trkpt lat="45.98807" lon="4.81908">
        <ele>239</ele>
        <time>2018-03-31T09:55:40Z</time>
      </trkpt>
      <trkpt lat="45.98806" lon="4.819">
        <ele>239</ele>
        <time>2018-03-31T09:55:41Z</time>
      </trkpt>
      <trkpt lat="45.98805" lon="4.81892">
        <ele>239</ele>
        <time>2018-03-31T09:55:42Z</time>
      </trkpt>
      <trkpt lat="45.98803" lon="4.81884">
        <ele>239</ele>
        <time>2018-03-31T09:55:43Z</time>
      </trkpt>
      <trkpt lat="45.98801" lon="4.81877">
        <ele>239</ele>
        <time>2018-03-31T09:55:44Z</time>
      </trkpt>
      <trkpt lat="45.98799" lon="4.81871">
        <ele>239</ele>
        <time>2018-03-31T09:55:45Z</time>
      </trkpt>
      <trkpt lat="45.98796" lon="4.81863">
        <ele>239</ele>
        <time>2018-03-31T09:55:48Z</time>
      </trkpt>
      <trkpt lat="45.9879" lon="4.81854">
        <ele>239</ele>
        <time>2018-03-31T09:55:49Z</time>
      </trkpt>
      <trkpt lat="45.98787" lon="4.81847">
        <ele>239</ele>
        <time>2018-03-31T09:55:50Z</time>
      </trkpt>
      <trkpt lat="45.98784" lon="4.8184">
        <ele>239</ele>
        <time>2018-03-31T09:55:51Z</time>
      </trkpt>
      <trkpt lat="45.98781" lon="4.8183">
        <ele>240</ele>
        <time>2018-03-31T09:55:52Z</time>
      </trkpt>
      <trkpt lat="45.98778" lon="4.81824">
        <ele>240</ele>
        <time>2018-03-31T09:55:53Z</time>
      </trkpt>
      <trkpt lat="45.98774" lon="4.81817">
        <ele>240</ele>
        <time>2018-03-31T09:55:54Z</time>
      </trkpt>
      <trkpt lat="45.9877" lon="4.8181">
        <ele>240</ele>
        <time>2018-03-31T09:55:55Z</time>
      </trkpt>
      <trkpt lat="45.98767" lon="4.81804">
        <ele>240</ele>
        <time>2018-03-31T09:55:56Z</time>
      </trkpt>
      <trkpt lat="45.98764" lon="4.81798">
        <ele>240</ele>
        <time>2018-03-31T09:55:57Z</time>
      </trkpt>
      <trkpt lat="45.9876" lon="4.8179">
        <ele>241</ele>
        <time>2018-03-31T09:56:00Z</time>
      </trkpt>
      <trkpt lat="45.98756" lon="4.8178">
        <ele>241</ele>
        <time>2018-03-31T09:56:01Z</time>
      </trkpt>
      <trkpt lat="45.98752" lon="4.81769">
        <ele>241</ele>
        <time>2018-03-31T09:56:03Z</time>
      </trkpt>
      <trkpt lat="45.98748" lon="4.81763">
        <ele>240</ele>
        <time>2018-03-31T09:56:04Z</time>
      </trkpt>
      <trkpt lat="45.98744" lon="4.81759">
        <ele>240</ele>
        <time>2018-03-31T09:56:05Z</time>
      </trkpt>
      <trkpt lat="45.98741" lon="4.81751">
        <ele>240</ele>
        <time>2018-03-31T09:56:06Z</time>
      </trkpt>
      <trkpt lat="45.98737" lon="4.81742">
        <ele>240</ele>
        <time>2018-03-31T09:56:09Z</time>
      </trkpt>
      <trkpt lat="45.98736" lon="4.8174">
        <ele>240</ele>
        <time>2018-03-31T09:56:10Z</time>
      </trkpt>
      <trkpt lat="45.9873" lon="4.81731">
        <ele>239</ele>
        <time>2018-03-31T09:56:18Z</time>
      </trkpt>
      <trkpt lat="45.9873" lon="4.8173">
        <ele>239</ele>
        <time>2018-03-31T09:56:19Z</time>
      </trkpt>
      <trkpt lat="45.98729" lon="4.8173">
        <ele>239</ele>
        <time>2018-03-31T09:56:20Z</time>
      </trkpt>
      <trkpt lat="45.9872" lon="4.81729">
        <ele>239</ele>
        <time>2018-03-31T09:57:54Z</time>
      </trkpt>
      <trkpt lat="45.98718" lon="4.81729">
        <ele>239</ele>
        <time>2018-03-31T09:57:55Z</time>
      </trkpt>
      <trkpt lat="45.98709" lon="4.81729">
        <ele>239</ele>
        <time>2018-03-31T09:57:58Z</time>
      </trkpt>
      <trkpt lat="45.98706" lon="4.8173">
        <ele>239</ele>
        <time>2018-03-31T09:57:59Z</time>
      </trkpt>
      <trkpt lat="45.987" lon="4.81732">
        <ele>239</ele>
        <time>2018-03-31T09:58:01Z</time>
      </trkpt>
      <trkpt lat="45.9869" lon="4.81735">
        <ele>238</ele>
        <time>2018-03-31T09:58:02Z</time>
      </trkpt>
      <trkpt lat="45.98682" lon="4.81737">
        <ele>238</ele>
        <time>2018-03-31T09:58:07Z</time>
      </trkpt>
      <trkpt lat="45.9868" lon="4.81737">
        <ele>238</ele>
        <time>2018-03-31T09:58:08Z</time>
      </trkpt>
      <trkpt lat="45.98671" lon="4.81739">
        <ele>238</ele>
        <time>2018-03-31T09:58:09Z</time>
      </trkpt>
      <trkpt lat="45.98662" lon="4.81742">
        <ele>238</ele>
        <time>2018-03-31T09:58:10Z</time>
      </trkpt>
      <trkpt lat="45.98657" lon="4.81744">
        <ele>237</ele>
        <time>2018-03-31T09:58:11Z</time>
      </trkpt>
      <trkpt lat="45.98651" lon="4.81745">
        <ele>237</ele>
        <time>2018-03-31T09:58:12Z</time>
      </trkpt>
      <trkpt lat="45.98646" lon="4.81747">
        <ele>237</ele>
        <time>2018-03-31T09:58:13Z</time>
      </trkpt>
      <trkpt lat="45.9864" lon="4.81748">
        <ele>237</ele>
        <time>2018-03-31T09:58:14Z</time>
      </trkpt>
      <trkpt lat="45.98633" lon="4.8175">
        <ele>238</ele>
        <time>2018-03-31T09:58:15Z</time>
      </trkpt>
      <trkpt lat="45.98628" lon="4.81752">
        <ele>238</ele>
        <time>2018-03-31T09:58:16Z</time>
      </trkpt>
      <trkpt lat="45.98623" lon="4.81754">
        <ele>238</ele>
        <time>2018-03-31T09:58:17Z</time>
      </trkpt>
      <trkpt lat="45.98618" lon="4.81757">
        <ele>238</ele>
        <time>2018-03-31T09:58:18Z</time>
      </trkpt>
      <trkpt lat="45.98612" lon="4.81759">
        <ele>238</ele>
        <time>2018-03-31T09:58:19Z</time>
      </trkpt>
      <trkpt lat="45.98607" lon="4.81761">
        <ele>238</ele>
        <time>2018-03-31T09:58:20Z</time>
      </trkpt>
      <trkpt lat="45.98601" lon="4.81763">
        <ele>238</ele>
        <time>2018-03-31T09:58:21Z</time>
      </trkpt>
      <trkpt lat="45.98595" lon="4.81766">
        <ele>238</ele>
        <time>2018-03-31T09:58:22Z</time>
      </trkpt>
      <trkpt lat="45.9859" lon="4.8177">
        <ele>238</ele>
        <time>2018-03-31T09:58:23Z</time>
      </trkpt>
      <trkpt lat="45.98587" lon="4.81774">
        <ele>238</ele>
        <time>2018-03-31T09:58:24Z</time>
      </trkpt>
      <trkpt lat="45.98582" lon="4.81778">
        <ele>238</ele>
        <time>2018-03-31T09:58:25Z</time>
      </trkpt>
      <trkpt lat="45.98576" lon="4.81783">
        <ele>238</ele>
        <time>2018-03-31T09:58:26Z</time>
      </trkpt>
      <trkpt lat="45.98571" lon="4.8179">
        <ele>238</ele>
        <time>2018-03-31T09:58:27Z</time>
      </trkpt>
      <trkpt lat="45.98566" lon="4.81796">
        <ele>238</ele>
        <time>2018-03-31T09:58:28Z</time>
      </trkpt>
      <trkpt lat="45.98562" lon="4.81802">
        <ele>238</ele>
        <time>2018-03-31T09:58:29Z</time>
      </trkpt>
      <trkpt lat="45.98556" lon="4.81807">
        <ele>238</ele>
        <time>2018-03-31T09:58:30Z</time>
      </trkpt>
      <trkpt lat="45.98551" lon="4.81809">
        <ele>238</ele>
        <time>2018-03-31T09:58:31Z</time>
      </trkpt>
      <trkpt lat="45.98545" lon="4.81809">
        <ele>238</ele>
        <time>2018-03-31T09:58:32Z</time>
      </trkpt>
      <trkpt lat="45.9854" lon="4.81805">
        <ele>238</ele>
        <time>2018-03-31T09:58:33Z</time>
      </trkpt>
      <trkpt lat="45.98535" lon="4.81801">
        <ele>238</ele>
        <time>2018-03-31T09:58:34Z</time>
      </trkpt>
      <trkpt lat="45.98531" lon="4.81797">
        <ele>238</ele>
        <time>2018-03-31T09:58:35Z</time>
      </trkpt>
      <trkpt lat="45.98528" lon="4.81792">
        <ele>238</ele>
        <time>2018-03-31T09:58:36Z</time>
      </trkpt>
      <trkpt lat="45.98524" lon="4.81785">
        <ele>238</ele>
        <time>2018-03-31T09:58:37Z</time>
      </trkpt>
      <trkpt lat="45.98519" lon="4.8178">
        <ele>238</ele>
        <time>2018-03-31T09:58:38Z</time>
      </trkpt>
      <trkpt lat="45.98515" lon="4.81774">
        <ele>238</ele>
        <time>2018-03-31T09:58:39Z</time>
      </trkpt>
      <trkpt lat="45.98511" lon="4.81769">
        <ele>237</ele>
        <time>2018-03-31T09:58:40Z</time>
      </trkpt>
      <trkpt lat="45.98507" lon="4.81764">
        <ele>237</ele>
        <time>2018-03-31T09:58:41Z</time>
      </trkpt>
      <trkpt lat="45.98503" lon="4.81759">
        <ele>237</ele>
        <time>2018-03-31T09:58:42Z</time>
      </trkpt>
      <trkpt lat="45.98499" lon="4.81756">
        <ele>238</ele>
        <time>2018-03-31T09:58:43Z</time>
      </trkpt>
      <trkpt lat="45.98496" lon="4.8175">
        <ele>237</ele>
        <time>2018-03-31T09:58:44Z</time>
      </trkpt>
      <trkpt lat="45.98489" lon="4.81743">
        <ele>238</ele>
        <time>2018-03-31T09:58:46Z</time>
      </trkpt>
      <trkpt lat="45.98486" lon="4.8174">
        <ele>238</ele>
        <time>2018-03-31T09:58:47Z</time>
      </trkpt>
      <trkpt lat="45.98481" lon="4.81736">
        <ele>238</ele>
        <time>2018-03-31T09:58:48Z</time>
      </trkpt>
      <trkpt lat="45.98478" lon="4.81734">
        <ele>238</ele>
        <time>2018-03-31T09:58:49Z</time>
      </trkpt>
      <trkpt lat="45.98471" lon="4.81728">
        <ele>239</ele>
        <time>2018-03-31T09:58:51Z</time>
      </trkpt>
      <trkpt lat="45.98468" lon="4.81724">
        <ele>239</ele>
        <time>2018-03-31T09:58:52Z</time>
      </trkpt>
      <trkpt lat="45.98462" lon="4.81715">
        <ele>239</ele>
        <time>2018-03-31T09:58:56Z</time>
      </trkpt>
      <trkpt lat="45.9846" lon="4.81713">
        <ele>239</ele>
        <time>2018-03-31T09:58:57Z</time>
      </trkpt>
      <trkpt lat="45.98455" lon="4.81705">
        <ele>239</ele>
        <time>2018-03-31T09:59:00Z</time>
      </trkpt>
      <trkpt lat="45.98454" lon="4.81702">
        <ele>239</ele>
        <time>2018-03-31T09:59:01Z</time>
      </trkpt>
      <trkpt lat="45.98452" lon="4.81698">
        <ele>239</ele>
        <time>2018-03-31T09:59:02Z</time>
      </trkpt>
      <trkpt lat="45.98447" lon="4.81687">
        <ele>239</ele>
        <time>2018-03-31T09:59:03Z</time>
      </trkpt>
      <trkpt lat="45.98443" lon="4.81678">
        <ele>239</ele>
        <time>2018-03-31T09:59:05Z</time>
      </trkpt>
      <trkpt lat="45.9844" lon="4.81674">
        <ele>240</ele>
        <time>2018-03-31T09:59:06Z</time>
      </trkpt>
      <trkpt lat="45.98433" lon="4.81667">
        <ele>240</ele>
        <time>2018-03-31T09:59:08Z</time>
      </trkpt>
      <trkpt lat="45.98428" lon="4.81667">
        <ele>240</ele>
        <time>2018-03-31T09:59:09Z</time>
      </trkpt>
      <trkpt lat="45.98422" lon="4.81666">
        <ele>240</ele>
        <time>2018-03-31T09:59:10Z</time>
      </trkpt>
      <trkpt lat="45.98416" lon="4.81665">
        <ele>241</ele>
        <time>2018-03-31T09:59:11Z</time>
      </trkpt>
      <trkpt lat="45.98411" lon="4.81666">
        <ele>241</ele>
        <time>2018-03-31T09:59:12Z</time>
      </trkpt>
      <trkpt lat="45.98406" lon="4.81667">
        <ele>242</ele>
        <time>2018-03-31T09:59:13Z</time>
      </trkpt>
      <trkpt lat="45.98401" lon="4.81669">
        <ele>242</ele>
        <time>2018-03-31T09:59:14Z</time>
      </trkpt>
      <trkpt lat="45.98396" lon="4.81669">
        <ele>243</ele>
        <time>2018-03-31T09:59:15Z</time>
      </trkpt>
      <trkpt lat="45.98391" lon="4.8167">
        <ele>243</ele>
        <time>2018-03-31T09:59:16Z</time>
      </trkpt>
      <trkpt lat="45.98386" lon="4.81671">
        <ele>243</ele>
        <time>2018-03-31T09:59:17Z</time>
      </trkpt>
      <trkpt lat="45.98379" lon="4.81674">
        <ele>244</ele>
        <time>2018-03-31T09:59:19Z</time>
      </trkpt>
      <trkpt lat="45.98375" lon="4.81675">
        <ele>244</ele>
        <time>2018-03-31T09:59:20Z</time>
      </trkpt>
      <trkpt lat="45.9837" lon="4.81676">
        <ele>244</ele>
        <time>2018-03-31T09:59:21Z</time>
      </trkpt>
      <trkpt lat="45.98365" lon="4.81677">
        <ele>244</ele>
        <time>2018-03-31T09:59:22Z</time>
      </trkpt>
      <trkpt lat="45.98361" lon="4.81679">
        <ele>244</ele>
        <time>2018-03-31T09:59:23Z</time>
      </trkpt>
      <trkpt lat="45.98356" lon="4.81679">
        <ele>245</ele>
        <time>2018-03-31T09:59:24Z</time>
      </trkpt>
      <trkpt lat="45.98348" lon="4.81678">
        <ele>245</ele>
        <time>2018-03-31T09:59:26Z</time>
      </trkpt>
      <trkpt lat="45.98343" lon="4.81676">
        <ele>245</ele>
        <time>2018-03-31T09:59:27Z</time>
      </trkpt>
      <trkpt lat="45.98336" lon="4.81673">
        <ele>246</ele>
        <time>2018-03-31T09:59:29Z</time>
      </trkpt>
      <trkpt lat="45.98334" lon="4.81672">
        <ele>246</ele>
        <time>2018-03-31T09:59:30Z</time>
      </trkpt>
      <trkpt lat="45.98327" lon="4.81669">
        <ele>246</ele>
        <time>2018-03-31T09:59:32Z</time>
      </trkpt>
      <trkpt lat="45.98323" lon="4.81667">
        <ele>246</ele>
        <time>2018-03-31T09:59:33Z</time>
      </trkpt>
      <trkpt lat="45.98316" lon="4.81662">
        <ele>246</ele>
        <time>2018-03-31T09:59:35Z</time>
      </trkpt>
      <trkpt lat="45.98313" lon="4.81659">
        <ele>246</ele>
        <time>2018-03-31T09:59:36Z</time>
      </trkpt>
      <trkpt lat="45.98306" lon="4.81652">
        <ele>246</ele>
        <time>2018-03-31T09:59:38Z</time>
      </trkpt>
      <trkpt lat="45.98302" lon="4.81648">
        <ele>247</ele>
        <time>2018-03-31T09:59:39Z</time>
      </trkpt>
      <trkpt lat="45.98299" lon="4.81644">
        <ele>247</ele>
        <time>2018-03-31T09:59:40Z</time>
      </trkpt>
      <trkpt lat="45.98295" lon="4.81639">
        <ele>247</ele>
        <time>2018-03-31T09:59:41Z</time>
      </trkpt>
      <trkpt lat="45.9829" lon="4.81631">
        <ele>247</ele>
        <time>2018-03-31T09:59:43Z</time>
      </trkpt>
      <trkpt lat="45.98287" lon="4.81626">
        <ele>247</ele>
        <time>2018-03-31T09:59:44Z</time>
      </trkpt>
      <trkpt lat="45.98283" lon="4.81621">
        <ele>247</ele>
        <time>2018-03-31T09:59:45Z</time>
      </trkpt>
      <trkpt lat="45.9828" lon="4.81615">
        <ele>247</ele>
        <time>2018-03-31T09:59:46Z</time>
      </trkpt>
      <trkpt lat="45.98277" lon="4.81609">
        <ele>247</ele>
        <time>2018-03-31T09:59:47Z</time>
      </trkpt>
      <trkpt lat="45.98275" lon="4.81603">
        <ele>247</ele>
        <time>2018-03-31T09:59:48Z</time>
      </trkpt>
      <trkpt lat="45.98273" lon="4.81597">
        <ele>247</ele>
        <time>2018-03-31T09:59:49Z</time>
      </trkpt>
      <trkpt lat="45.98271" lon="4.8159">
        <ele>247</ele>
        <time>2018-03-31T09:59:50Z</time>
      </trkpt>
      <trkpt lat="45.98269" lon="4.81583">
        <ele>247</ele>
        <time>2018-03-31T09:59:51Z</time>
      </trkpt>
      <trkpt lat="45.98265" lon="4.81576">
        <ele>247</ele>
        <time>2018-03-31T09:59:52Z</time>
      </trkpt>
      <trkpt lat="45.98262" lon="4.81569">
        <ele>247</ele>
        <time>2018-03-31T09:59:53Z</time>
      </trkpt>
      <trkpt lat="45.9826" lon="4.81563">
        <ele>247</ele>
        <time>2018-03-31T09:59:54Z</time>
      </trkpt>
      <trkpt lat="45.98259" lon="4.81556">
        <ele>247</ele>
        <time>2018-03-31T09:59:55Z</time>
      </trkpt>
      <trkpt lat="45.98256" lon="4.81549">
        <ele>247</ele>
        <time>2018-03-31T09:59:56Z</time>
      </trkpt>
      <trkpt lat="45.98254" lon="4.81541">
        <ele>247</ele>
        <time>2018-03-31T09:59:57Z</time>
      </trkpt>
      <trkpt lat="45.98251" lon="4.81533">
        <ele>247</ele>
        <time>2018-03-31T09:59:58Z</time>
      </trkpt>
      <trkpt lat="45.98248" lon="4.81527">
        <ele>249</ele>
        <time>2018-03-31T09:59:59Z</time>
      </trkpt>
      <trkpt lat="45.98246" lon="4.81519">
        <ele>249</ele>
        <time>2018-03-31T10:00:00Z</time>
      </trkpt>
      <trkpt lat="45.98245" lon="4.81513">
        <ele>249</ele>
        <time>2018-03-31T10:00:01Z</time>
      </trkpt>
      <trkpt lat="45.98242" lon="4.81506">
        <ele>249</ele>
        <time>2018-03-31T10:00:02Z</time>
      </trkpt>
      <trkpt lat="45.98238" lon="4.81495">
        <ele>249</ele>
        <time>2018-03-31T10:00:04Z</time>
      </trkpt>
      <trkpt lat="45.98237" lon="4.81489">
        <ele>249</ele>
        <time>2018-03-31T10:00:05Z</time>
      </trkpt>
      <trkpt lat="45.98234" lon="4.81478">
        <ele>249</ele>
        <time>2018-03-31T10:00:07Z</time>
      </trkpt>
      <trkpt lat="45.98232" lon="4.81472">
        <ele>249</ele>
        <time>2018-03-31T10:00:08Z</time>
      </trkpt>
      <trkpt lat="45.9823" lon="4.81466">
        <ele>249</ele>
        <time>2018-03-31T10:00:09Z</time>
      </trkpt>
      <trkpt lat="45.98228" lon="4.81459">
        <ele>249</ele>
        <time>2018-03-31T10:00:10Z</time>
      </trkpt>
      <trkpt lat="45.98225" lon="4.81453">
        <ele>249</ele>
        <time>2018-03-31T10:00:11Z</time>
      </trkpt>
      <trkpt lat="45.98223" lon="4.81446">
        <ele>249</ele>
        <time>2018-03-31T10:00:12Z</time>
      </trkpt>
      <trkpt lat="45.98221" lon="4.8144">
        <ele>249</ele>
        <time>2018-03-31T10:00:13Z</time>
      </trkpt>
      <trkpt lat="45.98218" lon="4.81433">
        <ele>249</ele>
        <time>2018-03-31T10:00:14Z</time>
      </trkpt>
      <trkpt lat="45.98216" lon="4.81426">
        <ele>249</ele>
        <time>2018-03-31T10:00:15Z</time>
      </trkpt>
      <trkpt lat="45.98214" lon="4.81419">
        <ele>249</ele>
        <time>2018-03-31T10:00:16Z</time>
      </trkpt>
      <trkpt lat="45.98211" lon="4.81412">
        <ele>248</ele>
        <time>2018-03-31T10:00:17Z</time>
      </trkpt>
      <trkpt lat="45.98209" lon="4.81405">
        <ele>248</ele>
        <time>2018-03-31T10:00:18Z</time>
      </trkpt>
      <trkpt lat="45.98207" lon="4.81397">
        <ele>248</ele>
        <time>2018-03-31T10:00:19Z</time>
      </trkpt>
      <trkpt lat="45.98206" lon="4.81389">
        <ele>248</ele>
        <time>2018-03-31T10:00:20Z</time>
      </trkpt>
      <trkpt lat="45.98204" lon="4.8138">
        <ele>248</ele>
        <time>2018-03-31T10:00:21Z</time>
      </trkpt>
      <trkpt lat="45.98202" lon="4.81372">
        <ele>248</ele>
        <time>2018-03-31T10:00:22Z</time>
      </trkpt>
      <trkpt lat="45.98199" lon="4.81364">
        <ele>248</ele>
        <time>2018-03-31T10:00:23Z</time>
      </trkpt>
      <trkpt lat="45.98197" lon="4.81357">
        <ele>248</ele>
        <time>2018-03-31T10:00:24Z</time>
      </trkpt>
      <trkpt lat="45.98194" lon="4.81348">
        <ele>248</ele>
        <time>2018-03-31T10:00:25Z</time>
      </trkpt>
      <trkpt lat="45.98193" lon="4.8134">
        <ele>248</ele>
        <time>2018-03-31T10:00:26Z</time>
      </trkpt>
      <trkpt lat="45.98192" lon="4.81332">
        <ele>247</ele>
        <time>2018-03-31T10:00:27Z</time>
      </trkpt>
      <trkpt lat="45.98191" lon="4.81322">
        <ele>247</ele>
        <time>2018-03-31T10:00:28Z</time>
      </trkpt>
      <trkpt lat="45.98189" lon="4.81314">
        <ele>247</ele>
        <time>2018-03-31T10:00:29Z</time>
      </trkpt>
      <trkpt lat="45.98188" lon="4.81306">
        <ele>247</ele>
        <time>2018-03-31T10:00:30Z</time>
      </trkpt>
      <trkpt lat="45.98186" lon="4.81298">
        <ele>247</ele>
        <time>2018-03-31T10:00:31Z</time>
      </trkpt>
      <trkpt lat="45.98185" lon="4.81289">
        <ele>247</ele>
        <time>2018-03-31T10:00:32Z</time>
      </trkpt>
      <trkpt lat="45.98184" lon="4.81281">
        <ele>247</ele>
        <time>2018-03-31T10:00:33Z</time>
      </trkpt>
      <trkpt lat="45.98182" lon="4.81272">
        <ele>247</ele>
        <time>2018-03-31T10:00:34Z</time>
      </trkpt>
      <trkpt lat="45.98181" lon="4.81263">
        <ele>247</ele>
        <time>2018-03-31T10:00:35Z</time>
      </trkpt>
      <trkpt lat="45.9818" lon="4.81254">
        <ele>247</ele>
        <time>2018-03-31T10:00:36Z</time>
      </trkpt>
      <trkpt lat="45.98179" lon="4.81246">
        <ele>247</ele>
        <time>2018-03-31T10:00:37Z</time>
      </trkpt>
      <trkpt lat="45.98178" lon="4.81237">
        <ele>246</ele>
        <time>2018-03-31T10:00:38Z</time>
      </trkpt>
      <trkpt lat="45.98177" lon="4.81228">
        <ele>246</ele>
        <time>2018-03-31T10:00:39Z</time>
      </trkpt>
      <trkpt lat="45.98175" lon="4.8122">
        <ele>246</ele>
        <time>2018-03-31T10:00:40Z</time>
      </trkpt>
      <trkpt lat="45.98173" lon="4.81212">
        <ele>246</ele>
        <time>2018-03-31T10:00:41Z</time>
      </trkpt>
      <trkpt lat="45.98172" lon="4.81204">
        <ele>245</ele>
        <time>2018-03-31T10:00:42Z</time>
      </trkpt>
      <trkpt lat="45.9817" lon="4.81195">
        <ele>245</ele>
        <time>2018-03-31T10:00:43Z</time>
      </trkpt>
      <trkpt lat="45.98169" lon="4.81186">
        <ele>245</ele>
        <time>2018-03-31T10:00:44Z</time>
      </trkpt>
      <trkpt lat="45.98168" lon="4.81178">
        <ele>245</ele>
        <time>2018-03-31T10:00:45Z</time>
      </trkpt>
      <trkpt lat="45.98165" lon="4.81169">
        <ele>245</ele>
        <time>2018-03-31T10:00:46Z</time>
      </trkpt>
      <trkpt lat="45.98162" lon="4.8116">
        <ele>245</ele>
        <time>2018-03-31T10:00:47Z</time>
      </trkpt>
      <trkpt lat="45.98159" lon="4.81151">
        <ele>245</ele>
        <time>2018-03-31T10:00:48Z</time>
      </trkpt>
      <trkpt lat="45.98155" lon="4.81143">
        <ele>245</ele>
        <time>2018-03-31T10:00:49Z</time>
      </trkpt>
      <trkpt lat="45.98152" lon="4.81134">
        <ele>245</ele>
        <time>2018-03-31T10:00:50Z</time>
      </trkpt>
      <trkpt lat="45.98148" lon="4.81126">
        <ele>245</ele>
        <time>2018-03-31T10:00:51Z</time>
      </trkpt>
      <trkpt lat="45.98145" lon="4.81117">
        <ele>245</ele>
        <time>2018-03-31T10:00:52Z</time>
      </trkpt>
      <trkpt lat="45.98141" lon="4.81109">
        <ele>245</ele>
        <time>2018-03-31T10:00:53Z</time>
      </trkpt>
      <trkpt lat="45.98138" lon="4.811">
        <ele>245</ele>
        <time>2018-03-31T10:00:54Z</time>
      </trkpt>
      <trkpt lat="45.98135" lon="4.81092">
        <ele>245</ele>
        <time>2018-03-31T10:00:55Z</time>
      </trkpt>
      <trkpt lat="45.98132" lon="4.81085">
        <ele>245</ele>
        <time>2018-03-31T10:00:56Z</time>
      </trkpt>
      <trkpt lat="45.98129" lon="4.81077">
        <ele>243</ele>
        <time>2018-03-31T10:00:57Z</time>
      </trkpt>
      <trkpt lat="45.98127" lon="4.81069">
        <ele>243</ele>
        <time>2018-03-31T10:00:58Z</time>
      </trkpt>
      <trkpt lat="45.98124" lon="4.8106">
        <ele>243</ele>
        <time>2018-03-31T10:00:59Z</time>
      </trkpt>
      <trkpt lat="45.98121" lon="4.81053">
        <ele>243</ele>
        <time>2018-03-31T10:01:00Z</time>
      </trkpt>
      <trkpt lat="45.98119" lon="4.81045">
        <ele>242</ele>
        <time>2018-03-31T10:01:01Z</time>
      </trkpt>
      <trkpt lat="45.98116" lon="4.81038">
        <ele>242</ele>
        <time>2018-03-31T10:01:02Z</time>
      </trkpt>
      <trkpt lat="45.98115" lon="4.8103">
        <ele>242</ele>
        <time>2018-03-31T10:01:03Z</time>
      </trkpt>
      <trkpt lat="45.98112" lon="4.81022">
        <ele>242</ele>
        <time>2018-03-31T10:01:04Z</time>
      </trkpt>
      <trkpt lat="45.9811" lon="4.81016">
        <ele>242</ele>
        <time>2018-03-31T10:01:05Z</time>
      </trkpt>
      <trkpt lat="45.98108" lon="4.81009">
        <ele>242</ele>
        <time>2018-03-31T10:01:06Z</time>
      </trkpt>
      <trkpt lat="45.98104" lon="4.81003">
        <ele>242</ele>
        <time>2018-03-31T10:01:07Z</time>
      </trkpt>
      <trkpt lat="45.98103" lon="4.80996">
        <ele>240</ele>
        <time>2018-03-31T10:01:08Z</time>
      </trkpt>
      <trkpt lat="45.981" lon="4.8099">
        <ele>240</ele>
        <time>2018-03-31T10:01:09Z</time>
      </trkpt>
      <trkpt lat="45.98098" lon="4.80984">
        <ele>239</ele>
        <time>2018-03-31T10:01:10Z</time>
      </trkpt>
      <trkpt lat="45.98097" lon="4.80977">
        <ele>239</ele>
        <time>2018-03-31T10:01:11Z</time>
      </trkpt>
      <trkpt lat="45.98094" lon="4.8097">
        <ele>239</ele>
        <time>2018-03-31T10:01:12Z</time>
      </trkpt>
      <trkpt lat="45.98091" lon="4.80963">
        <ele>239</ele>
        <time>2018-03-31T10:01:13Z</time>
      </trkpt>
      <trkpt lat="45.98089" lon="4.80954">
        <ele>238</ele>
        <time>2018-03-31T10:01:14Z</time>
      </trkpt>
      <trkpt lat="45.98087" lon="4.80945">
        <ele>238</ele>
        <time>2018-03-31T10:01:15Z</time>
      </trkpt>
      <trkpt lat="45.98083" lon="4.80934">
        <ele>240</ele>
        <time>2018-03-31T10:01:16Z</time>
      </trkpt>
      <trkpt lat="45.9808" lon="4.80924">
        <ele>240</ele>
        <time>2018-03-31T10:01:17Z</time>
      </trkpt>
      <trkpt lat="45.98077" lon="4.80913">
        <ele>239</ele>
        <time>2018-03-31T10:01:18Z</time>
      </trkpt>
      <trkpt lat="45.98074" lon="4.80901">
        <ele>238</ele>
        <time>2018-03-31T10:01:19Z</time>
      </trkpt>
      <trkpt lat="45.98072" lon="4.8089">
        <ele>238</ele>
        <time>2018-03-31T10:01:20Z</time>
      </trkpt>
      <trkpt lat="45.9807" lon="4.80878">
        <ele>237</ele>
        <time>2018-03-31T10:01:21Z</time>
      </trkpt>
      <trkpt lat="45.98067" lon="4.80865">
        <ele>237</ele>
        <time>2018-03-31T10:01:22Z</time>
      </trkpt>
      <trkpt lat="45.98063" lon="4.80853">
        <ele>236</ele>
        <time>2018-03-31T10:01:23Z</time>
      </trkpt>
      <trkpt lat="45.98061" lon="4.8084">
        <ele>236</ele>
        <time>2018-03-31T10:01:24Z</time>
      </trkpt>
      <trkpt lat="45.98058" lon="4.80827">
        <ele>234</ele>
        <time>2018-03-31T10:01:25Z</time>
      </trkpt>
      <trkpt lat="45.98055" lon="4.80816">
        <ele>234</ele>
        <time>2018-03-31T10:01:26Z</time>
      </trkpt>
      <trkpt lat="45.98052" lon="4.80804">
        <ele>234</ele>
        <time>2018-03-31T10:01:27Z</time>
      </trkpt>
      <trkpt lat="45.9805" lon="4.80793">
        <ele>233</ele>
        <time>2018-03-31T10:01:28Z</time>
      </trkpt>
      <trkpt lat="45.98047" lon="4.80783">
        <ele>233</ele>
        <time>2018-03-31T10:01:29Z</time>
      </trkpt>
      <trkpt lat="45.98045" lon="4.80772">
        <ele>233</ele>
        <time>2018-03-31T10:01:30Z</time>
      </trkpt>
      <trkpt lat="45.98043" lon="4.80762">
        <ele>233</ele>
        <time>2018-03-31T10:01:31Z</time>
      </trkpt>
      <trkpt lat="45.98041" lon="4.80753">
        <ele>233</ele>
        <time>2018-03-31T10:01:32Z</time>
      </trkpt>
      <trkpt lat="45.98039" lon="4.80744">
        <ele>231</ele>
        <time>2018-03-31T10:01:33Z</time>
      </trkpt>
      <trkpt lat="45.98036" lon="4.80736">
        <ele>231</ele>
        <time>2018-03-31T10:01:34Z</time>
      </trkpt>
      <trkpt lat="45.98034" lon="4.80729">
        <ele>231</ele>
        <time>2018-03-31T10:01:35Z</time>
      </trkpt>
      <trkpt lat="45.98032" lon="4.80722">
        <ele>231</ele>
        <time>2018-03-31T10:01:36Z</time>
      </trkpt>
      <trkpt lat="45.98032" lon="4.80716">
        <ele>231</ele>
        <time>2018-03-31T10:01:37Z</time>
      </trkpt>
      <trkpt lat="45.98033" lon="4.80704">
        <ele>231</ele>
        <time>2018-03-31T10:01:39Z</time>
      </trkpt>
      <trkpt lat="45.98036" lon="4.80701">
        <ele>230</ele>
        <time>2018-03-31T10:01:40Z</time>
      </trkpt>
      <trkpt lat="45.98041" lon="4.80699">
        <ele>230</ele>
        <time>2018-03-31T10:01:41Z</time>
      </trkpt>
      <trkpt lat="45.98046" lon="4.80698">
        <ele>230</ele>
        <time>2018-03-31T10:01:42Z</time>
      </trkpt>
      <trkpt lat="45.98052" lon="4.80697">
        <ele>230</ele>
        <time>2018-03-31T10:01:43Z</time>
      </trkpt>
      <trkpt lat="45.98058" lon="4.80697">
        <ele>230</ele>
        <time>2018-03-31T10:01:44Z</time>
      </trkpt>
      <trkpt lat="45.98064" lon="4.80696">
        <ele>230</ele>
        <time>2018-03-31T10:01:45Z</time>
      </trkpt>
      <trkpt lat="45.98071" lon="4.80696">
        <ele>230</ele>
        <time>2018-03-31T10:01:46Z</time>
      </trkpt>
      <trkpt lat="45.98078" lon="4.80696">
        <ele>230</ele>
        <time>2018-03-31T10:01:47Z</time>
      </trkpt>
      <trkpt lat="45.98085" lon="4.80696">
        <ele>228</ele>
        <time>2018-03-31T10:01:48Z</time>
      </trkpt>
      <trkpt lat="45.98093" lon="4.80697">
        <ele>228</ele>
        <time>2018-03-31T10:01:49Z</time>
      </trkpt>
      <trkpt lat="45.981" lon="4.80697">
        <ele>228</ele>
        <time>2018-03-31T10:01:50Z</time>
      </trkpt>
      <trkpt lat="45.98107" lon="4.80697">
        <ele>228</ele>
        <time>2018-03-31T10:01:51Z</time>
      </trkpt>
      <trkpt lat="45.98113" lon="4.80697">
        <ele>228</ele>
        <time>2018-03-31T10:01:52Z</time>
      </trkpt>
      <trkpt lat="45.9812" lon="4.80696">
        <ele>228</ele>
        <time>2018-03-31T10:01:53Z</time>
      </trkpt>
      <trkpt lat="45.98128" lon="4.80695">
        <ele>228</ele>
        <time>2018-03-31T10:01:54Z</time>
      </trkpt>
      <trkpt lat="45.98135" lon="4.80695">
        <ele>228</ele>
        <time>2018-03-31T10:01:55Z</time>
      </trkpt>
      <trkpt lat="45.98143" lon="4.80695">
        <ele>228</ele>
        <time>2018-03-31T10:01:56Z</time>
      </trkpt>
      <trkpt lat="45.98151" lon="4.80694">
        <ele>228</ele>
        <time>2018-03-31T10:01:57Z</time>
      </trkpt>
      <trkpt lat="45.98157" lon="4.80693">
        <ele>227</ele>
        <time>2018-03-31T10:01:58Z</time>
      </trkpt>
      <trkpt lat="45.98164" lon="4.80692">
        <ele>227</ele>
        <time>2018-03-31T10:01:59Z</time>
      </trkpt>
      <trkpt lat="45.98172" lon="4.80691">
        <ele>225</ele>
        <time>2018-03-31T10:02:00Z</time>
      </trkpt>
      <trkpt lat="45.98179" lon="4.80689">
        <ele>225</ele>
        <time>2018-03-31T10:02:01Z</time>
      </trkpt>
      <trkpt lat="45.98187" lon="4.80687">
        <ele>225</ele>
        <time>2018-03-31T10:02:02Z</time>
      </trkpt>
      <trkpt lat="45.98194" lon="4.80685">
        <ele>225</ele>
        <time>2018-03-31T10:02:03Z</time>
      </trkpt>
      <trkpt lat="45.982" lon="4.80682">
        <ele>225</ele>
        <time>2018-03-31T10:02:04Z</time>
      </trkpt>
      <trkpt lat="45.98207" lon="4.80678">
        <ele>224</ele>
        <time>2018-03-31T10:02:05Z</time>
      </trkpt>
      <trkpt lat="45.98213" lon="4.80675">
        <ele>224</ele>
        <time>2018-03-31T10:02:06Z</time>
      </trkpt>
      <trkpt lat="45.98218" lon="4.8067">
        <ele>224</ele>
        <time>2018-03-31T10:02:07Z</time>
      </trkpt>
      <trkpt lat="45.98223" lon="4.80664">
        <ele>224</ele>
        <time>2018-03-31T10:02:08Z</time>
      </trkpt>
      <trkpt lat="45.98227" lon="4.80656">
        <ele>223</ele>
        <time>2018-03-31T10:02:09Z</time>
      </trkpt>
      <trkpt lat="45.98231" lon="4.80646">
        <ele>223</ele>
        <time>2018-03-31T10:02:10Z</time>
      </trkpt>
      <trkpt lat="45.98234" lon="4.80636">
        <ele>224</ele>
        <time>2018-03-31T10:02:11Z</time>
      </trkpt>
      <trkpt lat="45.98238" lon="4.80626">
        <ele>224</ele>
        <time>2018-03-31T10:02:12Z</time>
      </trkpt>
      <trkpt lat="45.98242" lon="4.80617">
        <ele>224</ele>
        <time>2018-03-31T10:02:13Z</time>
      </trkpt>
      <trkpt lat="45.98244" lon="4.80606">
        <ele>224</ele>
        <time>2018-03-31T10:02:14Z</time>
      </trkpt>
      <trkpt lat="45.98248" lon="4.80595">
        <ele>224</ele>
        <time>2018-03-31T10:02:15Z</time>
      </trkpt>
      <trkpt lat="45.98251" lon="4.80585">
        <ele>224</ele>
        <time>2018-03-31T10:02:16Z</time>
      </trkpt>
      <trkpt lat="45.98253" lon="4.80575">
        <ele>224</ele>
        <time>2018-03-31T10:02:17Z</time>
      </trkpt>
      <trkpt lat="45.98256" lon="4.80566">
        <ele>224</ele>
        <time>2018-03-31T10:02:18Z</time>
      </trkpt>
      <trkpt lat="45.98258" lon="4.80557">
        <ele>224</ele>
        <time>2018-03-31T10:02:19Z</time>
      </trkpt>
      <trkpt lat="45.98261" lon="4.80549">
        <ele>224</ele>
        <time>2018-03-31T10:02:20Z</time>
      </trkpt>
      <trkpt lat="45.98262" lon="4.80542">
        <ele>224</ele>
        <time>2018-03-31T10:02:21Z</time>
      </trkpt>
      <trkpt lat="45.98264" lon="4.80535">
        <ele>224</ele>
        <time>2018-03-31T10:02:22Z</time>
      </trkpt>
      <trkpt lat="45.98265" lon="4.80529">
        <ele>224</ele>
        <time>2018-03-31T10:02:23Z</time>
      </trkpt>
      <trkpt lat="45.98267" lon="4.80523">
        <ele>224</ele>
        <time>2018-03-31T10:02:24Z</time>
      </trkpt>
      <trkpt lat="45.98269" lon="4.80514">
        <ele>223</ele>
        <time>2018-03-31T10:02:25Z</time>
      </trkpt>
      <trkpt lat="45.98272" lon="4.80506">
        <ele>223</ele>
        <time>2018-03-31T10:02:26Z</time>
      </trkpt>
      <trkpt lat="45.98274" lon="4.80499">
        <ele>223</ele>
        <time>2018-03-31T10:02:27Z</time>
      </trkpt>
      <trkpt lat="45.98275" lon="4.80493">
        <ele>223</ele>
        <time>2018-03-31T10:02:28Z</time>
      </trkpt>
      <trkpt lat="45.98277" lon="4.80487">
        <ele>223</ele>
        <time>2018-03-31T10:02:29Z</time>
      </trkpt>
      <trkpt lat="45.98278" lon="4.80479">
        <ele>223</ele>
        <time>2018-03-31T10:02:30Z</time>
      </trkpt>
      <trkpt lat="45.98279" lon="4.80471">
        <ele>223</ele>
        <time>2018-03-31T10:02:31Z</time>
      </trkpt>
      <trkpt lat="45.98281" lon="4.80464">
        <ele>223</ele>
        <time>2018-03-31T10:02:32Z</time>
      </trkpt>
      <trkpt lat="45.98281" lon="4.80455">
        <ele>223</ele>
        <time>2018-03-31T10:02:33Z</time>
      </trkpt>
      <trkpt lat="45.98282" lon="4.80448">
        <ele>223</ele>
        <time>2018-03-31T10:02:34Z</time>
      </trkpt>
      <trkpt lat="45.98284" lon="4.8044">
        <ele>223</ele>
        <time>2018-03-31T10:02:35Z</time>
      </trkpt>
      <trkpt lat="45.98286" lon="4.80432">
        <ele>224</ele>
        <time>2018-03-31T10:02:36Z</time>
      </trkpt>
      <trkpt lat="45.98289" lon="4.80425">
        <ele>224</ele>
        <time>2018-03-31T10:02:37Z</time>
      </trkpt>
      <trkpt lat="45.9829" lon="4.80419">
        <ele>224</ele>
        <time>2018-03-31T10:02:38Z</time>
      </trkpt>
      <trkpt lat="45.98292" lon="4.80413">
        <ele>224</ele>
        <time>2018-03-31T10:02:39Z</time>
      </trkpt>
      <trkpt lat="45.98293" lon="4.80406">
        <ele>224</ele>
        <time>2018-03-31T10:02:40Z</time>
      </trkpt>
      <trkpt lat="45.98295" lon="4.804">
        <ele>224</ele>
        <time>2018-03-31T10:02:41Z</time>
      </trkpt>
      <trkpt lat="45.98296" lon="4.80393">
        <ele>224</ele>
        <time>2018-03-31T10:02:42Z</time>
      </trkpt>
      <trkpt lat="45.98298" lon="4.80381">
        <ele>225</ele>
        <time>2018-03-31T10:02:45Z</time>
      </trkpt>
      <trkpt lat="45.98299" lon="4.80379">
        <ele>225</ele>
        <time>2018-03-31T10:02:46Z</time>
      </trkpt>
      <trkpt lat="45.983" lon="4.8037">
        <ele>225</ele>
        <time>2018-03-31T10:04:52Z</time>
      </trkpt>
      <trkpt lat="45.983" lon="4.80371">
        <ele>225</ele>
        <time>2018-03-31T10:04:53Z</time>
      </trkpt>
      <trkpt lat="45.983" lon="4.8037">
        <ele>225</ele>
        <time>2018-03-31T10:04:54Z</time>
      </trkpt>
      <trkpt lat="45.983" lon="4.8037">
        <ele>225</ele>
        <time>2018-03-31T10:04:55Z</time>
      </trkpt>
      <trkpt lat="45.98301" lon="4.80369">
        <ele>225</ele>
        <time>2018-03-31T10:04:56Z</time>
      </trkpt>
      <trkpt lat="45.98302" lon="4.80368">
        <ele>225</ele>
        <time>2018-03-31T10:05:09Z</time>
      </trkpt>
      <trkpt lat="45.98302" lon="4.80368">
        <ele>225</ele>
        <time>2018-03-31T10:05:10Z</time>
      </trkpt>
      <trkpt lat="45.98304" lon="4.80356">
        <ele>225</ele>
        <time>2018-03-31T10:06:07Z</time>
      </trkpt>
      <trkpt lat="45.98304" lon="4.80353">
        <ele>225</ele>
        <time>2018-03-31T10:06:08Z</time>
      </trkpt>
      <trkpt lat="45.98307" lon="4.80341">
        <ele>226</ele>
        <time>2018-03-31T10:06:12Z</time>
      </trkpt>
      <trkpt lat="45.98308" lon="4.80339">
        <ele>226</ele>
        <time>2018-03-31T10:06:13Z</time>
      </trkpt>
      <trkpt lat="45.9831" lon="4.80328">
        <ele>227</ele>
        <time>2018-03-31T10:06:16Z</time>
      </trkpt>
      <trkpt lat="45.98311" lon="4.80325">
        <ele>227</ele>
        <time>2018-03-31T10:06:17Z</time>
      </trkpt>
      <trkpt lat="45.98314" lon="4.80314">
        <ele>227</ele>
        <time>2018-03-31T10:06:20Z</time>
      </trkpt>
      <trkpt lat="45.98315" lon="4.8031">
        <ele>227</ele>
        <time>2018-03-31T10:06:21Z</time>
      </trkpt>
      <trkpt lat="45.98317" lon="4.80301">
        <ele>226</ele>
        <time>2018-03-31T10:06:23Z</time>
      </trkpt>
      <trkpt lat="45.98317" lon="4.80296">
        <ele>226</ele>
        <time>2018-03-31T10:06:24Z</time>
      </trkpt>
      <trkpt lat="45.98319" lon="4.80288">
        <ele>226</ele>
        <time>2018-03-31T10:06:26Z</time>
      </trkpt>
      <trkpt lat="45.9832" lon="4.80283">
        <ele>227</ele>
        <time>2018-03-31T10:06:27Z</time>
      </trkpt>
      <trkpt lat="45.98323" lon="4.80271">
        <ele>227</ele>
        <time>2018-03-31T10:06:30Z</time>
      </trkpt>
      <trkpt lat="45.98324" lon="4.80267">
        <ele>227</ele>
        <time>2018-03-31T10:06:31Z</time>
      </trkpt>
      <trkpt lat="45.98326" lon="4.80259">
        <ele>228</ele>
        <time>2018-03-31T10:06:33Z</time>
      </trkpt>
      <trkpt lat="45.98327" lon="4.80255">
        <ele>229</ele>
        <time>2018-03-31T10:06:34Z</time>
      </trkpt>
      <trkpt lat="45.9833" lon="4.80243">
        <ele>229</ele>
        <time>2018-03-31T10:06:37Z</time>
      </trkpt>
      <trkpt lat="45.98331" lon="4.80238">
        <ele>228</ele>
        <time>2018-03-31T10:06:38Z</time>
      </trkpt>
      <trkpt lat="45.98332" lon="4.80229">
        <ele>228</ele>
        <time>2018-03-31T10:06:40Z</time>
      </trkpt>
      <trkpt lat="45.98332" lon="4.80224">
        <ele>228</ele>
        <time>2018-03-31T10:06:41Z</time>
      </trkpt>
      <trkpt lat="45.9833" lon="4.8021">
        <ele>227</ele>
        <time>2018-03-31T10:06:42Z</time>
      </trkpt>
      <trkpt lat="45.98328" lon="4.80204">
        <ele>227</ele>
        <time>2018-03-31T10:06:43Z</time>
      </trkpt>
      <trkpt lat="45.98326" lon="4.80198">
        <ele>227</ele>
        <time>2018-03-31T10:06:44Z</time>
      </trkpt>
      <trkpt lat="45.98321" lon="4.80191">
        <ele>227</ele>
        <time>2018-03-31T10:06:45Z</time>
      </trkpt>
      <trkpt lat="45.98319" lon="4.80184">
        <ele>227</ele>
        <time>2018-03-31T10:06:46Z</time>
      </trkpt>
      <trkpt lat="45.98317" lon="4.80178">
        <ele>227</ele>
        <time>2018-03-31T10:06:47Z</time>
      </trkpt>
      <trkpt lat="45.98316" lon="4.80171">
        <ele>227</ele>
        <time>2018-03-31T10:06:48Z</time>
      </trkpt>
      <trkpt lat="45.98314" lon="4.80163">
        <ele>228</ele>
        <time>2018-03-31T10:06:49Z</time>
      </trkpt>
      <trkpt lat="45.98312" lon="4.80156">
        <ele>228</ele>
        <time>2018-03-31T10:06:50Z</time>
      </trkpt>
      <trkpt lat="45.98308" lon="4.80148">
        <ele>228</ele>
        <time>2018-03-31T10:06:51Z</time>
      </trkpt>
      <trkpt lat="45.98305" lon="4.8014">
        <ele>228</ele>
        <time>2018-03-31T10:06:52Z</time>
      </trkpt>
      <trkpt lat="45.98303" lon="4.80132">
        <ele>228</ele>
        <time>2018-03-31T10:06:53Z</time>
      </trkpt>
      <trkpt lat="45.98301" lon="4.80125">
        <ele>228</ele>
        <time>2018-03-31T10:06:54Z</time>
      </trkpt>
      <trkpt lat="45.98298" lon="4.80118">
        <ele>228</ele>
        <time>2018-03-31T10:06:55Z</time>
      </trkpt>
      <trkpt lat="45.98295" lon="4.8011">
        <ele>228</ele>
        <time>2018-03-31T10:06:56Z</time>
      </trkpt>
      <trkpt lat="45.98293" lon="4.80103">
        <ele>228</ele>
        <time>2018-03-31T10:06:57Z</time>
      </trkpt>
      <trkpt lat="45.98291" lon="4.80096">
        <ele>228</ele>
        <time>2018-03-31T10:06:58Z</time>
      </trkpt>
      <trkpt lat="45.98288" lon="4.80089">
        <ele>228</ele>
        <time>2018-03-31T10:06:59Z</time>
      </trkpt>
      <trkpt lat="45.98285" lon="4.80083">
        <ele>229</ele>
        <time>2018-03-31T10:07:00Z</time>
      </trkpt>
      <trkpt lat="45.98282" lon="4.80075">
        <ele>229</ele>
        <time>2018-03-31T10:07:01Z</time>
      </trkpt>
      <trkpt lat="45.9828" lon="4.80069">
        <ele>229</ele>
        <time>2018-03-31T10:07:02Z</time>
      </trkpt>
      <trkpt lat="45.98278" lon="4.80062">
        <ele>229</ele>
        <time>2018-03-31T10:07:03Z</time>
      </trkpt>
      <trkpt lat="45.98274" lon="4.80054">
        <ele>229</ele>
        <time>2018-03-31T10:07:04Z</time>
      </trkpt>
      <trkpt lat="45.98272" lon="4.80047">
        <ele>229</ele>
        <time>2018-03-31T10:07:05Z</time>
      </trkpt>
      <trkpt lat="45.98269" lon="4.8004">
        <ele>229</ele>
        <time>2018-03-31T10:07:06Z</time>
      </trkpt>
      <trkpt lat="45.98267" lon="4.80033">
        <ele>229</ele>
        <time>2018-03-31T10:07:07Z</time>
      </trkpt>
      <trkpt lat="45.98264" lon="4.80027">
        <ele>228</ele>
        <time>2018-03-31T10:07:08Z</time>
      </trkpt>
      <trkpt lat="45.98263" lon="4.8002">
        <ele>228</ele>
        <time>2018-03-31T10:07:09Z</time>
      </trkpt>
      <trkpt lat="45.98258" lon="4.80014">
        <ele>228</ele>
        <time>2018-03-31T10:07:10Z</time>
      </trkpt>
      <trkpt lat="45.98255" lon="4.80007">
        <ele>227</ele>
        <time>2018-03-31T10:07:11Z</time>
      </trkpt>
      <trkpt lat="45.98253" lon="4.8">
        <ele>226</ele>
        <time>2018-03-31T10:07:12Z</time>
      </trkpt>
      <trkpt lat="45.9825" lon="4.79993">
        <ele>227</ele>
        <time>2018-03-31T10:07:13Z</time>
      </trkpt>
      <trkpt lat="45.98247" lon="4.79985">
        <ele>225</ele>
        <time>2018-03-31T10:07:14Z</time>
      </trkpt>
      <trkpt lat="45.98245" lon="4.79977">
        <ele>225</ele>
        <time>2018-03-31T10:07:15Z</time>
      </trkpt>
      <trkpt lat="45.98243" lon="4.7997">
        <ele>225</ele>
        <time>2018-03-31T10:07:16Z</time>
      </trkpt>
      <trkpt lat="45.9824" lon="4.79963">
        <ele>225</ele>
        <time>2018-03-31T10:07:17Z</time>
      </trkpt>
      <trkpt lat="45.98237" lon="4.79957">
        <ele>225</ele>
        <time>2018-03-31T10:07:18Z</time>
      </trkpt>
      <trkpt lat="45.98235" lon="4.79949">
        <ele>225</ele>
        <time>2018-03-31T10:07:19Z</time>
      </trkpt>
      <trkpt lat="45.98233" lon="4.79942">
        <ele>225</ele>
        <time>2018-03-31T10:07:20Z</time>
      </trkpt>
      <trkpt lat="45.9823" lon="4.79936">
        <ele>225</ele>
        <time>2018-03-31T10:07:21Z</time>
      </trkpt>
      <trkpt lat="45.98228" lon="4.79928">
        <ele>225</ele>
        <time>2018-03-31T10:07:22Z</time>
      </trkpt>
      <trkpt lat="45.98226" lon="4.79921">
        <ele>225</ele>
        <time>2018-03-31T10:07:23Z</time>
      </trkpt>
      <trkpt lat="45.98224" lon="4.79914">
        <ele>225</ele>
        <time>2018-03-31T10:07:24Z</time>
      </trkpt>
      <trkpt lat="45.98221" lon="4.79907">
        <ele>225</ele>
        <time>2018-03-31T10:07:25Z</time>
      </trkpt>
      <trkpt lat="45.9822" lon="4.799">
        <ele>225</ele>
        <time>2018-03-31T10:07:26Z</time>
      </trkpt>
      <trkpt lat="45.98217" lon="4.79893">
        <ele>225</ele>
        <time>2018-03-31T10:07:27Z</time>
      </trkpt>
      <trkpt lat="45.98214" lon="4.79885">
        <ele>225</ele>
        <time>2018-03-31T10:07:28Z</time>
      </trkpt>
      <trkpt lat="45.98212" lon="4.79876">
        <ele>225</ele>
        <time>2018-03-31T10:07:30Z</time>
      </trkpt>
      <trkpt lat="45.9821" lon="4.79869">
        <ele>225</ele>
        <time>2018-03-31T10:07:31Z</time>
      </trkpt>
      <trkpt lat="45.98207" lon="4.79864">
        <ele>225</ele>
        <time>2018-03-31T10:07:32Z</time>
      </trkpt>
      <trkpt lat="45.98205" lon="4.79858">
        <ele>225</ele>
        <time>2018-03-31T10:07:33Z</time>
      </trkpt>
      <trkpt lat="45.98203" lon="4.79847">
        <ele>225</ele>
        <time>2018-03-31T10:07:35Z</time>
      </trkpt>
      <trkpt lat="45.98202" lon="4.7984">
        <ele>225</ele>
        <time>2018-03-31T10:07:36Z</time>
      </trkpt>
      <trkpt lat="45.982" lon="4.79835">
        <ele>225</ele>
        <time>2018-03-31T10:07:37Z</time>
      </trkpt>
      <trkpt lat="45.98197" lon="4.79829">
        <ele>225</ele>
        <time>2018-03-31T10:07:38Z</time>
      </trkpt>
      <trkpt lat="45.98194" lon="4.79818">
        <ele>225</ele>
        <time>2018-03-31T10:07:40Z</time>
      </trkpt>
      <trkpt lat="45.98192" lon="4.79813">
        <ele>225</ele>
        <time>2018-03-31T10:07:41Z</time>
      </trkpt>
      <trkpt lat="45.9819" lon="4.79803">
        <ele>226</ele>
        <time>2018-03-31T10:07:43Z</time>
      </trkpt>
      <trkpt lat="45.98188" lon="4.79797">
        <ele>226</ele>
        <time>2018-03-31T10:07:44Z</time>
      </trkpt>
      <trkpt lat="45.98186" lon="4.79786">
        <ele>226</ele>
        <time>2018-03-31T10:07:46Z</time>
      </trkpt>
      <trkpt lat="45.98186" lon="4.79783">
        <ele>226</ele>
        <time>2018-03-31T10:07:47Z</time>
      </trkpt>
      <trkpt lat="45.98188" lon="4.79774">
        <ele>226</ele>
        <time>2018-03-31T10:07:50Z</time>
      </trkpt>
      <trkpt lat="45.98189" lon="4.7977">
        <ele>226</ele>
        <time>2018-03-31T10:07:51Z</time>
      </trkpt>
      <trkpt lat="45.98193" lon="4.79764">
        <ele>226</ele>
        <time>2018-03-31T10:07:53Z</time>
      </trkpt>
      <trkpt lat="45.98196" lon="4.79762">
        <ele>226</ele>
        <time>2018-03-31T10:07:54Z</time>
      </trkpt>
      <trkpt lat="45.98202" lon="4.79758">
        <ele>226</ele>
        <time>2018-03-31T10:07:56Z</time>
      </trkpt>
      <trkpt lat="45.98205" lon="4.79757">
        <ele>226</ele>
        <time>2018-03-31T10:07:57Z</time>
      </trkpt>
      <trkpt lat="45.98212" lon="4.79754">
        <ele>226</ele>
        <time>2018-03-31T10:07:59Z</time>
      </trkpt>
      <trkpt lat="45.98215" lon="4.79753">
        <ele>226</ele>
        <time>2018-03-31T10:08:00Z</time>
      </trkpt>
      <trkpt lat="45.98222" lon="4.79752">
        <ele>227</ele>
        <time>2018-03-31T10:08:02Z</time>
      </trkpt>
      <trkpt lat="45.98225" lon="4.79751">
        <ele>227</ele>
        <time>2018-03-31T10:08:03Z</time>
      </trkpt>
      <trkpt lat="45.98229" lon="4.79751">
        <ele>227</ele>
        <time>2018-03-31T10:08:04Z</time>
      </trkpt>
      <trkpt lat="45.98238" lon="4.7975">
        <ele>228</ele>
        <time>2018-03-31T10:08:05Z</time>
      </trkpt>
      <trkpt lat="45.98245" lon="4.79749">
        <ele>228</ele>
        <time>2018-03-31T10:08:08Z</time>
      </trkpt>
      <trkpt lat="45.98252" lon="4.79748">
        <ele>229</ele>
        <time>2018-03-31T10:08:09Z</time>
      </trkpt>
      <trkpt lat="45.98259" lon="4.79746">
        <ele>230</ele>
        <time>2018-03-31T10:08:12Z</time>
      </trkpt>
      <trkpt lat="45.98262" lon="4.79745">
        <ele>231</ele>
        <time>2018-03-31T10:08:13Z</time>
      </trkpt>
      <trkpt lat="45.9827" lon="4.79743">
        <ele>232</ele>
        <time>2018-03-31T10:08:14Z</time>
      </trkpt>
      <trkpt lat="45.98272" lon="4.79743">
        <ele>232</ele>
        <time>2018-03-31T10:08:15Z</time>
      </trkpt>
      <trkpt lat="45.9828" lon="4.79741">
        <ele>233</ele>
        <time>2018-03-31T10:08:17Z</time>
      </trkpt>
      <trkpt lat="45.98282" lon="4.79741">
        <ele>234</ele>
        <time>2018-03-31T10:08:18Z</time>
      </trkpt>
      <trkpt lat="45.98291" lon="4.79739">
        <ele>234</ele>
        <time>2018-03-31T10:08:20Z</time>
      </trkpt>
      <trkpt lat="45.98293" lon="4.79739">
        <ele>234</ele>
        <time>2018-03-31T10:08:21Z</time>
      </trkpt>
      <trkpt lat="45.98302" lon="4.79737">
        <ele>235</ele>
        <time>2018-03-31T10:08:23Z</time>
      </trkpt>
      <trkpt lat="45.98303" lon="4.79737">
        <ele>235</ele>
        <time>2018-03-31T10:08:24Z</time>
      </trkpt>
      <trkpt lat="45.98309" lon="4.79737">
        <ele>236</ele>
        <time>2018-03-31T10:08:25Z</time>
      </trkpt>
      <trkpt lat="45.98313" lon="4.79736">
        <ele>236</ele>
        <time>2018-03-31T10:08:26Z</time>
      </trkpt>
      <trkpt lat="45.98321" lon="4.79736">
        <ele>236</ele>
        <time>2018-03-31T10:08:29Z</time>
      </trkpt>
      <trkpt lat="45.98327" lon="4.79735">
        <ele>236</ele>
        <time>2018-03-31T10:08:30Z</time>
      </trkpt>
      <trkpt lat="45.98332" lon="4.79734">
        <ele>236</ele>
        <time>2018-03-31T10:08:32Z</time>
      </trkpt>
      <trkpt lat="45.98338" lon="4.79734">
        <ele>239</ele>
        <time>2018-03-31T10:08:33Z</time>
      </trkpt>
      <trkpt lat="45.98345" lon="4.79733">
        <ele>239</ele>
        <time>2018-03-31T10:08:36Z</time>
      </trkpt>
      <trkpt lat="45.98348" lon="4.79732">
        <ele>239</ele>
        <time>2018-03-31T10:08:37Z</time>
      </trkpt>
      <trkpt lat="45.98356" lon="4.79731">
        <ele>240</ele>
        <time>2018-03-31T10:08:40Z</time>
      </trkpt>
      <trkpt lat="45.98359" lon="4.79731">
        <ele>240</ele>
        <time>2018-03-31T10:08:41Z</time>
      </trkpt>
      <trkpt lat="45.98366" lon="4.7973">
        <ele>240</ele>
        <time>2018-03-31T10:08:43Z</time>
      </trkpt>
      <trkpt lat="45.98369" lon="4.79729">
        <ele>240</ele>
        <time>2018-03-31T10:08:44Z</time>
      </trkpt>
      <trkpt lat="45.98377" lon="4.79728">
        <ele>241</ele>
        <time>2018-03-31T10:08:46Z</time>
      </trkpt>
      <trkpt lat="45.9838" lon="4.79728">
        <ele>241</ele>
        <time>2018-03-31T10:08:47Z</time>
      </trkpt>
      <trkpt lat="45.98387" lon="4.79727">
        <ele>241</ele>
        <time>2018-03-31T10:08:49Z</time>
      </trkpt>
      <trkpt lat="45.98397" lon="4.79727">
        <ele>241</ele>
        <time>2018-03-31T10:08:50Z</time>
      </trkpt>
      <trkpt lat="45.98404" lon="4.79726">
        <ele>241</ele>
        <time>2018-03-31T10:08:52Z</time>
      </trkpt>
      <trkpt lat="45.98408" lon="4.79726">
        <ele>241</ele>
        <time>2018-03-31T10:08:53Z</time>
      </trkpt>
      <trkpt lat="45.98415" lon="4.79725">
        <ele>241</ele>
        <time>2018-03-31T10:08:55Z</time>
      </trkpt>
      <trkpt lat="45.98419" lon="4.79725">
        <ele>242</ele>
        <time>2018-03-31T10:08:56Z</time>
      </trkpt>
      <trkpt lat="45.98426" lon="4.79724">
        <ele>242</ele>
        <time>2018-03-31T10:08:58Z</time>
      </trkpt>
      <trkpt lat="45.9843" lon="4.79724">
        <ele>242</ele>
        <time>2018-03-31T10:08:59Z</time>
      </trkpt>
      <trkpt lat="45.98437" lon="4.79725">
        <ele>242</ele>
        <time>2018-03-31T10:09:01Z</time>
      </trkpt>
      <trkpt lat="45.98439" lon="4.79724">
        <ele>242</ele>
        <time>2018-03-31T10:09:02Z</time>
      </trkpt>
      <trkpt lat="45.98446" lon="4.79724">
        <ele>242</ele>
        <time>2018-03-31T10:09:04Z</time>
      </trkpt>
      <trkpt lat="45.98451" lon="4.79724">
        <ele>243</ele>
        <time>2018-03-31T10:09:05Z</time>
      </trkpt>
      <trkpt lat="45.98457" lon="4.79724">
        <ele>243</ele>
        <time>2018-03-31T10:09:07Z</time>
      </trkpt>
      <trkpt lat="45.98462" lon="4.79724">
        <ele>243</ele>
        <time>2018-03-31T10:09:08Z</time>
      </trkpt>
      <trkpt lat="45.9847" lon="4.79724">
        <ele>243</ele>
        <time>2018-03-31T10:09:10Z</time>
      </trkpt>
      <trkpt lat="45.98474" lon="4.79724">
        <ele>243</ele>
        <time>2018-03-31T10:09:11Z</time>
      </trkpt>
      <trkpt lat="45.98481" lon="4.79724">
        <ele>243</ele>
        <time>2018-03-31T10:09:13Z</time>
      </trkpt>
      <trkpt lat="45.98483" lon="4.79724">
        <ele>243</ele>
        <time>2018-03-31T10:09:14Z</time>
      </trkpt>
      <trkpt lat="45.98488" lon="4.79725">
        <ele>243</ele>
        <time>2018-03-31T10:09:15Z</time>
      </trkpt>
      <trkpt lat="45.98492" lon="4.79725">
        <ele>243</ele>
        <time>2018-03-31T10:09:16Z</time>
      </trkpt>
      <trkpt lat="45.985" lon="4.79726">
        <ele>243</ele>
        <time>2018-03-31T10:09:18Z</time>
      </trkpt>
      <trkpt lat="45.98503" lon="4.79726">
        <ele>244</ele>
        <time>2018-03-31T10:09:19Z</time>
      </trkpt>
      <trkpt lat="45.98511" lon="4.79726">
        <ele>244</ele>
        <time>2018-03-31T10:09:21Z</time>
      </trkpt>
      <trkpt lat="45.98514" lon="4.79726">
        <ele>244</ele>
        <time>2018-03-31T10:09:22Z</time>
      </trkpt>
      <trkpt lat="45.98521" lon="4.79724">
        <ele>244</ele>
        <time>2018-03-31T10:09:24Z</time>
      </trkpt>
      <trkpt lat="45.98525" lon="4.79723">
        <ele>244</ele>
        <time>2018-03-31T10:09:25Z</time>
      </trkpt>
      <trkpt lat="45.98532" lon="4.7972">
        <ele>244</ele>
        <time>2018-03-31T10:09:27Z</time>
      </trkpt>
      <trkpt lat="45.98536" lon="4.79717">
        <ele>244</ele>
        <time>2018-03-31T10:09:28Z</time>
      </trkpt>
      <trkpt lat="45.98543" lon="4.79713">
        <ele>244</ele>
        <time>2018-03-31T10:09:30Z</time>
      </trkpt>
      <trkpt lat="45.98546" lon="4.79711">
        <ele>244</ele>
        <time>2018-03-31T10:09:31Z</time>
      </trkpt>
      <trkpt lat="45.98552" lon="4.79707">
        <ele>244</ele>
        <time>2018-03-31T10:09:34Z</time>
      </trkpt>
      <trkpt lat="45.98555" lon="4.79705">
        <ele>244</ele>
        <time>2018-03-31T10:09:35Z</time>
      </trkpt>
      <trkpt lat="45.9856" lon="4.79701">
        <ele>244</ele>
        <time>2018-03-31T10:09:37Z</time>
      </trkpt>
      <trkpt lat="45.98562" lon="4.79698">
        <ele>244</ele>
        <time>2018-03-31T10:09:38Z</time>
      </trkpt>
      <trkpt lat="45.98565" lon="4.79695">
        <ele>244</ele>
        <time>2018-03-31T10:09:39Z</time>
      </trkpt>
      <trkpt lat="45.98572" lon="4.79687">
        <ele>244</ele>
        <time>2018-03-31T10:09:40Z</time>
      </trkpt>
      <trkpt lat="45.98576" lon="4.79679">
        <ele>245</ele>
        <time>2018-03-31T10:09:43Z</time>
      </trkpt>
      <trkpt lat="45.98578" lon="4.79676">
        <ele>245</ele>
        <time>2018-03-31T10:09:44Z</time>
      </trkpt>
      <trkpt lat="45.98581" lon="4.79669">
        <ele>245</ele>
        <time>2018-03-31T10:09:46Z</time>
      </trkpt>
      <trkpt lat="45.98587" lon="4.79659">
        <ele>245</ele>
        <time>2018-03-31T10:09:47Z</time>
      </trkpt>
      <trkpt lat="45.98592" lon="4.79651">
        <ele>245</ele>
        <time>2018-03-31T10:09:50Z</time>
      </trkpt>
      <trkpt lat="45.98594" lon="4.79648">
        <ele>245</ele>
        <time>2018-03-31T10:09:51Z</time>
      </trkpt>
      <trkpt lat="45.98598" lon="4.79642">
        <ele>245</ele>
        <time>2018-03-31T10:09:53Z</time>
      </trkpt>
      <trkpt lat="45.98605" lon="4.79634">
        <ele>245</ele>
        <time>2018-03-31T10:09:54Z</time>
      </trkpt>
      <trkpt lat="45.98612" lon="4.79629">
        <ele>245</ele>
        <time>2018-03-31T10:09:56Z</time>
      </trkpt>
      <trkpt lat="45.98616" lon="4.79627">
        <ele>245</ele>
        <time>2018-03-31T10:09:57Z</time>
      </trkpt>
      <trkpt lat="45.98622" lon="4.79622">
        <ele>245</ele>
        <time>2018-03-31T10:09:59Z</time>
      </trkpt>
      <trkpt lat="45.98625" lon="4.79617">
        <ele>245</ele>
        <time>2018-03-31T10:10:00Z</time>
      </trkpt>
      <trkpt lat="45.98626" lon="4.79611">
        <ele>245</ele>
        <time>2018-03-31T10:10:01Z</time>
      </trkpt>
      <trkpt lat="45.98627" lon="4.79604">
        <ele>245</ele>
        <time>2018-03-31T10:10:02Z</time>
      </trkpt>
      <trkpt lat="45.98622" lon="4.79594">
        <ele>245</ele>
        <time>2018-03-31T10:10:04Z</time>
      </trkpt>
      <trkpt lat="45.98619" lon="4.79589">
        <ele>245</ele>
        <time>2018-03-31T10:10:05Z</time>
      </trkpt>
      <trkpt lat="45.98614" lon="4.79586">
        <ele>245</ele>
        <time>2018-03-31T10:10:06Z</time>
      </trkpt>
      <trkpt lat="45.98608" lon="4.79584">
        <ele>245</ele>
        <time>2018-03-31T10:10:07Z</time>
      </trkpt>
      <trkpt lat="45.98603" lon="4.79586">
        <ele>245</ele>
        <time>2018-03-31T10:10:08Z</time>
      </trkpt>
      <trkpt lat="45.98598" lon="4.79588">
        <ele>245</ele>
        <time>2018-03-31T10:10:09Z</time>
      </trkpt>
      <trkpt lat="45.98592" lon="4.79588">
        <ele>245</ele>
        <time>2018-03-31T10:10:10Z</time>
      </trkpt>
      <trkpt lat="45.98586" lon="4.79587">
        <ele>245</ele>
        <time>2018-03-31T10:10:11Z</time>
      </trkpt>
      <trkpt lat="45.9858" lon="4.79586">
        <ele>245</ele>
        <time>2018-03-31T10:10:12Z</time>
      </trkpt>
      <trkpt lat="45.98574" lon="4.79582">
        <ele>245</ele>
        <time>2018-03-31T10:10:13Z</time>
      </trkpt>
      <trkpt lat="45.98568" lon="4.79579">
        <ele>245</ele>
        <time>2018-03-31T10:10:14Z</time>
      </trkpt>
      <trkpt lat="45.98563" lon="4.79574">
        <ele>244</ele>
        <time>2018-03-31T10:10:15Z</time>
      </trkpt>
      <trkpt lat="45.98558" lon="4.79568">
        <ele>244</ele>
        <time>2018-03-31T10:10:16Z</time>
      </trkpt>
      <trkpt lat="45.98552" lon="4.79563">
        <ele>244</ele>
        <time>2018-03-31T10:10:17Z</time>
      </trkpt>
      <trkpt lat="45.98549" lon="4.79556">
        <ele>244</ele>
        <time>2018-03-31T10:10:18Z</time>
      </trkpt>
      <trkpt lat="45.98544" lon="4.79549">
        <ele>244</ele>
        <time>2018-03-31T10:10:19Z</time>
      </trkpt>
      <trkpt lat="45.9854" lon="4.79541">
        <ele>244</ele>
        <time>2018-03-31T10:10:20Z</time>
      </trkpt>
      <trkpt lat="45.98537" lon="4.79533">
        <ele>244</ele>
        <time>2018-03-31T10:10:21Z</time>
      </trkpt>
      <trkpt lat="45.98533" lon="4.79524">
        <ele>244</ele>
        <time>2018-03-31T10:10:22Z</time>
      </trkpt>
      <trkpt lat="45.98531" lon="4.79515">
        <ele>244</ele>
        <time>2018-03-31T10:10:23Z</time>
      </trkpt>
      <trkpt lat="45.98529" lon="4.79506">
        <ele>244</ele>
        <time>2018-03-31T10:10:24Z</time>
      </trkpt>
      <trkpt lat="45.98527" lon="4.79497">
        <ele>244</ele>
        <time>2018-03-31T10:10:25Z</time>
      </trkpt>
      <trkpt lat="45.98526" lon="4.79488">
        <ele>244</ele>
        <time>2018-03-31T10:10:26Z</time>
      </trkpt>
      <trkpt lat="45.98526" lon="4.79478">
        <ele>244</ele>
        <time>2018-03-31T10:10:27Z</time>
      </trkpt>
      <trkpt lat="45.98526" lon="4.79469">
        <ele>244</ele>
        <time>2018-03-31T10:10:28Z</time>
      </trkpt>
      <trkpt lat="45.98525" lon="4.79459">
        <ele>244</ele>
        <time>2018-03-31T10:10:29Z</time>
      </trkpt>
      <trkpt lat="45.98525" lon="4.79449">
        <ele>244</ele>
        <time>2018-03-31T10:10:30Z</time>
      </trkpt>
      <trkpt lat="45.98525" lon="4.79439">
        <ele>244</ele>
        <time>2018-03-31T10:10:31Z</time>
      </trkpt>
      <trkpt lat="45.98524" lon="4.79429">
        <ele>244</ele>
        <time>2018-03-31T10:10:32Z</time>
      </trkpt>
      <trkpt lat="45.98524" lon="4.7942">
        <ele>244</ele>
        <time>2018-03-31T10:10:33Z</time>
      </trkpt>
      <trkpt lat="45.98523" lon="4.79411">
        <ele>244</ele>
        <time>2018-03-31T10:10:34Z</time>
      </trkpt>
      <trkpt lat="45.98522" lon="4.79402">
        <ele>244</ele>
        <time>2018-03-31T10:10:35Z</time>
      </trkpt>
      <trkpt lat="45.98521" lon="4.79392">
        <ele>244</ele>
        <time>2018-03-31T10:10:36Z</time>
      </trkpt>
      <trkpt lat="45.9852" lon="4.79383">
        <ele>244</ele>
        <time>2018-03-31T10:10:37Z</time>
      </trkpt>
      <trkpt lat="45.98518" lon="4.79372">
        <ele>243</ele>
        <time>2018-03-31T10:10:38Z</time>
      </trkpt>
      <trkpt lat="45.98516" lon="4.79363">
        <ele>243</ele>
        <time>2018-03-31T10:10:39Z</time>
      </trkpt>
      <trkpt lat="45.98514" lon="4.79355">
        <ele>243</ele>
        <time>2018-03-31T10:10:40Z</time>
      </trkpt>
      <trkpt lat="45.98512" lon="4.79346">
        <ele>243</ele>
        <time>2018-03-31T10:10:41Z</time>
      </trkpt>
      <trkpt lat="45.98508" lon="4.79335">
        <ele>243</ele>
        <time>2018-03-31T10:10:42Z</time>
      </trkpt>
      <trkpt lat="45.98506" lon="4.79327">
        <ele>243</ele>
        <time>2018-03-31T10:10:43Z</time>
      </trkpt>
      <trkpt lat="45.98504" lon="4.79318">
        <ele>243</ele>
        <time>2018-03-31T10:10:44Z</time>
      </trkpt>
      <trkpt lat="45.985" lon="4.79308">
        <ele>243</ele>
        <time>2018-03-31T10:10:45Z</time>
      </trkpt>
      <trkpt lat="45.98496" lon="4.793">
        <ele>243</ele>
        <time>2018-03-31T10:10:46Z</time>
      </trkpt>
      <trkpt lat="45.98492" lon="4.79291">
        <ele>243</ele>
        <time>2018-03-31T10:10:47Z</time>
      </trkpt>
      <trkpt lat="45.98489" lon="4.79282">
        <ele>243</ele>
        <time>2018-03-31T10:10:48Z</time>
      </trkpt>
      <trkpt lat="45.98484" lon="4.79274">
        <ele>243</ele>
        <time>2018-03-31T10:10:49Z</time>
      </trkpt>
      <trkpt lat="45.9848" lon="4.79266">
        <ele>243</ele>
        <time>2018-03-31T10:10:50Z</time>
      </trkpt>
      <trkpt lat="45.98476" lon="4.79257">
        <ele>243</ele>
        <time>2018-03-31T10:10:51Z</time>
      </trkpt>
      <trkpt lat="45.98471" lon="4.79247">
        <ele>243</ele>
        <time>2018-03-31T10:10:52Z</time>
      </trkpt>
      <trkpt lat="45.98467" lon="4.79239">
        <ele>243</ele>
        <time>2018-03-31T10:10:53Z</time>
      </trkpt>
      <trkpt lat="45.98463" lon="4.79232">
        <ele>243</ele>
        <time>2018-03-31T10:10:54Z</time>
      </trkpt>
      <trkpt lat="45.98459" lon="4.79225">
        <ele>243</ele>
        <time>2018-03-31T10:10:55Z</time>
      </trkpt>
      <trkpt lat="45.98456" lon="4.79217">
        <ele>243</ele>
        <time>2018-03-31T10:10:56Z</time>
      </trkpt>
      <trkpt lat="45.98452" lon="4.7921">
        <ele>242</ele>
        <time>2018-03-31T10:10:57Z</time>
      </trkpt>
      <trkpt lat="45.98448" lon="4.79203">
        <ele>242</ele>
        <time>2018-03-31T10:10:58Z</time>
      </trkpt>
      <trkpt lat="45.98444" lon="4.79196">
        <ele>242</ele>
        <time>2018-03-31T10:10:59Z</time>
      </trkpt>
      <trkpt lat="45.9844" lon="4.79189">
        <ele>242</ele>
        <time>2018-03-31T10:11:00Z</time>
      </trkpt>
      <trkpt lat="45.98438" lon="4.79181">
        <ele>242</ele>
        <time>2018-03-31T10:11:01Z</time>
      </trkpt>
      <trkpt lat="45.98434" lon="4.79173">
        <ele>242</ele>
        <time>2018-03-31T10:11:02Z</time>
      </trkpt>
      <trkpt lat="45.9843" lon="4.79166">
        <ele>242</ele>
        <time>2018-03-31T10:11:03Z</time>
      </trkpt>
      <trkpt lat="45.98426" lon="4.79161">
        <ele>242</ele>
        <time>2018-03-31T10:11:04Z</time>
      </trkpt>
      <trkpt lat="45.98423" lon="4.79153">
        <ele>242</ele>
        <time>2018-03-31T10:11:05Z</time>
      </trkpt>
      <trkpt lat="45.98419" lon="4.79147">
        <ele>242</ele>
        <time>2018-03-31T10:11:06Z</time>
      </trkpt>
      <trkpt lat="45.98414" lon="4.79138">
        <ele>242</ele>
        <time>2018-03-31T10:11:07Z</time>
      </trkpt>
      <trkpt lat="45.98411" lon="4.7913">
        <ele>242</ele>
        <time>2018-03-31T10:11:08Z</time>
      </trkpt>
      <trkpt lat="45.98408" lon="4.79123">
        <ele>242</ele>
        <time>2018-03-31T10:11:09Z</time>
      </trkpt>
      <trkpt lat="45.98404" lon="4.79115">
        <ele>242</ele>
        <time>2018-03-31T10:11:10Z</time>
      </trkpt>
      <trkpt lat="45.984" lon="4.79108">
        <ele>242</ele>
        <time>2018-03-31T10:11:11Z</time>
      </trkpt>
      <trkpt lat="45.98396" lon="4.791">
        <ele>242</ele>
        <time>2018-03-31T10:11:12Z</time>
      </trkpt>
      <trkpt lat="45.98391" lon="4.79092">
        <ele>242</ele>
        <time>2018-03-31T10:11:13Z</time>
      </trkpt>
      <trkpt lat="45.98387" lon="4.79085">
        <ele>242</ele>
        <time>2018-03-31T10:11:14Z</time>
      </trkpt>
      <trkpt lat="45.98383" lon="4.79077">
        <ele>242</ele>
        <time>2018-03-31T10:11:15Z</time>
      </trkpt>
      <trkpt lat="45.98378" lon="4.79071">
        <ele>242</ele>
        <time>2018-03-31T10:11:16Z</time>
      </trkpt>
      <trkpt lat="45.98374" lon="4.79063">
        <ele>242</ele>
        <time>2018-03-31T10:11:17Z</time>
      </trkpt>
      <trkpt lat="45.9837" lon="4.79055">
        <ele>242</ele>
        <time>2018-03-31T10:11:18Z</time>
      </trkpt>
      <trkpt lat="45.98365" lon="4.79046">
        <ele>242</ele>
        <time>2018-03-31T10:11:19Z</time>
      </trkpt>
      <trkpt lat="45.9836" lon="4.7904">
        <ele>242</ele>
        <time>2018-03-31T10:11:20Z</time>
      </trkpt>
      <trkpt lat="45.98355" lon="4.79033">
        <ele>242</ele>
        <time>2018-03-31T10:11:21Z</time>
      </trkpt>
      <trkpt lat="45.9835" lon="4.79026">
        <ele>242</ele>
        <time>2018-03-31T10:11:22Z</time>
      </trkpt>
      <trkpt lat="45.98343" lon="4.7902">
        <ele>242</ele>
        <time>2018-03-31T10:11:23Z</time>
      </trkpt>
      <trkpt lat="45.98337" lon="4.79015">
        <ele>242</ele>
        <time>2018-03-31T10:11:24Z</time>
      </trkpt>
      <trkpt lat="45.98329" lon="4.79011">
        <ele>242</ele>
        <time>2018-03-31T10:11:25Z</time>
      </trkpt>
      <trkpt lat="45.98322" lon="4.79005">
        <ele>242</ele>
        <time>2018-03-31T10:11:26Z</time>
      </trkpt>
      <trkpt lat="45.98315" lon="4.79002">
        <ele>242</ele>
        <time>2018-03-31T10:11:27Z</time>
      </trkpt>
      <trkpt lat="45.98308" lon="4.78998">
        <ele>241</ele>
        <time>2018-03-31T10:11:28Z</time>
      </trkpt>
      <trkpt lat="45.98301" lon="4.78994">
        <ele>241</ele>
        <time>2018-03-31T10:11:29Z</time>
      </trkpt>
      <trkpt lat="45.98295" lon="4.7899">
        <ele>241</ele>
        <time>2018-03-31T10:11:30Z</time>
      </trkpt>
      <trkpt lat="45.98288" lon="4.78985">
        <ele>241</ele>
        <time>2018-03-31T10:11:31Z</time>
      </trkpt>
      <trkpt lat="45.98282" lon="4.78982">
        <ele>241</ele>
        <time>2018-03-31T10:11:32Z</time>
      </trkpt>
      <trkpt lat="45.98275" lon="4.78978">
        <ele>241</ele>
        <time>2018-03-31T10:11:33Z</time>
      </trkpt>
      <trkpt lat="45.98268" lon="4.78974">
        <ele>241</ele>
        <time>2018-03-31T10:11:34Z</time>
      </trkpt>
      <trkpt lat="45.98262" lon="4.78971">
        <ele>241</ele>
        <time>2018-03-31T10:11:35Z</time>
      </trkpt>
      <trkpt lat="45.98255" lon="4.78967">
        <ele>241</ele>
        <time>2018-03-31T10:11:36Z</time>
      </trkpt>
      <trkpt lat="45.98249" lon="4.78963">
        <ele>241</ele>
        <time>2018-03-31T10:11:37Z</time>
      </trkpt>
      <trkpt lat="45.98242" lon="4.78959">
        <ele>241</ele>
        <time>2018-03-31T10:11:38Z</time>
      </trkpt>
      <trkpt lat="45.98236" lon="4.78954">
        <ele>241</ele>
        <time>2018-03-31T10:11:39Z</time>
      </trkpt>
      <trkpt lat="45.98231" lon="4.7895">
        <ele>241</ele>
        <time>2018-03-31T10:11:40Z</time>
      </trkpt>
      <trkpt lat="45.98227" lon="4.78945">
        <ele>241</ele>
        <time>2018-03-31T10:11:41Z</time>
      </trkpt>
      <trkpt lat="45.98217" lon="4.78942">
        <ele>241</ele>
        <time>2018-03-31T10:11:42Z</time>
      </trkpt>
      <trkpt lat="45.98211" lon="4.78938">
        <ele>241</ele>
        <time>2018-03-31T10:11:43Z</time>
      </trkpt>
      <trkpt lat="45.98203" lon="4.78934">
        <ele>241</ele>
        <time>2018-03-31T10:11:44Z</time>
      </trkpt>
      <trkpt lat="45.98196" lon="4.78931">
        <ele>241</ele>
        <time>2018-03-31T10:11:45Z</time>
      </trkpt>
      <trkpt lat="45.98189" lon="4.78927">
        <ele>241</ele>
        <time>2018-03-31T10:11:46Z</time>
      </trkpt>
      <trkpt lat="45.98181" lon="4.78923">
        <ele>240</ele>
        <time>2018-03-31T10:11:47Z</time>
      </trkpt>
      <trkpt lat="45.98174" lon="4.7892">
        <ele>240</ele>
        <time>2018-03-31T10:11:48Z</time>
      </trkpt>
      <trkpt lat="45.98168" lon="4.78915">
        <ele>240</ele>
        <time>2018-03-31T10:11:49Z</time>
      </trkpt>
      <trkpt lat="45.98161" lon="4.78912">
        <ele>240</ele>
        <time>2018-03-31T10:11:50Z</time>
      </trkpt>
      <trkpt lat="45.98155" lon="4.78907">
        <ele>240</ele>
        <time>2018-03-31T10:11:51Z</time>
      </trkpt>
      <trkpt lat="45.98149" lon="4.78903">
        <ele>240</ele>
        <time>2018-03-31T10:11:52Z</time>
      </trkpt>
      <trkpt lat="45.98142" lon="4.78899">
        <ele>240</ele>
        <time>2018-03-31T10:11:53Z</time>
      </trkpt>
      <trkpt lat="45.98135" lon="4.78896">
        <ele>240</ele>
        <time>2018-03-31T10:11:54Z</time>
      </trkpt>
      <trkpt lat="45.98129" lon="4.78893">
        <ele>240</ele>
        <time>2018-03-31T10:11:55Z</time>
      </trkpt>
      <trkpt lat="45.98123" lon="4.78889">
        <ele>240</ele>
        <time>2018-03-31T10:11:56Z</time>
      </trkpt>
      <trkpt lat="45.98118" lon="4.78885">
        <ele>240</ele>
        <time>2018-03-31T10:11:57Z</time>
      </trkpt>
      <trkpt lat="45.98111" lon="4.78881">
        <ele>240</ele>
        <time>2018-03-31T10:11:58Z</time>
      </trkpt>
      <trkpt lat="45.98105" lon="4.78876">
        <ele>240</ele>
        <time>2018-03-31T10:11:59Z</time>
      </trkpt>
      <trkpt lat="45.98097" lon="4.78873">
        <ele>239</ele>
        <time>2018-03-31T10:12:00Z</time>
      </trkpt>
      <trkpt lat="45.98092" lon="4.78868">
        <ele>239</ele>
        <time>2018-03-31T10:12:01Z</time>
      </trkpt>
      <trkpt lat="45.98086" lon="4.78864">
        <ele>239</ele>
        <time>2018-03-31T10:12:02Z</time>
      </trkpt>
      <trkpt lat="45.9808" lon="4.7886">
        <ele>239</ele>
        <time>2018-03-31T10:12:03Z</time>
      </trkpt>
      <trkpt lat="45.98074" lon="4.78855">
        <ele>239</ele>
        <time>2018-03-31T10:12:04Z</time>
      </trkpt>
      <trkpt lat="45.98068" lon="4.78851">
        <ele>239</ele>
        <time>2018-03-31T10:12:05Z</time>
      </trkpt>
      <trkpt lat="45.98061" lon="4.78846">
        <ele>239</ele>
        <time>2018-03-31T10:12:06Z</time>
      </trkpt>
      <trkpt lat="45.98055" lon="4.78841">
        <ele>238</ele>
        <time>2018-03-31T10:12:07Z</time>
      </trkpt>
      <trkpt lat="45.98049" lon="4.78837">
        <ele>238</ele>
        <time>2018-03-31T10:12:08Z</time>
      </trkpt>
      <trkpt lat="45.98042" lon="4.78832">
        <ele>238</ele>
        <time>2018-03-31T10:12:09Z</time>
      </trkpt>
      <trkpt lat="45.98037" lon="4.78827">
        <ele>238</ele>
        <time>2018-03-31T10:12:10Z</time>
      </trkpt>
      <trkpt lat="45.9803" lon="4.78824">
        <ele>238</ele>
        <time>2018-03-31T10:12:11Z</time>
      </trkpt>
      <trkpt lat="45.98022" lon="4.78821">
        <ele>238</ele>
        <time>2018-03-31T10:12:12Z</time>
      </trkpt>
      <trkpt lat="45.98016" lon="4.78817">
        <ele>238</ele>
        <time>2018-03-31T10:12:13Z</time>
      </trkpt>
      <trkpt lat="45.9801" lon="4.78813">
        <ele>238</ele>
        <time>2018-03-31T10:12:14Z</time>
      </trkpt>
      <trkpt lat="45.98006" lon="4.78808">
        <ele>238</ele>
        <time>2018-03-31T10:12:15Z</time>
      </trkpt>
      <trkpt lat="45.98001" lon="4.78804">
        <ele>238</ele>
        <time>2018-03-31T10:12:16Z</time>
      </trkpt>
      <trkpt lat="45.97995" lon="4.788">
        <ele>238</ele>
        <time>2018-03-31T10:12:17Z</time>
      </trkpt>
      <trkpt lat="45.97989" lon="4.78795">
        <ele>238</ele>
        <time>2018-03-31T10:12:18Z</time>
      </trkpt>
      <trkpt lat="45.97983" lon="4.78791">
        <ele>238</ele>
        <time>2018-03-31T10:12:19Z</time>
      </trkpt>
      <trkpt lat="45.97977" lon="4.78786">
        <ele>238</ele>
        <time>2018-03-31T10:12:20Z</time>
      </trkpt>
      <trkpt lat="45.97972" lon="4.78783">
        <ele>238</ele>
        <time>2018-03-31T10:12:21Z</time>
      </trkpt>
      <trkpt lat="45.97968" lon="4.78777">
        <ele>238</ele>
        <time>2018-03-31T10:12:22Z</time>
      </trkpt>
      <trkpt lat="45.97962" lon="4.78773">
        <ele>238</ele>
        <time>2018-03-31T10:12:23Z</time>
      </trkpt>
      <trkpt lat="45.97956" lon="4.78769">
        <ele>238</ele>
        <time>2018-03-31T10:12:24Z</time>
      </trkpt>
      <trkpt lat="45.9795" lon="4.78764">
        <ele>238</ele>
        <time>2018-03-31T10:12:25Z</time>
      </trkpt>
      <trkpt lat="45.97945" lon="4.78759">
        <ele>238</ele>
        <time>2018-03-31T10:12:26Z</time>
      </trkpt>
      <trkpt lat="45.97939" lon="4.78755">
        <ele>238</ele>
        <time>2018-03-31T10:12:27Z</time>
      </trkpt>
      <trkpt lat="45.97935" lon="4.7875">
        <ele>238</ele>
        <time>2018-03-31T10:12:28Z</time>
      </trkpt>
      <trkpt lat="45.97929" lon="4.78745">
        <ele>237</ele>
        <time>2018-03-31T10:12:29Z</time>
      </trkpt>
      <trkpt lat="45.97923" lon="4.78742">
        <ele>237</ele>
        <time>2018-03-31T10:12:30Z</time>
      </trkpt>
      <trkpt lat="45.97917" lon="4.78737">
        <ele>237</ele>
        <time>2018-03-31T10:12:31Z</time>
      </trkpt>
      <trkpt lat="45.97912" lon="4.78732">
        <ele>237</ele>
        <time>2018-03-31T10:12:32Z</time>
      </trkpt>
      <trkpt lat="45.97906" lon="4.78728">
        <ele>237</ele>
        <time>2018-03-31T10:12:33Z</time>
      </trkpt>
      <trkpt lat="45.979" lon="4.78724">
        <ele>237</ele>
        <time>2018-03-31T10:12:34Z</time>
      </trkpt>
      <trkpt lat="45.97894" lon="4.7872">
        <ele>236</ele>
        <time>2018-03-31T10:12:35Z</time>
      </trkpt>
      <trkpt lat="45.97887" lon="4.78716">
        <ele>236</ele>
        <time>2018-03-31T10:12:36Z</time>
      </trkpt>
      <trkpt lat="45.97882" lon="4.78712">
        <ele>236</ele>
        <time>2018-03-31T10:12:37Z</time>
      </trkpt>
      <trkpt lat="45.97876" lon="4.78708">
        <ele>236</ele>
        <time>2018-03-31T10:12:38Z</time>
      </trkpt>
      <trkpt lat="45.9787" lon="4.78705">
        <ele>236</ele>
        <time>2018-03-31T10:12:39Z</time>
      </trkpt>
      <trkpt lat="45.97863" lon="4.78702">
        <ele>236</ele>
        <time>2018-03-31T10:12:40Z</time>
      </trkpt>
      <trkpt lat="45.97857" lon="4.78699">
        <ele>236</ele>
        <time>2018-03-31T10:12:41Z</time>
      </trkpt>
      <trkpt lat="45.97851" lon="4.78696">
        <ele>236</ele>
        <time>2018-03-31T10:12:42Z</time>
      </trkpt>
      <trkpt lat="45.97845" lon="4.78693">
        <ele>236</ele>
        <time>2018-03-31T10:12:43Z</time>
      </trkpt>
      <trkpt lat="45.97839" lon="4.7869">
        <ele>236</ele>
        <time>2018-03-31T10:12:44Z</time>
      </trkpt>
      <trkpt lat="45.97833" lon="4.78687">
        <ele>235</ele>
        <time>2018-03-31T10:12:45Z</time>
      </trkpt>
      <trkpt lat="45.97826" lon="4.78685">
        <ele>235</ele>
        <time>2018-03-31T10:12:46Z</time>
      </trkpt>
      <trkpt lat="45.97821" lon="4.78681">
        <ele>235</ele>
        <time>2018-03-31T10:12:47Z</time>
      </trkpt>
      <trkpt lat="45.97814" lon="4.78678">
        <ele>235</ele>
        <time>2018-03-31T10:12:48Z</time>
      </trkpt>
      <trkpt lat="45.97809" lon="4.78675">
        <ele>235</ele>
        <time>2018-03-31T10:12:49Z</time>
      </trkpt>
      <trkpt lat="45.97802" lon="4.78672">
        <ele>235</ele>
        <time>2018-03-31T10:12:50Z</time>
      </trkpt>
      <trkpt lat="45.97795" lon="4.7867">
        <ele>235</ele>
        <time>2018-03-31T10:12:51Z</time>
      </trkpt>
      <trkpt lat="45.97789" lon="4.78667">
        <ele>235</ele>
        <time>2018-03-31T10:12:52Z</time>
      </trkpt>
      <trkpt lat="45.97783" lon="4.78664">
        <ele>235</ele>
        <time>2018-03-31T10:12:53Z</time>
      </trkpt>
      <trkpt lat="45.97776" lon="4.78662">
        <ele>235</ele>
        <time>2018-03-31T10:12:54Z</time>
      </trkpt>
      <trkpt lat="45.9777" lon="4.78659">
        <ele>235</ele>
        <time>2018-03-31T10:12:55Z</time>
      </trkpt>
      <trkpt lat="45.97764" lon="4.78657">
        <ele>235</ele>
        <time>2018-03-31T10:12:56Z</time>
      </trkpt>
      <trkpt lat="45.97757" lon="4.78654">
        <ele>235</ele>
        <time>2018-03-31T10:12:57Z</time>
      </trkpt>
      <trkpt lat="45.97751" lon="4.78652">
        <ele>235</ele>
        <time>2018-03-31T10:12:58Z</time>
      </trkpt>
      <trkpt lat="45.97744" lon="4.7865">
        <ele>234</ele>
        <time>2018-03-31T10:12:59Z</time>
      </trkpt>
      <trkpt lat="45.97738" lon="4.78647">
        <ele>234</ele>
        <time>2018-03-31T10:13:00Z</time>
      </trkpt>
      <trkpt lat="45.97732" lon="4.78644">
        <ele>234</ele>
        <time>2018-03-31T10:13:01Z</time>
      </trkpt>
      <trkpt lat="45.97726" lon="4.78642">
        <ele>234</ele>
        <time>2018-03-31T10:13:02Z</time>
      </trkpt>
      <trkpt lat="45.9772" lon="4.78639">
        <ele>234</ele>
        <time>2018-03-31T10:13:03Z</time>
      </trkpt>
      <trkpt lat="45.97714" lon="4.78637">
        <ele>234</ele>
        <time>2018-03-31T10:13:04Z</time>
      </trkpt>
      <trkpt lat="45.97707" lon="4.78634">
        <ele>234</ele>
        <time>2018-03-31T10:13:05Z</time>
      </trkpt>
      <trkpt lat="45.97701" lon="4.78631">
        <ele>234</ele>
        <time>2018-03-31T10:13:06Z</time>
      </trkpt>
      <trkpt lat="45.97695" lon="4.78628">
        <ele>234</ele>
        <time>2018-03-31T10:13:07Z</time>
      </trkpt>
      <trkpt lat="45.9769" lon="4.78626">
        <ele>234</ele>
        <time>2018-03-31T10:13:08Z</time>
      </trkpt>
      <trkpt lat="45.97684" lon="4.78624">
        <ele>234</ele>
        <time>2018-03-31T10:13:09Z</time>
      </trkpt>
      <trkpt lat="45.97678" lon="4.78621">
        <ele>234</ele>
        <time>2018-03-31T10:13:10Z</time>
      </trkpt>
      <trkpt lat="45.97672" lon="4.78619">
        <ele>234</ele>
        <time>2018-03-31T10:13:11Z</time>
      </trkpt>
      <trkpt lat="45.97666" lon="4.78617">
        <ele>233</ele>
        <time>2018-03-31T10:13:12Z</time>
      </trkpt>
      <trkpt lat="45.97659" lon="4.78615">
        <ele>233</ele>
        <time>2018-03-31T10:13:13Z</time>
      </trkpt>
      <trkpt lat="45.97653" lon="4.78612">
        <ele>233</ele>
        <time>2018-03-31T10:13:14Z</time>
      </trkpt>
      <trkpt lat="45.97647" lon="4.7861">
        <ele>233</ele>
        <time>2018-03-31T10:13:15Z</time>
      </trkpt>
      <trkpt lat="45.97642" lon="4.78607">
        <ele>233</ele>
        <time>2018-03-31T10:13:16Z</time>
      </trkpt>
      <trkpt lat="45.97638" lon="4.78604">
        <ele>233</ele>
        <time>2018-03-31T10:13:17Z</time>
      </trkpt>
      <trkpt lat="45.97631" lon="4.78602">
        <ele>233</ele>
        <time>2018-03-31T10:13:18Z</time>
      </trkpt>
      <trkpt lat="45.97626" lon="4.786">
        <ele>233</ele>
        <time>2018-03-31T10:13:19Z</time>
      </trkpt>
      <trkpt lat="45.97619" lon="4.78597">
        <ele>233</ele>
        <time>2018-03-31T10:13:20Z</time>
      </trkpt>
      <trkpt lat="45.97613" lon="4.78594">
        <ele>233</ele>
        <time>2018-03-31T10:13:21Z</time>
      </trkpt>
      <trkpt lat="45.97609" lon="4.78592">
        <ele>233</ele>
        <time>2018-03-31T10:13:22Z</time>
      </trkpt>
      <trkpt lat="45.97602" lon="4.7859">
        <ele>233</ele>
        <time>2018-03-31T10:13:23Z</time>
      </trkpt>
      <trkpt lat="45.97596" lon="4.78587">
        <ele>233</ele>
        <time>2018-03-31T10:13:24Z</time>
      </trkpt>
      <trkpt lat="45.97592" lon="4.78585">
        <ele>233</ele>
        <time>2018-03-31T10:13:25Z</time>
      </trkpt>
      <trkpt lat="45.97586" lon="4.78583">
        <ele>233</ele>
        <time>2018-03-31T10:13:26Z</time>
      </trkpt>
      <trkpt lat="45.9758" lon="4.78581">
        <ele>233</ele>
        <time>2018-03-31T10:13:27Z</time>
      </trkpt>
      <trkpt lat="45.97574" lon="4.78579">
        <ele>233</ele>
        <time>2018-03-31T10:13:28Z</time>
      </trkpt>
      <trkpt lat="45.97568" lon="4.78576">
        <ele>233</ele>
        <time>2018-03-31T10:13:29Z</time>
      </trkpt>
      <trkpt lat="45.97564" lon="4.78574">
        <ele>233</ele>
        <time>2018-03-31T10:13:30Z</time>
      </trkpt>
      <trkpt lat="45.97558" lon="4.78572">
        <ele>233</ele>
        <time>2018-03-31T10:13:31Z</time>
      </trkpt>
      <trkpt lat="45.97552" lon="4.78569">
        <ele>234</ele>
        <time>2018-03-31T10:13:32Z</time>
      </trkpt>
      <trkpt lat="45.97546" lon="4.78567">
        <ele>234</ele>
        <time>2018-03-31T10:13:33Z</time>
      </trkpt>
      <trkpt lat="45.9754" lon="4.78565">
        <ele>234</ele>
        <time>2018-03-31T10:13:34Z</time>
      </trkpt>
      <trkpt lat="45.97534" lon="4.78562">
        <ele>234</ele>
        <time>2018-03-31T10:13:35Z</time>
      </trkpt>
      <trkpt lat="45.97529" lon="4.7856">
        <ele>234</ele>
        <time>2018-03-31T10:13:36Z</time>
      </trkpt>
      <trkpt lat="45.97523" lon="4.78557">
        <ele>234</ele>
        <time>2018-03-31T10:13:37Z</time>
      </trkpt>
      <trkpt lat="45.97518" lon="4.78554">
        <ele>234</ele>
        <time>2018-03-31T10:13:38Z</time>
      </trkpt>
      <trkpt lat="45.97512" lon="4.7855">
        <ele>234</ele>
        <time>2018-03-31T10:13:39Z</time>
      </trkpt>
      <trkpt lat="45.97506" lon="4.78547">
        <ele>234</ele>
        <time>2018-03-31T10:13:40Z</time>
      </trkpt>
      <trkpt lat="45.97501" lon="4.78544">
        <ele>234</ele>
        <time>2018-03-31T10:13:41Z</time>
      </trkpt>
      <trkpt lat="45.97496" lon="4.7854">
        <ele>233</ele>
        <time>2018-03-31T10:13:42Z</time>
      </trkpt>
      <trkpt lat="45.97491" lon="4.78536">
        <ele>233</ele>
        <time>2018-03-31T10:13:43Z</time>
      </trkpt>
      <trkpt lat="45.97486" lon="4.78532">
        <ele>233</ele>
        <time>2018-03-31T10:13:44Z</time>
      </trkpt>
      <trkpt lat="45.97481" lon="4.78527">
        <ele>233</ele>
        <time>2018-03-31T10:13:45Z</time>
      </trkpt>
      <trkpt lat="45.97476" lon="4.78523">
        <ele>233</ele>
        <time>2018-03-31T10:13:46Z</time>
      </trkpt>
      <trkpt lat="45.97471" lon="4.7852">
        <ele>233</ele>
        <time>2018-03-31T10:13:47Z</time>
      </trkpt>
      <trkpt lat="45.97465" lon="4.78517">
        <ele>233</ele>
        <time>2018-03-31T10:13:48Z</time>
      </trkpt>
      <trkpt lat="45.9746" lon="4.78513">
        <ele>233</ele>
        <time>2018-03-31T10:13:49Z</time>
      </trkpt>
      <trkpt lat="45.97454" lon="4.78508">
        <ele>234</ele>
        <time>2018-03-31T10:13:50Z</time>
      </trkpt>
      <trkpt lat="45.97448" lon="4.78505">
        <ele>234</ele>
        <time>2018-03-31T10:13:51Z</time>
      </trkpt>
      <trkpt lat="45.97444" lon="4.785">
        <ele>234</ele>
        <time>2018-03-31T10:13:52Z</time>
      </trkpt>
      <trkpt lat="45.97439" lon="4.78496">
        <ele>234</ele>
        <time>2018-03-31T10:13:53Z</time>
      </trkpt>
      <trkpt lat="45.97435" lon="4.7849">
        <ele>234</ele>
        <time>2018-03-31T10:13:54Z</time>
      </trkpt>
      <trkpt lat="45.9743" lon="4.78486">
        <ele>234</ele>
        <time>2018-03-31T10:13:55Z</time>
      </trkpt>
      <trkpt lat="45.97426" lon="4.78481">
        <ele>234</ele>
        <time>2018-03-31T10:13:56Z</time>
      </trkpt>
      <trkpt lat="45.97421" lon="4.78476">
        <ele>234</ele>
        <time>2018-03-31T10:13:57Z</time>
      </trkpt>
      <trkpt lat="45.97416" lon="4.78471">
        <ele>233</ele>
        <time>2018-03-31T10:13:58Z</time>
      </trkpt>
      <trkpt lat="45.97411" lon="4.78466">
        <ele>233</ele>
        <time>2018-03-31T10:13:59Z</time>
      </trkpt>
      <trkpt lat="45.97407" lon="4.7846">
        <ele>233</ele>
        <time>2018-03-31T10:14:00Z</time>
      </trkpt>
      <trkpt lat="45.97402" lon="4.78455">
        <ele>233</ele>
        <time>2018-03-31T10:14:01Z</time>
      </trkpt>
      <trkpt lat="45.97397" lon="4.7845">
        <ele>233</ele>
        <time>2018-03-31T10:14:02Z</time>
      </trkpt>
      <trkpt lat="45.97391" lon="4.78446">
        <ele>233</ele>
        <time>2018-03-31T10:14:03Z</time>
      </trkpt>
      <trkpt lat="45.97386" lon="4.7844">
        <ele>233</ele>
        <time>2018-03-31T10:14:04Z</time>
      </trkpt>
      <trkpt lat="45.9738" lon="4.78435">
        <ele>233</ele>
        <time>2018-03-31T10:14:05Z</time>
      </trkpt>
      <trkpt lat="45.97375" lon="4.7843">
        <ele>233</ele>
        <time>2018-03-31T10:14:06Z</time>
      </trkpt>
      <trkpt lat="45.9737" lon="4.78424">
        <ele>233</ele>
        <time>2018-03-31T10:14:07Z</time>
      </trkpt>
      <trkpt lat="45.97365" lon="4.78418">
        <ele>233</ele>
        <time>2018-03-31T10:14:08Z</time>
      </trkpt>
      <trkpt lat="45.9736" lon="4.78412">
        <ele>233</ele>
        <time>2018-03-31T10:14:09Z</time>
      </trkpt>
      <trkpt lat="45.97354" lon="4.78407">
        <ele>232</ele>
        <time>2018-03-31T10:14:10Z</time>
      </trkpt>
      <trkpt lat="45.97349" lon="4.78402">
        <ele>232</ele>
        <time>2018-03-31T10:14:11Z</time>
      </trkpt>
      <trkpt lat="45.97344" lon="4.78396">
        <ele>232</ele>
        <time>2018-03-31T10:14:12Z</time>
      </trkpt>
      <trkpt lat="45.97339" lon="4.7839">
        <ele>233</ele>
        <time>2018-03-31T10:14:13Z</time>
      </trkpt>
      <trkpt lat="45.97334" lon="4.78383">
        <ele>233</ele>
        <time>2018-03-31T10:14:14Z</time>
      </trkpt>
      <trkpt lat="45.97329" lon="4.78377">
        <ele>232</ele>
        <time>2018-03-31T10:14:15Z</time>
      </trkpt>
      <trkpt lat="45.97323" lon="4.78371">
        <ele>232</ele>
        <time>2018-03-31T10:14:16Z</time>
      </trkpt>
      <trkpt lat="45.97318" lon="4.78364">
        <ele>232</ele>
        <time>2018-03-31T10:14:17Z</time>
      </trkpt>
      <trkpt lat="45.97312" lon="4.78357">
        <ele>232</ele>
        <time>2018-03-31T10:14:18Z</time>
      </trkpt>
      <trkpt lat="45.97307" lon="4.7835">
        <ele>232</ele>
        <time>2018-03-31T10:14:19Z</time>
      </trkpt>
      <trkpt lat="45.97302" lon="4.78344">
        <ele>232</ele>
        <time>2018-03-31T10:14:20Z</time>
      </trkpt>
      <trkpt lat="45.97296" lon="4.78337">
        <ele>232</ele>
        <time>2018-03-31T10:14:21Z</time>
      </trkpt>
      <trkpt lat="45.97292" lon="4.7833">
        <ele>232</ele>
        <time>2018-03-31T10:14:22Z</time>
      </trkpt>
      <trkpt lat="45.97287" lon="4.78323">
        <ele>232</ele>
        <time>2018-03-31T10:14:23Z</time>
      </trkpt>
      <trkpt lat="45.97283" lon="4.78317">
        <ele>232</ele>
        <time>2018-03-31T10:14:24Z</time>
      </trkpt>
      <trkpt lat="45.97278" lon="4.78311">
        <ele>232</ele>
        <time>2018-03-31T10:14:25Z</time>
      </trkpt>
      <trkpt lat="45.97273" lon="4.78304">
        <ele>232</ele>
        <time>2018-03-31T10:14:26Z</time>
      </trkpt>
      <trkpt lat="45.97268" lon="4.78298">
        <ele>232</ele>
        <time>2018-03-31T10:14:27Z</time>
      </trkpt>
      <trkpt lat="45.97263" lon="4.7829">
        <ele>232</ele>
        <time>2018-03-31T10:14:28Z</time>
      </trkpt>
      <trkpt lat="45.97258" lon="4.78282">
        <ele>232</ele>
        <time>2018-03-31T10:14:29Z</time>
      </trkpt>
      <trkpt lat="45.97253" lon="4.78275">
        <ele>232</ele>
        <time>2018-03-31T10:14:30Z</time>
      </trkpt>
      <trkpt lat="45.97249" lon="4.78268">
        <ele>231</ele>
        <time>2018-03-31T10:14:31Z</time>
      </trkpt>
      <trkpt lat="45.97244" lon="4.78261">
        <ele>231</ele>
        <time>2018-03-31T10:14:32Z</time>
      </trkpt>
      <trkpt lat="45.97239" lon="4.78253">
        <ele>231</ele>
        <time>2018-03-31T10:14:33Z</time>
      </trkpt>
      <trkpt lat="45.97235" lon="4.78245">
        <ele>231</ele>
        <time>2018-03-31T10:14:34Z</time>
      </trkpt>
      <trkpt lat="45.97231" lon="4.78238">
        <ele>231</ele>
        <time>2018-03-31T10:14:35Z</time>
      </trkpt>
      <trkpt lat="45.97227" lon="4.78229">
        <ele>231</ele>
        <time>2018-03-31T10:14:36Z</time>
      </trkpt>
      <trkpt lat="45.97223" lon="4.78222">
        <ele>231</ele>
        <time>2018-03-31T10:14:37Z</time>
      </trkpt>
      <trkpt lat="45.97217" lon="4.78215">
        <ele>231</ele>
        <time>2018-03-31T10:14:38Z</time>
      </trkpt>
      <trkpt lat="45.97213" lon="4.78208">
        <ele>231</ele>
        <time>2018-03-31T10:14:39Z</time>
      </trkpt>
      <trkpt lat="45.9721" lon="4.78199">
        <ele>231</ele>
        <time>2018-03-31T10:14:40Z</time>
      </trkpt>
      <trkpt lat="45.97205" lon="4.78191">
        <ele>231</ele>
        <time>2018-03-31T10:14:41Z</time>
      </trkpt>
      <trkpt lat="45.97201" lon="4.78184">
        <ele>231</ele>
        <time>2018-03-31T10:14:42Z</time>
      </trkpt>
      <trkpt lat="45.97198" lon="4.78177">
        <ele>231</ele>
        <time>2018-03-31T10:14:43Z</time>
      </trkpt>
      <trkpt lat="45.97193" lon="4.78169">
        <ele>231</ele>
        <time>2018-03-31T10:14:44Z</time>
      </trkpt>
      <trkpt lat="45.97189" lon="4.78162">
        <ele>231</ele>
        <time>2018-03-31T10:14:45Z</time>
      </trkpt>
      <trkpt lat="45.97185" lon="4.78155">
        <ele>231</ele>
        <time>2018-03-31T10:14:46Z</time>
      </trkpt>
      <trkpt lat="45.97181" lon="4.78148">
        <ele>231</ele>
        <time>2018-03-31T10:14:47Z</time>
      </trkpt>
      <trkpt lat="45.97177" lon="4.7814">
        <ele>231</ele>
        <time>2018-03-31T10:14:48Z</time>
      </trkpt>
      <trkpt lat="45.97174" lon="4.78133">
        <ele>231</ele>
        <time>2018-03-31T10:14:49Z</time>
      </trkpt>
      <trkpt lat="45.9717" lon="4.78125">
        <ele>231</ele>
        <time>2018-03-31T10:14:50Z</time>
      </trkpt>
      <trkpt lat="45.97166" lon="4.78118">
        <ele>230</ele>
        <time>2018-03-31T10:14:51Z</time>
      </trkpt>
      <trkpt lat="45.97161" lon="4.78111">
        <ele>230</ele>
        <time>2018-03-31T10:14:52Z</time>
      </trkpt>
      <trkpt lat="45.97156" lon="4.78103">
        <ele>230</ele>
        <time>2018-03-31T10:14:53Z</time>
      </trkpt>
      <trkpt lat="45.97152" lon="4.78095">
        <ele>230</ele>
        <time>2018-03-31T10:14:54Z</time>
      </trkpt>
      <trkpt lat="45.97147" lon="4.78088">
        <ele>230</ele>
        <time>2018-03-31T10:14:55Z</time>
      </trkpt>
      <trkpt lat="45.97142" lon="4.78081">
        <ele>230</ele>
        <time>2018-03-31T10:14:56Z</time>
      </trkpt>
      <trkpt lat="45.97138" lon="4.78074">
        <ele>230</ele>
        <time>2018-03-31T10:14:57Z</time>
      </trkpt>
      <trkpt lat="45.97133" lon="4.78067">
        <ele>230</ele>
        <time>2018-03-31T10:14:58Z</time>
      </trkpt>
      <trkpt lat="45.97128" lon="4.7806">
        <ele>230</ele>
        <time>2018-03-31T10:14:59Z</time>
      </trkpt>
      <trkpt lat="45.97123" lon="4.78055">
        <ele>229</ele>
        <time>2018-03-31T10:15:00Z</time>
      </trkpt>
      <trkpt lat="45.97118" lon="4.78051">
        <ele>229</ele>
        <time>2018-03-31T10:15:01Z</time>
      </trkpt>
      <trkpt lat="45.97112" lon="4.78046">
        <ele>229</ele>
        <time>2018-03-31T10:15:02Z</time>
      </trkpt>
      <trkpt lat="45.97106" lon="4.78041">
        <ele>229</ele>
        <time>2018-03-31T10:15:03Z</time>
      </trkpt>
      <trkpt lat="45.97101" lon="4.78035">
        <ele>229</ele>
        <time>2018-03-31T10:15:04Z</time>
      </trkpt>
      <trkpt lat="45.97094" lon="4.78029">
        <ele>229</ele>
        <time>2018-03-31T10:15:05Z</time>
      </trkpt>
      <trkpt lat="45.97089" lon="4.78023">
        <ele>229</ele>
        <time>2018-03-31T10:15:06Z</time>
      </trkpt>
      <trkpt lat="45.97083" lon="4.78018">
        <ele>229</ele>
        <time>2018-03-31T10:15:07Z</time>
      </trkpt>
      <trkpt lat="45.97078" lon="4.78012">
        <ele>229</ele>
        <time>2018-03-31T10:15:08Z</time>
      </trkpt>
      <trkpt lat="45.97072" lon="4.78007">
        <ele>229</ele>
        <time>2018-03-31T10:15:09Z</time>
      </trkpt>
      <trkpt lat="45.97066" lon="4.78001">
        <ele>229</ele>
        <time>2018-03-31T10:15:10Z</time>
      </trkpt>
      <trkpt lat="45.97061" lon="4.77995">
        <ele>229</ele>
        <time>2018-03-31T10:15:11Z</time>
      </trkpt>
      <trkpt lat="45.97056" lon="4.77989">
        <ele>229</ele>
        <time>2018-03-31T10:15:12Z</time>
      </trkpt>
      <trkpt lat="45.9705" lon="4.77983">
        <ele>229</ele>
        <time>2018-03-31T10:15:13Z</time>
      </trkpt>
      <trkpt lat="45.97045" lon="4.77976">
        <ele>229</ele>
        <time>2018-03-31T10:15:14Z</time>
      </trkpt>
      <trkpt lat="45.9704" lon="4.7797">
        <ele>229</ele>
        <time>2018-03-31T10:15:15Z</time>
      </trkpt>
      <trkpt lat="45.97035" lon="4.77965">
        <ele>229</ele>
        <time>2018-03-31T10:15:16Z</time>
      </trkpt>
      <trkpt lat="45.97029" lon="4.77959">
        <ele>228</ele>
        <time>2018-03-31T10:15:17Z</time>
      </trkpt>
      <trkpt lat="45.97024" lon="4.77953">
        <ele>228</ele>
        <time>2018-03-31T10:15:18Z</time>
      </trkpt>
      <trkpt lat="45.97019" lon="4.77947">
        <ele>228</ele>
        <time>2018-03-31T10:15:19Z</time>
      </trkpt>
      <trkpt lat="45.97013" lon="4.77941">
        <ele>228</ele>
        <time>2018-03-31T10:15:20Z</time>
      </trkpt>
      <trkpt lat="45.97009" lon="4.77935">
        <ele>228</ele>
        <time>2018-03-31T10:15:21Z</time>
      </trkpt>
      <trkpt lat="45.97004" lon="4.7793">
        <ele>228</ele>
        <time>2018-03-31T10:15:22Z</time>
      </trkpt>
      <trkpt lat="45.97" lon="4.77923">
        <ele>227</ele>
        <time>2018-03-31T10:15:23Z</time>
      </trkpt>
      <trkpt lat="45.96995" lon="4.77919">
        <ele>227</ele>
        <time>2018-03-31T10:15:24Z</time>
      </trkpt>
      <trkpt lat="45.96991" lon="4.77913">
        <ele>227</ele>
        <time>2018-03-31T10:15:25Z</time>
      </trkpt>
      <trkpt lat="45.96987" lon="4.77908">
        <ele>227</ele>
        <time>2018-03-31T10:15:26Z</time>
      </trkpt>
      <trkpt lat="45.96982" lon="4.77901">
        <ele>227</ele>
        <time>2018-03-31T10:15:27Z</time>
      </trkpt>
      <trkpt lat="45.96977" lon="4.77895">
        <ele>228</ele>
        <time>2018-03-31T10:15:28Z</time>
      </trkpt>
      <trkpt lat="45.96972" lon="4.7789">
        <ele>228</ele>
        <time>2018-03-31T10:15:29Z</time>
      </trkpt>
      <trkpt lat="45.96967" lon="4.77883">
        <ele>228</ele>
        <time>2018-03-31T10:15:30Z</time>
      </trkpt>
      <trkpt lat="45.96962" lon="4.77877">
        <ele>228</ele>
        <time>2018-03-31T10:15:31Z</time>
      </trkpt>
      <trkpt lat="45.96958" lon="4.77871">
        <ele>228</ele>
        <time>2018-03-31T10:15:32Z</time>
      </trkpt>
      <trkpt lat="45.96952" lon="4.77865">
        <ele>228</ele>
        <time>2018-03-31T10:15:33Z</time>
      </trkpt>
      <trkpt lat="45.96947" lon="4.77859">
        <ele>228</ele>
        <time>2018-03-31T10:15:34Z</time>
      </trkpt>
      <trkpt lat="45.96942" lon="4.77853">
        <ele>228</ele>
        <time>2018-03-31T10:15:35Z</time>
      </trkpt>
      <trkpt lat="45.96938" lon="4.77847">
        <ele>228</ele>
        <time>2018-03-31T10:15:36Z</time>
      </trkpt>
      <trkpt lat="45.96932" lon="4.77842">
        <ele>228</ele>
        <time>2018-03-31T10:15:37Z</time>
      </trkpt>
      <trkpt lat="45.96927" lon="4.77837">
        <ele>228</ele>
        <time>2018-03-31T10:15:38Z</time>
      </trkpt>
      <trkpt lat="45.96922" lon="4.77833">
        <ele>228</ele>
        <time>2018-03-31T10:15:39Z</time>
      </trkpt>
      <trkpt lat="45.96917" lon="4.77828">
        <ele>228</ele>
        <time>2018-03-31T10:15:40Z</time>
      </trkpt>
      <trkpt lat="45.96913" lon="4.77823">
        <ele>228</ele>
        <time>2018-03-31T10:15:41Z</time>
      </trkpt>
      <trkpt lat="45.96908" lon="4.77817">
        <ele>228</ele>
        <time>2018-03-31T10:15:42Z</time>
      </trkpt>
      <trkpt lat="45.96903" lon="4.77812">
        <ele>228</ele>
        <time>2018-03-31T10:15:43Z</time>
      </trkpt>
      <trkpt lat="45.96898" lon="4.77807">
        <ele>228</ele>
        <time>2018-03-31T10:15:44Z</time>
      </trkpt>
      <trkpt lat="45.96893" lon="4.77802">
        <ele>228</ele>
        <time>2018-03-31T10:15:45Z</time>
      </trkpt>
      <trkpt lat="45.96888" lon="4.77797">
        <ele>228</ele>
        <time>2018-03-31T10:15:46Z</time>
      </trkpt>
      <trkpt lat="45.96883" lon="4.77792">
        <ele>228</ele>
        <time>2018-03-31T10:15:47Z</time>
      </trkpt>
      <trkpt lat="45.96878" lon="4.77787">
        <ele>228</ele>
        <time>2018-03-31T10:15:48Z</time>
      </trkpt>
      <trkpt lat="45.96873" lon="4.77781">
        <ele>228</ele>
        <time>2018-03-31T10:15:49Z</time>
      </trkpt>
      <trkpt lat="45.96868" lon="4.77777">
        <ele>228</ele>
        <time>2018-03-31T10:15:50Z</time>
      </trkpt>
      <trkpt lat="45.96863" lon="4.77771">
        <ele>228</ele>
        <time>2018-03-31T10:15:51Z</time>
      </trkpt>
      <trkpt lat="45.96858" lon="4.77767">
        <ele>228</ele>
        <time>2018-03-31T10:15:52Z</time>
      </trkpt>
      <trkpt lat="45.96853" lon="4.77762">
        <ele>228</ele>
        <time>2018-03-31T10:15:53Z</time>
      </trkpt>
      <trkpt lat="45.96849" lon="4.77756">
        <ele>228</ele>
        <time>2018-03-31T10:15:54Z</time>
      </trkpt>
      <trkpt lat="45.96843" lon="4.77752">
        <ele>228</ele>
        <time>2018-03-31T10:15:55Z</time>
      </trkpt>
      <trkpt lat="45.96838" lon="4.77747">
        <ele>228</ele>
        <time>2018-03-31T10:15:56Z</time>
      </trkpt>
      <trkpt lat="45.96831" lon="4.77743">
        <ele>228</ele>
        <time>2018-03-31T10:15:57Z</time>
      </trkpt>
      <trkpt lat="45.96827" lon="4.77737">
        <ele>228</ele>
        <time>2018-03-31T10:15:58Z</time>
      </trkpt>
      <trkpt lat="45.96822" lon="4.77732">
        <ele>228</ele>
        <time>2018-03-31T10:15:59Z</time>
      </trkpt>
      <trkpt lat="45.96816" lon="4.77726">
        <ele>228</ele>
        <time>2018-03-31T10:16:00Z</time>
      </trkpt>
      <trkpt lat="45.96811" lon="4.7772">
        <ele>228</ele>
        <time>2018-03-31T10:16:01Z</time>
      </trkpt>
      <trkpt lat="45.96806" lon="4.77715">
        <ele>228</ele>
        <time>2018-03-31T10:16:02Z</time>
      </trkpt>
      <trkpt lat="45.96801" lon="4.77709">
        <ele>228</ele>
        <time>2018-03-31T10:16:03Z</time>
      </trkpt>
      <trkpt lat="45.96796" lon="4.77703">
        <ele>228</ele>
        <time>2018-03-31T10:16:04Z</time>
      </trkpt>
      <trkpt lat="45.9679" lon="4.77697">
        <ele>227</ele>
        <time>2018-03-31T10:16:05Z</time>
      </trkpt>
      <trkpt lat="45.96786" lon="4.77691">
        <ele>227</ele>
        <time>2018-03-31T10:16:06Z</time>
      </trkpt>
      <trkpt lat="45.96781" lon="4.77685">
        <ele>227</ele>
        <time>2018-03-31T10:16:07Z</time>
      </trkpt>
      <trkpt lat="45.96776" lon="4.77679">
        <ele>227</ele>
        <time>2018-03-31T10:16:08Z</time>
      </trkpt>
      <trkpt lat="45.96771" lon="4.77672">
        <ele>227</ele>
        <time>2018-03-31T10:16:09Z</time>
      </trkpt>
      <trkpt lat="45.96766" lon="4.77666">
        <ele>227</ele>
        <time>2018-03-31T10:16:10Z</time>
      </trkpt>
      <trkpt lat="45.96761" lon="4.7766">
        <ele>227</ele>
        <time>2018-03-31T10:16:11Z</time>
      </trkpt>
      <trkpt lat="45.96756" lon="4.77654">
        <ele>227</ele>
        <time>2018-03-31T10:16:12Z</time>
      </trkpt>
      <trkpt lat="45.96751" lon="4.77648">
        <ele>227</ele>
        <time>2018-03-31T10:16:13Z</time>
      </trkpt>
      <trkpt lat="45.96745" lon="4.77641">
        <ele>227</ele>
        <time>2018-03-31T10:16:14Z</time>
      </trkpt>
      <trkpt lat="45.9674" lon="4.77636">
        <ele>227</ele>
        <time>2018-03-31T10:16:15Z</time>
      </trkpt>
      <trkpt lat="45.96735" lon="4.7763">
        <ele>226</ele>
        <time>2018-03-31T10:16:16Z</time>
      </trkpt>
      <trkpt lat="45.9673" lon="4.77624">
        <ele>226</ele>
        <time>2018-03-31T10:16:17Z</time>
      </trkpt>
      <trkpt lat="45.96724" lon="4.77619">
        <ele>226</ele>
        <time>2018-03-31T10:16:18Z</time>
      </trkpt>
      <trkpt lat="45.96719" lon="4.77613">
        <ele>226</ele>
        <time>2018-03-31T10:16:19Z</time>
      </trkpt>
      <trkpt lat="45.96714" lon="4.77607">
        <ele>226</ele>
        <time>2018-03-31T10:16:20Z</time>
      </trkpt>
      <trkpt lat="45.96709" lon="4.77601">
        <ele>226</ele>
        <time>2018-03-31T10:16:21Z</time>
      </trkpt>
      <trkpt lat="45.96705" lon="4.77595">
        <ele>226</ele>
        <time>2018-03-31T10:16:22Z</time>
      </trkpt>
      <trkpt lat="45.96701" lon="4.7759">
        <ele>226</ele>
        <time>2018-03-31T10:16:23Z</time>
      </trkpt>
      <trkpt lat="45.96696" lon="4.77585">
        <ele>226</ele>
        <time>2018-03-31T10:16:24Z</time>
      </trkpt>
      <trkpt lat="45.96692" lon="4.77581">
        <ele>225</ele>
        <time>2018-03-31T10:16:25Z</time>
      </trkpt>
      <trkpt lat="45.96688" lon="4.77576">
        <ele>225</ele>
        <time>2018-03-31T10:16:26Z</time>
      </trkpt>
      <trkpt lat="45.96683" lon="4.77571">
        <ele>225</ele>
        <time>2018-03-31T10:16:27Z</time>
      </trkpt>
      <trkpt lat="45.96677" lon="4.77567">
        <ele>225</ele>
        <time>2018-03-31T10:16:28Z</time>
      </trkpt>
      <trkpt lat="45.96672" lon="4.77563">
        <ele>225</ele>
        <time>2018-03-31T10:16:29Z</time>
      </trkpt>
      <trkpt lat="45.96666" lon="4.77559">
        <ele>225</ele>
        <time>2018-03-31T10:16:30Z</time>
      </trkpt>
      <trkpt lat="45.96661" lon="4.77555">
        <ele>224</ele>
        <time>2018-03-31T10:16:31Z</time>
      </trkpt>
      <trkpt lat="45.96655" lon="4.77552">
        <ele>224</ele>
        <time>2018-03-31T10:16:32Z</time>
      </trkpt>
      <trkpt lat="45.9665" lon="4.77548">
        <ele>224</ele>
        <time>2018-03-31T10:16:33Z</time>
      </trkpt>
      <trkpt lat="45.96644" lon="4.77545">
        <ele>224</ele>
        <time>2018-03-31T10:16:34Z</time>
      </trkpt>
      <trkpt lat="45.96638" lon="4.77541">
        <ele>224</ele>
        <time>2018-03-31T10:16:35Z</time>
      </trkpt>
      <trkpt lat="45.96632" lon="4.77537">
        <ele>224</ele>
        <time>2018-03-31T10:16:36Z</time>
      </trkpt>
      <trkpt lat="45.96627" lon="4.77534">
        <ele>224</ele>
        <time>2018-03-31T10:16:37Z</time>
      </trkpt>
      <trkpt lat="45.96622" lon="4.77531">
        <ele>224</ele>
        <time>2018-03-31T10:16:38Z</time>
      </trkpt>
      <trkpt lat="45.96617" lon="4.77527">
        <ele>224</ele>
        <time>2018-03-31T10:16:39Z</time>
      </trkpt>
      <trkpt lat="45.96612" lon="4.77522">
        <ele>224</ele>
        <time>2018-03-31T10:16:40Z</time>
      </trkpt>
      <trkpt lat="45.96606" lon="4.77518">
        <ele>224</ele>
        <time>2018-03-31T10:16:41Z</time>
      </trkpt>
      <trkpt lat="45.96601" lon="4.77514">
        <ele>224</ele>
        <time>2018-03-31T10:16:42Z</time>
      </trkpt>
      <trkpt lat="45.96595" lon="4.7751">
        <ele>224</ele>
        <time>2018-03-31T10:16:43Z</time>
      </trkpt>
      <trkpt lat="45.9659" lon="4.77506">
        <ele>224</ele>
        <time>2018-03-31T10:16:44Z</time>
      </trkpt>
      <trkpt lat="45.96585" lon="4.77503">
        <ele>224</ele>
        <time>2018-03-31T10:16:45Z</time>
      </trkpt>
      <trkpt lat="45.96579" lon="4.77499">
        <ele>224</ele>
        <time>2018-03-31T10:16:46Z</time>
      </trkpt>
      <trkpt lat="45.96573" lon="4.77496">
        <ele>224</ele>
        <time>2018-03-31T10:16:47Z</time>
      </trkpt>
      <trkpt lat="45.96568" lon="4.77492">
        <ele>224</ele>
        <time>2018-03-31T10:16:48Z</time>
      </trkpt>
      <trkpt lat="45.96562" lon="4.77488">
        <ele>224</ele>
        <time>2018-03-31T10:16:49Z</time>
      </trkpt>
      <trkpt lat="45.96556" lon="4.77484">
        <ele>224</ele>
        <time>2018-03-31T10:16:50Z</time>
      </trkpt>
      <trkpt lat="45.9655" lon="4.7748">
        <ele>223</ele>
        <time>2018-03-31T10:16:51Z</time>
      </trkpt>
      <trkpt lat="45.96544" lon="4.77476">
        <ele>223</ele>
        <time>2018-03-31T10:16:52Z</time>
      </trkpt>
      <trkpt lat="45.96539" lon="4.77473">
        <ele>223</ele>
        <time>2018-03-31T10:16:53Z</time>
      </trkpt>
      <trkpt lat="45.96532" lon="4.7747">
        <ele>223</ele>
        <time>2018-03-31T10:16:54Z</time>
      </trkpt>
      <trkpt lat="45.96526" lon="4.77465">
        <ele>223</ele>
        <time>2018-03-31T10:16:55Z</time>
      </trkpt>
      <trkpt lat="45.96519" lon="4.77461">
        <ele>223</ele>
        <time>2018-03-31T10:16:56Z</time>
      </trkpt>
      <trkpt lat="45.96513" lon="4.77457">
        <ele>223</ele>
        <time>2018-03-31T10:16:57Z</time>
      </trkpt>
      <trkpt lat="45.96507" lon="4.77455">
        <ele>223</ele>
        <time>2018-03-31T10:16:58Z</time>
      </trkpt>
      <trkpt lat="45.96501" lon="4.77451">
        <ele>223</ele>
        <time>2018-03-31T10:16:59Z</time>
      </trkpt>
      <trkpt lat="45.96495" lon="4.77446">
        <ele>221</ele>
        <time>2018-03-31T10:17:00Z</time>
      </trkpt>
      <trkpt lat="45.96489" lon="4.77443">
        <ele>222</ele>
        <time>2018-03-31T10:17:01Z</time>
      </trkpt>
      <trkpt lat="45.96483" lon="4.77439">
        <ele>221</ele>
        <time>2018-03-31T10:17:02Z</time>
      </trkpt>
      <trkpt lat="45.96477" lon="4.77435">
        <ele>221</ele>
        <time>2018-03-31T10:17:03Z</time>
      </trkpt>
      <trkpt lat="45.96471" lon="4.77431">
        <ele>221</ele>
        <time>2018-03-31T10:17:04Z</time>
      </trkpt>
      <trkpt lat="45.96465" lon="4.77426">
        <ele>221</ele>
        <time>2018-03-31T10:17:05Z</time>
      </trkpt>
      <trkpt lat="45.96458" lon="4.77423">
        <ele>221</ele>
        <time>2018-03-31T10:17:06Z</time>
      </trkpt>
      <trkpt lat="45.96451" lon="4.77419">
        <ele>221</ele>
        <time>2018-03-31T10:17:07Z</time>
      </trkpt>
      <trkpt lat="45.96444" lon="4.77415">
        <ele>222</ele>
        <time>2018-03-31T10:17:08Z</time>
      </trkpt>
      <trkpt lat="45.96437" lon="4.7741">
        <ele>222</ele>
        <time>2018-03-31T10:17:09Z</time>
      </trkpt>
      <trkpt lat="45.9643" lon="4.77406">
        <ele>222</ele>
        <time>2018-03-31T10:17:10Z</time>
      </trkpt>
      <trkpt lat="45.96422" lon="4.77402">
        <ele>222</ele>
        <time>2018-03-31T10:17:11Z</time>
      </trkpt>
      <trkpt lat="45.96415" lon="4.77398">
        <ele>220</ele>
        <time>2018-03-31T10:17:12Z</time>
      </trkpt>
      <trkpt lat="45.96408" lon="4.77393">
        <ele>220</ele>
        <time>2018-03-31T10:17:13Z</time>
      </trkpt>
      <trkpt lat="45.964" lon="4.7739">
        <ele>220</ele>
        <time>2018-03-31T10:17:14Z</time>
      </trkpt>
      <trkpt lat="45.96394" lon="4.77385">
        <ele>220</ele>
        <time>2018-03-31T10:17:15Z</time>
      </trkpt>
      <trkpt lat="45.96387" lon="4.77381">
        <ele>220</ele>
        <time>2018-03-31T10:17:16Z</time>
      </trkpt>
      <trkpt lat="45.9638" lon="4.77377">
        <ele>220</ele>
        <time>2018-03-31T10:17:17Z</time>
      </trkpt>
      <trkpt lat="45.96373" lon="4.77373">
        <ele>219</ele>
        <time>2018-03-31T10:17:18Z</time>
      </trkpt>
      <trkpt lat="45.96366" lon="4.77368">
        <ele>219</ele>
        <time>2018-03-31T10:17:19Z</time>
      </trkpt>
      <trkpt lat="45.96361" lon="4.77364">
        <ele>219</ele>
        <time>2018-03-31T10:17:20Z</time>
      </trkpt>
      <trkpt lat="45.96354" lon="4.77361">
        <ele>219</ele>
        <time>2018-03-31T10:17:21Z</time>
      </trkpt>
      <trkpt lat="45.96347" lon="4.77355">
        <ele>219</ele>
        <time>2018-03-31T10:17:22Z</time>
      </trkpt>
      <trkpt lat="45.96341" lon="4.77351">
        <ele>220</ele>
        <time>2018-03-31T10:17:23Z</time>
      </trkpt>
      <trkpt lat="45.96336" lon="4.77348">
        <ele>220</ele>
        <time>2018-03-31T10:17:24Z</time>
      </trkpt>
      <trkpt lat="45.9633" lon="4.77344">
        <ele>218</ele>
        <time>2018-03-31T10:17:25Z</time>
      </trkpt>
      <trkpt lat="45.96324" lon="4.77341">
        <ele>218</ele>
        <time>2018-03-31T10:17:26Z</time>
      </trkpt>
      <trkpt lat="45.96317" lon="4.77337">
        <ele>218</ele>
        <time>2018-03-31T10:17:27Z</time>
      </trkpt>
      <trkpt lat="45.96312" lon="4.77334">
        <ele>218</ele>
        <time>2018-03-31T10:17:28Z</time>
      </trkpt>
      <trkpt lat="45.96306" lon="4.7733">
        <ele>219</ele>
        <time>2018-03-31T10:17:29Z</time>
      </trkpt>
      <trkpt lat="45.963" lon="4.77327">
        <ele>219</ele>
        <time>2018-03-31T10:17:30Z</time>
      </trkpt>
      <trkpt lat="45.96293" lon="4.77324">
        <ele>219</ele>
        <time>2018-03-31T10:17:31Z</time>
      </trkpt>
      <trkpt lat="45.96286" lon="4.77321">
        <ele>219</ele>
        <time>2018-03-31T10:17:32Z</time>
      </trkpt>
      <trkpt lat="45.9628" lon="4.77318">
        <ele>219</ele>
        <time>2018-03-31T10:17:33Z</time>
      </trkpt>
      <trkpt lat="45.96274" lon="4.77314">
        <ele>219</ele>
        <time>2018-03-31T10:17:34Z</time>
      </trkpt>
      <trkpt lat="45.96267" lon="4.77309">
        <ele>219</ele>
        <time>2018-03-31T10:17:35Z</time>
      </trkpt>
      <trkpt lat="45.9626" lon="4.77306">
        <ele>219</ele>
        <time>2018-03-31T10:17:36Z</time>
      </trkpt>
      <trkpt lat="45.96253" lon="4.77302">
        <ele>219</ele>
        <time>2018-03-31T10:17:37Z</time>
      </trkpt>
      <trkpt lat="45.96246" lon="4.77299">
        <ele>217</ele>
        <time>2018-03-31T10:17:38Z</time>
      </trkpt>
      <trkpt lat="45.9624" lon="4.77295">
        <ele>217</ele>
        <time>2018-03-31T10:17:39Z</time>
      </trkpt>
      <trkpt lat="45.96233" lon="4.77292">
        <ele>217</ele>
        <time>2018-03-31T10:17:40Z</time>
      </trkpt>
      <trkpt lat="45.96227" lon="4.77288">
        <ele>217</ele>
        <time>2018-03-31T10:17:41Z</time>
      </trkpt>
      <trkpt lat="45.96221" lon="4.77285">
        <ele>217</ele>
        <time>2018-03-31T10:17:42Z</time>
      </trkpt>
      <trkpt lat="45.96214" lon="4.7728">
        <ele>217</ele>
        <time>2018-03-31T10:17:43Z</time>
      </trkpt>
      <trkpt lat="45.96207" lon="4.77277">
        <ele>217</ele>
        <time>2018-03-31T10:17:44Z</time>
      </trkpt>
      <trkpt lat="45.962" lon="4.77273">
        <ele>216</ele>
        <time>2018-03-31T10:17:45Z</time>
      </trkpt>
      <trkpt lat="45.96194" lon="4.7727">
        <ele>216</ele>
        <time>2018-03-31T10:17:46Z</time>
      </trkpt>
      <trkpt lat="45.96188" lon="4.77266">
        <ele>216</ele>
        <time>2018-03-31T10:17:47Z</time>
      </trkpt>
      <trkpt lat="45.96181" lon="4.77263">
        <ele>216</ele>
        <time>2018-03-31T10:17:48Z</time>
      </trkpt>
      <trkpt lat="45.96174" lon="4.7726">
        <ele>216</ele>
        <time>2018-03-31T10:17:49Z</time>
      </trkpt>
      <trkpt lat="45.96167" lon="4.77257">
        <ele>216</ele>
        <time>2018-03-31T10:17:50Z</time>
      </trkpt>
      <trkpt lat="45.9616" lon="4.77254">
        <ele>215</ele>
        <time>2018-03-31T10:17:51Z</time>
      </trkpt>
      <trkpt lat="45.96154" lon="4.77251">
        <ele>214</ele>
        <time>2018-03-31T10:17:52Z</time>
      </trkpt>
      <trkpt lat="45.96148" lon="4.77248">
        <ele>215</ele>
        <time>2018-03-31T10:17:53Z</time>
      </trkpt>
      <trkpt lat="45.96141" lon="4.77246">
        <ele>215</ele>
        <time>2018-03-31T10:17:54Z</time>
      </trkpt>
      <trkpt lat="45.96134" lon="4.77244">
        <ele>215</ele>
        <time>2018-03-31T10:17:55Z</time>
      </trkpt>
      <trkpt lat="45.96128" lon="4.77244">
        <ele>214</ele>
        <time>2018-03-31T10:17:56Z</time>
      </trkpt>
      <trkpt lat="45.9612" lon="4.77243">
        <ele>214</ele>
        <time>2018-03-31T10:17:57Z</time>
      </trkpt>
      <trkpt lat="45.96112" lon="4.77243">
        <ele>214</ele>
        <time>2018-03-31T10:17:58Z</time>
      </trkpt>
      <trkpt lat="45.96104" lon="4.77243">
        <ele>213</ele>
        <time>2018-03-31T10:17:59Z</time>
      </trkpt>
      <trkpt lat="45.96098" lon="4.77243">
        <ele>212</ele>
        <time>2018-03-31T10:18:00Z</time>
      </trkpt>
      <trkpt lat="45.96091" lon="4.77243">
        <ele>212</ele>
        <time>2018-03-31T10:18:01Z</time>
      </trkpt>
      <trkpt lat="45.96084" lon="4.77244">
        <ele>211</ele>
        <time>2018-03-31T10:18:02Z</time>
      </trkpt>
      <trkpt lat="45.96076" lon="4.77246">
        <ele>210</ele>
        <time>2018-03-31T10:18:03Z</time>
      </trkpt>
      <trkpt lat="45.96069" lon="4.77246">
        <ele>210</ele>
        <time>2018-03-31T10:18:04Z</time>
      </trkpt>
      <trkpt lat="45.96061" lon="4.77247">
        <ele>209</ele>
        <time>2018-03-31T10:18:05Z</time>
      </trkpt>
      <trkpt lat="45.96053" lon="4.77248">
        <ele>209</ele>
        <time>2018-03-31T10:18:06Z</time>
      </trkpt>
      <trkpt lat="45.96045" lon="4.77248">
        <ele>208</ele>
        <time>2018-03-31T10:18:07Z</time>
      </trkpt>
      <trkpt lat="45.96038" lon="4.77249">
        <ele>208</ele>
        <time>2018-03-31T10:18:08Z</time>
      </trkpt>
      <trkpt lat="45.96029" lon="4.77249">
        <ele>207</ele>
        <time>2018-03-31T10:18:09Z</time>
      </trkpt>
      <trkpt lat="45.96021" lon="4.7725">
        <ele>207</ele>
        <time>2018-03-31T10:18:10Z</time>
      </trkpt>
      <trkpt lat="45.96013" lon="4.77249">
        <ele>206</ele>
        <time>2018-03-31T10:18:11Z</time>
      </trkpt>
      <trkpt lat="45.96005" lon="4.77248">
        <ele>204</ele>
        <time>2018-03-31T10:18:12Z</time>
      </trkpt>
      <trkpt lat="45.95996" lon="4.77246">
        <ele>203</ele>
        <time>2018-03-31T10:18:13Z</time>
      </trkpt>
      <trkpt lat="45.95988" lon="4.77242">
        <ele>202</ele>
        <time>2018-03-31T10:18:14Z</time>
      </trkpt>
      <trkpt lat="45.95981" lon="4.77238">
        <ele>202</ele>
        <time>2018-03-31T10:18:15Z</time>
      </trkpt>
      <trkpt lat="45.95975" lon="4.7723">
        <ele>202</ele>
        <time>2018-03-31T10:18:16Z</time>
      </trkpt>
      <trkpt lat="45.95968" lon="4.77223">
        <ele>202</ele>
        <time>2018-03-31T10:18:17Z</time>
      </trkpt>
      <trkpt lat="45.95962" lon="4.77213">
        <ele>201</ele>
        <time>2018-03-31T10:18:18Z</time>
      </trkpt>
      <trkpt lat="45.95957" lon="4.77203">
        <ele>201</ele>
        <time>2018-03-31T10:18:19Z</time>
      </trkpt>
      <trkpt lat="45.95953" lon="4.77192">
        <ele>201</ele>
        <time>2018-03-31T10:18:20Z</time>
      </trkpt>
      <trkpt lat="45.9595" lon="4.77179">
        <ele>201</ele>
        <time>2018-03-31T10:18:21Z</time>
      </trkpt>
      <trkpt lat="45.95948" lon="4.77167">
        <ele>201</ele>
        <time>2018-03-31T10:18:22Z</time>
      </trkpt>
      <trkpt lat="45.95947" lon="4.77156">
        <ele>201</ele>
        <time>2018-03-31T10:18:23Z</time>
      </trkpt>
      <trkpt lat="45.95946" lon="4.77145">
        <ele>201</ele>
        <time>2018-03-31T10:18:24Z</time>
      </trkpt>
      <trkpt lat="45.95944" lon="4.77133">
        <ele>201</ele>
        <time>2018-03-31T10:18:25Z</time>
      </trkpt>
      <trkpt lat="45.95945" lon="4.77121">
        <ele>202</ele>
        <time>2018-03-31T10:18:26Z</time>
      </trkpt>
      <trkpt lat="45.95945" lon="4.7711">
        <ele>201</ele>
        <time>2018-03-31T10:18:27Z</time>
      </trkpt>
      <trkpt lat="45.95946" lon="4.77098">
        <ele>201</ele>
        <time>2018-03-31T10:18:28Z</time>
      </trkpt>
      <trkpt lat="45.95949" lon="4.77087">
        <ele>202</ele>
        <time>2018-03-31T10:18:29Z</time>
      </trkpt>
      <trkpt lat="45.95952" lon="4.77076">
        <ele>200</ele>
        <time>2018-03-31T10:18:30Z</time>
      </trkpt>
      <trkpt lat="45.95955" lon="4.77066">
        <ele>200</ele>
        <time>2018-03-31T10:18:31Z</time>
      </trkpt>
      <trkpt lat="45.95958" lon="4.77056">
        <ele>200</ele>
        <time>2018-03-31T10:18:32Z</time>
      </trkpt>
      <trkpt lat="45.95963" lon="4.77046">
        <ele>200</ele>
        <time>2018-03-31T10:18:33Z</time>
      </trkpt>
      <trkpt lat="45.95966" lon="4.77037">
        <ele>200</ele>
        <time>2018-03-31T10:18:34Z</time>
      </trkpt>
      <trkpt lat="45.9597" lon="4.77027">
        <ele>200</ele>
        <time>2018-03-31T10:18:35Z</time>
      </trkpt>
      <trkpt lat="45.95973" lon="4.77018">
        <ele>200</ele>
        <time>2018-03-31T10:18:36Z</time>
      </trkpt>
      <trkpt lat="45.95976" lon="4.77008">
        <ele>200</ele>
        <time>2018-03-31T10:18:37Z</time>
      </trkpt>
      <trkpt lat="45.95979" lon="4.76997">
        <ele>198</ele>
        <time>2018-03-31T10:18:38Z</time>
      </trkpt>
      <trkpt lat="45.95981" lon="4.76986">
        <ele>198</ele>
        <time>2018-03-31T10:18:39Z</time>
      </trkpt>
      <trkpt lat="45.95982" lon="4.76974">
        <ele>197</ele>
        <time>2018-03-31T10:18:40Z</time>
      </trkpt>
      <trkpt lat="45.9598" lon="4.7696">
        <ele>196</ele>
        <time>2018-03-31T10:18:41Z</time>
      </trkpt>
      <trkpt lat="45.95977" lon="4.76951">
        <ele>196</ele>
        <time>2018-03-31T10:18:42Z</time>
      </trkpt>
      <trkpt lat="45.95974" lon="4.7694">
        <ele>196</ele>
        <time>2018-03-31T10:18:43Z</time>
      </trkpt>
      <trkpt lat="45.95968" lon="4.76932">
        <ele>195</ele>
        <time>2018-03-31T10:18:44Z</time>
      </trkpt>
      <trkpt lat="45.9596" lon="4.76925">
        <ele>195</ele>
        <time>2018-03-31T10:18:45Z</time>
      </trkpt>
      <trkpt lat="45.95954" lon="4.76917">
        <ele>195</ele>
        <time>2018-03-31T10:18:46Z</time>
      </trkpt>
      <trkpt lat="45.95947" lon="4.76909">
        <ele>193</ele>
        <time>2018-03-31T10:18:47Z</time>
      </trkpt>
      <trkpt lat="45.9594" lon="4.76903">
        <ele>192</ele>
        <time>2018-03-31T10:18:48Z</time>
      </trkpt>
      <trkpt lat="45.95934" lon="4.76895">
        <ele>192</ele>
        <time>2018-03-31T10:18:49Z</time>
      </trkpt>
      <trkpt lat="45.95927" lon="4.76887">
        <ele>192</ele>
        <time>2018-03-31T10:18:50Z</time>
      </trkpt>
      <trkpt lat="45.9592" lon="4.76879">
        <ele>192</ele>
        <time>2018-03-31T10:18:51Z</time>
      </trkpt>
      <trkpt lat="45.95914" lon="4.76872">
        <ele>191</ele>
        <time>2018-03-31T10:18:52Z</time>
      </trkpt>
      <trkpt lat="45.95907" lon="4.76864">
        <ele>191</ele>
        <time>2018-03-31T10:18:53Z</time>
      </trkpt>
      <trkpt lat="45.959" lon="4.76857">
        <ele>191</ele>
        <time>2018-03-31T10:18:54Z</time>
      </trkpt>
      <trkpt lat="45.95894" lon="4.76851">
        <ele>191</ele>
        <time>2018-03-31T10:18:55Z</time>
      </trkpt>
      <trkpt lat="45.95887" lon="4.76844">
        <ele>191</ele>
        <time>2018-03-31T10:18:56Z</time>
      </trkpt>
      <trkpt lat="45.95881" lon="4.76838">
        <ele>191</ele>
        <time>2018-03-31T10:18:57Z</time>
      </trkpt>
      <trkpt lat="45.95875" lon="4.76831">
        <ele>191</ele>
        <time>2018-03-31T10:18:58Z</time>
      </trkpt>
      <trkpt lat="45.95869" lon="4.76825">
        <ele>191</ele>
        <time>2018-03-31T10:18:59Z</time>
      </trkpt>
      <trkpt lat="45.95865" lon="4.7682">
        <ele>191</ele>
        <time>2018-03-31T10:19:00Z</time>
      </trkpt>
      <trkpt lat="45.9586" lon="4.76814">
        <ele>191</ele>
        <time>2018-03-31T10:19:01Z</time>
      </trkpt>
      <trkpt lat="45.95856" lon="4.76808">
        <ele>191</ele>
        <time>2018-03-31T10:19:02Z</time>
      </trkpt>
      <trkpt lat="45.9585" lon="4.76802">
        <ele>191</ele>
        <time>2018-03-31T10:19:03Z</time>
      </trkpt>
      <trkpt lat="45.95845" lon="4.76796">
        <ele>191</ele>
        <time>2018-03-31T10:19:04Z</time>
      </trkpt>
      <trkpt lat="45.9584" lon="4.7679">
        <ele>191</ele>
        <time>2018-03-31T10:19:05Z</time>
      </trkpt>
      <trkpt lat="45.95837" lon="4.76782">
        <ele>191</ele>
        <time>2018-03-31T10:19:06Z</time>
      </trkpt>
      <trkpt lat="45.95834" lon="4.76773">
        <ele>191</ele>
        <time>2018-03-31T10:19:07Z</time>
      </trkpt>
      <trkpt lat="45.9583" lon="4.76764">
        <ele>190</ele>
        <time>2018-03-31T10:19:08Z</time>
      </trkpt>
      <trkpt lat="45.95827" lon="4.76753">
        <ele>191</ele>
        <time>2018-03-31T10:19:09Z</time>
      </trkpt>
      <trkpt lat="45.95826" lon="4.76744">
        <ele>190</ele>
        <time>2018-03-31T10:19:10Z</time>
      </trkpt>
      <trkpt lat="45.95824" lon="4.76733">
        <ele>190</ele>
        <time>2018-03-31T10:19:11Z</time>
      </trkpt>
      <trkpt lat="45.95822" lon="4.76723">
        <ele>190</ele>
        <time>2018-03-31T10:19:12Z</time>
      </trkpt>
      <trkpt lat="45.95821" lon="4.76713">
        <ele>189</ele>
        <time>2018-03-31T10:19:13Z</time>
      </trkpt>
      <trkpt lat="45.9582" lon="4.76704">
        <ele>189</ele>
        <time>2018-03-31T10:19:14Z</time>
      </trkpt>
      <trkpt lat="45.95819" lon="4.76694">
        <ele>189</ele>
        <time>2018-03-31T10:19:15Z</time>
      </trkpt>
      <trkpt lat="45.95818" lon="4.76684">
        <ele>189</ele>
        <time>2018-03-31T10:19:16Z</time>
      </trkpt>
      <trkpt lat="45.95816" lon="4.76675">
        <ele>189</ele>
        <time>2018-03-31T10:19:17Z</time>
      </trkpt>
      <trkpt lat="45.95815" lon="4.76666">
        <ele>188</ele>
        <time>2018-03-31T10:19:18Z</time>
      </trkpt>
      <trkpt lat="45.95813" lon="4.76658">
        <ele>188</ele>
        <time>2018-03-31T10:19:19Z</time>
      </trkpt>
      <trkpt lat="45.95812" lon="4.76649">
        <ele>188</ele>
        <time>2018-03-31T10:19:20Z</time>
      </trkpt>
      <trkpt lat="45.95809" lon="4.7664">
        <ele>188</ele>
        <time>2018-03-31T10:19:21Z</time>
      </trkpt>
      <trkpt lat="45.95809" lon="4.76633">
        <ele>188</ele>
        <time>2018-03-31T10:19:22Z</time>
      </trkpt>
      <trkpt lat="45.95808" lon="4.76625">
        <ele>188</ele>
        <time>2018-03-31T10:19:23Z</time>
      </trkpt>
      <trkpt lat="45.95807" lon="4.76617">
        <ele>188</ele>
        <time>2018-03-31T10:19:24Z</time>
      </trkpt>
      <trkpt lat="45.95806" lon="4.76608">
        <ele>188</ele>
        <time>2018-03-31T10:19:25Z</time>
      </trkpt>
      <trkpt lat="45.95805" lon="4.76599">
        <ele>188</ele>
        <time>2018-03-31T10:19:26Z</time>
      </trkpt>
      <trkpt lat="45.95805" lon="4.76591">
        <ele>188</ele>
        <time>2018-03-31T10:19:27Z</time>
      </trkpt>
      <trkpt lat="45.95804" lon="4.76582">
        <ele>187</ele>
        <time>2018-03-31T10:19:28Z</time>
      </trkpt>
      <trkpt lat="45.95802" lon="4.76573">
        <ele>187</ele>
        <time>2018-03-31T10:19:29Z</time>
      </trkpt>
      <trkpt lat="45.958" lon="4.76563">
        <ele>187</ele>
        <time>2018-03-31T10:19:30Z</time>
      </trkpt>
      <trkpt lat="45.95798" lon="4.76554">
        <ele>187</ele>
        <time>2018-03-31T10:19:31Z</time>
      </trkpt>
      <trkpt lat="45.95796" lon="4.76545">
        <ele>187</ele>
        <time>2018-03-31T10:19:32Z</time>
      </trkpt>
      <trkpt lat="45.95794" lon="4.76537">
        <ele>187</ele>
        <time>2018-03-31T10:19:33Z</time>
      </trkpt>
      <trkpt lat="45.95793" lon="4.76527">
        <ele>187</ele>
        <time>2018-03-31T10:19:34Z</time>
      </trkpt>
      <trkpt lat="45.95793" lon="4.76517">
        <ele>187</ele>
        <time>2018-03-31T10:19:35Z</time>
      </trkpt>
      <trkpt lat="45.95791" lon="4.76509">
        <ele>187</ele>
        <time>2018-03-31T10:19:36Z</time>
      </trkpt>
      <trkpt lat="45.9579" lon="4.76501">
        <ele>187</ele>
        <time>2018-03-31T10:19:37Z</time>
      </trkpt>
      <trkpt lat="45.95788" lon="4.76492">
        <ele>186</ele>
        <time>2018-03-31T10:19:38Z</time>
      </trkpt>
      <trkpt lat="45.95786" lon="4.76483">
        <ele>186</ele>
        <time>2018-03-31T10:19:39Z</time>
      </trkpt>
      <trkpt lat="45.95786" lon="4.76475">
        <ele>186</ele>
        <time>2018-03-31T10:19:40Z</time>
      </trkpt>
      <trkpt lat="45.95785" lon="4.76466">
        <ele>186</ele>
        <time>2018-03-31T10:19:41Z</time>
      </trkpt>
      <trkpt lat="45.95784" lon="4.76457">
        <ele>186</ele>
        <time>2018-03-31T10:19:42Z</time>
      </trkpt>
      <trkpt lat="45.95783" lon="4.76448">
        <ele>186</ele>
        <time>2018-03-31T10:19:43Z</time>
      </trkpt>
      <trkpt lat="45.95782" lon="4.7644">
        <ele>186</ele>
        <time>2018-03-31T10:19:44Z</time>
      </trkpt>
      <trkpt lat="45.95781" lon="4.76431">
        <ele>186</ele>
        <time>2018-03-31T10:19:45Z</time>
      </trkpt>
      <trkpt lat="45.9578" lon="4.76423">
        <ele>186</ele>
        <time>2018-03-31T10:19:46Z</time>
      </trkpt>
      <trkpt lat="45.9578" lon="4.76415">
        <ele>186</ele>
        <time>2018-03-31T10:19:47Z</time>
      </trkpt>
      <trkpt lat="45.95779" lon="4.76406">
        <ele>186</ele>
        <time>2018-03-31T10:19:48Z</time>
      </trkpt>
      <trkpt lat="45.95778" lon="4.76398">
        <ele>186</ele>
        <time>2018-03-31T10:19:49Z</time>
      </trkpt>
      <trkpt lat="45.95777" lon="4.7639">
        <ele>186</ele>
        <time>2018-03-31T10:19:50Z</time>
      </trkpt>
      <trkpt lat="45.95777" lon="4.7638">
        <ele>186</ele>
        <time>2018-03-31T10:19:51Z</time>
      </trkpt>
      <trkpt lat="45.95776" lon="4.76372">
        <ele>186</ele>
        <time>2018-03-31T10:19:52Z</time>
      </trkpt>
      <trkpt lat="45.95775" lon="4.76363">
        <ele>186</ele>
        <time>2018-03-31T10:19:53Z</time>
      </trkpt>
      <trkpt lat="45.95774" lon="4.76354">
        <ele>186</ele>
        <time>2018-03-31T10:19:54Z</time>
      </trkpt>
      <trkpt lat="45.95773" lon="4.76345">
        <ele>186</ele>
        <time>2018-03-31T10:19:55Z</time>
      </trkpt>
      <trkpt lat="45.95772" lon="4.76337">
        <ele>186</ele>
        <time>2018-03-31T10:19:56Z</time>
      </trkpt>
      <trkpt lat="45.95772" lon="4.76328">
        <ele>185</ele>
        <time>2018-03-31T10:19:57Z</time>
      </trkpt>
      <trkpt lat="45.95771" lon="4.7632">
        <ele>185</ele>
        <time>2018-03-31T10:19:58Z</time>
      </trkpt>
      <trkpt lat="45.95771" lon="4.76311">
        <ele>186</ele>
        <time>2018-03-31T10:19:59Z</time>
      </trkpt>
      <trkpt lat="45.95771" lon="4.76302">
        <ele>186</ele>
        <time>2018-03-31T10:20:00Z</time>
      </trkpt>
      <trkpt lat="45.9577" lon="4.76293">
        <ele>186</ele>
        <time>2018-03-31T10:20:01Z</time>
      </trkpt>
      <trkpt lat="45.95769" lon="4.76285">
        <ele>186</ele>
        <time>2018-03-31T10:20:02Z</time>
      </trkpt>
      <trkpt lat="45.95769" lon="4.76276">
        <ele>186</ele>
        <time>2018-03-31T10:20:03Z</time>
      </trkpt>
      <trkpt lat="45.95768" lon="4.76267">
        <ele>186</ele>
        <time>2018-03-31T10:20:04Z</time>
      </trkpt>
      <trkpt lat="45.95768" lon="4.76258">
        <ele>185</ele>
        <time>2018-03-31T10:20:05Z</time>
      </trkpt>
      <trkpt lat="45.95767" lon="4.76249">
        <ele>186</ele>
        <time>2018-03-31T10:20:06Z</time>
      </trkpt>
      <trkpt lat="45.95767" lon="4.76239">
        <ele>186</ele>
        <time>2018-03-31T10:20:07Z</time>
      </trkpt>
      <trkpt lat="45.95766" lon="4.76231">
        <ele>186</ele>
        <time>2018-03-31T10:20:08Z</time>
      </trkpt>
      <trkpt lat="45.95765" lon="4.76222">
        <ele>186</ele>
        <time>2018-03-31T10:20:09Z</time>
      </trkpt>
      <trkpt lat="45.95764" lon="4.76213">
        <ele>186</ele>
        <time>2018-03-31T10:20:10Z</time>
      </trkpt>
      <trkpt lat="45.95763" lon="4.76203">
        <ele>186</ele>
        <time>2018-03-31T10:20:11Z</time>
      </trkpt>
      <trkpt lat="45.95764" lon="4.76195">
        <ele>186</ele>
        <time>2018-03-31T10:20:12Z</time>
      </trkpt>
      <trkpt lat="45.95763" lon="4.76186">
        <ele>186</ele>
        <time>2018-03-31T10:20:13Z</time>
      </trkpt>
      <trkpt lat="45.95762" lon="4.76177">
        <ele>185</ele>
        <time>2018-03-31T10:20:14Z</time>
      </trkpt>
      <trkpt lat="45.95761" lon="4.76167">
        <ele>185</ele>
        <time>2018-03-31T10:20:15Z</time>
      </trkpt>
      <trkpt lat="45.95761" lon="4.76158">
        <ele>186</ele>
        <time>2018-03-31T10:20:16Z</time>
      </trkpt>
      <trkpt lat="45.95761" lon="4.76148">
        <ele>186</ele>
        <time>2018-03-31T10:20:17Z</time>
      </trkpt>
      <trkpt lat="45.9576" lon="4.76139">
        <ele>186</ele>
        <time>2018-03-31T10:20:18Z</time>
      </trkpt>
      <trkpt lat="45.9576" lon="4.76131">
        <ele>186</ele>
        <time>2018-03-31T10:20:19Z</time>
      </trkpt>
      <trkpt lat="45.95758" lon="4.76122">
        <ele>186</ele>
        <time>2018-03-31T10:20:20Z</time>
      </trkpt>
      <trkpt lat="45.95756" lon="4.76112">
        <ele>186</ele>
        <time>2018-03-31T10:20:21Z</time>
      </trkpt>
      <trkpt lat="45.95754" lon="4.76104">
        <ele>186</ele>
        <time>2018-03-31T10:20:22Z</time>
      </trkpt>
      <trkpt lat="45.95752" lon="4.76096">
        <ele>186</ele>
        <time>2018-03-31T10:20:23Z</time>
      </trkpt>
      <trkpt lat="45.9575" lon="4.76086">
        <ele>185</ele>
        <time>2018-03-31T10:20:24Z</time>
      </trkpt>
      <trkpt lat="45.95747" lon="4.76077">
        <ele>185</ele>
        <time>2018-03-31T10:20:25Z</time>
      </trkpt>
      <trkpt lat="45.95743" lon="4.7607">
        <ele>185</ele>
        <time>2018-03-31T10:20:26Z</time>
      </trkpt>
      <trkpt lat="45.9574" lon="4.76062">
        <ele>184</ele>
        <time>2018-03-31T10:20:27Z</time>
      </trkpt>
      <trkpt lat="45.95736" lon="4.76054">
        <ele>184</ele>
        <time>2018-03-31T10:20:28Z</time>
      </trkpt>
      <trkpt lat="45.95732" lon="4.76046">
        <ele>184</ele>
        <time>2018-03-31T10:20:29Z</time>
      </trkpt>
      <trkpt lat="45.95729" lon="4.76037">
        <ele>184</ele>
        <time>2018-03-31T10:20:30Z</time>
      </trkpt>
      <trkpt lat="45.95725" lon="4.76029">
        <ele>184</ele>
        <time>2018-03-31T10:20:31Z</time>
      </trkpt>
      <trkpt lat="45.95721" lon="4.76021">
        <ele>184</ele>
        <time>2018-03-31T10:20:32Z</time>
      </trkpt>
      <trkpt lat="45.95718" lon="4.76013">
        <ele>184</ele>
        <time>2018-03-31T10:20:33Z</time>
      </trkpt>
      <trkpt lat="45.95716" lon="4.76005">
        <ele>184</ele>
        <time>2018-03-31T10:20:34Z</time>
      </trkpt>
      <trkpt lat="45.95712" lon="4.75998">
        <ele>185</ele>
        <time>2018-03-31T10:20:35Z</time>
      </trkpt>
      <trkpt lat="45.95708" lon="4.75991">
        <ele>185</ele>
        <time>2018-03-31T10:20:36Z</time>
      </trkpt>
      <trkpt lat="45.95704" lon="4.75984">
        <ele>185</ele>
        <time>2018-03-31T10:20:37Z</time>
      </trkpt>
      <trkpt lat="45.957" lon="4.75977">
        <ele>185</ele>
        <time>2018-03-31T10:20:38Z</time>
      </trkpt>
      <trkpt lat="45.95697" lon="4.75971">
        <ele>185</ele>
        <time>2018-03-31T10:20:39Z</time>
      </trkpt>
      <trkpt lat="45.95694" lon="4.75964">
        <ele>185</ele>
        <time>2018-03-31T10:20:40Z</time>
      </trkpt>
      <trkpt lat="45.95691" lon="4.75957">
        <ele>185</ele>
        <time>2018-03-31T10:20:41Z</time>
      </trkpt>
      <trkpt lat="45.95688" lon="4.75949">
        <ele>185</ele>
        <time>2018-03-31T10:20:42Z</time>
      </trkpt>
      <trkpt lat="45.95684" lon="4.7594">
        <ele>185</ele>
        <time>2018-03-31T10:20:43Z</time>
      </trkpt>
      <trkpt lat="45.95681" lon="4.75933">
        <ele>185</ele>
        <time>2018-03-31T10:20:44Z</time>
      </trkpt>
      <trkpt lat="45.95679" lon="4.75927">
        <ele>185</ele>
        <time>2018-03-31T10:20:45Z</time>
      </trkpt>
      <trkpt lat="45.95676" lon="4.75919">
        <ele>184</ele>
        <time>2018-03-31T10:20:46Z</time>
      </trkpt>
      <trkpt lat="45.95673" lon="4.7591">
        <ele>185</ele>
        <time>2018-03-31T10:20:47Z</time>
      </trkpt>
      <trkpt lat="45.95671" lon="4.75903">
        <ele>185</ele>
        <time>2018-03-31T10:20:48Z</time>
      </trkpt>
      <trkpt lat="45.95669" lon="4.75894">
        <ele>186</ele>
        <time>2018-03-31T10:20:49Z</time>
      </trkpt>
      <trkpt lat="45.95666" lon="4.75886">
        <ele>184</ele>
        <time>2018-03-31T10:20:50Z</time>
      </trkpt>
      <trkpt lat="45.95663" lon="4.75879">
        <ele>184</ele>
        <time>2018-03-31T10:20:51Z</time>
      </trkpt>
      <trkpt lat="45.95661" lon="4.75873">
        <ele>184</ele>
        <time>2018-03-31T10:20:52Z</time>
      </trkpt>
      <trkpt lat="45.95658" lon="4.75866">
        <ele>184</ele>
        <time>2018-03-31T10:20:53Z</time>
      </trkpt>
      <trkpt lat="45.95656" lon="4.75859">
        <ele>184</ele>
        <time>2018-03-31T10:20:54Z</time>
      </trkpt>
      <trkpt lat="45.95654" lon="4.75852">
        <ele>184</ele>
        <time>2018-03-31T10:20:55Z</time>
      </trkpt>
      <trkpt lat="45.95654" lon="4.75845">
        <ele>185</ele>
        <time>2018-03-31T10:20:56Z</time>
      </trkpt>
      <trkpt lat="45.95652" lon="4.75838">
        <ele>185</ele>
        <time>2018-03-31T10:20:57Z</time>
      </trkpt>
      <trkpt lat="45.9565" lon="4.75831">
        <ele>185</ele>
        <time>2018-03-31T10:20:58Z</time>
      </trkpt>
      <trkpt lat="45.95648" lon="4.75824">
        <ele>185</ele>
        <time>2018-03-31T10:20:59Z</time>
      </trkpt>
      <trkpt lat="45.95647" lon="4.75816">
        <ele>185</ele>
        <time>2018-03-31T10:21:00Z</time>
      </trkpt>
      <trkpt lat="45.95645" lon="4.75809">
        <ele>185</ele>
        <time>2018-03-31T10:21:01Z</time>
      </trkpt>
      <trkpt lat="45.95644" lon="4.75802">
        <ele>185</ele>
        <time>2018-03-31T10:21:02Z</time>
      </trkpt>
      <trkpt lat="45.95644" lon="4.75796">
        <ele>185</ele>
        <time>2018-03-31T10:21:03Z</time>
      </trkpt>
      <trkpt lat="45.95643" lon="4.75789">
        <ele>185</ele>
        <time>2018-03-31T10:21:04Z</time>
      </trkpt>
      <trkpt lat="45.95642" lon="4.75782">
        <ele>186</ele>
        <time>2018-03-31T10:21:05Z</time>
      </trkpt>
      <trkpt lat="45.95641" lon="4.75774">
        <ele>186</ele>
        <time>2018-03-31T10:21:06Z</time>
      </trkpt>
      <trkpt lat="45.9564" lon="4.75767">
        <ele>186</ele>
        <time>2018-03-31T10:21:07Z</time>
      </trkpt>
      <trkpt lat="45.95639" lon="4.7576">
        <ele>186</ele>
        <time>2018-03-31T10:21:08Z</time>
      </trkpt>
      <trkpt lat="45.95638" lon="4.75752">
        <ele>186</ele>
        <time>2018-03-31T10:21:09Z</time>
      </trkpt>
      <trkpt lat="45.95637" lon="4.75745">
        <ele>187</ele>
        <time>2018-03-31T10:21:10Z</time>
      </trkpt>
      <trkpt lat="45.95636" lon="4.75738">
        <ele>187</ele>
        <time>2018-03-31T10:21:11Z</time>
      </trkpt>
      <trkpt lat="45.95635" lon="4.75731">
        <ele>187</ele>
        <time>2018-03-31T10:21:12Z</time>
      </trkpt>
      <trkpt lat="45.95634" lon="4.75723">
        <ele>187</ele>
        <time>2018-03-31T10:21:13Z</time>
      </trkpt>
      <trkpt lat="45.95634" lon="4.75715">
        <ele>187</ele>
        <time>2018-03-31T10:21:14Z</time>
      </trkpt>
      <trkpt lat="45.95632" lon="4.75707">
        <ele>187</ele>
        <time>2018-03-31T10:21:15Z</time>
      </trkpt>
      <trkpt lat="45.95632" lon="4.75699">
        <ele>187</ele>
        <time>2018-03-31T10:21:16Z</time>
      </trkpt>
      <trkpt lat="45.95629" lon="4.75692">
        <ele>187</ele>
        <time>2018-03-31T10:21:17Z</time>
      </trkpt>
      <trkpt lat="45.95628" lon="4.75684">
        <ele>187</ele>
        <time>2018-03-31T10:21:18Z</time>
      </trkpt>
      <trkpt lat="45.95626" lon="4.75675">
        <ele>187</ele>
        <time>2018-03-31T10:21:19Z</time>
      </trkpt>
      <trkpt lat="45.95624" lon="4.75668">
        <ele>187</ele>
        <time>2018-03-31T10:21:20Z</time>
      </trkpt>
      <trkpt lat="45.95623" lon="4.75661">
        <ele>188</ele>
        <time>2018-03-31T10:21:21Z</time>
      </trkpt>
      <trkpt lat="45.95621" lon="4.75654">
        <ele>188</ele>
        <time>2018-03-31T10:21:22Z</time>
      </trkpt>
      <trkpt lat="45.95619" lon="4.75647">
        <ele>188</ele>
        <time>2018-03-31T10:21:23Z</time>
      </trkpt>
      <trkpt lat="45.95618" lon="4.75639">
        <ele>188</ele>
        <time>2018-03-31T10:21:24Z</time>
      </trkpt>
      <trkpt lat="45.95616" lon="4.75631">
        <ele>188</ele>
        <time>2018-03-31T10:21:25Z</time>
      </trkpt>
      <trkpt lat="45.95614" lon="4.75623">
        <ele>188</ele>
        <time>2018-03-31T10:21:26Z</time>
      </trkpt>
      <trkpt lat="45.95611" lon="4.75616">
        <ele>188</ele>
        <time>2018-03-31T10:21:27Z</time>
      </trkpt>
      <trkpt lat="45.95609" lon="4.7561">
        <ele>188</ele>
        <time>2018-03-31T10:21:28Z</time>
      </trkpt>
      <trkpt lat="45.95606" lon="4.75602">
        <ele>187</ele>
        <time>2018-03-31T10:21:29Z</time>
      </trkpt>
      <trkpt lat="45.95603" lon="4.75594">
        <ele>187</ele>
        <time>2018-03-31T10:21:30Z</time>
      </trkpt>
      <trkpt lat="45.95599" lon="4.75587">
        <ele>187</ele>
        <time>2018-03-31T10:21:31Z</time>
      </trkpt>
      <trkpt lat="45.95596" lon="4.7558">
        <ele>187</ele>
        <time>2018-03-31T10:21:32Z</time>
      </trkpt>
      <trkpt lat="45.95592" lon="4.75573">
        <ele>187</ele>
        <time>2018-03-31T10:21:33Z</time>
      </trkpt>
      <trkpt lat="45.95589" lon="4.75566">
        <ele>188</ele>
        <time>2018-03-31T10:21:34Z</time>
      </trkpt>
      <trkpt lat="45.95584" lon="4.75558">
        <ele>188</ele>
        <time>2018-03-31T10:21:35Z</time>
      </trkpt>
      <trkpt lat="45.9558" lon="4.75552">
        <ele>186</ele>
        <time>2018-03-31T10:21:36Z</time>
      </trkpt>
      <trkpt lat="45.95575" lon="4.75547">
        <ele>186</ele>
        <time>2018-03-31T10:21:37Z</time>
      </trkpt>
      <trkpt lat="45.95571" lon="4.75541">
        <ele>186</ele>
        <time>2018-03-31T10:21:38Z</time>
      </trkpt>
      <trkpt lat="45.95566" lon="4.75536">
        <ele>186</ele>
        <time>2018-03-31T10:21:39Z</time>
      </trkpt>
      <trkpt lat="45.95561" lon="4.7553">
        <ele>186</ele>
        <time>2018-03-31T10:21:40Z</time>
      </trkpt>
      <trkpt lat="45.95556" lon="4.75524">
        <ele>186</ele>
        <time>2018-03-31T10:21:41Z</time>
      </trkpt>
      <trkpt lat="45.95551" lon="4.75518">
        <ele>186</ele>
        <time>2018-03-31T10:21:42Z</time>
      </trkpt>
      <trkpt lat="45.95548" lon="4.75511">
        <ele>186</ele>
        <time>2018-03-31T10:21:43Z</time>
      </trkpt>
      <trkpt lat="45.95545" lon="4.75503">
        <ele>186</ele>
        <time>2018-03-31T10:21:44Z</time>
      </trkpt>
      <trkpt lat="45.95543" lon="4.75495">
        <ele>187</ele>
        <time>2018-03-31T10:21:45Z</time>
      </trkpt>
      <trkpt lat="45.95541" lon="4.75487">
        <ele>187</ele>
        <time>2018-03-31T10:21:46Z</time>
      </trkpt>
      <trkpt lat="45.9554" lon="4.75479">
        <ele>187</ele>
        <time>2018-03-31T10:21:47Z</time>
      </trkpt>
      <trkpt lat="45.9554" lon="4.75471">
        <ele>187</ele>
        <time>2018-03-31T10:21:48Z</time>
      </trkpt>
      <trkpt lat="45.95536" lon="4.75463">
        <ele>187</ele>
        <time>2018-03-31T10:21:49Z</time>
      </trkpt>
      <trkpt lat="45.95533" lon="4.75456">
        <ele>187</ele>
        <time>2018-03-31T10:21:50Z</time>
      </trkpt>
      <trkpt lat="45.95528" lon="4.75449">
        <ele>187</ele>
        <time>2018-03-31T10:21:51Z</time>
      </trkpt>
      <trkpt lat="45.95524" lon="4.75444">
        <ele>187</ele>
        <time>2018-03-31T10:21:52Z</time>
      </trkpt>
      <trkpt lat="45.9552" lon="4.75437">
        <ele>187</ele>
        <time>2018-03-31T10:21:53Z</time>
      </trkpt>
      <trkpt lat="45.95518" lon="4.75431">
        <ele>187</ele>
        <time>2018-03-31T10:21:54Z</time>
      </trkpt>
      <trkpt lat="45.95515" lon="4.75424">
        <ele>186</ele>
        <time>2018-03-31T10:21:55Z</time>
      </trkpt>
      <trkpt lat="45.95513" lon="4.75415">
        <ele>187</ele>
        <time>2018-03-31T10:21:56Z</time>
      </trkpt>
      <trkpt lat="45.9551" lon="4.75408">
        <ele>187</ele>
        <time>2018-03-31T10:21:57Z</time>
      </trkpt>
      <trkpt lat="45.95508" lon="4.75401">
        <ele>187</ele>
        <time>2018-03-31T10:21:58Z</time>
      </trkpt>
      <trkpt lat="45.95506" lon="4.75394">
        <ele>188</ele>
        <time>2018-03-31T10:21:59Z</time>
      </trkpt>
      <trkpt lat="45.95502" lon="4.75387">
        <ele>188</ele>
        <time>2018-03-31T10:22:00Z</time>
      </trkpt>
      <trkpt lat="45.95499" lon="4.75381">
        <ele>185</ele>
        <time>2018-03-31T10:22:01Z</time>
      </trkpt>
      <trkpt lat="45.95496" lon="4.75374">
        <ele>185</ele>
        <time>2018-03-31T10:22:02Z</time>
      </trkpt>
      <trkpt lat="45.95493" lon="4.75368">
        <ele>186</ele>
        <time>2018-03-31T10:22:03Z</time>
      </trkpt>
      <trkpt lat="45.95489" lon="4.75361">
        <ele>186</ele>
        <time>2018-03-31T10:22:04Z</time>
      </trkpt>
      <trkpt lat="45.95486" lon="4.75356">
        <ele>186</ele>
        <time>2018-03-31T10:22:05Z</time>
      </trkpt>
      <trkpt lat="45.95483" lon="4.75349">
        <ele>186</ele>
        <time>2018-03-31T10:22:06Z</time>
      </trkpt>
      <trkpt lat="45.95479" lon="4.75343">
        <ele>186</ele>
        <time>2018-03-31T10:22:07Z</time>
      </trkpt>
      <trkpt lat="45.95476" lon="4.75338">
        <ele>186</ele>
        <time>2018-03-31T10:22:08Z</time>
      </trkpt>
      <trkpt lat="45.95473" lon="4.75333">
        <ele>188</ele>
        <time>2018-03-31T10:22:09Z</time>
      </trkpt>
      <trkpt lat="45.95469" lon="4.75325">
        <ele>188</ele>
        <time>2018-03-31T10:22:11Z</time>
      </trkpt>
      <trkpt lat="45.95464" lon="4.75316">
        <ele>188</ele>
        <time>2018-03-31T10:22:12Z</time>
      </trkpt>
      <trkpt lat="45.95461" lon="4.75309">
        <ele>188</ele>
        <time>2018-03-31T10:22:13Z</time>
      </trkpt>
      <trkpt lat="45.95457" lon="4.75304">
        <ele>188</ele>
        <time>2018-03-31T10:22:14Z</time>
      </trkpt>
      <trkpt lat="45.95455" lon="4.75298">
        <ele>188</ele>
        <time>2018-03-31T10:22:15Z</time>
      </trkpt>
      <trkpt lat="45.95451" lon="4.75292">
        <ele>188</ele>
        <time>2018-03-31T10:22:16Z</time>
      </trkpt>
      <trkpt lat="45.95448" lon="4.75281">
        <ele>189</ele>
        <time>2018-03-31T10:22:18Z</time>
      </trkpt>
      <trkpt lat="45.95445" lon="4.75275">
        <ele>189</ele>
        <time>2018-03-31T10:22:19Z</time>
      </trkpt>
      <trkpt lat="45.95442" lon="4.7527">
        <ele>189</ele>
        <time>2018-03-31T10:22:20Z</time>
      </trkpt>
      <trkpt lat="45.95438" lon="4.75264">
        <ele>189</ele>
        <time>2018-03-31T10:22:21Z</time>
      </trkpt>
      <trkpt lat="45.95434" lon="4.75254">
        <ele>189</ele>
        <time>2018-03-31T10:22:23Z</time>
      </trkpt>
      <trkpt lat="45.95431" lon="4.75249">
        <ele>190</ele>
        <time>2018-03-31T10:22:24Z</time>
      </trkpt>
      <trkpt lat="45.95428" lon="4.75243">
        <ele>190</ele>
        <time>2018-03-31T10:22:25Z</time>
      </trkpt>
      <trkpt lat="45.95424" lon="4.75238">
        <ele>190</ele>
        <time>2018-03-31T10:22:26Z</time>
      </trkpt>
      <trkpt lat="45.95421" lon="4.75233">
        <ele>190</ele>
        <time>2018-03-31T10:22:27Z</time>
      </trkpt>
      <trkpt lat="45.95418" lon="4.75228">
        <ele>191</ele>
        <time>2018-03-31T10:22:28Z</time>
      </trkpt>
      <trkpt lat="45.95415" lon="4.75222">
        <ele>189</ele>
        <time>2018-03-31T10:22:29Z</time>
      </trkpt>
      <trkpt lat="45.95412" lon="4.75217">
        <ele>189</ele>
        <time>2018-03-31T10:22:30Z</time>
      </trkpt>
      <trkpt lat="45.95409" lon="4.75212">
        <ele>189</ele>
        <time>2018-03-31T10:22:31Z</time>
      </trkpt>
      <trkpt lat="45.95406" lon="4.75206">
        <ele>189</ele>
        <time>2018-03-31T10:22:32Z</time>
      </trkpt>
      <trkpt lat="45.95403" lon="4.752">
        <ele>189</ele>
        <time>2018-03-31T10:22:33Z</time>
      </trkpt>
      <trkpt lat="45.954" lon="4.75195">
        <ele>189</ele>
        <time>2018-03-31T10:22:34Z</time>
      </trkpt>
      <trkpt lat="45.95397" lon="4.75189">
        <ele>189</ele>
        <time>2018-03-31T10:22:35Z</time>
      </trkpt>
      <trkpt lat="45.95394" lon="4.75184">
        <ele>189</ele>
        <time>2018-03-31T10:22:36Z</time>
      </trkpt>
      <trkpt lat="45.9539" lon="4.75178">
        <ele>189</ele>
        <time>2018-03-31T10:22:37Z</time>
      </trkpt>
      <trkpt lat="45.95387" lon="4.75173">
        <ele>189</ele>
        <time>2018-03-31T10:22:38Z</time>
      </trkpt>
      <trkpt lat="45.95382" lon="4.75164">
        <ele>191</ele>
        <time>2018-03-31T10:22:40Z</time>
      </trkpt>
      <trkpt lat="45.9538" lon="4.75159">
        <ele>191</ele>
        <time>2018-03-31T10:22:41Z</time>
      </trkpt>
      <trkpt lat="45.95377" lon="4.75151">
        <ele>191</ele>
        <time>2018-03-31T10:22:43Z</time>
      </trkpt>
      <trkpt lat="45.95374" lon="4.75146">
        <ele>191</ele>
        <time>2018-03-31T10:22:44Z</time>
      </trkpt>
      <trkpt lat="45.95371" lon="4.7514">
        <ele>191</ele>
        <time>2018-03-31T10:22:45Z</time>
      </trkpt>
      <trkpt lat="45.95368" lon="4.75135">
        <ele>191</ele>
        <time>2018-03-31T10:22:46Z</time>
      </trkpt>
      <trkpt lat="45.95365" lon="4.7513">
        <ele>191</ele>
        <time>2018-03-31T10:22:47Z</time>
      </trkpt>
      <trkpt lat="45.95362" lon="4.75125">
        <ele>191</ele>
        <time>2018-03-31T10:22:48Z</time>
      </trkpt>
      <trkpt lat="45.95359" lon="4.7512">
        <ele>191</ele>
        <time>2018-03-31T10:22:49Z</time>
      </trkpt>
      <trkpt lat="45.95355" lon="4.75116">
        <ele>192</ele>
        <time>2018-03-31T10:22:50Z</time>
      </trkpt>
      <trkpt lat="45.95352" lon="4.7511">
        <ele>192</ele>
        <time>2018-03-31T10:22:51Z</time>
      </trkpt>
      <trkpt lat="45.95349" lon="4.75105">
        <ele>192</ele>
        <time>2018-03-31T10:22:52Z</time>
      </trkpt>
      <trkpt lat="45.95345" lon="4.751">
        <ele>192</ele>
        <time>2018-03-31T10:22:53Z</time>
      </trkpt>
      <trkpt lat="45.95341" lon="4.75095">
        <ele>192</ele>
        <time>2018-03-31T10:22:54Z</time>
      </trkpt>
      <trkpt lat="45.95338" lon="4.75089">
        <ele>193</ele>
        <time>2018-03-31T10:22:55Z</time>
      </trkpt>
      <trkpt lat="45.95335" lon="4.75085">
        <ele>193</ele>
        <time>2018-03-31T10:22:56Z</time>
      </trkpt>
      <trkpt lat="45.95332" lon="4.7508">
        <ele>193</ele>
        <time>2018-03-31T10:22:57Z</time>
      </trkpt>
      <trkpt lat="45.95328" lon="4.75075">
        <ele>192</ele>
        <time>2018-03-31T10:22:58Z</time>
      </trkpt>
      <trkpt lat="45.95324" lon="4.7507">
        <ele>192</ele>
        <time>2018-03-31T10:22:59Z</time>
      </trkpt>
      <trkpt lat="45.95321" lon="4.75065">
        <ele>192</ele>
        <time>2018-03-31T10:23:00Z</time>
      </trkpt>
      <trkpt lat="45.95317" lon="4.75059">
        <ele>192</ele>
        <time>2018-03-31T10:23:01Z</time>
      </trkpt>
      <trkpt lat="45.95314" lon="4.75054">
        <ele>192</ele>
        <time>2018-03-31T10:23:02Z</time>
      </trkpt>
      <trkpt lat="45.95311" lon="4.75049">
        <ele>192</ele>
        <time>2018-03-31T10:23:03Z</time>
      </trkpt>
      <trkpt lat="45.95307" lon="4.75043">
        <ele>192</ele>
        <time>2018-03-31T10:23:04Z</time>
      </trkpt>
      <trkpt lat="45.95303" lon="4.75038">
        <ele>192</ele>
        <time>2018-03-31T10:23:05Z</time>
      </trkpt>
      <trkpt lat="45.95299" lon="4.75034">
        <ele>191</ele>
        <time>2018-03-31T10:23:06Z</time>
      </trkpt>
      <trkpt lat="45.95297" lon="4.75029">
        <ele>191</ele>
        <time>2018-03-31T10:23:07Z</time>
      </trkpt>
      <trkpt lat="45.95293" lon="4.75024">
        <ele>191</ele>
        <time>2018-03-31T10:23:08Z</time>
      </trkpt>
      <trkpt lat="45.9529" lon="4.75018">
        <ele>191</ele>
        <time>2018-03-31T10:23:09Z</time>
      </trkpt>
      <trkpt lat="45.95287" lon="4.75013">
        <ele>191</ele>
        <time>2018-03-31T10:23:10Z</time>
      </trkpt>
      <trkpt lat="45.95282" lon="4.75007">
        <ele>191</ele>
        <time>2018-03-31T10:23:11Z</time>
      </trkpt>
      <trkpt lat="45.95279" lon="4.75002">
        <ele>191</ele>
        <time>2018-03-31T10:23:12Z</time>
      </trkpt>
      <trkpt lat="45.95276" lon="4.74996">
        <ele>192</ele>
        <time>2018-03-31T10:23:13Z</time>
      </trkpt>
      <trkpt lat="45.95272" lon="4.74991">
        <ele>192</ele>
        <time>2018-03-31T10:23:14Z</time>
      </trkpt>
      <trkpt lat="45.95269" lon="4.74985">
        <ele>192</ele>
        <time>2018-03-31T10:23:15Z</time>
      </trkpt>
      <trkpt lat="45.95266" lon="4.7498">
        <ele>192</ele>
        <time>2018-03-31T10:23:16Z</time>
      </trkpt>
      <trkpt lat="45.95262" lon="4.74975">
        <ele>192</ele>
        <time>2018-03-31T10:23:17Z</time>
      </trkpt>
      <trkpt lat="45.95258" lon="4.74969">
        <ele>192</ele>
        <time>2018-03-31T10:23:18Z</time>
      </trkpt>
      <trkpt lat="45.95255" lon="4.74964">
        <ele>192</ele>
        <time>2018-03-31T10:23:19Z</time>
      </trkpt>
      <trkpt lat="45.95251" lon="4.74958">
        <ele>192</ele>
        <time>2018-03-31T10:23:20Z</time>
      </trkpt>
      <trkpt lat="45.95248" lon="4.74952">
        <ele>192</ele>
        <time>2018-03-31T10:23:21Z</time>
      </trkpt>
      <trkpt lat="45.95245" lon="4.74947">
        <ele>192</ele>
        <time>2018-03-31T10:23:22Z</time>
      </trkpt>
      <trkpt lat="45.95241" lon="4.74942">
        <ele>192</ele>
        <time>2018-03-31T10:23:23Z</time>
      </trkpt>
      <trkpt lat="45.95238" lon="4.74936">
        <ele>192</ele>
        <time>2018-03-31T10:23:24Z</time>
      </trkpt>
      <trkpt lat="45.95234" lon="4.7493">
        <ele>192</ele>
        <time>2018-03-31T10:23:25Z</time>
      </trkpt>
      <trkpt lat="45.95231" lon="4.74925">
        <ele>192</ele>
        <time>2018-03-31T10:23:26Z</time>
      </trkpt>
      <trkpt lat="45.95228" lon="4.74921">
        <ele>192</ele>
        <time>2018-03-31T10:23:27Z</time>
      </trkpt>
      <trkpt lat="45.95225" lon="4.74915">
        <ele>193</ele>
        <time>2018-03-31T10:23:28Z</time>
      </trkpt>
      <trkpt lat="45.95221" lon="4.7491">
        <ele>193</ele>
        <time>2018-03-31T10:23:29Z</time>
      </trkpt>
      <trkpt lat="45.95217" lon="4.74904">
        <ele>193</ele>
        <time>2018-03-31T10:23:30Z</time>
      </trkpt>
      <trkpt lat="45.95215" lon="4.74899">
        <ele>193</ele>
        <time>2018-03-31T10:23:31Z</time>
      </trkpt>
      <trkpt lat="45.95211" lon="4.74894">
        <ele>193</ele>
        <time>2018-03-31T10:23:32Z</time>
      </trkpt>
      <trkpt lat="45.95206" lon="4.74887">
        <ele>194</ele>
        <time>2018-03-31T10:23:33Z</time>
      </trkpt>
      <trkpt lat="45.95202" lon="4.74881">
        <ele>194</ele>
        <time>2018-03-31T10:23:34Z</time>
      </trkpt>
      <trkpt lat="45.95199" lon="4.74874">
        <ele>194</ele>
        <time>2018-03-31T10:23:35Z</time>
      </trkpt>
      <trkpt lat="45.95195" lon="4.74868">
        <ele>194</ele>
        <time>2018-03-31T10:23:36Z</time>
      </trkpt>
      <trkpt lat="45.9519" lon="4.74861">
        <ele>194</ele>
        <time>2018-03-31T10:23:37Z</time>
      </trkpt>
      <trkpt lat="45.95186" lon="4.74854">
        <ele>194</ele>
        <time>2018-03-31T10:23:38Z</time>
      </trkpt>
      <trkpt lat="45.95182" lon="4.74848">
        <ele>194</ele>
        <time>2018-03-31T10:23:39Z</time>
      </trkpt>
      <trkpt lat="45.95178" lon="4.74842">
        <ele>194</ele>
        <time>2018-03-31T10:23:40Z</time>
      </trkpt>
      <trkpt lat="45.95174" lon="4.74836">
        <ele>194</ele>
        <time>2018-03-31T10:23:41Z</time>
      </trkpt>
      <trkpt lat="45.9517" lon="4.74829">
        <ele>194</ele>
        <time>2018-03-31T10:23:42Z</time>
      </trkpt>
      <trkpt lat="45.95166" lon="4.74822">
        <ele>194</ele>
        <time>2018-03-31T10:23:43Z</time>
      </trkpt>
      <trkpt lat="45.95163" lon="4.74816">
        <ele>194</ele>
        <time>2018-03-31T10:23:44Z</time>
      </trkpt>
      <trkpt lat="45.9516" lon="4.7481">
        <ele>194</ele>
        <time>2018-03-31T10:23:45Z</time>
      </trkpt>
      <trkpt lat="45.95156" lon="4.74803">
        <ele>194</ele>
        <time>2018-03-31T10:23:46Z</time>
      </trkpt>
      <trkpt lat="45.95152" lon="4.74797">
        <ele>194</ele>
        <time>2018-03-31T10:23:47Z</time>
      </trkpt>
      <trkpt lat="45.95148" lon="4.74791">
        <ele>194</ele>
        <time>2018-03-31T10:23:48Z</time>
      </trkpt>
      <trkpt lat="45.95145" lon="4.74785">
        <ele>194</ele>
        <time>2018-03-31T10:23:49Z</time>
      </trkpt>
      <trkpt lat="45.95141" lon="4.74779">
        <ele>194</ele>
        <time>2018-03-31T10:23:50Z</time>
      </trkpt>
      <trkpt lat="45.95136" lon="4.74773">
        <ele>194</ele>
        <time>2018-03-31T10:23:51Z</time>
      </trkpt>
      <trkpt lat="45.95132" lon="4.74767">
        <ele>194</ele>
        <time>2018-03-31T10:23:52Z</time>
      </trkpt>
      <trkpt lat="45.95128" lon="4.7476">
        <ele>194</ele>
        <time>2018-03-31T10:23:53Z</time>
      </trkpt>
      <trkpt lat="45.95124" lon="4.74754">
        <ele>194</ele>
        <time>2018-03-31T10:23:54Z</time>
      </trkpt>
      <trkpt lat="45.95121" lon="4.74748">
        <ele>194</ele>
        <time>2018-03-31T10:23:55Z</time>
      </trkpt>
      <trkpt lat="45.95117" lon="4.74741">
        <ele>194</ele>
        <time>2018-03-31T10:23:56Z</time>
      </trkpt>
      <trkpt lat="45.95115" lon="4.74735">
        <ele>194</ele>
        <time>2018-03-31T10:23:57Z</time>
      </trkpt>
      <trkpt lat="45.95109" lon="4.74727">
        <ele>194</ele>
        <time>2018-03-31T10:23:58Z</time>
      </trkpt>
      <trkpt lat="45.95107" lon="4.7472">
        <ele>194</ele>
        <time>2018-03-31T10:23:59Z</time>
      </trkpt>
      <trkpt lat="45.95104" lon="4.74715">
        <ele>194</ele>
        <time>2018-03-31T10:24:00Z</time>
      </trkpt>
      <trkpt lat="45.95099" lon="4.74708">
        <ele>194</ele>
        <time>2018-03-31T10:24:01Z</time>
      </trkpt>
      <trkpt lat="45.95095" lon="4.74702">
        <ele>194</ele>
        <time>2018-03-31T10:24:02Z</time>
      </trkpt>
      <trkpt lat="45.95091" lon="4.74697">
        <ele>194</ele>
        <time>2018-03-31T10:24:03Z</time>
      </trkpt>
      <trkpt lat="45.95087" lon="4.74693">
        <ele>194</ele>
        <time>2018-03-31T10:24:04Z</time>
      </trkpt>
      <trkpt lat="45.95083" lon="4.74686">
        <ele>195</ele>
        <time>2018-03-31T10:24:05Z</time>
      </trkpt>
      <trkpt lat="45.9508" lon="4.74679">
        <ele>194</ele>
        <time>2018-03-31T10:24:06Z</time>
      </trkpt>
      <trkpt lat="45.95076" lon="4.74673">
        <ele>195</ele>
        <time>2018-03-31T10:24:07Z</time>
      </trkpt>
      <trkpt lat="45.95073" lon="4.74668">
        <ele>194</ele>
        <time>2018-03-31T10:24:08Z</time>
      </trkpt>
      <trkpt lat="45.95069" lon="4.74661">
        <ele>195</ele>
        <time>2018-03-31T10:24:09Z</time>
      </trkpt>
      <trkpt lat="45.95066" lon="4.74654">
        <ele>195</ele>
        <time>2018-03-31T10:24:10Z</time>
      </trkpt>
      <trkpt lat="45.95062" lon="4.74646">
        <ele>194</ele>
        <time>2018-03-31T10:24:11Z</time>
      </trkpt>
      <trkpt lat="45.95059" lon="4.7464">
        <ele>194</ele>
        <time>2018-03-31T10:24:12Z</time>
      </trkpt>
      <trkpt lat="45.95055" lon="4.74631">
        <ele>194</ele>
        <time>2018-03-31T10:24:13Z</time>
      </trkpt>
      <trkpt lat="45.95051" lon="4.74625">
        <ele>194</ele>
        <time>2018-03-31T10:24:14Z</time>
      </trkpt>
      <trkpt lat="45.95048" lon="4.74619">
        <ele>194</ele>
        <time>2018-03-31T10:24:15Z</time>
      </trkpt>
      <trkpt lat="45.95043" lon="4.74612">
        <ele>194</ele>
        <time>2018-03-31T10:24:16Z</time>
      </trkpt>
      <trkpt lat="45.9504" lon="4.74607">
        <ele>194</ele>
        <time>2018-03-31T10:24:17Z</time>
      </trkpt>
      <trkpt lat="45.95037" lon="4.746">
        <ele>194</ele>
        <time>2018-03-31T10:24:18Z</time>
      </trkpt>
      <trkpt lat="45.95033" lon="4.74593">
        <ele>194</ele>
        <time>2018-03-31T10:24:19Z</time>
      </trkpt>
      <trkpt lat="45.9503" lon="4.74586">
        <ele>194</ele>
        <time>2018-03-31T10:24:20Z</time>
      </trkpt>
      <trkpt lat="45.95027" lon="4.74579">
        <ele>194</ele>
        <time>2018-03-31T10:24:21Z</time>
      </trkpt>
      <trkpt lat="45.95022" lon="4.74573">
        <ele>194</ele>
        <time>2018-03-31T10:24:22Z</time>
      </trkpt>
      <trkpt lat="45.95019" lon="4.74566">
        <ele>194</ele>
        <time>2018-03-31T10:24:23Z</time>
      </trkpt>
      <trkpt lat="45.95016" lon="4.74559">
        <ele>194</ele>
        <time>2018-03-31T10:24:24Z</time>
      </trkpt>
      <trkpt lat="45.95011" lon="4.74552">
        <ele>194</ele>
        <time>2018-03-31T10:24:25Z</time>
      </trkpt>
      <trkpt lat="45.95007" lon="4.74545">
        <ele>194</ele>
        <time>2018-03-31T10:24:26Z</time>
      </trkpt>
      <trkpt lat="45.95003" lon="4.74537">
        <ele>194</ele>
        <time>2018-03-31T10:24:27Z</time>
      </trkpt>
      <trkpt lat="45.94999" lon="4.7453">
        <ele>193</ele>
        <time>2018-03-31T10:24:28Z</time>
      </trkpt>
      <trkpt lat="45.94996" lon="4.74524">
        <ele>193</ele>
        <time>2018-03-31T10:24:29Z</time>
      </trkpt>
      <trkpt lat="45.94992" lon="4.74517">
        <ele>193</ele>
        <time>2018-03-31T10:24:30Z</time>
      </trkpt>
      <trkpt lat="45.94988" lon="4.74509">
        <ele>193</ele>
        <time>2018-03-31T10:24:31Z</time>
      </trkpt>
      <trkpt lat="45.94985" lon="4.74503">
        <ele>193</ele>
        <time>2018-03-31T10:24:32Z</time>
      </trkpt>
      <trkpt lat="45.94981" lon="4.74496">
        <ele>193</ele>
        <time>2018-03-31T10:24:33Z</time>
      </trkpt>
      <trkpt lat="45.94978" lon="4.7449">
        <ele>193</ele>
        <time>2018-03-31T10:24:34Z</time>
      </trkpt>
      <trkpt lat="45.94973" lon="4.74483">
        <ele>193</ele>
        <time>2018-03-31T10:24:35Z</time>
      </trkpt>
      <trkpt lat="45.94969" lon="4.74476">
        <ele>193</ele>
        <time>2018-03-31T10:24:36Z</time>
      </trkpt>
      <trkpt lat="45.94966" lon="4.74469">
        <ele>193</ele>
        <time>2018-03-31T10:24:37Z</time>
      </trkpt>
      <trkpt lat="45.94962" lon="4.74462">
        <ele>193</ele>
        <time>2018-03-31T10:24:38Z</time>
      </trkpt>
      <trkpt lat="45.94959" lon="4.74455">
        <ele>192</ele>
        <time>2018-03-31T10:24:39Z</time>
      </trkpt>
      <trkpt lat="45.94955" lon="4.74448">
        <ele>192</ele>
        <time>2018-03-31T10:24:40Z</time>
      </trkpt>
      <trkpt lat="45.94953" lon="4.74441">
        <ele>192</ele>
        <time>2018-03-31T10:24:41Z</time>
      </trkpt>
      <trkpt lat="45.94949" lon="4.74434">
        <ele>192</ele>
        <time>2018-03-31T10:24:42Z</time>
      </trkpt>
      <trkpt lat="45.94945" lon="4.74427">
        <ele>192</ele>
        <time>2018-03-31T10:24:43Z</time>
      </trkpt>
      <trkpt lat="45.94942" lon="4.74418">
        <ele>192</ele>
        <time>2018-03-31T10:24:44Z</time>
      </trkpt>
      <trkpt lat="45.94938" lon="4.74412">
        <ele>192</ele>
        <time>2018-03-31T10:24:45Z</time>
      </trkpt>
      <trkpt lat="45.94934" lon="4.74405">
        <ele>192</ele>
        <time>2018-03-31T10:24:46Z</time>
      </trkpt>
      <trkpt lat="45.9493" lon="4.74397">
        <ele>192</ele>
        <time>2018-03-31T10:24:47Z</time>
      </trkpt>
      <trkpt lat="45.94927" lon="4.74389">
        <ele>192</ele>
        <time>2018-03-31T10:24:48Z</time>
      </trkpt>
      <trkpt lat="45.94922" lon="4.74381">
        <ele>192</ele>
        <time>2018-03-31T10:24:49Z</time>
      </trkpt>
      <trkpt lat="45.94918" lon="4.74373">
        <ele>192</ele>
        <time>2018-03-31T10:24:50Z</time>
      </trkpt>
      <trkpt lat="45.94914" lon="4.74366">
        <ele>191</ele>
        <time>2018-03-31T10:24:51Z</time>
      </trkpt>
      <trkpt lat="45.94909" lon="4.74358">
        <ele>191</ele>
        <time>2018-03-31T10:24:52Z</time>
      </trkpt>
      <trkpt lat="45.94905" lon="4.74351">
        <ele>191</ele>
        <time>2018-03-31T10:24:53Z</time>
      </trkpt>
      <trkpt lat="45.94901" lon="4.74344">
        <ele>191</ele>
        <time>2018-03-31T10:24:54Z</time>
      </trkpt>
      <trkpt lat="45.94897" lon="4.74337">
        <ele>191</ele>
        <time>2018-03-31T10:24:55Z</time>
      </trkpt>
      <trkpt lat="45.94893" lon="4.7433">
        <ele>191</ele>
        <time>2018-03-31T10:24:56Z</time>
      </trkpt>
      <trkpt lat="45.94889" lon="4.74322">
        <ele>191</ele>
        <time>2018-03-31T10:24:57Z</time>
      </trkpt>
      <trkpt lat="45.94886" lon="4.74315">
        <ele>191</ele>
        <time>2018-03-31T10:24:58Z</time>
      </trkpt>
      <trkpt lat="45.94881" lon="4.74307">
        <ele>191</ele>
        <time>2018-03-31T10:24:59Z</time>
      </trkpt>
      <trkpt lat="45.94877" lon="4.74298">
        <ele>191</ele>
        <time>2018-03-31T10:25:00Z</time>
      </trkpt>
      <trkpt lat="45.94874" lon="4.74291">
        <ele>191</ele>
        <time>2018-03-31T10:25:01Z</time>
      </trkpt>
      <trkpt lat="45.94869" lon="4.74284">
        <ele>191</ele>
        <time>2018-03-31T10:25:02Z</time>
      </trkpt>
      <trkpt lat="45.94866" lon="4.74276">
        <ele>191</ele>
        <time>2018-03-31T10:25:03Z</time>
      </trkpt>
      <trkpt lat="45.94862" lon="4.74269">
        <ele>190</ele>
        <time>2018-03-31T10:25:04Z</time>
      </trkpt>
      <trkpt lat="45.94858" lon="4.74261">
        <ele>190</ele>
        <time>2018-03-31T10:25:05Z</time>
      </trkpt>
      <trkpt lat="45.94854" lon="4.74253">
        <ele>190</ele>
        <time>2018-03-31T10:25:06Z</time>
      </trkpt>
      <trkpt lat="45.94851" lon="4.74244">
        <ele>190</ele>
        <time>2018-03-31T10:25:07Z</time>
      </trkpt>
      <trkpt lat="45.94848" lon="4.74237">
        <ele>190</ele>
        <time>2018-03-31T10:25:08Z</time>
      </trkpt>
      <trkpt lat="45.94844" lon="4.74229">
        <ele>190</ele>
        <time>2018-03-31T10:25:09Z</time>
      </trkpt>
      <trkpt lat="45.94839" lon="4.74222">
        <ele>190</ele>
        <time>2018-03-31T10:25:10Z</time>
      </trkpt>
      <trkpt lat="45.94835" lon="4.74214">
        <ele>190</ele>
        <time>2018-03-31T10:25:11Z</time>
      </trkpt>
      <trkpt lat="45.9483" lon="4.74206">
        <ele>189</ele>
        <time>2018-03-31T10:25:12Z</time>
      </trkpt>
      <trkpt lat="45.94825" lon="4.74199">
        <ele>189</ele>
        <time>2018-03-31T10:25:13Z</time>
      </trkpt>
      <trkpt lat="45.94822" lon="4.74192">
        <ele>189</ele>
        <time>2018-03-31T10:25:14Z</time>
      </trkpt>
      <trkpt lat="45.94817" lon="4.74184">
        <ele>189</ele>
        <time>2018-03-31T10:25:15Z</time>
      </trkpt>
      <trkpt lat="45.94814" lon="4.74177">
        <ele>189</ele>
        <time>2018-03-31T10:25:16Z</time>
      </trkpt>
      <trkpt lat="45.9481" lon="4.7417">
        <ele>189</ele>
        <time>2018-03-31T10:25:17Z</time>
      </trkpt>
      <trkpt lat="45.94806" lon="4.74162">
        <ele>189</ele>
        <time>2018-03-31T10:25:18Z</time>
      </trkpt>
      <trkpt lat="45.94802" lon="4.74155">
        <ele>189</ele>
        <time>2018-03-31T10:25:19Z</time>
      </trkpt>
      <trkpt lat="45.94798" lon="4.74148">
        <ele>189</ele>
        <time>2018-03-31T10:25:20Z</time>
      </trkpt>
      <trkpt lat="45.94794" lon="4.74142">
        <ele>189</ele>
        <time>2018-03-31T10:25:21Z</time>
      </trkpt>
      <trkpt lat="45.94789" lon="4.74135">
        <ele>189</ele>
        <time>2018-03-31T10:25:22Z</time>
      </trkpt>
      <trkpt lat="45.94786" lon="4.74129">
        <ele>189</ele>
        <time>2018-03-31T10:25:23Z</time>
      </trkpt>
      <trkpt lat="45.94782" lon="4.74123">
        <ele>189</ele>
        <time>2018-03-31T10:25:24Z</time>
      </trkpt>
      <trkpt lat="45.94778" lon="4.74117">
        <ele>189</ele>
        <time>2018-03-31T10:25:25Z</time>
      </trkpt>
      <trkpt lat="45.94773" lon="4.74111">
        <ele>189</ele>
        <time>2018-03-31T10:25:26Z</time>
      </trkpt>
      <trkpt lat="45.94769" lon="4.74105">
        <ele>189</ele>
        <time>2018-03-31T10:25:27Z</time>
      </trkpt>
      <trkpt lat="45.94765" lon="4.74099">
        <ele>189</ele>
        <time>2018-03-31T10:25:28Z</time>
      </trkpt>
      <trkpt lat="45.9476" lon="4.74094">
        <ele>189</ele>
        <time>2018-03-31T10:25:29Z</time>
      </trkpt>
      <trkpt lat="45.94756" lon="4.74089">
        <ele>189</ele>
        <time>2018-03-31T10:25:30Z</time>
      </trkpt>
      <trkpt lat="45.94751" lon="4.74082">
        <ele>189</ele>
        <time>2018-03-31T10:25:31Z</time>
      </trkpt>
      <trkpt lat="45.94747" lon="4.74075">
        <ele>188</ele>
        <time>2018-03-31T10:25:32Z</time>
      </trkpt>
      <trkpt lat="45.94743" lon="4.74069">
        <ele>188</ele>
        <time>2018-03-31T10:25:33Z</time>
      </trkpt>
      <trkpt lat="45.94738" lon="4.74063">
        <ele>188</ele>
        <time>2018-03-31T10:25:34Z</time>
      </trkpt>
      <trkpt lat="45.94734" lon="4.74057">
        <ele>188</ele>
        <time>2018-03-31T10:25:35Z</time>
      </trkpt>
      <trkpt lat="45.9473" lon="4.74052">
        <ele>188</ele>
        <time>2018-03-31T10:25:36Z</time>
      </trkpt>
      <trkpt lat="45.94726" lon="4.74047">
        <ele>188</ele>
        <time>2018-03-31T10:25:37Z</time>
      </trkpt>
      <trkpt lat="45.94723" lon="4.74043">
        <ele>187</ele>
        <time>2018-03-31T10:25:38Z</time>
      </trkpt>
      <trkpt lat="45.94719" lon="4.74037">
        <ele>187</ele>
        <time>2018-03-31T10:25:39Z</time>
      </trkpt>
      <trkpt lat="45.94715" lon="4.74033">
        <ele>187</ele>
        <time>2018-03-31T10:25:40Z</time>
      </trkpt>
      <trkpt lat="45.94711" lon="4.74028">
        <ele>187</ele>
        <time>2018-03-31T10:25:41Z</time>
      </trkpt>
      <trkpt lat="45.94706" lon="4.74022">
        <ele>187</ele>
        <time>2018-03-31T10:25:42Z</time>
      </trkpt>
      <trkpt lat="45.94702" lon="4.74016">
        <ele>187</ele>
        <time>2018-03-31T10:25:43Z</time>
      </trkpt>
      <trkpt lat="45.94697" lon="4.7401">
        <ele>187</ele>
        <time>2018-03-31T10:25:44Z</time>
      </trkpt>
      <trkpt lat="45.94692" lon="4.74005">
        <ele>187</ele>
        <time>2018-03-31T10:25:45Z</time>
      </trkpt>
      <trkpt lat="45.94689" lon="4.73998">
        <ele>187</ele>
        <time>2018-03-31T10:25:46Z</time>
      </trkpt>
      <trkpt lat="45.94685" lon="4.73992">
        <ele>187</ele>
        <time>2018-03-31T10:25:47Z</time>
      </trkpt>
      <trkpt lat="45.94681" lon="4.73986">
        <ele>187</ele>
        <time>2018-03-31T10:25:48Z</time>
      </trkpt>
      <trkpt lat="45.94677" lon="4.7398">
        <ele>187</ele>
        <time>2018-03-31T10:25:49Z</time>
      </trkpt>
      <trkpt lat="45.94672" lon="4.73975">
        <ele>187</ele>
        <time>2018-03-31T10:25:50Z</time>
      </trkpt>
      <trkpt lat="45.94667" lon="4.73968">
        <ele>187</ele>
        <time>2018-03-31T10:25:51Z</time>
      </trkpt>
      <trkpt lat="45.94661" lon="4.73961">
        <ele>187</ele>
        <time>2018-03-31T10:25:52Z</time>
      </trkpt>
      <trkpt lat="45.94656" lon="4.73955">
        <ele>187</ele>
        <time>2018-03-31T10:25:53Z</time>
      </trkpt>
      <trkpt lat="45.94652" lon="4.73948">
        <ele>187</ele>
        <time>2018-03-31T10:25:54Z</time>
      </trkpt>
      <trkpt lat="45.94648" lon="4.73942">
        <ele>187</ele>
        <time>2018-03-31T10:25:55Z</time>
      </trkpt>
      <trkpt lat="45.94644" lon="4.73936">
        <ele>187</ele>
        <time>2018-03-31T10:25:56Z</time>
      </trkpt>
      <trkpt lat="45.94639" lon="4.73931">
        <ele>187</ele>
        <time>2018-03-31T10:25:57Z</time>
      </trkpt>
      <trkpt lat="45.94634" lon="4.73924">
        <ele>187</ele>
        <time>2018-03-31T10:25:58Z</time>
      </trkpt>
      <trkpt lat="45.94629" lon="4.73917">
        <ele>187</ele>
        <time>2018-03-31T10:25:59Z</time>
      </trkpt>
      <trkpt lat="45.94624" lon="4.7391">
        <ele>187</ele>
        <time>2018-03-31T10:26:00Z</time>
      </trkpt>
      <trkpt lat="45.94617" lon="4.73903">
        <ele>187</ele>
        <time>2018-03-31T10:26:01Z</time>
      </trkpt>
      <trkpt lat="45.9461" lon="4.73897">
        <ele>187</ele>
        <time>2018-03-31T10:26:02Z</time>
      </trkpt>
      <trkpt lat="45.94604" lon="4.73889">
        <ele>187</ele>
        <time>2018-03-31T10:26:03Z</time>
      </trkpt>
      <trkpt lat="45.94598" lon="4.73883">
        <ele>187</ele>
        <time>2018-03-31T10:26:04Z</time>
      </trkpt>
      <trkpt lat="45.94593" lon="4.73876">
        <ele>187</ele>
        <time>2018-03-31T10:26:05Z</time>
      </trkpt>
      <trkpt lat="45.94587" lon="4.7387">
        <ele>187</ele>
        <time>2018-03-31T10:26:06Z</time>
      </trkpt>
      <trkpt lat="45.94581" lon="4.73863">
        <ele>186</ele>
        <time>2018-03-31T10:26:07Z</time>
      </trkpt>
      <trkpt lat="45.94575" lon="4.73858">
        <ele>186</ele>
        <time>2018-03-31T10:26:08Z</time>
      </trkpt>
      <trkpt lat="45.94569" lon="4.73851">
        <ele>186</ele>
        <time>2018-03-31T10:26:09Z</time>
      </trkpt>
      <trkpt lat="45.94564" lon="4.73845">
        <ele>186</ele>
        <time>2018-03-31T10:26:10Z</time>
      </trkpt>
      <trkpt lat="45.94558" lon="4.73839">
        <ele>186</ele>
        <time>2018-03-31T10:26:11Z</time>
      </trkpt>
      <trkpt lat="45.94552" lon="4.73833">
        <ele>186</ele>
        <time>2018-03-31T10:26:12Z</time>
      </trkpt>
      <trkpt lat="45.94545" lon="4.73828">
        <ele>186</ele>
        <time>2018-03-31T10:26:13Z</time>
      </trkpt>
      <trkpt lat="45.9454" lon="4.73823">
        <ele>186</ele>
        <time>2018-03-31T10:26:14Z</time>
      </trkpt>
      <trkpt lat="45.94535" lon="4.73817">
        <ele>186</ele>
        <time>2018-03-31T10:26:15Z</time>
      </trkpt>
      <trkpt lat="45.9453" lon="4.73812">
        <ele>186</ele>
        <time>2018-03-31T10:26:16Z</time>
      </trkpt>
      <trkpt lat="45.94525" lon="4.73806">
        <ele>186</ele>
        <time>2018-03-31T10:26:17Z</time>
      </trkpt>
      <trkpt lat="45.9452" lon="4.738">
        <ele>186</ele>
        <time>2018-03-31T10:26:18Z</time>
      </trkpt>
      <trkpt lat="45.94515" lon="4.73794">
        <ele>186</ele>
        <time>2018-03-31T10:26:19Z</time>
      </trkpt>
      <trkpt lat="45.9451" lon="4.73789">
        <ele>186</ele>
        <time>2018-03-31T10:26:20Z</time>
      </trkpt>
      <trkpt lat="45.94505" lon="4.73783">
        <ele>186</ele>
        <time>2018-03-31T10:26:21Z</time>
      </trkpt>
      <trkpt lat="45.94499" lon="4.73776">
        <ele>186</ele>
        <time>2018-03-31T10:26:22Z</time>
      </trkpt>
      <trkpt lat="45.94494" lon="4.7377">
        <ele>186</ele>
        <time>2018-03-31T10:26:23Z</time>
      </trkpt>
      <trkpt lat="45.9449" lon="4.73762">
        <ele>186</ele>
        <time>2018-03-31T10:26:24Z</time>
      </trkpt>
      <trkpt lat="45.94488" lon="4.73754">
        <ele>186</ele>
        <time>2018-03-31T10:26:25Z</time>
      </trkpt>
      <trkpt lat="45.94487" lon="4.73744">
        <ele>186</ele>
        <time>2018-03-31T10:26:26Z</time>
      </trkpt>
      <trkpt lat="45.94488" lon="4.73735">
        <ele>186</ele>
        <time>2018-03-31T10:26:27Z</time>
      </trkpt>
      <trkpt lat="45.94489" lon="4.73725">
        <ele>186</ele>
        <time>2018-03-31T10:26:28Z</time>
      </trkpt>
      <trkpt lat="45.9449" lon="4.73715">
        <ele>186</ele>
        <time>2018-03-31T10:26:29Z</time>
      </trkpt>
      <trkpt lat="45.94492" lon="4.73706">
        <ele>186</ele>
        <time>2018-03-31T10:26:30Z</time>
      </trkpt>
      <trkpt lat="45.94493" lon="4.73695">
        <ele>186</ele>
        <time>2018-03-31T10:26:31Z</time>
      </trkpt>
      <trkpt lat="45.94494" lon="4.73685">
        <ele>186</ele>
        <time>2018-03-31T10:26:32Z</time>
      </trkpt>
      <trkpt lat="45.94496" lon="4.73675">
        <ele>185</ele>
        <time>2018-03-31T10:26:33Z</time>
      </trkpt>
      <trkpt lat="45.94497" lon="4.73665">
        <ele>185</ele>
        <time>2018-03-31T10:26:34Z</time>
      </trkpt>
      <trkpt lat="45.94499" lon="4.73656">
        <ele>185</ele>
        <time>2018-03-31T10:26:35Z</time>
      </trkpt>
      <trkpt lat="45.945" lon="4.73647">
        <ele>185</ele>
        <time>2018-03-31T10:26:36Z</time>
      </trkpt>
      <trkpt lat="45.945" lon="4.73637">
        <ele>184</ele>
        <time>2018-03-31T10:26:37Z</time>
      </trkpt>
      <trkpt lat="45.94501" lon="4.73628">
        <ele>184</ele>
        <time>2018-03-31T10:26:38Z</time>
      </trkpt>
      <trkpt lat="45.94502" lon="4.73619">
        <ele>184</ele>
        <time>2018-03-31T10:26:39Z</time>
      </trkpt>
      <trkpt lat="45.94503" lon="4.73611">
        <ele>184</ele>
        <time>2018-03-31T10:26:40Z</time>
      </trkpt>
      <trkpt lat="45.94503" lon="4.73602">
        <ele>184</ele>
        <time>2018-03-31T10:26:41Z</time>
      </trkpt>
      <trkpt lat="45.94504" lon="4.73592">
        <ele>184</ele>
        <time>2018-03-31T10:26:42Z</time>
      </trkpt>
      <trkpt lat="45.94505" lon="4.73582">
        <ele>185</ele>
        <time>2018-03-31T10:26:43Z</time>
      </trkpt>
      <trkpt lat="45.94505" lon="4.73571">
        <ele>184</ele>
        <time>2018-03-31T10:26:44Z</time>
      </trkpt>
      <trkpt lat="45.94506" lon="4.73561">
        <ele>184</ele>
        <time>2018-03-31T10:26:45Z</time>
      </trkpt>
      <trkpt lat="45.94506" lon="4.73552">
        <ele>183</ele>
        <time>2018-03-31T10:26:46Z</time>
      </trkpt>
      <trkpt lat="45.94507" lon="4.73542">
        <ele>183</ele>
        <time>2018-03-31T10:26:47Z</time>
      </trkpt>
      <trkpt lat="45.94507" lon="4.73532">
        <ele>183</ele>
        <time>2018-03-31T10:26:48Z</time>
      </trkpt>
      <trkpt lat="45.94507" lon="4.73522">
        <ele>183</ele>
        <time>2018-03-31T10:26:49Z</time>
      </trkpt>
      <trkpt lat="45.94506" lon="4.73512">
        <ele>183</ele>
        <time>2018-03-31T10:26:50Z</time>
      </trkpt>
      <trkpt lat="45.94505" lon="4.73501">
        <ele>183</ele>
        <time>2018-03-31T10:26:51Z</time>
      </trkpt>
      <trkpt lat="45.94505" lon="4.7349">
        <ele>182</ele>
        <time>2018-03-31T10:26:52Z</time>
      </trkpt>
      <trkpt lat="45.94505" lon="4.73479">
        <ele>182</ele>
        <time>2018-03-31T10:26:53Z</time>
      </trkpt>
      <trkpt lat="45.94505" lon="4.73469">
        <ele>181</ele>
        <time>2018-03-31T10:26:54Z</time>
      </trkpt>
      <trkpt lat="45.94505" lon="4.73459">
        <ele>181</ele>
        <time>2018-03-31T10:26:55Z</time>
      </trkpt>
      <trkpt lat="45.94505" lon="4.73449">
        <ele>181</ele>
        <time>2018-03-31T10:26:56Z</time>
      </trkpt>
      <trkpt lat="45.94504" lon="4.73438">
        <ele>181</ele>
        <time>2018-03-31T10:26:57Z</time>
      </trkpt>
      <trkpt lat="45.94504" lon="4.73427">
        <ele>180</ele>
        <time>2018-03-31T10:26:58Z</time>
      </trkpt>
      <trkpt lat="45.94503" lon="4.73417">
        <ele>180</ele>
        <time>2018-03-31T10:26:59Z</time>
      </trkpt>
      <trkpt lat="45.94502" lon="4.73405">
        <ele>179</ele>
        <time>2018-03-31T10:27:00Z</time>
      </trkpt>
      <trkpt lat="45.94501" lon="4.73394">
        <ele>179</ele>
        <time>2018-03-31T10:27:01Z</time>
      </trkpt>
      <trkpt lat="45.945" lon="4.73382">
        <ele>179</ele>
        <time>2018-03-31T10:27:02Z</time>
      </trkpt>
      <trkpt lat="45.94499" lon="4.7337">
        <ele>179</ele>
        <time>2018-03-31T10:27:03Z</time>
      </trkpt>
      <trkpt lat="45.94498" lon="4.73359">
        <ele>178</ele>
        <time>2018-03-31T10:27:04Z</time>
      </trkpt>
      <trkpt lat="45.94497" lon="4.73348">
        <ele>178</ele>
        <time>2018-03-31T10:27:05Z</time>
      </trkpt>
      <trkpt lat="45.94496" lon="4.73336">
        <ele>177</ele>
        <time>2018-03-31T10:27:06Z</time>
      </trkpt>
      <trkpt lat="45.94495" lon="4.73325">
        <ele>177</ele>
        <time>2018-03-31T10:27:07Z</time>
      </trkpt>
      <trkpt lat="45.94494" lon="4.73313">
        <ele>177</ele>
        <time>2018-03-31T10:27:08Z</time>
      </trkpt>
      <trkpt lat="45.94493" lon="4.733">
        <ele>177</ele>
        <time>2018-03-31T10:27:09Z</time>
      </trkpt>
      <trkpt lat="45.94491" lon="4.73288">
        <ele>177</ele>
        <time>2018-03-31T10:27:10Z</time>
      </trkpt>
      <trkpt lat="45.94489" lon="4.73276">
        <ele>177</ele>
        <time>2018-03-31T10:27:11Z</time>
      </trkpt>
      <trkpt lat="45.94487" lon="4.73264">
        <ele>176</ele>
        <time>2018-03-31T10:27:12Z</time>
      </trkpt>
      <trkpt lat="45.94486" lon="4.73252">
        <ele>176</ele>
        <time>2018-03-31T10:27:13Z</time>
      </trkpt>
      <trkpt lat="45.94485" lon="4.7324">
        <ele>175</ele>
        <time>2018-03-31T10:27:14Z</time>
      </trkpt>
      <trkpt lat="45.94483" lon="4.73228">
        <ele>175</ele>
        <time>2018-03-31T10:27:15Z</time>
      </trkpt>
      <trkpt lat="45.94483" lon="4.73217">
        <ele>175</ele>
        <time>2018-03-31T10:27:16Z</time>
      </trkpt>
      <trkpt lat="45.94481" lon="4.73205">
        <ele>175</ele>
        <time>2018-03-31T10:27:17Z</time>
      </trkpt>
      <trkpt lat="45.94479" lon="4.73192">
        <ele>174</ele>
        <time>2018-03-31T10:27:18Z</time>
      </trkpt>
      <trkpt lat="45.94476" lon="4.7318">
        <ele>174</ele>
        <time>2018-03-31T10:27:19Z</time>
      </trkpt>
      <trkpt lat="45.94475" lon="4.73168">
        <ele>174</ele>
        <time>2018-03-31T10:27:20Z</time>
      </trkpt>
      <trkpt lat="45.94474" lon="4.73157">
        <ele>173</ele>
        <time>2018-03-31T10:27:21Z</time>
      </trkpt>
      <trkpt lat="45.94473" lon="4.73144">
        <ele>172</ele>
        <time>2018-03-31T10:27:22Z</time>
      </trkpt>
      <trkpt lat="45.94472" lon="4.73133">
        <ele>172</ele>
        <time>2018-03-31T10:27:23Z</time>
      </trkpt>
      <trkpt lat="45.94471" lon="4.73123">
        <ele>172</ele>
        <time>2018-03-31T10:27:24Z</time>
      </trkpt>
      <trkpt lat="45.94469" lon="4.73112">
        <ele>172</ele>
        <time>2018-03-31T10:27:25Z</time>
      </trkpt>
      <trkpt lat="45.94468" lon="4.73103">
        <ele>172</ele>
        <time>2018-03-31T10:27:26Z</time>
      </trkpt>
      <trkpt lat="45.94467" lon="4.73091">
        <ele>172</ele>
        <time>2018-03-31T10:27:27Z</time>
      </trkpt>
      <trkpt lat="45.94466" lon="4.73081">
        <ele>170</ele>
        <time>2018-03-31T10:27:28Z</time>
      </trkpt>
      <trkpt lat="45.94466" lon="4.73071">
        <ele>170</ele>
        <time>2018-03-31T10:27:29Z</time>
      </trkpt>
      <trkpt lat="45.94464" lon="4.73062">
        <ele>170</ele>
        <time>2018-03-31T10:27:30Z</time>
      </trkpt>
      <trkpt lat="45.94463" lon="4.73054">
        <ele>170</ele>
        <time>2018-03-31T10:27:31Z</time>
      </trkpt>
      <trkpt lat="45.94461" lon="4.73045">
        <ele>170</ele>
        <time>2018-03-31T10:27:32Z</time>
      </trkpt>
      <trkpt lat="45.94459" lon="4.73037">
        <ele>169</ele>
        <time>2018-03-31T10:27:33Z</time>
      </trkpt>
      <trkpt lat="45.94458" lon="4.73029">
        <ele>169</ele>
        <time>2018-03-31T10:27:34Z</time>
      </trkpt>
      <trkpt lat="45.94456" lon="4.7302">
        <ele>169</ele>
        <time>2018-03-31T10:27:35Z</time>
      </trkpt>
      <trkpt lat="45.94455" lon="4.73013">
        <ele>169</ele>
        <time>2018-03-31T10:27:36Z</time>
      </trkpt>
      <trkpt lat="45.94454" lon="4.73005">
        <ele>169</ele>
        <time>2018-03-31T10:27:37Z</time>
      </trkpt>
      <trkpt lat="45.94452" lon="4.72998">
        <ele>167</ele>
        <time>2018-03-31T10:27:38Z</time>
      </trkpt>
      <trkpt lat="45.94452" lon="4.72991">
        <ele>167</ele>
        <time>2018-03-31T10:27:39Z</time>
      </trkpt>
      <trkpt lat="45.94451" lon="4.72984">
        <ele>167</ele>
        <time>2018-03-31T10:27:40Z</time>
      </trkpt>
      <trkpt lat="45.9445" lon="4.72976">
        <ele>167</ele>
        <time>2018-03-31T10:27:41Z</time>
      </trkpt>
      <trkpt lat="45.9445" lon="4.72969">
        <ele>167</ele>
        <time>2018-03-31T10:27:42Z</time>
      </trkpt>
      <trkpt lat="45.94448" lon="4.72962">
        <ele>167</ele>
        <time>2018-03-31T10:27:43Z</time>
      </trkpt>
      <trkpt lat="45.94447" lon="4.72949">
        <ele>167</ele>
        <time>2018-03-31T10:27:45Z</time>
      </trkpt>
      <trkpt lat="45.94446" lon="4.72942">
        <ele>167</ele>
        <time>2018-03-31T10:27:46Z</time>
      </trkpt>
      <trkpt lat="45.94443" lon="4.7293">
        <ele>167</ele>
        <time>2018-03-31T10:27:48Z</time>
      </trkpt>
      <trkpt lat="45.94442" lon="4.72923">
        <ele>167</ele>
        <time>2018-03-31T10:27:49Z</time>
      </trkpt>
      <trkpt lat="45.9444" lon="4.7291">
        <ele>166</ele>
        <time>2018-03-31T10:27:51Z</time>
      </trkpt>
      <trkpt lat="45.94439" lon="4.72904">
        <ele>166</ele>
        <time>2018-03-31T10:27:52Z</time>
      </trkpt>
      <trkpt lat="45.94438" lon="4.72898">
        <ele>166</ele>
        <time>2018-03-31T10:27:53Z</time>
      </trkpt>
      <trkpt lat="45.94437" lon="4.72891">
        <ele>166</ele>
        <time>2018-03-31T10:27:54Z</time>
      </trkpt>
      <trkpt lat="45.94437" lon="4.72883">
        <ele>166</ele>
        <time>2018-03-31T10:27:55Z</time>
      </trkpt>
      <trkpt lat="45.94436" lon="4.72876">
        <ele>166</ele>
        <time>2018-03-31T10:27:56Z</time>
      </trkpt>
      <trkpt lat="45.94434" lon="4.72868">
        <ele>166</ele>
        <time>2018-03-31T10:27:57Z</time>
      </trkpt>
      <trkpt lat="45.94433" lon="4.72859">
        <ele>166</ele>
        <time>2018-03-31T10:27:58Z</time>
      </trkpt>
      <trkpt lat="45.94432" lon="4.72851">
        <ele>166</ele>
        <time>2018-03-31T10:27:59Z</time>
      </trkpt>
      <trkpt lat="45.94431" lon="4.72842">
        <ele>166</ele>
        <time>2018-03-31T10:28:00Z</time>
      </trkpt>
      <trkpt lat="45.9443" lon="4.72833">
        <ele>167</ele>
        <time>2018-03-31T10:28:01Z</time>
      </trkpt>
      <trkpt lat="45.94429" lon="4.72824">
        <ele>167</ele>
        <time>2018-03-31T10:28:02Z</time>
      </trkpt>
      <trkpt lat="45.94427" lon="4.72815">
        <ele>167</ele>
        <time>2018-03-31T10:28:03Z</time>
      </trkpt>
      <trkpt lat="45.94426" lon="4.72806">
        <ele>167</ele>
        <time>2018-03-31T10:28:04Z</time>
      </trkpt>
      <trkpt lat="45.94424" lon="4.72796">
        <ele>168</ele>
        <time>2018-03-31T10:28:05Z</time>
      </trkpt>
      <trkpt lat="45.94422" lon="4.72786">
        <ele>168</ele>
        <time>2018-03-31T10:28:06Z</time>
      </trkpt>
      <trkpt lat="45.94421" lon="4.72775">
        <ele>168</ele>
        <time>2018-03-31T10:28:07Z</time>
      </trkpt>
      <trkpt lat="45.9442" lon="4.72765">
        <ele>169</ele>
        <time>2018-03-31T10:28:08Z</time>
      </trkpt>
      <trkpt lat="45.94418" lon="4.72754">
        <ele>170</ele>
        <time>2018-03-31T10:28:09Z</time>
      </trkpt>
      <trkpt lat="45.94417" lon="4.72744">
        <ele>171</ele>
        <time>2018-03-31T10:28:10Z</time>
      </trkpt>
      <trkpt lat="45.94416" lon="4.72733">
        <ele>172</ele>
        <time>2018-03-31T10:28:11Z</time>
      </trkpt>
      <trkpt lat="45.94415" lon="4.72723">
        <ele>172</ele>
        <time>2018-03-31T10:28:12Z</time>
      </trkpt>
      <trkpt lat="45.94414" lon="4.72712">
        <ele>172</ele>
        <time>2018-03-31T10:28:13Z</time>
      </trkpt>
      <trkpt lat="45.94413" lon="4.72702">
        <ele>172</ele>
        <time>2018-03-31T10:28:14Z</time>
      </trkpt>
      <trkpt lat="45.94412" lon="4.72692">
        <ele>173</ele>
        <time>2018-03-31T10:28:15Z</time>
      </trkpt>
      <trkpt lat="45.94411" lon="4.72682">
        <ele>173</ele>
        <time>2018-03-31T10:28:16Z</time>
      </trkpt>
      <trkpt lat="45.94409" lon="4.72671">
        <ele>173</ele>
        <time>2018-03-31T10:28:17Z</time>
      </trkpt>
      <trkpt lat="45.94408" lon="4.72661">
        <ele>174</ele>
        <time>2018-03-31T10:28:18Z</time>
      </trkpt>
      <trkpt lat="45.94407" lon="4.72652">
        <ele>174</ele>
        <time>2018-03-31T10:28:19Z</time>
      </trkpt>
      <trkpt lat="45.94406" lon="4.72643">
        <ele>174</ele>
        <time>2018-03-31T10:28:20Z</time>
      </trkpt>
      <trkpt lat="45.94405" lon="4.72633">
        <ele>174</ele>
        <time>2018-03-31T10:28:21Z</time>
      </trkpt>
      <trkpt lat="45.94404" lon="4.72624">
        <ele>173</ele>
        <time>2018-03-31T10:28:22Z</time>
      </trkpt>
      <trkpt lat="45.94403" lon="4.72615">
        <ele>173</ele>
        <time>2018-03-31T10:28:23Z</time>
      </trkpt>
      <trkpt lat="45.94402" lon="4.72606">
        <ele>173</ele>
        <time>2018-03-31T10:28:24Z</time>
      </trkpt>
      <trkpt lat="45.94401" lon="4.72597">
        <ele>173</ele>
        <time>2018-03-31T10:28:25Z</time>
      </trkpt>
      <trkpt lat="45.944" lon="4.72588">
        <ele>173</ele>
        <time>2018-03-31T10:28:26Z</time>
      </trkpt>
      <trkpt lat="45.94398" lon="4.72579">
        <ele>173</ele>
        <time>2018-03-31T10:28:27Z</time>
      </trkpt>
      <trkpt lat="45.94397" lon="4.72569">
        <ele>173</ele>
        <time>2018-03-31T10:28:28Z</time>
      </trkpt>
      <trkpt lat="45.94395" lon="4.72559">
        <ele>173</ele>
        <time>2018-03-31T10:28:29Z</time>
      </trkpt>
      <trkpt lat="45.94393" lon="4.72549">
        <ele>173</ele>
        <time>2018-03-31T10:28:30Z</time>
      </trkpt>
      <trkpt lat="45.94391" lon="4.72539">
        <ele>174</ele>
        <time>2018-03-31T10:28:31Z</time>
      </trkpt>
      <trkpt lat="45.94389" lon="4.7253">
        <ele>174</ele>
        <time>2018-03-31T10:28:32Z</time>
      </trkpt>
      <trkpt lat="45.94387" lon="4.72521">
        <ele>174</ele>
        <time>2018-03-31T10:28:33Z</time>
      </trkpt>
      <trkpt lat="45.94384" lon="4.72512">
        <ele>174</ele>
        <time>2018-03-31T10:28:34Z</time>
      </trkpt>
      <trkpt lat="45.94382" lon="4.72503">
        <ele>174</ele>
        <time>2018-03-31T10:28:35Z</time>
      </trkpt>
      <trkpt lat="45.94379" lon="4.72494">
        <ele>173</ele>
        <time>2018-03-31T10:28:36Z</time>
      </trkpt>
      <trkpt lat="45.94376" lon="4.72486">
        <ele>173</ele>
        <time>2018-03-31T10:28:37Z</time>
      </trkpt>
      <trkpt lat="45.94373" lon="4.72478">
        <ele>173</ele>
        <time>2018-03-31T10:28:38Z</time>
      </trkpt>
      <trkpt lat="45.9437" lon="4.72472">
        <ele>173</ele>
        <time>2018-03-31T10:28:39Z</time>
      </trkpt>
      <trkpt lat="45.94368" lon="4.72465">
        <ele>173</ele>
        <time>2018-03-31T10:28:40Z</time>
      </trkpt>
      <trkpt lat="45.94365" lon="4.72458">
        <ele>173</ele>
        <time>2018-03-31T10:28:41Z</time>
      </trkpt>
      <trkpt lat="45.94361" lon="4.72451">
        <ele>173</ele>
        <time>2018-03-31T10:28:42Z</time>
      </trkpt>
      <trkpt lat="45.94358" lon="4.72445">
        <ele>173</ele>
        <time>2018-03-31T10:28:43Z</time>
      </trkpt>
      <trkpt lat="45.94356" lon="4.72438">
        <ele>173</ele>
        <time>2018-03-31T10:28:44Z</time>
      </trkpt>
      <trkpt lat="45.94352" lon="4.72431">
        <ele>173</ele>
        <time>2018-03-31T10:28:45Z</time>
      </trkpt>
      <trkpt lat="45.94349" lon="4.72424">
        <ele>173</ele>
        <time>2018-03-31T10:28:46Z</time>
      </trkpt>
      <trkpt lat="45.94346" lon="4.72417">
        <ele>173</ele>
        <time>2018-03-31T10:28:47Z</time>
      </trkpt>
      <trkpt lat="45.94343" lon="4.72409">
        <ele>173</ele>
        <time>2018-03-31T10:28:48Z</time>
      </trkpt>
      <trkpt lat="45.94339" lon="4.72402">
        <ele>173</ele>
        <time>2018-03-31T10:28:49Z</time>
      </trkpt>
      <trkpt lat="45.94335" lon="4.72395">
        <ele>172</ele>
        <time>2018-03-31T10:28:50Z</time>
      </trkpt>
      <trkpt lat="45.94332" lon="4.72388">
        <ele>172</ele>
        <time>2018-03-31T10:28:51Z</time>
      </trkpt>
      <trkpt lat="45.94329" lon="4.72381">
        <ele>172</ele>
        <time>2018-03-31T10:28:52Z</time>
      </trkpt>
      <trkpt lat="45.94324" lon="4.72373">
        <ele>172</ele>
        <time>2018-03-31T10:28:53Z</time>
      </trkpt>
      <trkpt lat="45.94321" lon="4.72365">
        <ele>172</ele>
        <time>2018-03-31T10:28:54Z</time>
      </trkpt>
      <trkpt lat="45.94318" lon="4.72358">
        <ele>172</ele>
        <time>2018-03-31T10:28:55Z</time>
      </trkpt>
      <trkpt lat="45.94312" lon="4.7235">
        <ele>172</ele>
        <time>2018-03-31T10:28:56Z</time>
      </trkpt>
      <trkpt lat="45.9431" lon="4.72337">
        <ele>172</ele>
        <time>2018-03-31T10:28:58Z</time>
      </trkpt>
      <trkpt lat="45.94307" lon="4.7233">
        <ele>171</ele>
        <time>2018-03-31T10:28:59Z</time>
      </trkpt>
      <trkpt lat="45.94303" lon="4.72322">
        <ele>171</ele>
        <time>2018-03-31T10:29:00Z</time>
      </trkpt>
      <trkpt lat="45.943" lon="4.72314">
        <ele>171</ele>
        <time>2018-03-31T10:29:01Z</time>
      </trkpt>
      <trkpt lat="45.94296" lon="4.72306">
        <ele>171</ele>
        <time>2018-03-31T10:29:02Z</time>
      </trkpt>
      <trkpt lat="45.94293" lon="4.72299">
        <ele>171</ele>
        <time>2018-03-31T10:29:03Z</time>
      </trkpt>
      <trkpt lat="45.94288" lon="4.72292">
        <ele>171</ele>
        <time>2018-03-31T10:29:04Z</time>
      </trkpt>
      <trkpt lat="45.94284" lon="4.72286">
        <ele>171</ele>
        <time>2018-03-31T10:29:05Z</time>
      </trkpt>
      <trkpt lat="45.94281" lon="4.72279">
        <ele>171</ele>
        <time>2018-03-31T10:29:06Z</time>
      </trkpt>
      <trkpt lat="45.94279" lon="4.72274">
        <ele>171</ele>
        <time>2018-03-31T10:29:07Z</time>
      </trkpt>
      <trkpt lat="45.94275" lon="4.72266">
        <ele>171</ele>
        <time>2018-03-31T10:29:09Z</time>
      </trkpt>
      <trkpt lat="45.94271" lon="4.72266">
        <ele>171</ele>
        <time>2018-03-31T10:29:10Z</time>
      </trkpt>
      <trkpt lat="45.94267" lon="4.72269">
        <ele>171</ele>
        <time>2018-03-31T10:29:11Z</time>
      </trkpt>
      <trkpt lat="45.94262" lon="4.72272">
        <ele>171</ele>
        <time>2018-03-31T10:29:12Z</time>
      </trkpt>
      <trkpt lat="45.94258" lon="4.72275">
        <ele>171</ele>
        <time>2018-03-31T10:29:13Z</time>
      </trkpt>
      <trkpt lat="45.94254" lon="4.72278">
        <ele>171</ele>
        <time>2018-03-31T10:29:14Z</time>
      </trkpt>
      <trkpt lat="45.94249" lon="4.7228">
        <ele>171</ele>
        <time>2018-03-31T10:29:15Z</time>
      </trkpt>
      <trkpt lat="45.94244" lon="4.72282">
        <ele>171</ele>
        <time>2018-03-31T10:29:16Z</time>
      </trkpt>
      <trkpt lat="45.94239" lon="4.72286">
        <ele>171</ele>
        <time>2018-03-31T10:29:17Z</time>
      </trkpt>
      <trkpt lat="45.94235" lon="4.72288">
        <ele>171</ele>
        <time>2018-03-31T10:29:18Z</time>
      </trkpt>
      <trkpt lat="45.94229" lon="4.7229">
        <ele>171</ele>
        <time>2018-03-31T10:29:19Z</time>
      </trkpt>
      <trkpt lat="45.94223" lon="4.72292">
        <ele>171</ele>
        <time>2018-03-31T10:29:20Z</time>
      </trkpt>
      <trkpt lat="45.94218" lon="4.72292">
        <ele>171</ele>
        <time>2018-03-31T10:29:21Z</time>
      </trkpt>
      <trkpt lat="45.94213" lon="4.72294">
        <ele>171</ele>
        <time>2018-03-31T10:29:22Z</time>
      </trkpt>
      <trkpt lat="45.94208" lon="4.72295">
        <ele>171</ele>
        <time>2018-03-31T10:29:23Z</time>
      </trkpt>
      <trkpt lat="45.94202" lon="4.72294">
        <ele>171</ele>
        <time>2018-03-31T10:29:24Z</time>
      </trkpt>
      <trkpt lat="45.94197" lon="4.72294">
        <ele>171</ele>
        <time>2018-03-31T10:29:25Z</time>
      </trkpt>
      <trkpt lat="45.94192" lon="4.72294">
        <ele>171</ele>
        <time>2018-03-31T10:29:26Z</time>
      </trkpt>
      <trkpt lat="45.94187" lon="4.72294">
        <ele>171</ele>
        <time>2018-03-31T10:29:27Z</time>
      </trkpt>
      <trkpt lat="45.94182" lon="4.72294">
        <ele>171</ele>
        <time>2018-03-31T10:29:28Z</time>
      </trkpt>
      <trkpt lat="45.94176" lon="4.72293">
        <ele>171</ele>
        <time>2018-03-31T10:29:29Z</time>
      </trkpt>
      <trkpt lat="45.94171" lon="4.72294">
        <ele>171</ele>
        <time>2018-03-31T10:29:30Z</time>
      </trkpt>
      <trkpt lat="45.94165" lon="4.72294">
        <ele>171</ele>
        <time>2018-03-31T10:29:31Z</time>
      </trkpt>
      <trkpt lat="45.94159" lon="4.72294">
        <ele>171</ele>
        <time>2018-03-31T10:29:32Z</time>
      </trkpt>
      <trkpt lat="45.94154" lon="4.72293">
        <ele>171</ele>
        <time>2018-03-31T10:29:33Z</time>
      </trkpt>
      <trkpt lat="45.94148" lon="4.72291">
        <ele>171</ele>
        <time>2018-03-31T10:29:34Z</time>
      </trkpt>
      <trkpt lat="45.94142" lon="4.7229">
        <ele>171</ele>
        <time>2018-03-31T10:29:35Z</time>
      </trkpt>
      <trkpt lat="45.94137" lon="4.72287">
        <ele>171</ele>
        <time>2018-03-31T10:29:36Z</time>
      </trkpt>
      <trkpt lat="45.94132" lon="4.72284">
        <ele>171</ele>
        <time>2018-03-31T10:29:37Z</time>
      </trkpt>
      <trkpt lat="45.94127" lon="4.7228">
        <ele>171</ele>
        <time>2018-03-31T10:29:38Z</time>
      </trkpt>
      <trkpt lat="45.94122" lon="4.72277">
        <ele>171</ele>
        <time>2018-03-31T10:29:39Z</time>
      </trkpt>
      <trkpt lat="45.94117" lon="4.72274">
        <ele>171</ele>
        <time>2018-03-31T10:29:40Z</time>
      </trkpt>
      <trkpt lat="45.94111" lon="4.72271">
        <ele>171</ele>
        <time>2018-03-31T10:29:41Z</time>
      </trkpt>
      <trkpt lat="45.94106" lon="4.7227">
        <ele>171</ele>
        <time>2018-03-31T10:29:42Z</time>
      </trkpt>
      <trkpt lat="45.94101" lon="4.72269">
        <ele>171</ele>
        <time>2018-03-31T10:29:43Z</time>
      </trkpt>
      <trkpt lat="45.94096" lon="4.72268">
        <ele>171</ele>
        <time>2018-03-31T10:29:44Z</time>
      </trkpt>
      <trkpt lat="45.9409" lon="4.7227">
        <ele>171</ele>
        <time>2018-03-31T10:29:45Z</time>
      </trkpt>
      <trkpt lat="45.94084" lon="4.72272">
        <ele>171</ele>
        <time>2018-03-31T10:29:46Z</time>
      </trkpt>
      <trkpt lat="45.94078" lon="4.72274">
        <ele>171</ele>
        <time>2018-03-31T10:29:47Z</time>
      </trkpt>
      <trkpt lat="45.94072" lon="4.72277">
        <ele>171</ele>
        <time>2018-03-31T10:29:48Z</time>
      </trkpt>
      <trkpt lat="45.94067" lon="4.72281">
        <ele>171</ele>
        <time>2018-03-31T10:29:49Z</time>
      </trkpt>
      <trkpt lat="45.94062" lon="4.72286">
        <ele>171</ele>
        <time>2018-03-31T10:29:50Z</time>
      </trkpt>
      <trkpt lat="45.94058" lon="4.72292">
        <ele>171</ele>
        <time>2018-03-31T10:29:51Z</time>
      </trkpt>
      <trkpt lat="45.94055" lon="4.72298">
        <ele>171</ele>
        <time>2018-03-31T10:29:52Z</time>
      </trkpt>
      <trkpt lat="45.9405" lon="4.72303">
        <ele>171</ele>
        <time>2018-03-31T10:29:53Z</time>
      </trkpt>
      <trkpt lat="45.94045" lon="4.7231">
        <ele>171</ele>
        <time>2018-03-31T10:29:54Z</time>
      </trkpt>
      <trkpt lat="45.9404" lon="4.72315">
        <ele>171</ele>
        <time>2018-03-31T10:29:55Z</time>
      </trkpt>
      <trkpt lat="45.94036" lon="4.7232">
        <ele>171</ele>
        <time>2018-03-31T10:29:56Z</time>
      </trkpt>
      <trkpt lat="45.94031" lon="4.72325">
        <ele>171</ele>
        <time>2018-03-31T10:29:57Z</time>
      </trkpt>
      <trkpt lat="45.94027" lon="4.7233">
        <ele>171</ele>
        <time>2018-03-31T10:29:58Z</time>
      </trkpt>
      <trkpt lat="45.94022" lon="4.72335">
        <ele>171</ele>
        <time>2018-03-31T10:29:59Z</time>
      </trkpt>
      <trkpt lat="45.94017" lon="4.72341">
        <ele>171</ele>
        <time>2018-03-31T10:30:00Z</time>
      </trkpt>
      <trkpt lat="45.94013" lon="4.72346">
        <ele>171</ele>
        <time>2018-03-31T10:30:01Z</time>
      </trkpt>
      <trkpt lat="45.94008" lon="4.72352">
        <ele>171</ele>
        <time>2018-03-31T10:30:02Z</time>
      </trkpt>
      <trkpt lat="45.94004" lon="4.72358">
        <ele>171</ele>
        <time>2018-03-31T10:30:03Z</time>
      </trkpt>
      <trkpt lat="45.94" lon="4.72365">
        <ele>171</ele>
        <time>2018-03-31T10:30:04Z</time>
      </trkpt>
      <trkpt lat="45.93995" lon="4.72371">
        <ele>171</ele>
        <time>2018-03-31T10:30:05Z</time>
      </trkpt>
      <trkpt lat="45.93992" lon="4.72379">
        <ele>171</ele>
        <time>2018-03-31T10:30:06Z</time>
      </trkpt>
      <trkpt lat="45.93988" lon="4.72385">
        <ele>171</ele>
        <time>2018-03-31T10:30:07Z</time>
      </trkpt>
      <trkpt lat="45.93982" lon="4.7239">
        <ele>171</ele>
        <time>2018-03-31T10:30:08Z</time>
      </trkpt>
      <trkpt lat="45.93977" lon="4.72396">
        <ele>171</ele>
        <time>2018-03-31T10:30:09Z</time>
      </trkpt>
      <trkpt lat="45.93972" lon="4.72402">
        <ele>171</ele>
        <time>2018-03-31T10:30:10Z</time>
      </trkpt>
      <trkpt lat="45.93967" lon="4.72408">
        <ele>171</ele>
        <time>2018-03-31T10:30:11Z</time>
      </trkpt>
      <trkpt lat="45.93962" lon="4.72414">
        <ele>171</ele>
        <time>2018-03-31T10:30:12Z</time>
      </trkpt>
      <trkpt lat="45.93957" lon="4.7242">
        <ele>171</ele>
        <time>2018-03-31T10:30:13Z</time>
      </trkpt>
      <trkpt lat="45.93952" lon="4.72425">
        <ele>171</ele>
        <time>2018-03-31T10:30:14Z</time>
      </trkpt>
      <trkpt lat="45.93946" lon="4.72431">
        <ele>171</ele>
        <time>2018-03-31T10:30:15Z</time>
      </trkpt>
      <trkpt lat="45.93942" lon="4.72436">
        <ele>171</ele>
        <time>2018-03-31T10:30:16Z</time>
      </trkpt>
      <trkpt lat="45.93938" lon="4.72441">
        <ele>171</ele>
        <time>2018-03-31T10:30:17Z</time>
      </trkpt>
      <trkpt lat="45.93933" lon="4.72447">
        <ele>171</ele>
        <time>2018-03-31T10:30:18Z</time>
      </trkpt>
      <trkpt lat="45.93928" lon="4.72452">
        <ele>171</ele>
        <time>2018-03-31T10:30:19Z</time>
      </trkpt>
      <trkpt lat="45.93924" lon="4.72458">
        <ele>171</ele>
        <time>2018-03-31T10:30:20Z</time>
      </trkpt>
      <trkpt lat="45.9392" lon="4.72463">
        <ele>171</ele>
        <time>2018-03-31T10:30:21Z</time>
      </trkpt>
      <trkpt lat="45.93915" lon="4.72468">
        <ele>172</ele>
        <time>2018-03-31T10:30:22Z</time>
      </trkpt>
      <trkpt lat="45.93911" lon="4.72473">
        <ele>172</ele>
        <time>2018-03-31T10:30:23Z</time>
      </trkpt>
      <trkpt lat="45.93907" lon="4.7248">
        <ele>172</ele>
        <time>2018-03-31T10:30:24Z</time>
      </trkpt>
      <trkpt lat="45.93904" lon="4.72485">
        <ele>172</ele>
        <time>2018-03-31T10:30:25Z</time>
      </trkpt>
      <trkpt lat="45.939" lon="4.72489">
        <ele>172</ele>
        <time>2018-03-31T10:30:26Z</time>
      </trkpt>
      <trkpt lat="45.93896" lon="4.72494">
        <ele>172</ele>
        <time>2018-03-31T10:30:27Z</time>
      </trkpt>
      <trkpt lat="45.93892" lon="4.72498">
        <ele>172</ele>
        <time>2018-03-31T10:30:28Z</time>
      </trkpt>
      <trkpt lat="45.93888" lon="4.72503">
        <ele>173</ele>
        <time>2018-03-31T10:30:29Z</time>
      </trkpt>
      <trkpt lat="45.93884" lon="4.72507">
        <ele>173</ele>
        <time>2018-03-31T10:30:30Z</time>
      </trkpt>
      <trkpt lat="45.9388" lon="4.72512">
        <ele>173</ele>
        <time>2018-03-31T10:30:31Z</time>
      </trkpt>
      <trkpt lat="45.93876" lon="4.72517">
        <ele>173</ele>
        <time>2018-03-31T10:30:32Z</time>
      </trkpt>
      <trkpt lat="45.93872" lon="4.72518">
        <ele>173</ele>
        <time>2018-03-31T10:30:33Z</time>
      </trkpt>
      <trkpt lat="45.93867" lon="4.72519">
        <ele>173</ele>
        <time>2018-03-31T10:30:34Z</time>
      </trkpt>
      <trkpt lat="45.93859" lon="4.72515">
        <ele>173</ele>
        <time>2018-03-31T10:30:36Z</time>
      </trkpt>
      <trkpt lat="45.93855" lon="4.72511">
        <ele>173</ele>
        <time>2018-03-31T10:30:37Z</time>
      </trkpt>
      <trkpt lat="45.93844" lon="4.72502">
        <ele>174</ele>
        <time>2018-03-31T10:30:40Z</time>
      </trkpt>
      <trkpt lat="45.93839" lon="4.72498">
        <ele>174</ele>
        <time>2018-03-31T10:30:41Z</time>
      </trkpt>
      <trkpt lat="45.93835" lon="4.7249">
        <ele>173</ele>
        <time>2018-03-31T10:30:42Z</time>
      </trkpt>
      <trkpt lat="45.93831" lon="4.72488">
        <ele>173</ele>
        <time>2018-03-31T10:30:43Z</time>
      </trkpt>
      <trkpt lat="45.93828" lon="4.72474">
        <ele>173</ele>
        <time>2018-03-31T10:30:44Z</time>
      </trkpt>
      <trkpt lat="45.9382" lon="4.72473">
        <ele>172</ele>
        <time>2018-03-31T10:30:45Z</time>
      </trkpt>
      <trkpt lat="45.93818" lon="4.72471">
        <ele>172</ele>
        <time>2018-03-31T10:30:46Z</time>
      </trkpt>
      <trkpt lat="45.93813" lon="4.72467">
        <ele>172</ele>
        <time>2018-03-31T10:30:47Z</time>
      </trkpt>
      <trkpt lat="45.93808" lon="4.72463">
        <ele>172</ele>
        <time>2018-03-31T10:30:48Z</time>
      </trkpt>
      <trkpt lat="45.93804" lon="4.72459">
        <ele>172</ele>
        <time>2018-03-31T10:30:49Z</time>
      </trkpt>
      <trkpt lat="45.93799" lon="4.72453">
        <ele>172</ele>
        <time>2018-03-31T10:30:50Z</time>
      </trkpt>
      <trkpt lat="45.93793" lon="4.72445">
        <ele>172</ele>
        <time>2018-03-31T10:30:52Z</time>
      </trkpt>
      <trkpt lat="45.9379" lon="4.72442">
        <ele>172</ele>
        <time>2018-03-31T10:30:53Z</time>
      </trkpt>
      <trkpt lat="45.93786" lon="4.72439">
        <ele>172</ele>
        <time>2018-03-31T10:30:54Z</time>
      </trkpt>
      <trkpt lat="45.93781" lon="4.72436">
        <ele>172</ele>
        <time>2018-03-31T10:30:55Z</time>
      </trkpt>
      <trkpt lat="45.93777" lon="4.72431">
        <ele>171</ele>
        <time>2018-03-31T10:30:56Z</time>
      </trkpt>
      <trkpt lat="45.93773" lon="4.72428">
        <ele>171</ele>
        <time>2018-03-31T10:30:57Z</time>
      </trkpt>
      <trkpt lat="45.9377" lon="4.72422">
        <ele>171</ele>
        <time>2018-03-31T10:30:58Z</time>
      </trkpt>
      <trkpt lat="45.93766" lon="4.72417">
        <ele>171</ele>
        <time>2018-03-31T10:30:59Z</time>
      </trkpt>
      <trkpt lat="45.93762" lon="4.72412">
        <ele>171</ele>
        <time>2018-03-31T10:31:00Z</time>
      </trkpt>
      <trkpt lat="45.93756" lon="4.72409">
        <ele>171</ele>
        <time>2018-03-31T10:31:01Z</time>
      </trkpt>
      <trkpt lat="45.93754" lon="4.72405">
        <ele>171</ele>
        <time>2018-03-31T10:31:02Z</time>
      </trkpt>
      <trkpt lat="45.93749" lon="4.724">
        <ele>171</ele>
        <time>2018-03-31T10:31:03Z</time>
      </trkpt>
      <trkpt lat="45.93744" lon="4.72397">
        <ele>171</ele>
        <time>2018-03-31T10:31:04Z</time>
      </trkpt>
      <trkpt lat="45.9374" lon="4.72393">
        <ele>171</ele>
        <time>2018-03-31T10:31:05Z</time>
      </trkpt>
      <trkpt lat="45.93736" lon="4.72389">
        <ele>171</ele>
        <time>2018-03-31T10:31:06Z</time>
      </trkpt>
      <trkpt lat="45.93732" lon="4.72385">
        <ele>171</ele>
        <time>2018-03-31T10:31:07Z</time>
      </trkpt>
      <trkpt lat="45.93728" lon="4.72381">
        <ele>171</ele>
        <time>2018-03-31T10:31:08Z</time>
      </trkpt>
      <trkpt lat="45.93722" lon="4.72377">
        <ele>171</ele>
        <time>2018-03-31T10:31:09Z</time>
      </trkpt>
      <trkpt lat="45.93718" lon="4.72372">
        <ele>172</ele>
        <time>2018-03-31T10:31:10Z</time>
      </trkpt>
      <trkpt lat="45.93713" lon="4.72367">
        <ele>172</ele>
        <time>2018-03-31T10:31:11Z</time>
      </trkpt>
      <trkpt lat="45.93708" lon="4.72364">
        <ele>171</ele>
        <time>2018-03-31T10:31:12Z</time>
      </trkpt>
      <trkpt lat="45.93704" lon="4.72361">
        <ele>171</ele>
        <time>2018-03-31T10:31:13Z</time>
      </trkpt>
      <trkpt lat="45.937" lon="4.72355">
        <ele>171</ele>
        <time>2018-03-31T10:31:14Z</time>
      </trkpt>
      <trkpt lat="45.93694" lon="4.7235">
        <ele>171</ele>
        <time>2018-03-31T10:31:16Z</time>
      </trkpt>
      <trkpt lat="45.93688" lon="4.72344">
        <ele>171</ele>
        <time>2018-03-31T10:31:17Z</time>
      </trkpt>
      <trkpt lat="45.93683" lon="4.72339">
        <ele>171</ele>
        <time>2018-03-31T10:31:18Z</time>
      </trkpt>
      <trkpt lat="45.93678" lon="4.72333">
        <ele>171</ele>
        <time>2018-03-31T10:31:19Z</time>
      </trkpt>
      <trkpt lat="45.93674" lon="4.7233">
        <ele>171</ele>
        <time>2018-03-31T10:31:20Z</time>
      </trkpt>
      <trkpt lat="45.93668" lon="4.72327">
        <ele>171</ele>
        <time>2018-03-31T10:31:21Z</time>
      </trkpt>
      <trkpt lat="45.93663" lon="4.72322">
        <ele>171</ele>
        <time>2018-03-31T10:31:22Z</time>
      </trkpt>
      <trkpt lat="45.93658" lon="4.72317">
        <ele>172</ele>
        <time>2018-03-31T10:31:23Z</time>
      </trkpt>
      <trkpt lat="45.93654" lon="4.72312">
        <ele>172</ele>
        <time>2018-03-31T10:31:24Z</time>
      </trkpt>
      <trkpt lat="45.93649" lon="4.72307">
        <ele>172</ele>
        <time>2018-03-31T10:31:25Z</time>
      </trkpt>
      <trkpt lat="45.93645" lon="4.72303">
        <ele>172</ele>
        <time>2018-03-31T10:31:26Z</time>
      </trkpt>
      <trkpt lat="45.9364" lon="4.72299">
        <ele>172</ele>
        <time>2018-03-31T10:31:27Z</time>
      </trkpt>
      <trkpt lat="45.93636" lon="4.72294">
        <ele>172</ele>
        <time>2018-03-31T10:31:28Z</time>
      </trkpt>
      <trkpt lat="45.93632" lon="4.7229">
        <ele>172</ele>
        <time>2018-03-31T10:31:29Z</time>
      </trkpt>
      <trkpt lat="45.93627" lon="4.72286">
        <ele>172</ele>
        <time>2018-03-31T10:31:30Z</time>
      </trkpt>
      <trkpt lat="45.93623" lon="4.72282">
        <ele>172</ele>
        <time>2018-03-31T10:31:31Z</time>
      </trkpt>
      <trkpt lat="45.93619" lon="4.72278">
        <ele>172</ele>
        <time>2018-03-31T10:31:32Z</time>
      </trkpt>
      <trkpt lat="45.93612" lon="4.72269">
        <ele>172</ele>
        <time>2018-03-31T10:31:34Z</time>
      </trkpt>
      <trkpt lat="45.93609" lon="4.72265">
        <ele>172</ele>
        <time>2018-03-31T10:31:35Z</time>
      </trkpt>
      <trkpt lat="45.93602" lon="4.72259">
        <ele>173</ele>
        <time>2018-03-31T10:31:37Z</time>
      </trkpt>
      <trkpt lat="45.93599" lon="4.72256">
        <ele>173</ele>
        <time>2018-03-31T10:31:38Z</time>
      </trkpt>
      <trkpt lat="45.93593" lon="4.72249">
        <ele>173</ele>
        <time>2018-03-31T10:31:40Z</time>
      </trkpt>
      <trkpt lat="45.93589" lon="4.72244">
        <ele>173</ele>
        <time>2018-03-31T10:31:41Z</time>
      </trkpt>
      <trkpt lat="45.93585" lon="4.7224">
        <ele>173</ele>
        <time>2018-03-31T10:31:42Z</time>
      </trkpt>
      <trkpt lat="45.93581" lon="4.72236">
        <ele>173</ele>
        <time>2018-03-31T10:31:43Z</time>
      </trkpt>
      <trkpt lat="45.93573" lon="4.7223">
        <ele>173</ele>
        <time>2018-03-31T10:31:45Z</time>
      </trkpt>
      <trkpt lat="45.93572" lon="4.72228">
        <ele>173</ele>
        <time>2018-03-31T10:31:46Z</time>
      </trkpt>
      <trkpt lat="45.93564" lon="4.72223">
        <ele>173</ele>
        <time>2018-03-31T10:31:50Z</time>
      </trkpt>
      <trkpt lat="45.93562" lon="4.72223">
        <ele>173</ele>
        <time>2018-03-31T10:31:51Z</time>
      </trkpt>
      <trkpt lat="45.93555" lon="4.72224">
        <ele>173</ele>
        <time>2018-03-31T10:31:54Z</time>
      </trkpt>
      <trkpt lat="45.93553" lon="4.72224">
        <ele>173</ele>
        <time>2018-03-31T10:31:55Z</time>
      </trkpt>
      <trkpt lat="45.93546" lon="4.72229">
        <ele>172</ele>
        <time>2018-03-31T10:31:58Z</time>
      </trkpt>
      <trkpt lat="45.93544" lon="4.72232">
        <ele>172</ele>
        <time>2018-03-31T10:31:59Z</time>
      </trkpt>
      <trkpt lat="45.9354" lon="4.72238">
        <ele>172</ele>
        <time>2018-03-31T10:32:01Z</time>
      </trkpt>
      <trkpt lat="45.93535" lon="4.72249">
        <ele>172</ele>
        <time>2018-03-31T10:32:02Z</time>
      </trkpt>
      <trkpt lat="45.93532" lon="4.72257">
        <ele>172</ele>
        <time>2018-03-31T10:32:04Z</time>
      </trkpt>
      <trkpt lat="45.93529" lon="4.72265">
        <ele>172</ele>
        <time>2018-03-31T10:32:05Z</time>
      </trkpt>
      <trkpt lat="45.93527" lon="4.72271">
        <ele>172</ele>
        <time>2018-03-31T10:32:06Z</time>
      </trkpt>
      <trkpt lat="45.93524" lon="4.72277">
        <ele>172</ele>
        <time>2018-03-31T10:32:07Z</time>
      </trkpt>
      <trkpt lat="45.93521" lon="4.72284">
        <ele>172</ele>
        <time>2018-03-31T10:32:08Z</time>
      </trkpt>
      <trkpt lat="45.93518" lon="4.7229">
        <ele>172</ele>
        <time>2018-03-31T10:32:09Z</time>
      </trkpt>
      <trkpt lat="45.93515" lon="4.72296">
        <ele>172</ele>
        <time>2018-03-31T10:32:10Z</time>
      </trkpt>
      <trkpt lat="45.93512" lon="4.72303">
        <ele>172</ele>
        <time>2018-03-31T10:32:11Z</time>
      </trkpt>
      <trkpt lat="45.93508" lon="4.7231">
        <ele>173</ele>
        <time>2018-03-31T10:32:12Z</time>
      </trkpt>
      <trkpt lat="45.93504" lon="4.72317">
        <ele>173</ele>
        <time>2018-03-31T10:32:13Z</time>
      </trkpt>
      <trkpt lat="45.935" lon="4.72323">
        <ele>173</ele>
        <time>2018-03-31T10:32:14Z</time>
      </trkpt>
      <trkpt lat="45.93495" lon="4.72329">
        <ele>173</ele>
        <time>2018-03-31T10:32:15Z</time>
      </trkpt>
      <trkpt lat="45.93491" lon="4.72335">
        <ele>173</ele>
        <time>2018-03-31T10:32:16Z</time>
      </trkpt>
      <trkpt lat="45.93487" lon="4.72341">
        <ele>173</ele>
        <time>2018-03-31T10:32:17Z</time>
      </trkpt>
      <trkpt lat="45.93483" lon="4.72347">
        <ele>173</ele>
        <time>2018-03-31T10:32:18Z</time>
      </trkpt>
      <trkpt lat="45.93479" lon="4.72353">
        <ele>173</ele>
        <time>2018-03-31T10:32:19Z</time>
      </trkpt>
      <trkpt lat="45.93475" lon="4.72358">
        <ele>173</ele>
        <time>2018-03-31T10:32:20Z</time>
      </trkpt>
      <trkpt lat="45.93471" lon="4.72364">
        <ele>173</ele>
        <time>2018-03-31T10:32:21Z</time>
      </trkpt>
      <trkpt lat="45.93467" lon="4.72369">
        <ele>173</ele>
        <time>2018-03-31T10:32:22Z</time>
      </trkpt>
      <trkpt lat="45.93462" lon="4.72376">
        <ele>173</ele>
        <time>2018-03-31T10:32:23Z</time>
      </trkpt>
      <trkpt lat="45.93459" lon="4.72381">
        <ele>173</ele>
        <time>2018-03-31T10:32:24Z</time>
      </trkpt>
      <trkpt lat="45.93455" lon="4.72386">
        <ele>173</ele>
        <time>2018-03-31T10:32:25Z</time>
      </trkpt>
      <trkpt lat="45.93451" lon="4.72392">
        <ele>173</ele>
        <time>2018-03-31T10:32:26Z</time>
      </trkpt>
      <trkpt lat="45.93446" lon="4.72396">
        <ele>173</ele>
        <time>2018-03-31T10:32:27Z</time>
      </trkpt>
      <trkpt lat="45.93441" lon="4.724">
        <ele>173</ele>
        <time>2018-03-31T10:32:28Z</time>
      </trkpt>
      <trkpt lat="45.93436" lon="4.72402">
        <ele>174</ele>
        <time>2018-03-31T10:32:29Z</time>
      </trkpt>
      <trkpt lat="45.93432" lon="4.72404">
        <ele>174</ele>
        <time>2018-03-31T10:32:30Z</time>
      </trkpt>
      <trkpt lat="45.93427" lon="4.72405">
        <ele>174</ele>
        <time>2018-03-31T10:32:31Z</time>
      </trkpt>
      <trkpt lat="45.9342" lon="4.72409">
        <ele>174</ele>
        <time>2018-03-31T10:32:33Z</time>
      </trkpt>
      <trkpt lat="45.93418" lon="4.72409">
        <ele>174</ele>
        <time>2018-03-31T10:32:34Z</time>
      </trkpt>
      <trkpt lat="45.93416" lon="4.72406">
        <ele>174</ele>
        <time>2018-03-31T10:32:36Z</time>
      </trkpt>
      <trkpt lat="45.93406" lon="4.72405">
        <ele>174</ele>
        <time>2018-03-31T10:32:37Z</time>
      </trkpt>
      <trkpt lat="45.93401" lon="4.72409">
        <ele>174</ele>
        <time>2018-03-31T10:32:38Z</time>
      </trkpt>
      <trkpt lat="45.93394" lon="4.72417">
        <ele>174</ele>
        <time>2018-03-31T10:32:39Z</time>
      </trkpt>
      <trkpt lat="45.93392" lon="4.72422">
        <ele>173</ele>
        <time>2018-03-31T10:32:40Z</time>
      </trkpt>
      <trkpt lat="45.93391" lon="4.7243">
        <ele>173</ele>
        <time>2018-03-31T10:32:41Z</time>
      </trkpt>
      <trkpt lat="45.93391" lon="4.72438">
        <ele>173</ele>
        <time>2018-03-31T10:32:42Z</time>
      </trkpt>
      <trkpt lat="45.93392" lon="4.72447">
        <ele>173</ele>
        <time>2018-03-31T10:32:43Z</time>
      </trkpt>
      <trkpt lat="45.93392" lon="4.72454">
        <ele>173</ele>
        <time>2018-03-31T10:32:44Z</time>
      </trkpt>
      <trkpt lat="45.9339" lon="4.72462">
        <ele>173</ele>
        <time>2018-03-31T10:32:45Z</time>
      </trkpt>
      <trkpt lat="45.93387" lon="4.72468">
        <ele>173</ele>
        <time>2018-03-31T10:32:46Z</time>
      </trkpt>
      <trkpt lat="45.93384" lon="4.72474">
        <ele>173</ele>
        <time>2018-03-31T10:32:47Z</time>
      </trkpt>
      <trkpt lat="45.93379" lon="4.72479">
        <ele>173</ele>
        <time>2018-03-31T10:32:48Z</time>
      </trkpt>
      <trkpt lat="45.93375" lon="4.72486">
        <ele>173</ele>
        <time>2018-03-31T10:32:49Z</time>
      </trkpt>
      <trkpt lat="45.93371" lon="4.72491">
        <ele>173</ele>
        <time>2018-03-31T10:32:50Z</time>
      </trkpt>
      <trkpt lat="45.93368" lon="4.72495">
        <ele>173</ele>
        <time>2018-03-31T10:32:51Z</time>
      </trkpt>
      <trkpt lat="45.93363" lon="4.725">
        <ele>173</ele>
        <time>2018-03-31T10:32:52Z</time>
      </trkpt>
      <trkpt lat="45.93359" lon="4.72503">
        <ele>172</ele>
        <time>2018-03-31T10:32:53Z</time>
      </trkpt>
      <trkpt lat="45.93355" lon="4.72508">
        <ele>172</ele>
        <time>2018-03-31T10:32:54Z</time>
      </trkpt>
      <trkpt lat="45.9335" lon="4.72513">
        <ele>172</ele>
        <time>2018-03-31T10:32:55Z</time>
      </trkpt>
      <trkpt lat="45.93346" lon="4.72519">
        <ele>172</ele>
        <time>2018-03-31T10:32:56Z</time>
      </trkpt>
      <trkpt lat="45.93341" lon="4.72524">
        <ele>172</ele>
        <time>2018-03-31T10:32:57Z</time>
      </trkpt>
      <trkpt lat="45.93337" lon="4.7253">
        <ele>172</ele>
        <time>2018-03-31T10:32:58Z</time>
      </trkpt>
      <trkpt lat="45.93333" lon="4.72535">
        <ele>172</ele>
        <time>2018-03-31T10:32:59Z</time>
      </trkpt>
      <trkpt lat="45.93327" lon="4.7254">
        <ele>172</ele>
        <time>2018-03-31T10:33:00Z</time>
      </trkpt>
      <trkpt lat="45.93323" lon="4.72545">
        <ele>172</ele>
        <time>2018-03-31T10:33:01Z</time>
      </trkpt>
      <trkpt lat="45.93318" lon="4.72551">
        <ele>172</ele>
        <time>2018-03-31T10:33:02Z</time>
      </trkpt>
      <trkpt lat="45.93314" lon="4.72556">
        <ele>172</ele>
        <time>2018-03-31T10:33:03Z</time>
      </trkpt>
      <trkpt lat="45.93311" lon="4.7256">
        <ele>171</ele>
        <time>2018-03-31T10:33:04Z</time>
      </trkpt>
      <trkpt lat="45.93306" lon="4.72565">
        <ele>171</ele>
        <time>2018-03-31T10:33:05Z</time>
      </trkpt>
      <trkpt lat="45.93301" lon="4.72569">
        <ele>171</ele>
        <time>2018-03-31T10:33:06Z</time>
      </trkpt>
      <trkpt lat="45.93297" lon="4.72574">
        <ele>171</ele>
        <time>2018-03-31T10:33:07Z</time>
      </trkpt>
      <trkpt lat="45.93293" lon="4.72578">
        <ele>171</ele>
        <time>2018-03-31T10:33:08Z</time>
      </trkpt>
      <trkpt lat="45.93289" lon="4.72584">
        <ele>170</ele>
        <time>2018-03-31T10:33:09Z</time>
      </trkpt>
      <trkpt lat="45.93284" lon="4.72589">
        <ele>170</ele>
        <time>2018-03-31T10:33:10Z</time>
      </trkpt>
      <trkpt lat="45.93279" lon="4.72594">
        <ele>170</ele>
        <time>2018-03-31T10:33:11Z</time>
      </trkpt>
      <trkpt lat="45.93274" lon="4.72599">
        <ele>170</ele>
        <time>2018-03-31T10:33:12Z</time>
      </trkpt>
      <trkpt lat="45.93271" lon="4.72605">
        <ele>170</ele>
        <time>2018-03-31T10:33:13Z</time>
      </trkpt>
      <trkpt lat="45.93266" lon="4.7261">
        <ele>170</ele>
        <time>2018-03-31T10:33:14Z</time>
      </trkpt>
      <trkpt lat="45.93261" lon="4.72616">
        <ele>170</ele>
        <time>2018-03-31T10:33:15Z</time>
      </trkpt>
      <trkpt lat="45.93257" lon="4.72621">
        <ele>170</ele>
        <time>2018-03-31T10:33:16Z</time>
      </trkpt>
      <trkpt lat="45.93252" lon="4.72627">
        <ele>170</ele>
        <time>2018-03-31T10:33:17Z</time>
      </trkpt>
      <trkpt lat="45.93248" lon="4.7263">
        <ele>170</ele>
        <time>2018-03-31T10:33:18Z</time>
      </trkpt>
      <trkpt lat="45.93244" lon="4.72637">
        <ele>170</ele>
        <time>2018-03-31T10:33:19Z</time>
      </trkpt>
      <trkpt lat="45.93239" lon="4.72643">
        <ele>170</ele>
        <time>2018-03-31T10:33:20Z</time>
      </trkpt>
      <trkpt lat="45.93234" lon="4.72648">
        <ele>170</ele>
        <time>2018-03-31T10:33:21Z</time>
      </trkpt>
      <trkpt lat="45.9323" lon="4.72653">
        <ele>170</ele>
        <time>2018-03-31T10:33:22Z</time>
      </trkpt>
      <trkpt lat="45.93225" lon="4.7266">
        <ele>170</ele>
        <time>2018-03-31T10:33:23Z</time>
      </trkpt>
      <trkpt lat="45.9322" lon="4.72665">
        <ele>170</ele>
        <time>2018-03-31T10:33:24Z</time>
      </trkpt>
      <trkpt lat="45.93215" lon="4.7267">
        <ele>169</ele>
        <time>2018-03-31T10:33:25Z</time>
      </trkpt>
      <trkpt lat="45.9321" lon="4.72674">
        <ele>169</ele>
        <time>2018-03-31T10:33:26Z</time>
      </trkpt>
      <trkpt lat="45.93206" lon="4.72679">
        <ele>169</ele>
        <time>2018-03-31T10:33:27Z</time>
      </trkpt>
      <trkpt lat="45.93202" lon="4.72684">
        <ele>169</ele>
        <time>2018-03-31T10:33:28Z</time>
      </trkpt>
      <trkpt lat="45.93197" lon="4.7269">
        <ele>169</ele>
        <time>2018-03-31T10:33:29Z</time>
      </trkpt>
      <trkpt lat="45.93193" lon="4.72695">
        <ele>169</ele>
        <time>2018-03-31T10:33:30Z</time>
      </trkpt>
      <trkpt lat="45.93189" lon="4.72699">
        <ele>169</ele>
        <time>2018-03-31T10:33:31Z</time>
      </trkpt>
      <trkpt lat="45.93185" lon="4.72704">
        <ele>169</ele>
        <time>2018-03-31T10:33:32Z</time>
      </trkpt>
      <trkpt lat="45.93181" lon="4.7271">
        <ele>169</ele>
        <time>2018-03-31T10:33:33Z</time>
      </trkpt>
      <trkpt lat="45.93177" lon="4.72714">
        <ele>169</ele>
        <time>2018-03-31T10:33:34Z</time>
      </trkpt>
      <trkpt lat="45.93172" lon="4.7272">
        <ele>170</ele>
        <time>2018-03-31T10:33:35Z</time>
      </trkpt>
      <trkpt lat="45.93167" lon="4.72725">
        <ele>170</ele>
        <time>2018-03-31T10:33:36Z</time>
      </trkpt>
      <trkpt lat="45.93163" lon="4.7273">
        <ele>170</ele>
        <time>2018-03-31T10:33:37Z</time>
      </trkpt>
      <trkpt lat="45.93158" lon="4.72735">
        <ele>170</ele>
        <time>2018-03-31T10:33:38Z</time>
      </trkpt>
      <trkpt lat="45.93154" lon="4.72741">
        <ele>170</ele>
        <time>2018-03-31T10:33:39Z</time>
      </trkpt>
      <trkpt lat="45.93151" lon="4.72749">
        <ele>170</ele>
        <time>2018-03-31T10:33:40Z</time>
      </trkpt>
      <trkpt lat="45.93146" lon="4.72754">
        <ele>170</ele>
        <time>2018-03-31T10:33:41Z</time>
      </trkpt>
      <trkpt lat="45.93142" lon="4.72761">
        <ele>171</ele>
        <time>2018-03-31T10:33:42Z</time>
      </trkpt>
      <trkpt lat="45.93138" lon="4.72766">
        <ele>171</ele>
        <time>2018-03-31T10:33:43Z</time>
      </trkpt>
      <trkpt lat="45.93134" lon="4.72772">
        <ele>171</ele>
        <time>2018-03-31T10:33:44Z</time>
      </trkpt>
      <trkpt lat="45.93129" lon="4.72777">
        <ele>171</ele>
        <time>2018-03-31T10:33:45Z</time>
      </trkpt>
      <trkpt lat="45.93124" lon="4.72783">
        <ele>171</ele>
        <time>2018-03-31T10:33:46Z</time>
      </trkpt>
      <trkpt lat="45.93121" lon="4.72788">
        <ele>171</ele>
        <time>2018-03-31T10:33:47Z</time>
      </trkpt>
      <trkpt lat="45.93116" lon="4.72793">
        <ele>171</ele>
        <time>2018-03-31T10:33:48Z</time>
      </trkpt>
      <trkpt lat="45.93112" lon="4.72799">
        <ele>171</ele>
        <time>2018-03-31T10:33:49Z</time>
      </trkpt>
      <trkpt lat="45.93107" lon="4.72805">
        <ele>171</ele>
        <time>2018-03-31T10:33:50Z</time>
      </trkpt>
      <trkpt lat="45.93102" lon="4.72809">
        <ele>171</ele>
        <time>2018-03-31T10:33:51Z</time>
      </trkpt>
      <trkpt lat="45.93097" lon="4.72814">
        <ele>172</ele>
        <time>2018-03-31T10:33:52Z</time>
      </trkpt>
      <trkpt lat="45.93093" lon="4.72819">
        <ele>172</ele>
        <time>2018-03-31T10:33:53Z</time>
      </trkpt>
      <trkpt lat="45.93088" lon="4.72824">
        <ele>172</ele>
        <time>2018-03-31T10:33:54Z</time>
      </trkpt>
      <trkpt lat="45.93083" lon="4.72829">
        <ele>173</ele>
        <time>2018-03-31T10:33:55Z</time>
      </trkpt>
      <trkpt lat="45.93079" lon="4.72834">
        <ele>173</ele>
        <time>2018-03-31T10:33:56Z</time>
      </trkpt>
      <trkpt lat="45.93075" lon="4.7284">
        <ele>173</ele>
        <time>2018-03-31T10:33:57Z</time>
      </trkpt>
      <trkpt lat="45.93051" lon="4.72857">
        <ele>172</ele>
        <time>2018-03-31T10:34:03Z</time>
      </trkpt>
      <trkpt lat="45.93046" lon="4.72873">
        <ele>172</ele>
        <time>2018-03-31T10:34:04Z</time>
      </trkpt>
      <trkpt lat="45.93041" lon="4.72876">
        <ele>172</ele>
        <time>2018-03-31T10:34:05Z</time>
      </trkpt>
      <trkpt lat="45.93036" lon="4.72881">
        <ele>172</ele>
        <time>2018-03-31T10:34:06Z</time>
      </trkpt>
      <trkpt lat="45.93031" lon="4.72887">
        <ele>172</ele>
        <time>2018-03-31T10:34:07Z</time>
      </trkpt>
      <trkpt lat="45.93026" lon="4.72893">
        <ele>172</ele>
        <time>2018-03-31T10:34:08Z</time>
      </trkpt>
      <trkpt lat="45.93022" lon="4.72899">
        <ele>172</ele>
        <time>2018-03-31T10:34:09Z</time>
      </trkpt>
      <trkpt lat="45.93017" lon="4.72904">
        <ele>172</ele>
        <time>2018-03-31T10:34:10Z</time>
      </trkpt>
      <trkpt lat="45.93012" lon="4.72909">
        <ele>171</ele>
        <time>2018-03-31T10:34:11Z</time>
      </trkpt>
      <trkpt lat="45.93007" lon="4.72915">
        <ele>171</ele>
        <time>2018-03-31T10:34:12Z</time>
      </trkpt>
      <trkpt lat="45.93002" lon="4.7292">
        <ele>171</ele>
        <time>2018-03-31T10:34:13Z</time>
      </trkpt>
      <trkpt lat="45.92997" lon="4.72924">
        <ele>171</ele>
        <time>2018-03-31T10:34:14Z</time>
      </trkpt>
      <trkpt lat="45.92993" lon="4.72929">
        <ele>171</ele>
        <time>2018-03-31T10:34:15Z</time>
      </trkpt>
      <trkpt lat="45.92988" lon="4.72934">
        <ele>171</ele>
        <time>2018-03-31T10:34:16Z</time>
      </trkpt>
      <trkpt lat="45.92983" lon="4.72939">
        <ele>171</ele>
        <time>2018-03-31T10:34:17Z</time>
      </trkpt>
      <trkpt lat="45.92979" lon="4.72945">
        <ele>171</ele>
        <time>2018-03-31T10:34:18Z</time>
      </trkpt>
      <trkpt lat="45.92974" lon="4.7295">
        <ele>171</ele>
        <time>2018-03-31T10:34:19Z</time>
      </trkpt>
      <trkpt lat="45.92969" lon="4.72954">
        <ele>171</ele>
        <time>2018-03-31T10:34:20Z</time>
      </trkpt>
      <trkpt lat="45.92965" lon="4.7296">
        <ele>171</ele>
        <time>2018-03-31T10:34:21Z</time>
      </trkpt>
      <trkpt lat="45.9296" lon="4.72966">
        <ele>171</ele>
        <time>2018-03-31T10:34:22Z</time>
      </trkpt>
      <trkpt lat="45.92956" lon="4.72972">
        <ele>171</ele>
        <time>2018-03-31T10:34:23Z</time>
      </trkpt>
      <trkpt lat="45.92951" lon="4.72978">
        <ele>171</ele>
        <time>2018-03-31T10:34:24Z</time>
      </trkpt>
      <trkpt lat="45.92946" lon="4.72983">
        <ele>171</ele>
        <time>2018-03-31T10:34:25Z</time>
      </trkpt>
      <trkpt lat="45.92941" lon="4.72989">
        <ele>171</ele>
        <time>2018-03-31T10:34:26Z</time>
      </trkpt>
      <trkpt lat="45.92937" lon="4.72994">
        <ele>171</ele>
        <time>2018-03-31T10:34:27Z</time>
      </trkpt>
      <trkpt lat="45.92933" lon="4.72999">
        <ele>172</ele>
        <time>2018-03-31T10:34:28Z</time>
      </trkpt>
      <trkpt lat="45.92929" lon="4.73004">
        <ele>172</ele>
        <time>2018-03-31T10:34:29Z</time>
      </trkpt>
      <trkpt lat="45.92926" lon="4.73011">
        <ele>172</ele>
        <time>2018-03-31T10:34:30Z</time>
      </trkpt>
      <trkpt lat="45.92922" lon="4.73017">
        <ele>172</ele>
        <time>2018-03-31T10:34:31Z</time>
      </trkpt>
      <trkpt lat="45.92917" lon="4.73023">
        <ele>172</ele>
        <time>2018-03-31T10:34:32Z</time>
      </trkpt>
      <trkpt lat="45.92913" lon="4.73027">
        <ele>172</ele>
        <time>2018-03-31T10:34:33Z</time>
      </trkpt>
      <trkpt lat="45.92909" lon="4.73033">
        <ele>172</ele>
        <time>2018-03-31T10:34:34Z</time>
      </trkpt>
      <trkpt lat="45.92905" lon="4.73037">
        <ele>172</ele>
        <time>2018-03-31T10:34:35Z</time>
      </trkpt>
      <trkpt lat="45.92901" lon="4.73044">
        <ele>172</ele>
        <time>2018-03-31T10:34:36Z</time>
      </trkpt>
      <trkpt lat="45.92897" lon="4.7305">
        <ele>172</ele>
        <time>2018-03-31T10:34:37Z</time>
      </trkpt>
      <trkpt lat="45.92893" lon="4.73055">
        <ele>172</ele>
        <time>2018-03-31T10:34:38Z</time>
      </trkpt>
      <trkpt lat="45.92889" lon="4.73061">
        <ele>172</ele>
        <time>2018-03-31T10:34:39Z</time>
      </trkpt>
      <trkpt lat="45.92885" lon="4.73067">
        <ele>172</ele>
        <time>2018-03-31T10:34:40Z</time>
      </trkpt>
      <trkpt lat="45.92882" lon="4.73072">
        <ele>172</ele>
        <time>2018-03-31T10:34:41Z</time>
      </trkpt>
      <trkpt lat="45.92878" lon="4.73077">
        <ele>172</ele>
        <time>2018-03-31T10:34:42Z</time>
      </trkpt>
      <trkpt lat="45.92874" lon="4.73083">
        <ele>172</ele>
        <time>2018-03-31T10:34:43Z</time>
      </trkpt>
      <trkpt lat="45.9287" lon="4.73088">
        <ele>172</ele>
        <time>2018-03-31T10:34:44Z</time>
      </trkpt>
      <trkpt lat="45.92866" lon="4.73094">
        <ele>172</ele>
        <time>2018-03-31T10:34:45Z</time>
      </trkpt>
      <trkpt lat="45.92862" lon="4.73099">
        <ele>171</ele>
        <time>2018-03-31T10:34:46Z</time>
      </trkpt>
      <trkpt lat="45.92858" lon="4.73104">
        <ele>171</ele>
        <time>2018-03-31T10:34:47Z</time>
      </trkpt>
      <trkpt lat="45.92854" lon="4.73108">
        <ele>171</ele>
        <time>2018-03-31T10:34:48Z</time>
      </trkpt>
      <trkpt lat="45.92845" lon="4.73104">
        <ele>171</ele>
        <time>2018-03-31T10:34:50Z</time>
      </trkpt>
      <trkpt lat="45.92844" lon="4.731">
        <ele>171</ele>
        <time>2018-03-31T10:34:51Z</time>
      </trkpt>
      <trkpt lat="45.92843" lon="4.73094">
        <ele>171</ele>
        <time>2018-03-31T10:34:52Z</time>
      </trkpt>
      <trkpt lat="45.92842" lon="4.73087">
        <ele>171</ele>
        <time>2018-03-31T10:34:53Z</time>
      </trkpt>
      <trkpt lat="45.92842" lon="4.7308">
        <ele>171</ele>
        <time>2018-03-31T10:34:54Z</time>
      </trkpt>
      <trkpt lat="45.92841" lon="4.73073">
        <ele>171</ele>
        <time>2018-03-31T10:34:55Z</time>
      </trkpt>
      <trkpt lat="45.9284" lon="4.73065">
        <ele>171</ele>
        <time>2018-03-31T10:34:56Z</time>
      </trkpt>
      <trkpt lat="45.92839" lon="4.73056">
        <ele>171</ele>
        <time>2018-03-31T10:34:57Z</time>
      </trkpt>
      <trkpt lat="45.92837" lon="4.73049">
        <ele>171</ele>
        <time>2018-03-31T10:34:58Z</time>
      </trkpt>
      <trkpt lat="45.92836" lon="4.7304">
        <ele>171</ele>
        <time>2018-03-31T10:34:59Z</time>
      </trkpt>
      <trkpt lat="45.92835" lon="4.73033">
        <ele>171</ele>
        <time>2018-03-31T10:35:00Z</time>
      </trkpt>
      <trkpt lat="45.92834" lon="4.73026">
        <ele>171</ele>
        <time>2018-03-31T10:35:01Z</time>
      </trkpt>
      <trkpt lat="45.92833" lon="4.73017">
        <ele>170</ele>
        <time>2018-03-31T10:35:02Z</time>
      </trkpt>
      <trkpt lat="45.92832" lon="4.73011">
        <ele>170</ele>
        <time>2018-03-31T10:35:03Z</time>
      </trkpt>
      <trkpt lat="45.92832" lon="4.73004">
        <ele>170</ele>
        <time>2018-03-31T10:35:04Z</time>
      </trkpt>
      <trkpt lat="45.92831" lon="4.72998">
        <ele>170</ele>
        <time>2018-03-31T10:35:05Z</time>
      </trkpt>
      <trkpt lat="45.92829" lon="4.7299">
        <ele>170</ele>
        <time>2018-03-31T10:35:06Z</time>
      </trkpt>
      <trkpt lat="45.92829" lon="4.72983">
        <ele>170</ele>
        <time>2018-03-31T10:35:07Z</time>
      </trkpt>
      <trkpt lat="45.92829" lon="4.72975">
        <ele>170</ele>
        <time>2018-03-31T10:35:08Z</time>
      </trkpt>
      <trkpt lat="45.92828" lon="4.72967">
        <ele>170</ele>
        <time>2018-03-31T10:35:09Z</time>
      </trkpt>
      <trkpt lat="45.92827" lon="4.7296">
        <ele>170</ele>
        <time>2018-03-31T10:35:10Z</time>
      </trkpt>
      <trkpt lat="45.92827" lon="4.72952">
        <ele>170</ele>
        <time>2018-03-31T10:35:11Z</time>
      </trkpt>
      <trkpt lat="45.92827" lon="4.72943">
        <ele>170</ele>
        <time>2018-03-31T10:35:12Z</time>
      </trkpt>
      <trkpt lat="45.92826" lon="4.72935">
        <ele>170</ele>
        <time>2018-03-31T10:35:13Z</time>
      </trkpt>
      <trkpt lat="45.92825" lon="4.72927">
        <ele>170</ele>
        <time>2018-03-31T10:35:14Z</time>
      </trkpt>
      <trkpt lat="45.92823" lon="4.72918">
        <ele>170</ele>
        <time>2018-03-31T10:35:15Z</time>
      </trkpt>
      <trkpt lat="45.92823" lon="4.7291">
        <ele>170</ele>
        <time>2018-03-31T10:35:16Z</time>
      </trkpt>
      <trkpt lat="45.92821" lon="4.72902">
        <ele>170</ele>
        <time>2018-03-31T10:35:17Z</time>
      </trkpt>
      <trkpt lat="45.9282" lon="4.72894">
        <ele>170</ele>
        <time>2018-03-31T10:35:18Z</time>
      </trkpt>
      <trkpt lat="45.92818" lon="4.72885">
        <ele>170</ele>
        <time>2018-03-31T10:35:19Z</time>
      </trkpt>
      <trkpt lat="45.92817" lon="4.72878">
        <ele>170</ele>
        <time>2018-03-31T10:35:20Z</time>
      </trkpt>
      <trkpt lat="45.92815" lon="4.7287">
        <ele>170</ele>
        <time>2018-03-31T10:35:21Z</time>
      </trkpt>
      <trkpt lat="45.92812" lon="4.72858">
        <ele>170</ele>
        <time>2018-03-31T10:35:23Z</time>
      </trkpt>
      <trkpt lat="45.92811" lon="4.72852">
        <ele>170</ele>
        <time>2018-03-31T10:35:24Z</time>
      </trkpt>
      <trkpt lat="45.92809" lon="4.72845">
        <ele>170</ele>
        <time>2018-03-31T10:35:25Z</time>
      </trkpt>
      <trkpt lat="45.92808" lon="4.72837">
        <ele>170</ele>
        <time>2018-03-31T10:35:26Z</time>
      </trkpt>
      <trkpt lat="45.92807" lon="4.72831">
        <ele>171</ele>
        <time>2018-03-31T10:35:27Z</time>
      </trkpt>
      <trkpt lat="45.92805" lon="4.72823">
        <ele>171</ele>
        <time>2018-03-31T10:35:28Z</time>
      </trkpt>
      <trkpt lat="45.92804" lon="4.72816">
        <ele>171</ele>
        <time>2018-03-31T10:35:29Z</time>
      </trkpt>
      <trkpt lat="45.92803" lon="4.7281">
        <ele>171</ele>
        <time>2018-03-31T10:35:30Z</time>
      </trkpt>
      <trkpt lat="45.92801" lon="4.72803">
        <ele>171</ele>
        <time>2018-03-31T10:35:31Z</time>
      </trkpt>
      <trkpt lat="45.92799" lon="4.72798">
        <ele>171</ele>
        <time>2018-03-31T10:35:32Z</time>
      </trkpt>
      <trkpt lat="45.92791" lon="4.72793">
        <ele>170</ele>
        <time>2018-03-31T10:35:34Z</time>
      </trkpt>
      <trkpt lat="45.92787" lon="4.72796">
        <ele>170</ele>
        <time>2018-03-31T10:35:35Z</time>
      </trkpt>
      <trkpt lat="45.9278" lon="4.72801">
        <ele>170</ele>
        <time>2018-03-31T10:35:37Z</time>
      </trkpt>
      <trkpt lat="45.92776" lon="4.72804">
        <ele>170</ele>
        <time>2018-03-31T10:35:38Z</time>
      </trkpt>
      <trkpt lat="45.92771" lon="4.72807">
        <ele>170</ele>
        <time>2018-03-31T10:35:39Z</time>
      </trkpt>
      <trkpt lat="45.92767" lon="4.7281">
        <ele>170</ele>
        <time>2018-03-31T10:35:40Z</time>
      </trkpt>
      <trkpt lat="45.92763" lon="4.72813">
        <ele>170</ele>
        <time>2018-03-31T10:35:41Z</time>
      </trkpt>
      <trkpt lat="45.92758" lon="4.72816">
        <ele>170</ele>
        <time>2018-03-31T10:35:42Z</time>
      </trkpt>
      <trkpt lat="45.92753" lon="4.72819">
        <ele>170</ele>
        <time>2018-03-31T10:35:43Z</time>
      </trkpt>
      <trkpt lat="45.92749" lon="4.72823">
        <ele>169</ele>
        <time>2018-03-31T10:35:44Z</time>
      </trkpt>
      <trkpt lat="45.92744" lon="4.72826">
        <ele>169</ele>
        <time>2018-03-31T10:35:45Z</time>
      </trkpt>
      <trkpt lat="45.9274" lon="4.7283">
        <ele>169</ele>
        <time>2018-03-31T10:35:46Z</time>
      </trkpt>
      <trkpt lat="45.92735" lon="4.72833">
        <ele>169</ele>
        <time>2018-03-31T10:35:47Z</time>
      </trkpt>
      <trkpt lat="45.92731" lon="4.72837">
        <ele>169</ele>
        <time>2018-03-31T10:35:48Z</time>
      </trkpt>
      <trkpt lat="45.92726" lon="4.7284">
        <ele>169</ele>
        <time>2018-03-31T10:35:49Z</time>
      </trkpt>
      <trkpt lat="45.92723" lon="4.72844">
        <ele>169</ele>
        <time>2018-03-31T10:35:50Z</time>
      </trkpt>
      <trkpt lat="45.92718" lon="4.72847">
        <ele>169</ele>
        <time>2018-03-31T10:35:51Z</time>
      </trkpt>
      <trkpt lat="45.92714" lon="4.7285">
        <ele>169</ele>
        <time>2018-03-31T10:35:52Z</time>
      </trkpt>
      <trkpt lat="45.9271" lon="4.72854">
        <ele>169</ele>
        <time>2018-03-31T10:35:53Z</time>
      </trkpt>
      <trkpt lat="45.92706" lon="4.72857">
        <ele>169</ele>
        <time>2018-03-31T10:35:54Z</time>
      </trkpt>
      <trkpt lat="45.92701" lon="4.72861">
        <ele>169</ele>
        <time>2018-03-31T10:35:55Z</time>
      </trkpt>
      <trkpt lat="45.92698" lon="4.72864">
        <ele>169</ele>
        <time>2018-03-31T10:35:56Z</time>
      </trkpt>
      <trkpt lat="45.92694" lon="4.72866">
        <ele>169</ele>
        <time>2018-03-31T10:35:57Z</time>
      </trkpt>
      <trkpt lat="45.9269" lon="4.72871">
        <ele>169</ele>
        <time>2018-03-31T10:35:58Z</time>
      </trkpt>
      <trkpt lat="45.92683" lon="4.72876">
        <ele>170</ele>
        <time>2018-03-31T10:36:00Z</time>
      </trkpt>
      <trkpt lat="45.92678" lon="4.72878">
        <ele>170</ele>
        <time>2018-03-31T10:36:01Z</time>
      </trkpt>
      <trkpt lat="45.9267" lon="4.72885">
        <ele>170</ele>
        <time>2018-03-31T10:36:03Z</time>
      </trkpt>
      <trkpt lat="45.92666" lon="4.72887">
        <ele>169</ele>
        <time>2018-03-31T10:36:04Z</time>
      </trkpt>
      <trkpt lat="45.92662" lon="4.7289">
        <ele>169</ele>
        <time>2018-03-31T10:36:05Z</time>
      </trkpt>
      <trkpt lat="45.92657" lon="4.72894">
        <ele>170</ele>
        <time>2018-03-31T10:36:06Z</time>
      </trkpt>
      <trkpt lat="45.92653" lon="4.72899">
        <ele>170</ele>
        <time>2018-03-31T10:36:07Z</time>
      </trkpt>
      <trkpt lat="45.92649" lon="4.72904">
        <ele>170</ele>
        <time>2018-03-31T10:36:08Z</time>
      </trkpt>
      <trkpt lat="45.92645" lon="4.72908">
        <ele>170</ele>
        <time>2018-03-31T10:36:09Z</time>
      </trkpt>
      <trkpt lat="45.92641" lon="4.72911">
        <ele>169</ele>
        <time>2018-03-31T10:36:10Z</time>
      </trkpt>
      <trkpt lat="45.92636" lon="4.72913">
        <ele>169</ele>
        <time>2018-03-31T10:36:11Z</time>
      </trkpt>
      <trkpt lat="45.92632" lon="4.72917">
        <ele>169</ele>
        <time>2018-03-31T10:36:12Z</time>
      </trkpt>
      <trkpt lat="45.92627" lon="4.7292">
        <ele>170</ele>
        <time>2018-03-31T10:36:13Z</time>
      </trkpt>
      <trkpt lat="45.92622" lon="4.72923">
        <ele>169</ele>
        <time>2018-03-31T10:36:14Z</time>
      </trkpt>
      <trkpt lat="45.92617" lon="4.72926">
        <ele>169</ele>
        <time>2018-03-31T10:36:15Z</time>
      </trkpt>
      <trkpt lat="45.92614" lon="4.72931">
        <ele>169</ele>
        <time>2018-03-31T10:36:16Z</time>
      </trkpt>
      <trkpt lat="45.92609" lon="4.72937">
        <ele>169</ele>
        <time>2018-03-31T10:36:17Z</time>
      </trkpt>
      <trkpt lat="45.92604" lon="4.72941">
        <ele>169</ele>
        <time>2018-03-31T10:36:18Z</time>
      </trkpt>
      <trkpt lat="45.926" lon="4.72946">
        <ele>169</ele>
        <time>2018-03-31T10:36:19Z</time>
      </trkpt>
      <trkpt lat="45.92595" lon="4.72952">
        <ele>169</ele>
        <time>2018-03-31T10:36:20Z</time>
      </trkpt>
      <trkpt lat="45.92591" lon="4.72957">
        <ele>169</ele>
        <time>2018-03-31T10:36:21Z</time>
      </trkpt>
      <trkpt lat="45.92586" lon="4.72963">
        <ele>169</ele>
        <time>2018-03-31T10:36:22Z</time>
      </trkpt>
      <trkpt lat="45.92582" lon="4.7297">
        <ele>169</ele>
        <time>2018-03-31T10:36:23Z</time>
      </trkpt>
      <trkpt lat="45.92578" lon="4.72975">
        <ele>169</ele>
        <time>2018-03-31T10:36:24Z</time>
      </trkpt>
      <trkpt lat="45.92573" lon="4.72979">
        <ele>169</ele>
        <time>2018-03-31T10:36:25Z</time>
      </trkpt>
      <trkpt lat="45.92569" lon="4.72984">
        <ele>169</ele>
        <time>2018-03-31T10:36:26Z</time>
      </trkpt>
      <trkpt lat="45.92564" lon="4.7299">
        <ele>169</ele>
        <time>2018-03-31T10:36:27Z</time>
      </trkpt>
      <trkpt lat="45.92559" lon="4.72995">
        <ele>169</ele>
        <time>2018-03-31T10:36:28Z</time>
      </trkpt>
      <trkpt lat="45.92554" lon="4.72999">
        <ele>169</ele>
        <time>2018-03-31T10:36:29Z</time>
      </trkpt>
      <trkpt lat="45.92549" lon="4.73004">
        <ele>169</ele>
        <time>2018-03-31T10:36:30Z</time>
      </trkpt>
      <trkpt lat="45.92544" lon="4.73008">
        <ele>169</ele>
        <time>2018-03-31T10:36:31Z</time>
      </trkpt>
      <trkpt lat="45.92539" lon="4.73013">
        <ele>169</ele>
        <time>2018-03-31T10:36:32Z</time>
      </trkpt>
      <trkpt lat="45.92534" lon="4.73016">
        <ele>169</ele>
        <time>2018-03-31T10:36:33Z</time>
      </trkpt>
      <trkpt lat="45.92529" lon="4.7302">
        <ele>169</ele>
        <time>2018-03-31T10:36:34Z</time>
      </trkpt>
      <trkpt lat="45.92523" lon="4.73025">
        <ele>169</ele>
        <time>2018-03-31T10:36:35Z</time>
      </trkpt>
      <trkpt lat="45.92518" lon="4.73029">
        <ele>169</ele>
        <time>2018-03-31T10:36:36Z</time>
      </trkpt>
      <trkpt lat="45.92513" lon="4.73034">
        <ele>169</ele>
        <time>2018-03-31T10:36:37Z</time>
      </trkpt>
      <trkpt lat="45.92508" lon="4.73039">
        <ele>169</ele>
        <time>2018-03-31T10:36:38Z</time>
      </trkpt>
      <trkpt lat="45.92503" lon="4.73044">
        <ele>170</ele>
        <time>2018-03-31T10:36:39Z</time>
      </trkpt>
      <trkpt lat="45.92499" lon="4.73051">
        <ele>170</ele>
        <time>2018-03-31T10:36:40Z</time>
      </trkpt>
      <trkpt lat="45.92493" lon="4.73055">
        <ele>170</ele>
        <time>2018-03-31T10:36:41Z</time>
      </trkpt>
      <trkpt lat="45.92488" lon="4.7306">
        <ele>170</ele>
        <time>2018-03-31T10:36:42Z</time>
      </trkpt>
      <trkpt lat="45.92482" lon="4.73065">
        <ele>170</ele>
        <time>2018-03-31T10:36:43Z</time>
      </trkpt>
      <trkpt lat="45.92476" lon="4.7307">
        <ele>170</ele>
        <time>2018-03-31T10:36:44Z</time>
      </trkpt>
      <trkpt lat="45.9247" lon="4.73074">
        <ele>170</ele>
        <time>2018-03-31T10:36:45Z</time>
      </trkpt>
      <trkpt lat="45.92465" lon="4.73078">
        <ele>170</ele>
        <time>2018-03-31T10:36:46Z</time>
      </trkpt>
      <trkpt lat="45.9246" lon="4.73084">
        <ele>170</ele>
        <time>2018-03-31T10:36:47Z</time>
      </trkpt>
      <trkpt lat="45.92455" lon="4.7309">
        <ele>170</ele>
        <time>2018-03-31T10:36:48Z</time>
      </trkpt>
      <trkpt lat="45.9245" lon="4.73094">
        <ele>170</ele>
        <time>2018-03-31T10:36:49Z</time>
      </trkpt>
      <trkpt lat="45.92445" lon="4.73098">
        <ele>170</ele>
        <time>2018-03-31T10:36:50Z</time>
      </trkpt>
      <trkpt lat="45.9244" lon="4.73103">
        <ele>170</ele>
        <time>2018-03-31T10:36:51Z</time>
      </trkpt>
      <trkpt lat="45.92435" lon="4.73107">
        <ele>170</ele>
        <time>2018-03-31T10:36:52Z</time>
      </trkpt>
      <trkpt lat="45.9243" lon="4.73111">
        <ele>170</ele>
        <time>2018-03-31T10:36:53Z</time>
      </trkpt>
      <trkpt lat="45.92426" lon="4.73115">
        <ele>170</ele>
        <time>2018-03-31T10:36:54Z</time>
      </trkpt>
      <trkpt lat="45.92421" lon="4.73119">
        <ele>170</ele>
        <time>2018-03-31T10:36:55Z</time>
      </trkpt>
      <trkpt lat="45.92416" lon="4.73123">
        <ele>171</ele>
        <time>2018-03-31T10:36:56Z</time>
      </trkpt>
      <trkpt lat="45.92412" lon="4.73128">
        <ele>171</ele>
        <time>2018-03-31T10:36:57Z</time>
      </trkpt>
      <trkpt lat="45.92409" lon="4.73135">
        <ele>171</ele>
        <time>2018-03-31T10:36:58Z</time>
      </trkpt>
      <trkpt lat="45.92408" lon="4.73143">
        <ele>171</ele>
        <time>2018-03-31T10:36:59Z</time>
      </trkpt>
      <trkpt lat="45.92407" lon="4.7315">
        <ele>171</ele>
        <time>2018-03-31T10:37:00Z</time>
      </trkpt>
      <trkpt lat="45.92407" lon="4.73158">
        <ele>170</ele>
        <time>2018-03-31T10:37:01Z</time>
      </trkpt>
      <trkpt lat="45.92407" lon="4.73165">
        <ele>170</ele>
        <time>2018-03-31T10:37:02Z</time>
      </trkpt>
      <trkpt lat="45.92407" lon="4.73172">
        <ele>170</ele>
        <time>2018-03-31T10:37:03Z</time>
      </trkpt>
      <trkpt lat="45.92407" lon="4.73179">
        <ele>171</ele>
        <time>2018-03-31T10:37:04Z</time>
      </trkpt>
      <trkpt lat="45.92407" lon="4.73187">
        <ele>171</ele>
        <time>2018-03-31T10:37:05Z</time>
      </trkpt>
      <trkpt lat="45.92408" lon="4.73196">
        <ele>171</ele>
        <time>2018-03-31T10:37:06Z</time>
      </trkpt>
      <trkpt lat="45.92408" lon="4.73203">
        <ele>171</ele>
        <time>2018-03-31T10:37:07Z</time>
      </trkpt>
      <trkpt lat="45.92407" lon="4.73211">
        <ele>171</ele>
        <time>2018-03-31T10:37:08Z</time>
      </trkpt>
      <trkpt lat="45.92408" lon="4.73219">
        <ele>171</ele>
        <time>2018-03-31T10:37:09Z</time>
      </trkpt>
      <trkpt lat="45.92408" lon="4.73228">
        <ele>171</ele>
        <time>2018-03-31T10:37:10Z</time>
      </trkpt>
      <trkpt lat="45.92409" lon="4.73234">
        <ele>171</ele>
        <time>2018-03-31T10:37:11Z</time>
      </trkpt>
      <trkpt lat="45.92409" lon="4.73241">
        <ele>171</ele>
        <time>2018-03-31T10:37:12Z</time>
      </trkpt>
      <trkpt lat="45.9241" lon="4.73248">
        <ele>171</ele>
        <time>2018-03-31T10:37:13Z</time>
      </trkpt>
      <trkpt lat="45.9241" lon="4.73255">
        <ele>171</ele>
        <time>2018-03-31T10:37:14Z</time>
      </trkpt>
      <trkpt lat="45.9241" lon="4.73263">
        <ele>171</ele>
        <time>2018-03-31T10:37:15Z</time>
      </trkpt>
      <trkpt lat="45.9241" lon="4.73271">
        <ele>171</ele>
        <time>2018-03-31T10:37:16Z</time>
      </trkpt>
      <trkpt lat="45.9241" lon="4.73278">
        <ele>171</ele>
        <time>2018-03-31T10:37:17Z</time>
      </trkpt>
      <trkpt lat="45.92411" lon="4.73285">
        <ele>171</ele>
        <time>2018-03-31T10:37:18Z</time>
      </trkpt>
      <trkpt lat="45.92411" lon="4.73292">
        <ele>171</ele>
        <time>2018-03-31T10:37:19Z</time>
      </trkpt>
      <trkpt lat="45.92412" lon="4.73299">
        <ele>171</ele>
        <time>2018-03-31T10:37:20Z</time>
      </trkpt>
      <trkpt lat="45.92413" lon="4.73306">
        <ele>171</ele>
        <time>2018-03-31T10:37:21Z</time>
      </trkpt>
      <trkpt lat="45.92413" lon="4.73313">
        <ele>171</ele>
        <time>2018-03-31T10:37:22Z</time>
      </trkpt>
      <trkpt lat="45.92414" lon="4.73321">
        <ele>171</ele>
        <time>2018-03-31T10:37:23Z</time>
      </trkpt>
      <trkpt lat="45.92414" lon="4.73329">
        <ele>171</ele>
        <time>2018-03-31T10:37:24Z</time>
      </trkpt>
      <trkpt lat="45.92415" lon="4.73337">
        <ele>171</ele>
        <time>2018-03-31T10:37:25Z</time>
      </trkpt>
      <trkpt lat="45.92415" lon="4.73344">
        <ele>171</ele>
        <time>2018-03-31T10:37:26Z</time>
      </trkpt>
      <trkpt lat="45.92416" lon="4.73353">
        <ele>171</ele>
        <time>2018-03-31T10:37:27Z</time>
      </trkpt>
      <trkpt lat="45.92417" lon="4.7336">
        <ele>171</ele>
        <time>2018-03-31T10:37:28Z</time>
      </trkpt>
      <trkpt lat="45.92419" lon="4.73367">
        <ele>172</ele>
        <time>2018-03-31T10:37:29Z</time>
      </trkpt>
      <trkpt lat="45.9242" lon="4.73375">
        <ele>172</ele>
        <time>2018-03-31T10:37:30Z</time>
      </trkpt>
      <trkpt lat="45.92422" lon="4.73381">
        <ele>172</ele>
        <time>2018-03-31T10:37:31Z</time>
      </trkpt>
      <trkpt lat="45.92423" lon="4.73388">
        <ele>172</ele>
        <time>2018-03-31T10:37:32Z</time>
      </trkpt>
      <trkpt lat="45.92424" lon="4.73396">
        <ele>172</ele>
        <time>2018-03-31T10:37:33Z</time>
      </trkpt>
      <trkpt lat="45.92427" lon="4.73402">
        <ele>172</ele>
        <time>2018-03-31T10:37:34Z</time>
      </trkpt>
      <trkpt lat="45.9243" lon="4.73407">
        <ele>172</ele>
        <time>2018-03-31T10:37:35Z</time>
      </trkpt>
      <trkpt lat="45.92434" lon="4.73411">
        <ele>172</ele>
        <time>2018-03-31T10:37:36Z</time>
      </trkpt>
      <trkpt lat="45.92438" lon="4.73415">
        <ele>172</ele>
        <time>2018-03-31T10:37:37Z</time>
      </trkpt>
      <trkpt lat="45.92443" lon="4.73419">
        <ele>173</ele>
        <time>2018-03-31T10:37:38Z</time>
      </trkpt>
      <trkpt lat="45.92451" lon="4.73425">
        <ele>173</ele>
        <time>2018-03-31T10:37:40Z</time>
      </trkpt>
      <trkpt lat="45.92454" lon="4.73428">
        <ele>173</ele>
        <time>2018-03-31T10:37:41Z</time>
      </trkpt>
      <trkpt lat="45.92457" lon="4.73434">
        <ele>173</ele>
        <time>2018-03-31T10:37:42Z</time>
      </trkpt>
      <trkpt lat="45.9246" lon="4.7344">
        <ele>173</ele>
        <time>2018-03-31T10:37:43Z</time>
      </trkpt>
      <trkpt lat="45.92462" lon="4.73448">
        <ele>173</ele>
        <time>2018-03-31T10:37:44Z</time>
      </trkpt>
      <trkpt lat="45.92464" lon="4.73455">
        <ele>173</ele>
        <time>2018-03-31T10:37:45Z</time>
      </trkpt>
      <trkpt lat="45.92465" lon="4.73462">
        <ele>173</ele>
        <time>2018-03-31T10:37:46Z</time>
      </trkpt>
      <trkpt lat="45.92466" lon="4.7347">
        <ele>173</ele>
        <time>2018-03-31T10:37:47Z</time>
      </trkpt>
      <trkpt lat="45.92466" lon="4.73477">
        <ele>173</ele>
        <time>2018-03-31T10:37:48Z</time>
      </trkpt>
      <trkpt lat="45.92467" lon="4.73484">
        <ele>173</ele>
        <time>2018-03-31T10:37:49Z</time>
      </trkpt>
      <trkpt lat="45.92466" lon="4.73491">
        <ele>173</ele>
        <time>2018-03-31T10:37:50Z</time>
      </trkpt>
      <trkpt lat="45.92465" lon="4.73499">
        <ele>173</ele>
        <time>2018-03-31T10:37:51Z</time>
      </trkpt>
      <trkpt lat="45.92465" lon="4.73507">
        <ele>174</ele>
        <time>2018-03-31T10:37:52Z</time>
      </trkpt>
      <trkpt lat="45.92465" lon="4.73515">
        <ele>174</ele>
        <time>2018-03-31T10:37:53Z</time>
      </trkpt>
      <trkpt lat="45.92463" lon="4.73528">
        <ele>174</ele>
        <time>2018-03-31T10:37:55Z</time>
      </trkpt>
      <trkpt lat="45.92464" lon="4.73534">
        <ele>174</ele>
        <time>2018-03-31T10:37:56Z</time>
      </trkpt>
      <trkpt lat="45.92464" lon="4.7354">
        <ele>174</ele>
        <time>2018-03-31T10:37:57Z</time>
      </trkpt>
      <trkpt lat="45.92464" lon="4.73547">
        <ele>173</ele>
        <time>2018-03-31T10:37:58Z</time>
      </trkpt>
      <trkpt lat="45.92464" lon="4.73554">
        <ele>173</ele>
        <time>2018-03-31T10:37:59Z</time>
      </trkpt>
      <trkpt lat="45.92464" lon="4.73563">
        <ele>173</ele>
        <time>2018-03-31T10:38:00Z</time>
      </trkpt>
      <trkpt lat="45.92465" lon="4.73571">
        <ele>173</ele>
        <time>2018-03-31T10:38:01Z</time>
      </trkpt>
      <trkpt lat="45.92465" lon="4.73578">
        <ele>173</ele>
        <time>2018-03-31T10:38:02Z</time>
      </trkpt>
      <trkpt lat="45.92466" lon="4.73586">
        <ele>174</ele>
        <time>2018-03-31T10:38:03Z</time>
      </trkpt>
      <trkpt lat="45.92465" lon="4.73596">
        <ele>174</ele>
        <time>2018-03-31T10:38:04Z</time>
      </trkpt>
      <trkpt lat="45.92465" lon="4.73604">
        <ele>174</ele>
        <time>2018-03-31T10:38:05Z</time>
      </trkpt>
      <trkpt lat="45.92466" lon="4.73612">
        <ele>174</ele>
        <time>2018-03-31T10:38:06Z</time>
      </trkpt>
      <trkpt lat="45.92466" lon="4.7362">
        <ele>174</ele>
        <time>2018-03-31T10:38:07Z</time>
      </trkpt>
      <trkpt lat="45.92465" lon="4.73627">
        <ele>174</ele>
        <time>2018-03-31T10:38:08Z</time>
      </trkpt>
      <trkpt lat="45.92465" lon="4.73635">
        <ele>174</ele>
        <time>2018-03-31T10:38:09Z</time>
      </trkpt>
      <trkpt lat="45.92465" lon="4.73642">
        <ele>174</ele>
        <time>2018-03-31T10:38:10Z</time>
      </trkpt>
      <trkpt lat="45.92464" lon="4.73648">
        <ele>174</ele>
        <time>2018-03-31T10:38:11Z</time>
      </trkpt>
      <trkpt lat="45.92465" lon="4.73655">
        <ele>174</ele>
        <time>2018-03-31T10:38:12Z</time>
      </trkpt>
      <trkpt lat="45.92465" lon="4.73667">
        <ele>174</ele>
        <time>2018-03-31T10:38:14Z</time>
      </trkpt>
      <trkpt lat="45.92464" lon="4.73673">
        <ele>174</ele>
        <time>2018-03-31T10:38:15Z</time>
      </trkpt>
      <trkpt lat="45.92464" lon="4.73682">
        <ele>174</ele>
        <time>2018-03-31T10:38:17Z</time>
      </trkpt>
      <trkpt lat="45.92463" lon="4.7369">
        <ele>174</ele>
        <time>2018-03-31T10:38:18Z</time>
      </trkpt>
      <trkpt lat="45.92463" lon="4.73701">
        <ele>174</ele>
        <time>2018-03-31T10:38:21Z</time>
      </trkpt>
      <trkpt lat="45.92463" lon="4.73704">
        <ele>174</ele>
        <time>2018-03-31T10:38:22Z</time>
      </trkpt>
      <trkpt lat="45.92461" lon="4.73716">
        <ele>174</ele>
        <time>2018-03-31T10:39:05.978Z</time>
      </trkpt>
    </trkseg>
  </trk>
</gpx>